GFSWCAN_sfc_wetblb_000.txt.gz
Wetbulb
50.45 50.06 50.17 50.13 50.15 50.13 50.43 50.54 50.64 50.95 50.93 50.95 50.53 50.26 50.52 50.49 51.08 54.70 59.82 62.30 58.10 50.94 52.35 53.98 53.89 51.04 50.85 50.58 47.81 49.15 47.56 49.80 44.50 36.59 35.69 37.44 35.14 39.09 38.57 39.70 37.78 35.90 34.45 33.30 32.97 31.46 30.20 47.27 46.22 36.80 42.50 46.72 45.98 45.40
49.79 49.42 49.39 49.17 49.14 49.46 49.77 50.09 50.11 50.23 50.38 50.32 50.23 49.97 50.22 50.31 50.58 51.73 55.04 61.40 60.29 54.87 52.91 57.15 57.10 57.80 55.76 54.27 51.11 51.25 47.62 47.91 47.75 42.93 39.38 38.77 34.96 36.05 34.96 32.19 41.91 34.51 38.99 37.15 37.95 37.65 45.53 47.77 46.28 48.35 47.74 46.05 46.04 45.94
48.41 48.78 48.91 49.00 48.63 48.70 49.21 49.26 49.44 49.62 49.75 50.05 49.96 50.03 50.15 50.36 50.48 52.17 55.70 58.60 55.74 41.13 50.12 51.52 51.36 56.41 58.28 57.27 58.88 49.12 52.16 51.30 49.67 52.09 47.09 36.59 33.87 41.06 33.68 35.65 36.62 41.35 44.27 38.68 38.41 41.95 44.07 45.93 47.87 48.19 48.61 46.43 46.65 46.87
48.03 48.32 48.52 48.44 48.41 48.41 48.48 48.50 48.50 48.66 48.97 49.11 49.26 49.36 49.33 49.95 50.35 51.20 53.95 57.86 54.66 43.45 33.87 43.61 54.45 53.15 57.11 57.10 56.76 55.99 53.91 54.07 52.99 51.38 40.58 35.32 33.69 41.50 35.66 38.61 38.11 41.36 42.11 38.80 38.26 42.45 44.42 45.86 47.33 47.53 47.29 47.53 45.94 46.33
47.77 47.74 48.04 48.59 48.16 48.00 48.19 48.16 47.87 48.12 48.55 48.86 49.00 49.18 49.49 49.77 50.06 51.50 53.61 56.06 56.44 49.62 37.86 40.48 47.59 52.97 54.60 55.44 54.07 54.51 53.20 51.28 49.42 43.46 36.23 35.51 42.83 39.84 41.84 38.90 37.25 42.10 39.97 37.70 36.30 43.65 43.65 44.44 47.67 48.43 45.73 45.12 45.84 44.26
46.98 47.59 47.59 47.83 48.48 48.16 47.66 47.60 47.63 47.83 48.12 48.55 48.84 49.53 49.36 49.31 49.44 49.53 44.34 51.43 52.68 52.79 39.68 34.06 45.47 45.76 51.22 52.61 51.88 51.61 51.93 51.09 49.91 45.78 38.39 43.24 45.56 39.43 33.69 35.71 42.19 45.28 45.97 46.81 43.50 47.13 46.80 47.75 47.12 46.85 45.25 44.70 44.48 42.75
46.43 47.27 47.38 47.18 46.97 47.07 47.16 47.56 47.56 47.58 47.78 47.96 48.43 48.70 49.02 48.75 50.22 45.93 42.85 47.67 50.67 52.36 35.14 35.32 39.87 43.64 46.83 48.44 49.53 49.47 51.27 49.31 47.98 44.51 39.46 39.10 39.31 41.68 33.68 34.65 42.13 44.98 46.22 46.54 47.49 46.78 42.70 44.61 43.70 45.66 44.83 43.99 43.75 43.25
46.31 47.14 47.04 46.75 46.48 46.50 46.34 46.66 47.22 47.58 47.78 47.98 48.21 48.30 48.90 48.72 47.98 44.36 47.18 48.52 49.82 44.03 38.19 34.42 34.06 36.77 44.78 42.60 40.65 44.86 42.55 41.60 41.37 40.28 38.65 37.48 40.98 37.48 34.34 41.00 43.77 45.42 45.84 46.14 45.26 46.24 45.11 44.08 43.62 42.62 43.15 42.67 41.30 40.21
45.93 46.04 46.43 46.21 46.02 45.98 46.04 46.32 46.73 47.24 47.43 47.63 47.56 47.52 47.42 44.95 40.71 43.05 47.40 47.58 47.29 42.44 34.60 32.24 32.61 32.97 43.50 40.18 38.69 37.96 39.33 32.79 40.10 35.32 38.13 39.20 38.34 34.77 39.49 41.83 43.31 44.61 43.93 43.12 44.03 42.95 42.16 40.65 40.43 41.04 41.08 40.78 39.46 38.94
45.66 45.84 45.96 45.53 45.43 45.36 45.66 45.96 46.64 47.07 46.97 46.80 47.20 42.31 35.85 40.94 46.87 46.71 43.25 37.98 36.55 36.23 35.79 32.24 38.92 36.05 42.13 37.86 35.32 35.87 35.69 32.97 32.24 36.53 41.55 37.06 36.45 42.50 43.96 44.49 44.83 43.48 42.57 42.20 39.38 37.67 38.15 38.40 39.40 39.75 39.60 40.41 39.91 36.98
45.72 45.78 45.55 45.39 45.34 45.43 45.89 46.21 46.43 46.66 44.77 46.39 41.95 37.50 43.78 45.69 44.59 41.12 35.49 33.69 34.01 32.42 33.83 36.15 37.35 37.99 42.61 34.94 33.69 35.87 33.15 34.42 30.92 35.06 36.50 35.23 33.90 38.90 43.39 43.58 43.29 42.77 42.19 41.73 41.46 41.12 40.65 40.36 39.53 38.84 37.80 38.32 36.73 35.60
46.27 45.85 45.55 45.46 45.30 45.29 45.45 45.72 45.53 44.09 45.26 44.60 44.95 45.76 45.14 41.42 39.20 33.96 33.12 35.37 33.50 33.19 37.22 35.63 37.06 38.85 38.47 41.92 37.03 37.66 33.18 35.37 28.13 37.86 32.29 29.48 36.39 40.68 41.39 41.04 41.47 41.74 41.07 40.35 40.83 39.85 40.00 40.01 39.98 37.61 37.65 37.15 35.10 34.53
45.22 45.18 44.98 44.98 44.64 44.91 44.50 43.55 44.36 44.73 44.97 46.58 42.38 37.30 37.75 36.09 30.75 28.92 27.92 31.66 32.86 36.41 35.03 35.60 34.25 37.41 38.03 37.55 34.60 33.29 29.72 28.72 35.89 31.37 29.33 34.00 39.47 41.19 41.30 40.29 39.88 40.11 38.56 36.35 38.09 38.88 39.63 39.42 37.88 34.17 33.64 34.45 33.30 32.18
44.25 44.31 44.26 44.29 44.22 44.22 43.70 43.98 44.05 44.45 43.82 38.65 33.91 28.98 31.53 29.60 30.70 32.79 33.62 33.15 33.69 34.60 35.69 36.73 34.96 36.09 35.66 31.93 32.79 27.97 32.61 34.02 27.98 26.43 28.74 36.06 37.92 38.85 39.52 39.23 37.94 37.19 33.74 33.94 35.86 36.84 35.73 34.90 33.46 33.31 33.33 31.25 30.67 30.36
43.88 43.90 44.17 44.08 44.14 44.17 43.96 43.39 43.09 45.09 41.78 34.65 35.09 27.83 30.04 35.06 35.17 33.50 35.69 36.18 36.00 37.54 38.04 35.99 36.33 34.65 33.31 30.24 32.13 31.04 27.12 24.95 27.70 28.75 35.57 37.41 38.73 38.90 37.98 38.88 37.69 34.56 32.58 33.19 35.92 35.28 33.98 33.30 32.88 32.80 33.36 32.28 31.84 31.35
43.59 42.82 41.91 43.58 44.18 44.06 43.07 42.47 43.37 43.32 38.53 34.93 32.36 30.85 34.61 33.54 32.06 32.06 32.42 33.51 37.68 38.13 37.33 36.55 32.01 28.38 27.11 29.40 26.93 25.36 25.17 24.08 30.52 37.56 37.30 37.95 37.25 37.29 36.36 36.23 36.27 36.27 35.08 35.67 36.37 36.14 35.43 34.24 33.33 34.22 33.69 32.39 32.06 31.68
41.96 39.56 42.51 42.78 43.38 43.26 43.27 41.37 40.83 35.18 33.55 30.13 31.97 36.38 34.24 34.06 32.61 33.87 33.84 35.09 39.67 34.75 31.43 32.50 25.84 25.40 31.81 26.68 25.36 29.81 28.26 32.58 35.71 36.02 37.17 37.48 36.36 36.23 36.04 36.33 34.18 34.72 35.62 35.63 36.51 35.66 35.71 35.33 34.03 32.62 31.51 32.03 31.96 31.86
39.92 41.74 42.37 42.65 42.62 41.56 41.17 40.12 36.15 32.75 28.26 31.72 29.93 33.98 33.20 34.99 35.11 34.93 35.28 37.47 36.78 33.72 31.92 28.54 31.98 26.59 24.73 22.91 25.39 31.37 33.87 35.84 36.25 35.95 36.27 36.60 36.91 36.58 37.22 36.62 36.83 36.47 36.60 35.95 34.53 34.33 34.31 33.54 32.31 32.07 32.17 32.10 31.78 31.84
41.37 41.83 42.04 42.12 41.94 39.51 34.34 34.76 36.80 28.84 30.31 33.11 33.35 34.08 34.75 35.70 36.88 36.58 36.84 36.58 38.19 37.53 34.28 31.53 27.26 25.74 27.14 30.70 31.00 32.61 33.79 34.56 34.13 34.86 35.96 36.81 36.48 35.80 35.27 35.64 35.40 36.28 35.86 35.65 35.76 34.59 33.34 33.14 32.92 34.40 32.77 33.18 32.20 33.40
41.60 41.49 41.61 42.04 41.47 36.28 31.87 32.65 37.14 31.05 28.77 31.80 33.34 32.14 33.14 32.53 36.26 33.75 34.24 34.15 34.38 32.60 28.93 27.03 27.43 30.51 31.84 33.92 35.53 34.97 35.36 35.89 34.85 32.67 33.19 35.06 36.54 36.05 35.76 35.66 35.94 35.98 35.96 35.69 34.72 33.26 32.68 32.34 33.89 33.91 33.87 34.46 34.34 33.99
40.69 40.54 41.15 41.34 39.17 37.68 34.40 31.42 29.85 30.20 31.60 30.47 33.01 32.73 31.46 35.87 34.03 32.79 31.88 34.87 30.75 29.03 27.48 31.18 31.37 33.49 35.35 35.98 36.90 36.88 36.05 35.91 34.47 34.23 33.47 33.22 35.73 36.05 35.72 35.98 35.96 36.07 35.26 35.02 32.53 33.18 32.23 32.50 33.97 33.88 33.32 32.97 32.79 32.79
40.58 40.56 38.31 37.97 34.22 33.50 32.48 35.49 32.22 33.94 31.05 30.83 30.96 31.83 30.32 29.81 30.70 31.89 34.40 30.89 29.47 31.63 33.10 33.01 33.80 34.93 34.93 34.79 35.90 36.91 36.78 36.20 35.74 35.14 34.12 34.63 33.83 34.40 34.60 35.49 35.02 34.25 34.87 33.77 33.69 33.10 33.10 33.87 33.99 33.69 32.42 32.61 32.23 31.69
39.60 38.57 35.59 34.42 30.03 29.41 29.16 36.27 30.27 30.46 26.43 27.71 29.54 27.27 28.03 29.19 31.87 34.59 29.31 30.85 32.37 35.29 35.74 35.85 35.79 36.50 35.46 36.10 35.56 35.47 35.40 34.82 34.60 35.17 35.21 35.56 36.02 35.98 35.51 34.83 34.21 32.99 32.52 33.07 34.19 33.65 32.97 34.11 32.92 32.42 32.42 32.05 31.39 30.48
38.70 32.79 30.97 30.00 29.29 26.84 31.64 27.99 30.79 29.16 29.64 27.35 26.40 24.33 26.81 29.43 32.68 29.03 25.80 29.55 32.36 35.05 34.75 34.96 35.58 34.49 35.23 34.66 34.34 34.89 35.74 36.74 35.94 36.06 36.60 35.34 34.13 34.30 34.59 34.23 34.66 34.37 34.02 33.93 34.06 34.24 32.74 32.61 31.99 31.34 32.03 31.07 30.62 29.73
29.35 28.66 30.05 25.89 30.43 27.41 24.90 25.45 26.16 26.19 23.84 26.00 24.90 24.98 27.03 31.19 25.06 24.52 24.49 28.51 31.68 33.19 34.66 35.73 35.35 35.09 33.44 34.14 34.99 35.68 35.50 36.22 35.05 33.29 34.06 34.37 32.56 32.22 32.54 33.61 33.96 33.74 33.86 32.42 32.42 32.42 32.06 31.88 31.75 31.13 30.85 30.27 29.61 29.51
24.38 28.37 26.11 26.85 27.19 25.38 25.65 22.57 24.15 24.66 25.65 24.54 25.19 28.71 32.00 26.41 22.68 22.02 26.26 31.77 34.93 35.92 32.91 33.15 33.34 34.38 34.00 34.66 33.66 33.97 35.34 37.30 34.91 31.86 32.03 32.63 32.43 32.17 32.11 31.69 32.03 33.87 35.66 33.68 32.42 32.06 31.88 32.06 31.19 30.56 30.41 30.04 29.39 29.04
24.26 25.67 29.79 32.87 31.14 29.80 28.06 30.03 29.52 27.43 24.16 22.87 25.91 26.05 24.98 20.37 20.45 26.38 32.39 34.97 35.35 39.26 39.31 38.95 36.75 35.50 34.78 35.01 36.23 37.78 37.30 35.46 32.95 31.89 32.62 32.34 32.50 33.82 34.52 32.55 32.02 34.75 35.69 33.51 32.97 32.42 32.42 32.36 31.46 30.52 30.04 30.94 30.34 29.70
27.88 30.29 25.00 28.62 29.13 30.86 26.33 26.11 25.34 23.78 25.11 28.54 27.94 23.04 21.99 22.73 23.86 32.41 34.84 38.20 41.48 39.87 38.69 39.20 39.63 38.04 37.01 36.92 36.32 35.17 33.21 32.90 32.65 32.17 32.15 31.96 33.01 33.81 34.06 33.67 33.99 29.84 34.37 33.51 32.79 32.06 32.79 32.59 31.71 31.26 30.58 30.27 30.95 31.65
27.77 31.84 31.32 24.69 27.41 27.67 27.28 26.23 26.57 29.05 31.01 29.38 25.93 25.19 26.90 31.03 34.00 34.47 35.50 37.06 38.94 36.92 34.65 34.20 34.70 33.87 35.14 35.27 33.66 33.04 33.10 32.80 30.39 27.99 27.29 27.50 29.73 33.13 33.84 33.29 32.24 32.33 32.79 32.24 31.45 32.14 32.77 32.95 32.12 31.06 31.72 31.75 30.57 29.84
27.84 32.81 27.53 26.34 24.16 23.92 28.28 31.11 30.31 32.96 33.31 32.61 32.17 31.13 31.38 32.56 34.73 37.13 36.58 36.74 33.98 32.42 32.42 32.39 32.06 31.40 29.88 29.50 29.92 30.86 33.06 33.15 32.24 30.28 27.89 27.62 29.51 31.72 32.11 32.24 32.06 32.24 32.24 32.06 31.20 29.44 29.45 30.36 29.15 29.23 28.75 27.89 27.57 27.02
33.08 32.34 28.23 28.09 26.27 29.67 31.58 33.30 33.29 32.92 32.68 31.87 32.35 30.68 30.15 32.02 34.49 36.78 35.14 34.40 33.00 31.59 30.28 29.38 30.02 31.64 29.89 29.32 28.87 28.35 28.93 31.88 31.27 30.48 30.04 30.20 30.83 31.54 32.20 32.24 32.06 32.06 31.88 31.50 30.19 29.47 28.97 28.78 29.32 27.96 26.38 25.25 25.48 24.26
30.68 27.72 26.42 24.18 26.75 31.81 31.64 30.93 31.46 30.53 31.08 30.80 30.42 31.51 31.21 30.35 28.79 30.08 26.31 26.59 26.89 27.03 28.17 27.30 26.56 27.32 28.47 29.13 31.22 31.44 29.30 28.93 27.34 27.44 27.54 29.33 31.50 31.88 32.06 32.24 32.06 32.06 31.52 30.74 30.26 29.65 28.28 27.31 27.65 26.26 25.29 24.25 23.74 23.02
28.72 28.97 28.04 26.69 26.14 26.47 29.75 28.39 27.95 27.04 28.97 28.18 28.85 30.04 30.71 29.63 26.74 23.92 25.39 25.40 24.09 23.39 22.97 23.80 25.17 26.78 28.60 27.75 28.55 29.30 27.84 26.35 24.90 23.56 23.35 23.20 22.51 24.09 27.63 30.02 31.28 31.05 29.98 29.43 28.67 28.06 26.70 25.79 25.30 25.49 24.89 24.22 22.66 21.24

GFSWCAN_sfc_wetblb_003.txt.gz
Wetbulb
50.42 50.07 50.11 50.11 50.27 50.21 50.55 50.54 50.50 50.80 50.75 50.58 50.60 50.69 50.65 50.63 51.20 52.98 54.38 57.95 53.14 43.37 47.39 50.25 51.16 46.88 46.53 43.18 35.33 42.13 40.74 38.55 35.69 33.08 33.34 31.69 32.68 30.94 29.98 34.65 29.57 28.16 25.81 28.92 28.22 30.19 25.42 42.97 41.26 32.33 37.89 41.04 43.67 41.84
50.84 49.73 49.41 49.35 49.55 49.69 50.06 50.18 50.14 50.11 50.23 50.36 50.36 50.14 50.21 50.48 50.82 51.46 51.36 57.14 56.74 48.76 48.37 54.03 54.14 54.07 52.47 50.89 46.98 44.05 41.65 42.84 40.79 33.59 33.11 33.65 32.99 33.52 32.64 31.38 38.09 31.41 33.84 29.16 32.18 30.80 39.56 43.02 41.85 43.56 44.69 43.36 42.73 42.33
48.83 49.47 49.40 49.19 48.68 49.01 49.24 49.51 49.37 49.55 49.68 49.84 49.76 49.99 49.90 50.31 50.75 51.91 52.28 54.31 51.31 39.55 46.57 46.98 47.24 52.52 55.76 54.22 54.47 41.64 40.59 47.33 44.96 45.83 38.91 35.38 33.91 35.32 32.63 33.29 33.43 39.21 41.83 35.02 33.87 38.74 41.08 42.58 44.45 45.17 45.10 43.44 45.25 45.45
47.98 48.25 48.54 48.64 48.73 48.39 48.79 48.79 48.46 48.86 49.06 49.37 49.51 49.55 49.45 50.01 50.50 51.28 51.41 54.71 51.88 42.58 34.11 42.11 50.80 49.65 55.02 54.39 53.18 52.65 50.27 50.70 49.01 45.60 36.28 34.09 33.55 41.03 34.39 37.26 36.28 38.94 38.44 36.13 36.07 39.86 41.44 42.33 42.71 44.17 44.88 46.04 45.90 44.55
47.30 47.57 47.93 48.11 48.02 48.06 48.32 48.17 47.94 48.10 48.45 48.97 49.11 49.22 49.33 49.90 50.21 50.48 51.63 53.48 54.57 49.00 36.45 37.61 45.55 50.04 52.26 52.24 51.79 51.76 50.56 48.82 42.51 38.26 34.27 34.44 36.95 37.13 36.24 35.32 34.84 41.18 38.48 35.61 34.46 41.05 40.56 41.81 43.53 45.37 44.71 44.03 44.59 42.82
47.10 47.14 47.25 47.48 47.87 47.86 47.70 47.56 47.78 48.01 48.21 48.77 49.07 49.25 49.42 49.25 49.74 49.55 44.19 49.89 53.13 53.15 39.91 34.65 44.43 43.90 47.68 49.41 48.44 49.17 48.89 48.01 46.79 41.55 35.53 39.42 43.74 39.08 33.20 34.98 40.00 42.83 43.99 44.49 41.41 44.02 43.83 43.75 44.37 44.46 43.53 43.63 42.00 40.77
46.13 46.98 46.96 46.82 46.54 46.68 46.79 47.20 47.50 47.70 47.98 48.10 48.57 48.88 49.13 48.88 50.54 46.33 42.86 46.91 50.63 51.42 35.92 35.00 35.69 40.98 43.17 44.59 45.76 45.99 47.25 46.00 45.22 41.55 37.70 38.21 38.91 41.51 33.17 35.23 40.94 43.04 43.25 43.89 45.10 44.84 42.89 43.41 40.55 42.59 41.87 41.86 41.99 41.14
45.99 46.91 46.80 46.34 46.20 46.32 46.52 46.75 47.47 47.85 47.81 47.94 48.26 48.46 48.93 49.31 48.19 44.45 46.67 48.44 50.40 44.77 38.25 34.64 34.24 35.07 42.56 36.76 35.10 39.73 36.21 38.28 40.70 39.98 37.11 35.89 38.30 35.72 33.14 39.55 41.92 42.88 43.63 43.69 44.48 45.03 42.75 41.32 39.94 40.05 41.01 40.45 39.19 38.47
45.93 46.34 46.12 45.89 45.77 45.86 46.25 46.73 47.22 47.61 48.10 48.13 48.19 48.01 46.51 44.26 40.78 42.74 47.31 46.70 46.19 42.57 35.71 32.64 32.28 32.43 41.42 38.07 36.17 35.66 37.43 32.63 37.73 33.53 35.48 37.59 34.21 33.77 37.41 39.33 40.75 41.95 40.74 40.46 41.39 40.80 39.87 38.54 38.51 38.31 38.10 38.26 37.71 37.80
45.55 45.45 45.70 45.50 45.29 45.32 45.86 46.37 47.11 47.14 47.04 47.11 45.70 40.88 34.80 39.35 46.87 46.30 42.56 36.88 35.99 34.80 34.73 32.28 35.84 33.72 39.89 34.08 32.82 33.35 32.99 32.04 30.74 33.22 36.67 32.99 32.44 39.15 40.73 41.91 42.57 40.57 40.51 40.62 35.57 34.68 35.37 34.93 36.29 36.65 36.35 36.94 36.87 34.74
45.45 45.60 45.58 45.38 45.16 45.39 45.78 46.16 46.61 46.18 46.04 44.14 37.98 35.18 42.20 46.62 43.33 38.20 32.21 31.98 32.57 30.91 31.81 33.55 34.89 34.21 38.51 33.07 32.25 33.35 31.69 31.87 27.93 26.25 26.93 22.86 27.21 34.84 39.28 39.99 40.75 41.23 41.25 39.86 38.44 38.34 38.16 36.97 36.39 35.54 32.78 32.45 30.54 30.27
45.74 45.98 45.78 45.39 45.37 45.59 45.92 46.29 46.02 43.60 43.82 42.89 42.22 43.95 42.69 40.07 34.97 32.64 31.42 32.40 30.99 28.44 32.86 32.68 34.27 36.76 35.15 39.70 33.13 32.78 29.21 29.31 22.97 28.71 25.52 24.39 28.72 36.83 37.94 38.39 38.84 37.51 37.07 36.39 36.11 35.20 35.36 36.32 35.34 32.82 31.52 30.78 28.94 30.19
45.57 45.87 45.78 45.35 45.11 45.34 45.49 43.59 44.17 44.74 45.16 44.20 38.63 34.05 36.46 33.38 29.63 25.53 23.49 29.32 27.53 33.17 34.06 33.29 32.79 33.70 34.73 34.62 32.04 30.99 27.25 26.15 27.14 26.60 23.49 25.24 33.64 37.08 36.70 36.63 36.28 35.91 32.35 31.59 34.07 34.91 35.16 34.59 34.24 29.26 29.19 26.64 32.32 31.08
45.18 45.22 45.21 44.89 44.65 44.38 43.81 43.57 44.37 43.85 40.39 32.28 30.28 22.24 24.59 24.44 23.35 28.47 29.20 31.80 32.61 33.17 33.35 33.13 32.63 30.62 31.32 29.39 29.77 25.51 24.80 25.73 19.53 16.15 18.37 25.88 32.24 35.78 36.01 35.73 35.80 35.50 29.83 29.41 31.23 31.66 29.99 28.35 28.75 26.85 23.48 31.22 30.91 27.49
44.49 44.53 44.64 44.28 44.01 43.69 43.68 43.72 43.52 42.47 36.91 29.86 28.30 20.12 21.62 28.48 31.20 31.86 32.81 33.17 32.99 34.18 34.05 32.55 31.92 30.51 24.07 22.56 22.53 20.75 17.22 21.67 18.75 17.77 21.75 27.45 32.27 32.98 33.64 35.39 34.79 28.90 25.39 26.40 31.29 28.86 28.21 27.28 32.29 32.98 33.19 32.09 30.09 29.26
44.16 42.92 42.22 44.18 44.14 43.86 43.32 42.45 42.35 40.73 31.77 29.58 27.36 22.66 26.36 25.26 29.87 30.47 31.86 32.46 34.44 33.02 31.82 29.37 24.98 19.63 18.26 20.36 16.78 17.00 15.72 16.04 18.93 22.71 26.19 28.21 31.37 32.30 32.54 31.21 31.29 31.89 31.63 32.13 31.88 31.02 30.89 26.63 31.47 33.20 33.44 32.63 32.10 30.25
42.36 38.96 43.64 43.84 43.73 42.99 42.64 39.33 35.16 31.33 28.48 25.21 22.61 29.15 31.66 29.39 31.33 30.72 32.08 31.43 35.39 28.21 21.42 22.02 16.81 18.97 22.98 16.00 16.01 23.42 18.40 20.21 22.90 25.18 27.22 30.05 30.86 31.35 31.99 31.28 29.39 30.55 31.82 30.95 31.29 30.63 30.67 28.43 28.64 30.99 31.22 31.22 30.17 27.90
39.13 41.68 42.77 42.52 42.06 41.34 39.19 37.17 30.28 27.06 22.55 24.77 21.31 23.55 24.85 26.81 31.59 31.87 32.17 32.12 33.34 27.74 24.51 21.60 24.78 16.15 12.61 11.75 13.99 19.45 21.58 22.87 25.67 25.19 27.02 31.32 31.08 31.66 32.78 31.87 33.39 31.75 30.80 30.30 29.97 30.25 29.45 24.38 27.65 29.41 30.69 30.82 27.82 27.76
40.80 41.01 42.08 41.84 41.31 34.52 28.73 29.09 32.66 24.37 23.56 25.03 25.99 26.09 25.81 25.25 26.25 26.88 29.32 29.29 28.69 28.75 24.89 21.39 15.40 14.97 18.23 19.53 17.40 21.08 22.66 22.72 27.01 28.76 29.07 31.07 30.67 30.80 31.51 31.78 31.47 30.93 30.52 30.24 29.93 31.14 29.48 29.90 32.18 32.55 32.33 28.90 28.77 29.15
42.14 41.94 41.52 41.62 41.52 31.13 28.37 28.74 33.27 27.74 24.54 26.32 25.24 23.99 24.82 23.90 24.75 30.17 30.70 30.83 25.42 23.22 20.49 19.59 19.13 22.79 21.43 25.15 25.84 24.63 26.40 27.74 27.93 28.21 29.72 31.54 31.76 31.09 31.50 31.80 32.12 32.41 31.98 31.55 30.41 27.25 28.06 30.58 31.31 31.70 32.24 31.29 31.44 30.91
39.14 39.39 41.17 40.58 36.38 36.35 29.51 25.71 24.87 28.69 26.31 24.86 26.34 25.64 23.20 24.36 22.60 26.90 29.13 27.08 28.12 26.70 20.45 24.68 26.49 28.71 27.96 28.58 29.24 28.99 31.06 30.57 30.49 30.16 30.32 30.21 31.92 31.58 31.48 32.15 31.78 29.79 26.51 27.45 30.70 31.53 31.04 31.94 32.76 32.33 32.42 31.90 31.89 31.87
38.67 40.46 35.99 36.31 32.33 31.16 27.23 28.88 25.90 26.69 23.69 22.87 22.63 23.86 18.81 17.21 18.28 20.76 24.91 23.98 23.13 24.09 26.64 28.03 28.34 28.49 29.61 29.72 31.16 31.11 31.70 31.60 31.14 28.79 26.96 27.52 29.11 30.73 31.31 32.08 30.25 29.58 30.03 31.91 32.35 33.13 33.56 34.03 33.82 32.34 32.06 32.07 30.19 29.82
39.04 37.24 33.69 32.31 28.21 27.22 21.97 29.17 21.40 24.91 17.84 18.05 20.56 17.58 16.57 17.41 22.19 27.26 18.68 24.64 25.61 29.06 30.87 30.04 31.05 31.50 31.05 31.92 30.69 30.97 31.17 30.48 30.00 28.31 28.46 28.57 30.31 28.18 30.34 30.86 29.08 32.45 31.85 32.75 33.50 33.13 33.02 33.95 32.95 31.80 31.27 30.90 27.53 29.51
38.51 32.72 28.76 26.15 23.48 16.13 24.41 26.91 27.26 21.93 19.42 17.45 16.46 13.48 18.04 19.57 22.52 18.23 17.08 19.05 26.73 27.18 27.85 29.67 28.92 29.67 28.60 29.04 27.77 28.90 30.11 29.28 27.82 27.11 27.17 27.14 28.46 29.42 30.83 31.56 32.07 33.31 33.50 33.38 33.17 32.95 32.51 32.08 31.11 29.81 30.16 29.57 29.37 28.95
27.35 27.75 28.19 22.44 24.20 22.17 19.94 18.16 23.21 16.85 12.62 15.71 13.76 12.82 16.86 20.01 14.33 12.67 14.76 19.67 21.43 26.71 27.44 28.30 27.98 28.92 27.46 23.64 24.47 28.18 28.92 28.94 26.76 26.23 26.31 25.08 29.21 30.89 31.01 32.32 32.44 32.71 33.67 32.27 31.87 31.89 31.68 31.69 28.90 27.22 27.14 28.71 28.80 28.40
23.37 24.67 23.23 18.88 22.14 19.69 18.54 11.10 13.87 14.85 13.50 12.47 15.11 18.48 18.18 14.64 10.95 12.58 19.55 19.41 20.94 22.83 23.55 25.72 26.29 22.93 25.87 29.05 27.01 25.86 27.02 26.74 25.78 24.12 25.54 29.31 30.41 30.12 29.04 28.72 30.26 31.19 32.51 32.40 31.41 30.88 31.12 26.73 25.39 26.19 26.79 29.59 29.28 28.52
22.50 18.77 23.72 27.72 25.30 23.50 17.68 18.98 20.65 16.79 12.28 11.81 13.36 14.17 15.27 13.80 10.78 18.34 23.39 24.08 25.60 25.96 27.74 28.19 29.47 29.30 28.74 28.77 27.34 27.30 25.42 24.83 25.97 29.11 30.87 30.96 30.64 30.71 30.35 29.26 29.36 29.87 32.83 33.29 32.16 31.37 30.58 29.30 29.00 29.39 29.68 29.37 28.95 27.34
21.78 21.28 18.77 21.32 21.06 21.85 14.84 14.53 13.72 14.50 15.51 21.16 18.15 12.57 12.73 13.88 16.25 23.07 27.69 28.12 27.31 28.65 29.40 31.69 31.18 31.24 30.69 29.46 26.24 24.13 28.18 29.68 31.62 31.20 30.49 30.85 31.56 31.52 31.91 32.24 33.14 32.00 31.56 32.60 31.55 32.33 32.40 31.98 31.74 30.52 29.68 28.68 27.92 28.40
20.80 24.21 23.34 16.34 16.78 17.98 18.09 17.47 17.98 21.86 24.52 23.12 20.49 18.88 18.63 23.05 23.11 24.33 26.33 28.80 30.97 29.96 26.17 26.23 30.06 31.87 32.01 31.76 25.20 29.10 30.64 30.80 29.51 27.04 25.83 26.83 26.45 26.25 26.75 30.30 31.70 31.89 30.69 31.42 31.53 31.06 31.02 31.74 31.55 31.58 30.08 25.08 26.02 29.08
19.02 26.30 19.29 14.80 14.38 15.00 20.32 23.89 21.34 23.52 27.05 29.20 29.88 28.22 28.06 29.49 32.02 31.75 31.58 32.22 31.76 31.82 31.33 28.73 27.14 31.20 29.56 28.03 22.54 28.41 30.43 31.49 31.95 30.14 27.37 18.40 20.64 26.78 29.58 30.28 30.68 31.53 32.33 31.77 31.38 26.16 29.26 30.52 30.17 29.60 27.86 26.75 24.96 23.17
24.39 23.39 18.81 20.55 19.79 24.95 26.86 29.06 29.46 23.91 22.99 26.13 29.65 28.06 27.54 28.94 30.84 25.64 23.17 28.07 28.68 31.44 30.66 29.15 29.15 30.34 29.00 27.94 27.07 25.94 25.64 28.70 24.40 26.70 25.92 27.22 29.00 30.58 31.00 30.64 30.39 30.61 29.46 26.86 26.68 26.14 27.40 27.92 28.10 27.11 25.61 25.24 24.50 23.24
21.58 21.55 22.06 20.25 21.99 25.57 27.36 24.35 22.17 23.24 24.74 24.79 27.81 29.35 29.46 29.02 26.81 24.79 21.52 23.72 25.05 26.38 25.61 25.74 25.45 24.65 26.05 24.50 27.22 27.75 24.38 20.13 19.78 20.26 17.20 15.29 18.74 22.47 26.82 29.43 30.61 28.72 26.66 25.73 25.75 25.75 26.57 26.17 26.58 25.46 24.36 22.66 21.34 19.59
19.55 21.92 24.68 23.83 20.56 15.73 19.14 20.05 18.79 18.52 22.15 23.70 24.66 26.41 26.31 25.67 24.96 20.08 20.96 22.87 21.31 19.28 19.22 20.30 21.44 20.61 24.49 23.41 23.59 23.79 20.63 20.41 19.63 20.83 20.23 18.65 17.00 17.48 18.01 18.38 21.27 25.11 27.25 26.92 25.23 25.02 23.93 22.79 21.35 21.20 21.37 19.71 16.09 13.53

GFSWCAN_sfc_wetblb_006.txt.gz
Wetbulb
50.39 50.15 49.93 49.85 49.96 50.10 50.21 50.29 50.36 50.32 50.23 50.34 50.64 50.75 50.58 50.86 51.05 52.41 52.63 55.14 50.72 42.42 45.88 49.00 49.64 45.34 44.99 41.19 34.57 40.37 39.71 36.82 35.10 32.75 30.86 28.66 31.28 29.40 28.70 33.01 29.82 28.12 24.89 27.76 27.01 25.84 25.52 40.38 40.70 33.47 36.83 38.25 41.41 41.60
51.03 49.70 49.48 49.64 49.60 49.76 49.82 49.88 49.89 49.88 50.00 49.96 50.11 50.29 50.50 50.56 50.63 51.77 49.42 54.80 54.08 47.24 45.96 51.64 52.39 53.15 51.24 48.17 44.98 41.58 40.60 39.41 37.92 33.52 33.31 28.48 32.02 32.75 27.44 30.26 36.07 31.84 32.98 28.81 30.01 29.69 37.49 40.32 41.27 41.42 43.25 41.88 41.18 42.31
49.44 49.95 49.48 49.46 49.14 49.34 49.68 49.70 49.46 49.66 49.50 49.63 49.73 50.04 50.12 50.24 50.77 51.32 50.43 52.31 49.03 39.88 44.62 45.41 46.43 51.15 54.03 52.46 51.76 40.94 36.92 45.66 42.75 41.97 35.59 34.44 32.96 34.53 32.76 33.11 33.31 37.44 39.77 33.01 33.62 37.47 39.20 40.73 43.61 44.22 42.83 41.07 44.70 44.79
48.00 48.45 49.30 49.12 48.60 48.45 48.61 48.61 48.61 49.15 49.12 49.35 49.37 49.32 49.53 49.91 50.53 50.78 49.29 51.42 48.84 41.80 34.26 42.09 48.93 48.70 52.53 52.29 51.49 50.04 48.92 48.55 47.92 44.68 35.51 34.26 33.35 40.32 34.56 38.03 36.16 39.04 39.94 36.62 36.87 39.81 40.80 41.61 41.88 42.85 44.57 45.18 42.98 43.05
47.09 47.53 47.58 47.89 48.48 48.67 48.38 48.40 47.93 48.11 48.58 48.90 49.05 49.30 49.44 49.91 50.53 50.81 50.59 51.90 52.39 47.62 36.61 38.48 45.25 48.81 50.98 51.55 50.34 50.52 49.46 46.83 39.28 37.16 33.52 34.77 36.19 36.41 34.95 34.57 34.66 40.28 38.73 35.61 34.93 40.92 40.05 40.95 43.78 43.66 41.98 40.80 40.19 39.22
47.07 46.88 47.08 46.97 47.13 47.79 47.92 47.80 48.02 48.05 48.22 48.54 48.87 49.19 49.57 49.50 50.17 49.86 45.01 48.59 51.26 53.27 40.24 35.16 44.47 42.83 46.32 47.72 47.53 46.92 47.61 46.25 44.97 39.50 34.95 37.92 42.59 39.16 33.35 33.74 39.97 42.06 44.10 44.54 41.49 44.18 43.24 43.84 43.22 43.02 40.95 41.18 41.43 40.96
46.68 46.70 46.54 46.38 46.52 46.45 46.74 47.00 47.47 47.64 47.98 48.29 48.75 48.94 49.01 48.68 50.45 46.82 43.63 46.95 50.91 51.37 36.43 35.53 35.65 38.98 41.46 43.35 43.32 43.29 44.89 44.49 44.52 41.70 36.96 38.18 38.81 41.74 33.16 35.95 41.21 42.80 42.85 44.30 44.97 43.46 40.47 41.14 39.16 41.08 40.41 40.41 40.43 39.40
46.17 46.61 46.24 46.02 46.11 46.15 46.32 46.72 47.40 47.56 47.62 48.03 48.43 48.90 49.12 49.10 48.36 44.91 46.98 48.41 50.60 45.30 38.58 34.62 34.57 35.58 42.16 35.63 33.91 38.37 35.31 37.53 40.61 40.14 36.55 35.87 37.23 35.15 33.29 41.02 41.60 42.14 43.07 43.09 43.14 41.77 40.79 40.89 40.00 38.32 39.04 39.24 37.86 36.64
46.06 46.06 45.79 45.67 45.60 45.95 46.29 46.51 47.36 48.07 47.80 48.05 48.16 48.41 46.72 44.57 40.93 42.84 46.63 46.66 45.52 43.55 36.24 32.81 32.79 32.79 41.35 37.69 35.63 34.33 35.22 33.16 36.61 32.97 34.74 36.89 32.78 33.53 37.06 38.76 39.88 40.54 38.78 39.31 39.43 38.82 38.84 37.56 36.86 38.11 38.05 36.50 36.11 35.62
45.42 45.70 45.52 45.20 45.36 45.58 46.11 46.41 46.86 47.20 47.62 47.49 45.23 41.13 35.13 39.30 46.88 46.18 42.47 37.59 36.34 35.15 35.40 32.61 35.29 33.87 39.97 33.68 32.61 32.96 32.78 31.87 30.17 32.76 36.81 32.78 34.38 39.77 40.72 41.80 41.87 38.96 39.14 38.79 34.71 33.49 34.77 33.11 33.40 33.65 34.38 35.09 33.24 32.34
45.54 45.51 45.42 44.99 45.31 45.49 46.07 46.31 45.92 45.54 45.65 43.28 37.20 35.15 41.80 46.79 42.73 37.19 32.57 33.09 33.06 31.28 32.17 33.22 33.97 34.02 37.98 33.25 32.40 32.94 31.66 31.45 26.80 25.28 31.02 23.69 28.00 32.79 36.88 37.12 37.90 38.21 38.34 38.02 36.61 35.72 34.20 34.05 32.85 32.66 31.53 31.56 29.32 28.93
45.79 45.77 45.45 45.27 45.38 45.71 45.98 46.19 45.19 44.22 43.18 42.60 41.66 43.77 42.09 39.81 34.38 32.48 30.89 31.09 31.06 27.94 32.16 32.04 33.61 36.11 34.59 38.83 32.51 31.63 28.38 29.26 24.29 27.06 25.56 25.51 26.28 33.73 34.67 34.55 35.14 34.40 36.00 36.02 34.93 34.72 34.27 33.91 33.23 31.66 30.90 30.17 28.17 27.19
45.20 45.62 45.59 45.25 45.27 45.79 45.81 44.31 45.01 44.91 45.17 43.12 37.33 34.38 35.45 32.88 29.81 26.53 25.02 28.14 27.59 31.60 33.46 33.16 32.43 33.50 34.02 33.91 31.45 27.72 26.08 24.53 23.20 25.43 24.35 23.03 31.22 34.29 34.91 35.37 35.97 36.07 33.47 32.09 35.24 35.45 34.56 33.04 31.53 28.45 29.50 28.04 24.46 27.08
44.88 45.44 45.52 45.16 44.90 44.87 43.47 44.13 44.39 42.82 40.30 31.56 29.21 26.49 27.63 22.77 24.77 25.82 27.63 29.46 32.37 32.60 32.78 33.13 32.02 30.18 30.47 22.88 28.41 25.01 23.50 22.16 21.19 21.33 17.28 24.30 29.75 32.65 33.76 34.36 34.12 33.64 29.86 28.96 31.59 32.08 29.66 27.83 27.67 28.23 32.88 32.18 30.91 31.35
45.10 45.19 45.09 44.67 44.31 43.73 43.44 43.43 43.07 40.83 33.26 28.30 27.11 20.67 22.60 28.24 29.42 31.42 32.40 32.58 32.75 33.64 33.14 32.01 30.17 29.81 23.19 19.26 18.32 20.47 16.59 20.91 22.93 16.79 20.11 25.26 29.47 30.90 31.43 32.70 32.40 28.39 27.85 27.91 31.32 28.54 27.37 26.63 25.67 27.33 30.00 32.18 28.60 29.78
44.63 43.22 42.54 43.96 43.70 43.67 43.15 42.30 41.64 39.09 29.17 27.09 25.82 20.28 25.15 28.40 28.14 30.16 31.53 31.89 33.52 31.48 27.83 27.61 22.68 18.65 18.58 17.49 14.88 13.66 14.20 14.28 17.02 17.84 23.21 26.41 29.85 30.01 30.19 29.90 30.25 30.12 29.69 30.83 31.47 30.70 30.04 27.51 28.58 28.84 30.91 32.55 29.17 32.13
42.02 39.24 43.71 43.62 43.31 42.72 42.52 39.13 34.14 29.96 25.12 21.37 18.81 28.49 27.70 26.58 22.40 30.48 27.86 32.01 34.27 30.89 19.61 19.70 16.53 18.97 20.27 11.66 12.23 21.03 15.87 18.24 20.73 23.79 26.70 28.53 29.41 29.76 30.01 29.70 28.07 29.32 30.45 30.33 30.66 29.94 29.45 29.51 26.56 29.40 29.21 29.44 26.77 29.95
38.56 42.53 43.49 43.34 41.26 40.54 38.19 34.13 29.32 25.83 22.87 21.99 19.45 19.61 20.09 19.95 29.54 29.36 30.92 31.56 32.92 30.53 22.06 19.91 22.94 15.52 12.38 10.46 12.51 17.66 19.01 20.92 24.49 24.63 25.81 27.41 29.26 29.79 30.61 29.79 31.45 31.04 30.89 30.84 29.64 28.99 28.49 26.34 26.71 28.66 28.40 27.97 28.20 29.21
41.04 41.48 42.37 42.63 39.74 32.77 28.40 29.38 30.26 20.84 21.28 20.03 21.55 20.82 21.11 19.94 21.55 22.72 23.15 31.44 32.21 31.69 24.97 18.09 11.64 11.63 14.15 16.13 13.31 14.90 14.76 17.66 24.06 28.66 29.62 29.20 28.85 29.46 30.32 30.76 30.56 30.22 30.08 30.16 30.29 30.74 30.88 29.57 30.16 31.08 31.10 27.45 29.57 29.59
42.03 41.68 41.89 41.87 40.56 30.99 26.29 23.85 29.89 23.79 21.25 24.03 20.77 20.36 21.24 20.99 19.91 19.54 29.33 26.81 29.73 29.35 27.23 25.11 18.45 19.42 19.33 23.37 23.52 22.86 25.08 25.17 23.78 24.52 28.32 29.67 28.66 29.63 30.06 30.26 30.06 30.57 30.42 30.66 29.47 25.22 26.52 28.49 28.75 30.36 30.40 30.47 30.82 29.26
39.70 40.35 40.67 38.98 35.76 31.30 25.64 22.50 21.34 23.66 24.43 22.90 23.10 23.42 19.94 16.23 19.01 23.03 28.45 25.05 27.84 26.28 24.37 24.70 23.41 26.32 27.49 26.87 26.10 26.84 27.63 27.01 27.91 26.09 28.44 28.58 30.98 26.99 28.42 29.50 29.19 28.51 27.79 28.84 27.57 29.68 28.11 27.18 30.80 31.28 31.26 32.36 32.31 32.01
37.20 39.89 35.04 36.02 29.64 26.07 22.94 24.76 23.66 23.70 21.23 19.77 19.77 20.89 15.83 14.29 13.14 20.42 21.27 27.69 26.83 24.03 25.12 25.43 27.80 28.00 27.01 27.25 28.85 28.85 29.64 29.96 30.25 29.26 27.03 26.90 27.15 27.58 28.26 27.54 23.77 28.24 30.85 31.65 31.60 31.92 32.32 32.92 33.25 33.20 32.79 32.22 31.47 29.55
37.80 34.94 31.38 31.65 22.91 20.22 18.14 25.07 19.83 22.39 17.25 17.70 17.44 15.45 12.19 11.12 17.17 23.76 14.61 22.27 23.36 26.72 29.94 29.44 29.70 29.62 29.43 30.52 29.45 29.82 30.10 29.93 29.19 28.10 26.54 26.13 26.16 22.52 22.98 24.92 20.86 26.26 29.22 31.48 32.28 32.33 32.52 32.95 32.96 32.58 32.17 31.25 29.73 27.40
36.71 29.84 26.61 25.56 19.46 10.95 16.75 23.18 21.73 18.63 12.93 15.00 12.41 9.32 13.54 13.95 17.97 13.19 13.59 14.30 23.92 25.84 25.60 28.70 29.17 28.61 27.31 27.41 27.41 28.96 30.09 28.13 27.42 25.65 23.42 22.13 21.34 23.56 24.29 30.01 30.64 31.42 31.84 32.50 32.32 32.54 32.11 31.81 30.47 29.25 30.35 29.58 28.62 26.94
21.70 25.55 26.53 22.30 25.65 22.26 21.46 10.51 11.43 11.46 10.13 8.68 7.16 7.22 13.41 13.94 11.37 6.22 11.09 21.57 17.80 21.92 24.46 26.21 24.88 27.48 27.00 27.46 23.07 26.26 26.12 27.48 26.15 25.17 22.18 22.01 18.70 21.37 27.77 30.20 30.53 30.50 31.65 31.76 31.28 32.43 31.77 31.21 28.73 28.87 26.48 25.39 27.34 27.65
15.87 20.15 22.93 21.11 17.11 14.95 14.54 7.36 7.25 11.23 4.81 6.51 9.25 13.91 7.67 7.98 7.03 11.10 16.65 16.52 14.99 17.46 17.04 20.03 21.06 20.26 24.06 27.52 27.69 25.86 26.55 23.60 23.82 21.74 22.80 22.68 22.85 26.80 28.02 27.25 27.17 29.03 30.14 31.62 30.67 31.22 30.33 30.24 29.51 24.42 19.92 26.04 25.19 27.12
13.55 16.08 22.05 24.29 22.48 19.58 11.09 8.70 12.42 9.38 6.27 9.28 9.00 8.17 8.78 12.29 9.99 15.84 20.69 21.50 22.29 22.07 24.15 23.82 25.36 25.06 25.62 28.00 27.63 26.49 23.78 24.03 25.62 25.80 25.47 29.44 30.38 29.21 29.62 28.01 27.43 28.96 32.19 32.06 31.50 31.64 30.40 29.78 29.04 28.15 27.55 28.87 29.18 29.36
18.32 13.89 18.56 18.96 18.91 18.34 11.20 5.29 6.93 10.22 11.59 16.97 12.12 8.56 11.22 12.40 14.53 19.78 23.88 26.93 25.08 25.81 25.60 25.40 27.10 29.12 28.74 27.09 23.25 22.81 21.10 20.44 20.61 22.26 21.86 22.45 23.61 24.66 25.92 30.28 31.58 30.80 30.49 32.04 31.51 31.68 31.14 30.76 30.80 31.45 30.22 29.70 29.60 29.20
22.26 18.73 21.38 17.74 16.08 16.56 15.97 15.47 14.68 18.13 21.40 17.62 12.45 9.92 13.44 19.50 19.37 19.58 23.26 24.81 26.48 25.44 27.37 30.05 28.85 27.38 30.90 28.39 28.23 29.25 29.04 25.53 23.79 22.51 25.64 25.58 26.65 22.90 18.89 23.01 28.01 28.24 30.21 30.64 31.26 30.85 30.82 30.82 31.00 30.97 30.78 30.55 30.23 28.34
18.47 22.78 19.93 9.85 13.04 14.32 18.21 19.45 16.03 15.75 18.54 25.59 24.12 22.22 22.84 22.50 26.04 28.20 26.99 27.19 22.64 28.53 29.12 26.39 26.22 29.94 30.85 29.16 28.06 23.26 23.73 28.68 30.15 28.32 24.44 22.24 21.81 20.97 28.12 30.15 29.36 29.52 29.82 30.46 30.91 28.93 25.49 24.53 27.93 29.66 28.82 26.97 26.56 25.43
15.52 11.10 10.25 8.25 10.58 16.77 21.18 16.10 13.95 14.81 12.17 18.51 24.71 23.68 25.74 27.04 20.30 21.35 18.06 22.77 26.73 29.56 29.45 28.61 28.59 27.45 27.09 26.01 25.51 24.79 23.73 21.30 21.55 19.55 17.32 16.28 18.96 22.66 24.63 26.78 29.44 29.68 28.74 16.11 16.12 17.53 20.69 21.91 22.99 25.78 25.39 24.64 24.10 23.56
8.51 12.06 13.96 12.37 20.53 19.80 20.16 19.98 19.97 18.57 18.40 13.57 23.91 14.86 18.83 16.16 22.05 18.78 19.46 18.67 20.43 19.40 19.27 19.81 19.67 19.93 21.72 19.42 21.60 21.29 19.70 17.97 16.01 14.94 15.03 13.67 13.71 14.76 17.08 17.41 20.59 23.31 22.05 15.85 15.13 17.40 19.69 21.65 22.37 22.00 21.50 21.64 21.37 19.87
8.94 5.74 5.40 6.07 8.53 7.20 12.48 11.99 10.85 10.92 7.19 16.18 21.22 21.94 21.92 19.28 21.83 16.90 17.90 18.84 15.74 15.36 14.98 16.05 17.15 19.33 19.69 21.92 22.12 19.58 18.49 18.36 19.02 20.29 19.19 17.93 15.32 14.82 14.14 14.74 16.06 18.09 19.79 18.73 18.54 17.60 15.54 15.01 13.36 12.05 11.68 11.33 10.26 9.36

GFSWCAN_sfc_wetblb_009.txt.gz
Wetbulb
50.36 49.94 50.15 49.88 49.80 49.96 50.06 50.20 50.37 50.32 50.04 50.29 50.74 51.07 51.01 50.90 50.76 51.98 50.60 52.59 48.87 40.36 44.02 47.55 47.94 44.09 43.01 39.72 34.60 39.67 38.40 35.67 35.16 32.21 26.22 27.48 20.05 28.22 27.97 31.29 28.53 27.90 26.13 23.55 26.47 25.56 22.16 38.41 39.40 33.07 37.29 37.74 39.65 39.79
50.45 49.51 49.40 49.40 49.30 49.55 49.68 49.95 49.94 49.89 49.71 49.74 50.13 50.51 50.60 50.83 51.10 51.77 49.35 52.98 52.16 46.98 45.77 50.33 51.55 50.86 48.89 46.83 42.99 39.91 39.83 38.08 37.16 34.09 32.54 25.60 28.69 30.53 30.28 30.19 34.70 31.06 32.53 28.69 29.63 30.18 36.77 38.36 40.27 40.66 41.29 39.39 38.60 38.82
49.63 49.84 49.26 48.89 49.09 49.14 49.59 49.59 49.38 49.49 49.58 49.40 49.71 50.17 50.32 50.24 50.99 51.47 49.88 50.43 48.30 39.49 44.14 45.07 46.41 48.96 52.95 51.05 50.33 40.66 35.30 43.06 39.83 40.38 34.26 33.66 33.31 33.87 31.76 33.01 34.13 37.36 39.32 32.01 33.27 37.29 38.60 40.67 43.01 44.38 42.73 40.33 43.90 42.48
48.26 48.80 49.09 48.73 48.84 48.75 48.93 48.97 48.95 49.04 48.99 49.19 49.20 49.31 49.42 49.88 50.52 50.66 48.92 49.43 47.39 41.23 33.67 40.68 47.25 47.67 51.05 51.89 50.79 48.92 47.46 46.43 44.45 39.49 34.22 33.69 33.31 39.33 34.17 37.50 35.47 39.05 39.62 35.92 36.62 40.03 40.84 41.82 42.48 42.17 44.03 42.64 39.83 39.70
47.47 47.41 47.66 48.37 48.55 48.53 48.55 48.71 48.28 48.32 48.62 49.02 49.16 49.22 49.39 50.12 50.50 50.19 50.68 52.56 52.45 47.36 36.59 38.86 44.09 47.69 49.12 49.58 48.69 48.53 47.66 45.14 39.28 36.41 33.67 34.56 34.56 36.22 34.58 34.35 34.37 40.62 37.60 35.41 35.65 41.05 40.27 41.55 42.97 42.36 40.49 39.40 40.07 39.35
46.64 46.87 46.87 47.07 47.47 48.13 47.81 47.66 47.50 47.70 48.06 48.33 48.48 48.96 49.20 49.67 50.56 50.54 45.71 50.49 52.00 52.75 39.67 35.14 43.81 41.89 44.75 45.90 46.44 45.67 46.23 46.39 42.80 39.93 35.12 37.89 42.10 38.72 33.14 33.75 39.80 42.19 43.93 44.38 40.97 43.89 43.89 44.12 40.68 40.52 39.64 39.91 40.90 40.83
46.32 46.55 46.49 46.60 46.48 46.91 47.30 47.68 47.79 47.83 48.03 48.33 48.50 48.70 49.04 49.02 50.79 47.68 44.89 46.01 49.85 51.61 37.31 35.30 35.62 37.48 40.09 41.67 41.65 42.21 43.01 42.35 43.30 40.13 36.75 38.45 40.00 41.11 32.93 35.39 40.61 42.50 43.30 43.16 44.37 43.99 41.33 39.72 37.60 39.91 39.58 38.81 39.12 38.22
46.34 46.03 46.05 46.01 46.30 46.23 46.44 46.84 47.19 47.66 47.79 48.15 48.50 48.51 48.35 48.62 48.38 45.30 47.03 48.60 49.74 46.04 39.28 34.96 34.37 35.89 40.67 35.21 33.97 38.54 35.29 36.99 39.14 40.15 36.16 35.12 36.15 35.50 34.00 39.22 40.29 40.73 41.15 41.31 40.91 40.91 39.95 39.01 38.88 37.80 37.55 37.52 36.90 35.76
46.05 45.93 45.45 45.50 45.78 46.08 46.32 46.69 47.28 47.41 47.77 48.13 48.17 48.08 46.67 45.12 41.47 43.29 47.14 47.00 46.00 44.19 35.49 32.96 32.95 32.95 40.14 36.63 34.91 33.37 35.10 32.95 35.61 32.95 34.35 36.28 33.30 33.57 37.41 38.30 38.47 39.21 38.36 37.66 37.45 38.53 38.86 35.57 36.69 35.82 35.11 33.92 33.69 33.03
45.76 45.62 45.25 45.05 45.32 46.15 46.04 46.65 47.27 47.39 47.72 47.32 45.15 41.70 35.47 39.11 46.96 46.31 43.01 39.28 37.79 35.82 35.89 32.96 35.33 33.66 40.16 33.30 32.78 33.66 32.75 32.19 30.49 32.92 36.54 32.39 32.96 37.54 36.63 36.47 37.28 36.89 37.41 36.25 32.35 33.40 32.51 31.16 30.29 30.49 31.11 32.26 31.73 30.53
45.66 45.59 45.09 45.14 45.48 46.05 45.72 45.53 46.87 47.21 46.16 42.20 36.84 34.94 42.09 46.39 42.44 36.42 32.74 33.61 33.78 32.37 32.69 33.60 33.61 33.82 37.63 33.73 32.75 33.11 31.80 31.45 26.83 24.23 30.21 26.97 27.21 31.04 33.83 33.43 34.47 34.91 34.45 33.47 33.75 33.33 32.87 33.12 31.72 30.70 30.14 30.88 29.86 28.87
45.87 45.59 45.20 45.18 45.51 46.03 46.21 45.15 44.87 44.16 42.68 41.95 41.12 43.77 41.44 39.36 34.49 33.34 31.76 31.20 31.20 30.20 32.30 32.07 33.48 35.90 34.20 38.33 32.68 31.42 28.64 28.86 22.95 27.29 27.22 22.45 26.79 32.30 33.93 33.97 34.71 34.99 35.87 35.79 35.65 35.10 35.55 34.51 33.81 31.59 30.39 30.11 28.23 27.22
45.35 45.49 45.34 45.32 45.47 46.07 45.51 44.94 45.39 45.39 44.60 41.50 37.64 34.50 35.66 32.69 30.16 29.24 26.32 28.29 27.93 30.82 33.05 32.77 32.22 32.92 33.97 34.44 31.08 28.17 24.84 22.44 24.95 23.69 21.15 23.52 30.38 34.07 33.65 34.06 34.32 35.83 32.98 30.80 32.99 34.30 34.56 33.57 32.38 28.49 28.57 30.20 30.79 30.31
45.13 45.35 45.30 45.30 45.39 44.35 44.22 44.85 43.96 42.40 38.56 29.24 27.48 28.53 28.92 26.55 28.73 27.10 26.73 27.44 31.03 32.57 32.57 32.93 31.79 30.28 30.83 24.06 27.84 24.48 22.26 22.41 22.78 20.92 17.06 23.02 29.13 30.77 31.20 31.71 31.50 31.81 28.92 27.77 29.49 29.84 28.66 28.05 28.20 26.99 23.31 28.69 28.84 28.87
44.99 45.22 45.17 44.71 44.72 43.65 43.66 43.42 43.22 39.62 32.71 28.70 23.87 18.87 24.49 26.35 30.40 31.58 32.39 32.57 32.56 33.27 32.92 31.80 30.87 29.08 25.84 20.64 24.93 22.39 19.54 18.83 22.25 16.42 18.91 24.32 29.34 29.91 29.79 30.53 30.77 27.96 26.87 27.17 29.71 28.29 27.36 26.95 26.23 27.47 28.00 25.72 28.05 31.58
45.18 44.48 42.86 44.18 43.79 43.76 43.16 42.72 39.43 35.46 27.90 25.90 24.52 18.91 28.32 29.23 28.29 30.15 31.62 31.82 33.31 32.51 31.46 29.71 18.81 15.77 16.74 15.93 14.67 18.87 14.94 13.28 16.51 16.55 21.53 26.70 29.46 29.50 29.27 29.05 29.36 29.33 28.40 28.83 29.59 29.07 29.02 26.16 26.23 28.45 26.99 26.10 28.01 29.72
42.85 39.59 44.00 43.59 43.41 43.07 42.47 38.33 33.80 30.09 22.84 18.65 17.79 28.90 18.76 25.45 19.64 30.57 28.89 31.93 33.58 31.05 26.05 19.86 16.54 16.97 18.41 10.58 12.65 19.63 14.79 17.48 18.08 21.90 24.42 27.35 28.63 29.05 29.22 28.86 26.87 27.95 29.33 29.02 29.37 29.16 29.16 28.86 25.79 22.79 24.76 28.90 26.40 26.34
38.11 42.93 43.57 43.45 41.41 39.86 37.71 33.41 27.07 23.86 21.91 20.09 19.59 17.13 27.22 18.61 29.95 30.37 26.41 23.63 32.15 30.10 24.39 20.66 21.37 12.98 9.31 9.71 11.23 16.71 18.40 19.69 22.70 23.04 24.96 27.12 28.50 28.68 29.11 28.82 30.34 30.00 29.69 29.52 27.55 27.86 27.77 25.43 26.11 28.13 28.08 28.75 26.10 24.64
41.65 42.29 42.88 42.20 39.23 33.41 28.88 29.82 29.85 21.45 19.62 18.14 19.63 18.36 18.39 17.99 20.69 21.07 18.34 23.28 31.52 31.42 29.25 24.52 10.31 11.56 13.93 15.56 13.04 12.19 11.04 15.59 22.66 26.12 25.92 28.18 28.20 28.46 29.29 29.70 29.74 29.61 29.28 28.60 29.05 29.56 30.01 29.33 29.28 29.56 29.92 30.19 29.26 30.13
42.66 42.26 41.65 41.63 38.79 28.62 25.08 23.29 28.39 23.75 20.24 22.96 19.58 19.56 19.89 19.82 18.88 20.64 28.71 24.91 28.18 29.01 28.10 25.09 18.79 18.39 18.20 21.37 22.54 21.62 23.31 23.92 23.01 23.25 26.17 27.46 27.73 28.67 29.05 29.44 29.54 29.41 28.61 28.19 26.90 22.98 29.00 29.75 29.13 29.28 30.57 31.10 30.95 31.07
40.16 39.98 40.01 37.30 33.17 29.07 25.29 21.86 21.13 22.92 23.69 22.19 21.94 21.88 18.23 18.28 22.13 21.15 20.17 29.82 26.68 27.03 25.36 24.66 19.93 23.79 26.75 27.46 25.49 26.05 26.88 26.13 25.91 24.58 26.01 27.28 28.81 27.31 27.94 28.61 27.28 25.70 24.36 24.02 26.24 27.88 29.91 31.36 31.80 32.83 32.84 32.48 32.69 32.51
38.22 39.64 34.53 35.05 28.14 22.96 23.65 23.96 22.74 21.95 19.89 17.91 17.70 18.49 11.65 10.11 15.90 23.43 19.32 27.15 24.57 24.49 25.29 23.91 27.33 27.85 27.32 27.03 28.17 27.85 28.54 28.51 28.50 27.96 26.28 26.68 25.49 26.60 24.20 23.58 21.08 20.55 28.10 29.24 29.26 29.47 31.17 32.07 32.60 32.52 32.54 32.45 32.45 30.14
37.51 35.03 31.01 30.20 21.08 15.72 16.81 23.28 16.82 20.11 14.63 13.90 14.82 13.76 10.62 9.21 16.09 22.14 18.04 23.92 22.45 26.48 28.52 27.73 28.31 29.54 29.04 29.83 28.16 28.60 29.16 29.21 28.34 28.17 27.09 26.66 26.24 24.14 20.47 21.66 17.33 20.82 26.41 28.66 30.61 30.77 31.60 32.31 32.18 31.41 31.77 31.73 29.57 26.80
35.57 27.49 22.51 21.09 14.72 11.30 13.95 25.12 18.94 15.98 11.15 14.00 10.56 8.13 11.55 11.21 14.69 11.19 12.57 13.19 23.57 23.96 24.94 28.00 27.68 27.09 25.73 26.32 26.40 28.36 29.63 27.58 27.21 25.45 24.23 20.91 22.20 23.55 22.17 23.46 22.74 23.82 28.16 30.45 30.06 30.43 31.96 32.23 32.04 27.58 27.33 27.73 26.62 27.15
20.29 23.15 17.80 21.38 25.09 22.10 18.54 13.26 10.57 14.37 13.42 6.81 6.27 6.08 11.63 11.05 10.29 5.05 10.08 16.97 14.79 17.33 22.99 23.09 22.26 25.22 23.86 23.03 22.50 25.47 24.90 26.91 25.52 23.86 24.99 20.84 17.58 16.54 20.31 22.03 22.98 25.78 25.15 28.03 27.85 30.58 30.98 31.87 31.54 30.22 27.61 22.86 24.22 23.82
11.47 17.46 22.52 21.94 21.45 11.99 11.54 9.94 15.72 11.33 2.09 3.96 6.36 10.21 3.07 4.51 5.74 9.28 15.31 16.09 13.37 15.73 15.52 15.18 15.94 17.92 21.61 25.39 24.35 23.96 26.31 24.66 23.53 21.71 23.42 23.34 22.63 20.66 22.05 27.26 27.13 23.79 21.70 27.29 30.79 29.93 29.75 29.42 30.63 29.97 28.91 27.48 23.96 26.90
10.66 17.85 23.51 22.60 20.99 17.66 10.01 5.49 9.28 6.21 3.41 7.67 6.90 4.98 5.64 6.27 6.49 14.69 18.99 19.46 21.41 21.00 22.60 24.90 26.09 25.48 25.58 26.48 26.39 26.47 26.19 22.20 26.28 25.71 23.32 23.89 25.79 27.27 28.05 28.26 25.06 23.58 27.62 30.79 29.57 28.70 28.16 29.16 29.51 30.06 29.52 29.81 28.38 28.97
16.71 15.47 18.57 17.36 14.27 13.50 7.96 2.46 5.00 8.45 10.64 15.06 9.19 7.90 10.21 10.72 13.71 18.98 22.56 23.36 22.42 24.20 26.00 26.08 25.22 27.17 27.43 26.15 23.30 20.95 24.71 23.46 17.30 20.68 21.83 22.89 23.85 22.88 18.03 27.84 28.27 26.19 25.93 27.51 29.17 29.66 29.37 29.43 29.82 29.37 29.87 30.16 30.05 30.48
22.82 19.02 15.04 10.03 11.01 12.79 14.78 14.57 13.16 16.75 19.80 16.46 11.31 7.76 11.91 17.93 17.64 18.18 22.48 22.71 21.97 22.48 20.44 24.75 23.55 17.93 21.42 30.31 30.37 29.67 29.39 28.14 25.30 19.84 15.71 16.88 23.17 24.82 21.82 23.25 28.29 29.66 29.30 28.59 29.08 30.37 30.16 29.05 27.75 27.68 28.25 29.37 30.46 31.47
17.87 20.91 21.48 18.44 18.17 18.14 18.41 18.35 13.66 13.50 16.36 21.64 21.00 21.42 21.64 18.84 18.51 18.70 18.93 19.73 19.51 16.72 18.61 23.77 27.60 28.58 29.83 30.24 27.89 26.79 26.40 25.56 26.98 26.68 22.22 16.27 16.53 16.77 20.94 26.70 27.76 28.83 28.80 28.48 26.93 23.10 19.85 16.37 18.46 21.33 23.99 24.88 26.04 25.57
12.34 9.00 8.38 4.79 8.01 12.34 16.28 11.57 5.77 7.12 8.19 15.00 17.42 20.98 23.98 21.37 14.26 12.65 15.16 14.81 19.99 21.89 21.42 20.68 23.51 21.64 21.63 21.31 19.22 18.19 18.37 17.61 17.56 18.03 15.23 13.30 12.24 13.16 17.43 19.02 19.53 21.50 26.02 21.47 23.22 15.56 10.56 11.93 14.01 15.75 17.26 19.56 20.81 21.84
14.65 11.08 10.97 7.87 11.44 15.19 7.40 12.01 10.75 11.00 16.48 6.50 21.80 9.75 8.18 11.65 12.30 9.85 14.60 14.36 14.16 14.41 14.01 14.91 14.94 16.75 19.41 20.55 18.35 17.49 19.06 18.82 18.62 17.89 17.08 16.26 14.51 13.92 14.06 14.78 15.51 17.21 17.28 19.38 19.17 17.53 15.81 14.04 12.64 11.54 14.05 16.44 13.75 11.89
2.67 -1.36 -3.50 0.86 5.60 6.07 6.66 7.88 5.60 5.86 2.02 9.84 19.02 15.67 10.89 14.97 13.18 12.71 14.68 15.19 14.52 14.23 13.99 14.88 16.00 16.75 17.83 18.97 18.62 17.78 19.09 19.34 19.44 19.81 18.75 16.63 13.88 12.29 9.55 8.49 8.18 9.46 11.17 12.77 12.18 12.13 9.75 6.61 4.95 4.94 6.50 6.82 6.48 5.59

GFSWCAN_sfc_wetblb_012.txt.gz
Wetbulb
49.61 49.71 49.61 49.62 49.63 49.73 50.09 50.20 50.12 50.12 50.19 50.17 50.38 51.36 51.15 50.51 51.00 52.10 50.14 51.02 47.71 38.90 42.18 46.01 45.97 42.43 41.32 38.54 34.03 38.40 37.71 34.62 34.86 32.28 27.34 28.33 18.84 27.54 27.52 30.69 27.86 27.12 23.39 21.46 25.13 25.54 22.73 36.22 36.77 32.78 37.38 37.63 38.68 37.73
49.45 49.51 48.93 48.99 49.11 49.31 49.78 49.79 49.76 49.76 49.74 49.74 49.95 50.30 50.91 50.61 50.53 50.65 49.27 51.02 49.89 45.11 43.65 47.46 48.74 48.29 46.71 45.20 42.12 37.74 38.79 37.07 36.03 32.71 31.32 25.94 24.85 28.28 28.96 27.06 33.02 28.02 32.05 30.73 32.26 29.08 35.79 38.77 40.10 40.23 39.53 38.67 38.10 37.69
48.60 48.93 48.82 48.70 48.85 49.12 49.24 49.34 49.43 49.31 49.46 49.44 49.69 50.14 50.59 50.60 49.97 50.92 48.95 48.93 46.71 39.49 43.00 44.39 44.27 48.28 51.49 49.90 48.54 39.70 34.24 41.36 38.40 38.90 32.81 30.06 31.57 30.63 31.16 31.51 28.29 35.46 38.42 33.30 33.88 36.37 38.21 41.51 42.83 42.41 41.19 40.56 40.75 40.22
47.59 47.70 48.88 48.44 48.35 48.66 48.73 48.85 48.87 48.91 48.99 48.82 48.95 49.51 49.80 50.13 50.69 50.49 48.45 47.65 46.47 41.23 33.87 40.23 46.04 45.66 49.04 50.52 48.43 47.83 45.84 44.37 41.47 37.95 32.99 32.95 33.31 39.08 33.60 37.35 35.86 37.43 37.57 35.69 35.08 39.82 40.25 40.62 40.35 41.37 40.86 40.78 40.27 40.33
47.25 47.03 47.19 48.35 47.88 48.21 48.55 48.39 48.26 49.00 48.73 49.29 49.87 49.53 49.65 50.08 50.41 49.65 49.15 50.61 49.94 46.24 36.59 37.97 43.57 45.99 47.30 48.02 47.94 46.73 46.25 43.61 40.10 36.38 33.67 34.38 33.99 35.87 34.20 34.65 33.99 40.44 37.97 34.90 35.18 40.53 40.64 42.05 42.11 42.44 39.93 39.03 40.20 39.43
46.85 46.69 46.64 46.89 47.63 47.68 47.88 48.03 48.21 48.17 48.35 48.55 48.86 49.38 49.54 49.58 50.56 51.29 46.96 48.55 50.25 49.73 40.02 35.47 41.68 40.28 43.09 44.50 44.59 43.54 45.01 43.62 41.46 39.39 34.93 37.56 42.04 38.01 32.77 32.89 39.73 40.99 42.83 43.43 40.88 44.06 43.77 42.06 40.69 40.70 39.64 40.15 39.68 37.51
46.25 46.53 46.66 46.37 46.69 47.45 47.45 47.28 47.45 47.61 47.81 47.99 48.32 48.62 49.04 49.13 51.29 48.28 44.04 45.10 49.91 50.92 37.13 35.30 34.88 36.14 39.35 41.48 40.93 40.58 40.96 40.65 42.74 39.41 35.83 37.07 37.44 40.81 32.93 35.00 40.26 41.79 41.81 43.08 43.75 43.27 40.16 40.30 37.79 39.71 39.04 37.32 36.64 36.76
46.03 46.09 46.12 46.19 46.37 46.51 46.82 47.05 47.25 47.59 47.77 48.01 48.15 48.15 48.39 48.77 48.31 46.27 46.00 48.62 50.55 44.86 39.82 34.76 34.55 34.99 39.24 34.12 34.17 38.37 35.08 36.84 39.72 39.57 36.16 34.56 36.28 34.38 33.63 37.20 38.91 40.05 41.36 41.46 40.20 39.19 38.02 39.22 38.20 36.73 35.35 34.38 32.63 32.02
45.91 45.52 45.31 45.62 45.97 46.08 46.33 46.67 47.19 47.79 47.79 47.97 47.97 47.95 47.01 45.32 41.81 43.57 47.05 47.34 46.80 43.73 36.57 32.95 33.31 33.13 40.21 36.61 34.83 32.68 33.94 32.75 36.41 32.93 33.99 35.87 32.93 33.40 34.51 33.55 34.51 36.66 36.57 35.86 36.80 37.09 36.10 33.10 32.80 32.02 31.81 31.03 30.44 30.24
45.67 45.28 45.07 45.20 45.72 46.06 46.24 46.71 46.89 47.57 47.75 47.43 45.77 41.84 35.49 39.11 46.74 46.58 43.23 39.41 38.34 36.18 36.30 33.13 35.56 33.66 39.93 33.11 32.93 33.99 32.75 32.19 30.04 32.54 34.12 32.19 32.28 35.44 34.04 34.69 34.78 33.97 34.36 34.68 32.49 30.63 30.51 30.13 30.50 30.29 29.80 30.16 30.20 30.15
45.74 45.44 45.00 45.12 45.80 45.22 46.22 46.62 47.01 47.21 46.10 42.26 37.45 35.11 41.96 46.36 42.34 37.58 33.43 33.81 33.97 32.95 33.07 34.17 33.60 33.97 37.38 33.75 32.93 32.92 32.16 31.61 25.52 23.66 29.05 28.05 27.33 29.65 31.84 31.43 33.01 32.66 33.06 32.42 32.61 32.38 32.75 32.44 31.31 30.39 29.77 29.87 29.31 28.40
45.96 45.48 45.16 45.34 45.78 45.94 45.21 46.08 45.86 44.08 42.79 41.94 42.03 43.55 41.46 39.20 34.50 33.51 32.19 31.42 31.80 29.28 32.06 31.74 33.17 35.64 34.00 38.19 33.22 31.56 29.54 28.64 23.71 26.65 26.29 22.62 25.64 30.89 33.69 33.70 33.58 33.26 33.11 32.86 33.17 32.56 32.61 32.43 32.63 31.50 30.45 30.10 28.54 27.01
45.39 45.34 45.30 45.48 45.53 46.28 44.93 45.11 44.98 45.23 43.97 40.31 37.11 34.46 35.96 32.51 30.67 29.61 25.52 28.51 28.69 31.18 32.86 32.57 32.21 32.72 33.75 34.47 31.42 29.59 23.65 21.36 24.57 20.72 20.04 22.34 28.92 32.22 31.37 31.46 31.33 32.26 30.75 29.38 30.55 30.75 30.40 29.59 29.10 26.58 27.83 28.31 26.19 27.46
45.03 45.10 45.21 45.40 45.56 44.46 45.09 44.97 44.47 42.55 38.90 32.06 29.65 29.39 27.55 27.43 28.68 28.65 28.76 25.87 27.96 32.39 32.57 32.56 31.41 30.40 30.32 28.76 27.72 22.08 23.08 22.91 21.60 14.27 14.96 20.94 28.79 29.45 29.47 29.75 29.47 30.14 26.15 25.82 28.28 28.79 27.12 26.28 26.48 26.68 25.02 25.24 23.77 25.29
45.04 45.04 45.14 45.15 44.09 44.25 43.91 43.51 42.72 39.94 34.72 29.20 26.66 22.70 26.62 26.79 28.55 31.98 32.19 32.56 32.36 33.27 32.72 31.59 30.64 28.01 26.48 22.30 25.80 23.42 22.01 18.50 20.54 15.27 16.06 23.49 28.06 28.88 29.01 30.00 29.01 26.50 24.78 25.09 28.77 26.63 24.71 24.57 24.61 26.21 27.52 25.36 24.42 23.87
45.11 44.72 43.24 44.62 43.78 43.92 43.28 41.63 39.10 35.53 29.47 26.88 24.39 19.42 26.45 27.75 27.91 29.85 31.86 31.66 33.39 32.71 31.46 28.54 20.30 19.17 19.42 20.01 19.38 19.82 17.71 14.54 14.99 13.87 20.31 24.60 28.54 29.01 29.11 28.19 28.05 28.13 27.72 28.38 28.49 27.73 27.38 24.57 24.22 27.82 27.98 26.60 25.84 25.38
43.86 39.75 44.19 44.02 43.46 42.09 41.92 37.89 33.82 28.91 25.02 20.86 19.22 27.50 22.01 23.28 22.03 24.50 31.40 31.52 33.05 31.29 26.00 24.47 17.48 17.19 19.79 13.92 15.51 17.80 11.73 14.96 17.11 19.88 22.85 26.53 28.24 28.48 28.56 27.99 26.09 26.97 28.10 27.65 27.87 27.21 27.53 27.16 24.11 22.68 23.91 28.50 27.47 26.59
39.75 43.25 43.81 43.40 41.31 39.73 36.29 32.47 27.42 25.50 22.37 22.36 20.45 18.17 28.25 25.27 22.01 23.06 29.01 22.75 28.51 27.83 26.14 21.28 21.10 11.80 7.84 8.61 9.85 14.81 17.76 17.90 20.47 20.87 24.53 26.67 28.12 28.23 28.76 27.93 29.22 29.03 28.62 28.24 25.88 26.18 25.66 22.86 25.02 28.42 28.11 28.32 27.75 28.27
42.17 42.49 42.67 41.83 39.28 33.69 31.63 30.00 29.77 21.68 20.51 20.13 20.44 21.61 19.74 19.86 25.44 24.40 21.34 25.84 27.54 28.94 27.58 21.80 10.60 12.52 14.64 14.81 13.70 10.28 9.75 14.92 21.79 24.71 25.38 27.48 27.37 27.64 28.04 28.68 28.48 28.73 28.09 27.01 27.49 28.06 28.70 27.93 28.11 29.60 28.62 28.40 29.14 30.94
42.41 41.62 41.06 40.36 38.78 29.45 25.26 23.28 28.88 24.94 20.76 23.15 20.54 20.14 19.29 19.30 22.91 25.54 28.12 27.36 25.94 30.32 27.97 22.49 18.92 18.44 17.93 20.26 21.76 21.13 22.23 23.04 22.02 22.07 25.27 24.57 26.45 27.53 27.93 28.52 28.65 28.69 28.13 26.92 25.12 23.19 25.60 27.96 28.03 26.35 27.92 30.90 30.64 31.45
39.82 39.56 39.27 36.60 31.98 29.68 25.36 20.62 20.68 21.45 22.88 21.15 20.77 20.81 17.39 23.07 24.30 24.46 25.26 25.84 27.75 26.08 20.09 23.25 20.04 23.69 25.71 25.23 25.15 25.48 26.25 25.65 25.54 23.62 23.79 25.32 26.68 26.37 27.43 28.12 27.36 24.78 21.57 19.86 23.71 28.11 28.12 29.18 30.22 31.14 31.56 31.12 31.53 32.23
37.73 39.49 34.14 32.51 25.49 22.65 23.14 23.34 21.96 21.54 19.15 17.23 16.46 17.42 9.49 9.12 17.01 22.48 19.16 25.19 24.93 22.26 25.03 23.47 26.70 25.78 26.57 26.71 27.24 27.42 28.10 28.00 27.83 26.69 24.29 24.82 24.79 23.73 23.60 24.39 18.80 21.29 20.04 21.48 23.21 24.70 28.39 30.01 30.31 31.64 31.67 30.87 31.74 32.15
37.02 34.75 28.62 23.30 19.15 16.23 18.62 22.58 16.69 19.17 14.05 13.46 13.22 12.55 9.77 7.81 13.35 23.93 22.82 25.52 22.79 25.62 25.93 25.27 27.23 28.48 28.14 28.86 27.36 28.21 28.29 27.81 26.92 26.90 26.17 26.47 26.55 24.54 20.76 21.69 18.92 20.26 21.15 24.20 22.67 24.86 29.07 29.69 30.33 31.96 31.82 30.79 30.14 28.79
35.76 25.33 20.93 16.68 12.79 13.70 16.16 18.39 18.24 14.49 9.64 10.16 8.38 8.31 10.78 10.01 15.01 19.84 15.19 11.84 22.18 22.14 23.97 27.56 26.53 25.02 24.21 25.15 24.00 26.45 27.86 26.54 26.01 24.90 24.33 21.63 22.38 24.23 22.06 22.11 19.64 19.77 22.63 25.63 25.60 29.21 27.95 28.89 32.09 31.09 31.75 29.47 29.22 26.22
21.76 23.70 15.85 18.53 20.27 13.36 11.79 20.41 12.94 15.59 17.46 3.76 7.95 7.01 8.46 9.02 8.97 8.49 10.30 15.29 12.03 13.76 19.66 20.21 20.55 23.78 21.99 18.89 20.24 23.15 23.41 25.26 23.66 22.88 25.81 21.87 20.05 15.54 20.49 20.84 20.59 21.71 19.69 14.96 18.52 21.35 28.29 29.88 29.40 28.68 29.40 29.49 28.22 27.69
9.19 21.42 19.23 12.78 19.70 10.90 8.84 13.35 16.08 14.44 0.88 2.51 11.02 7.03 0.07 2.52 4.91 9.26 14.03 14.74 11.05 13.50 11.93 13.12 13.90 16.19 20.08 24.14 23.37 22.40 25.67 22.77 21.05 20.56 26.65 24.15 24.44 24.33 19.20 17.41 21.68 23.37 18.82 26.32 27.66 28.51 28.04 27.48 27.27 27.23 27.42 28.24 28.26 28.27
12.09 19.23 24.41 22.60 18.84 14.70 7.02 3.37 7.72 4.37 1.60 6.43 5.09 2.76 3.51 5.47 4.91 13.62 17.66 18.43 20.43 20.40 21.40 21.51 22.67 24.17 24.75 25.61 24.56 24.38 22.98 19.53 22.53 24.70 20.99 20.93 23.06 24.81 26.72 26.72 25.17 24.18 25.30 27.84 26.05 27.51 26.98 27.21 27.10 27.06 27.82 28.06 28.04 29.04
15.20 12.81 15.98 20.21 18.81 11.81 5.72 1.42 3.54 7.06 8.66 13.25 8.12 7.18 9.63 9.85 13.09 18.18 21.76 22.97 21.42 21.23 21.91 22.93 22.92 22.92 22.98 24.26 24.25 20.19 23.68 24.54 24.88 21.80 24.95 26.71 25.86 23.08 20.75 22.02 24.00 25.78 23.11 27.03 28.44 28.26 28.33 28.51 27.46 26.56 26.35 25.84 26.43 27.76
22.42 19.02 15.67 15.56 7.77 6.68 10.98 12.94 11.15 14.95 19.19 16.69 12.69 7.91 11.97 17.05 17.69 17.60 19.16 18.69 16.15 19.32 17.99 17.84 20.25 15.63 19.11 20.40 20.71 26.83 29.93 29.35 27.01 24.58 23.15 23.16 15.60 21.10 22.39 21.19 24.14 25.78 28.33 27.96 28.30 28.20 24.31 19.37 18.26 16.10 17.35 22.84 25.05 26.48
18.18 16.21 10.82 6.17 10.73 12.93 16.78 20.34 14.00 12.05 13.98 16.53 16.43 18.27 18.79 16.83 12.88 15.40 16.17 18.00 20.42 21.73 24.20 25.47 25.01 24.78 24.71 24.35 26.07 25.23 21.53 22.27 23.38 23.65 20.90 15.60 14.75 16.36 16.85 19.21 19.72 21.97 23.34 26.52 26.04 25.34 22.63 11.25 13.61 13.77 15.33 16.36 16.41 16.62
8.01 8.86 11.56 6.84 8.49 11.09 13.11 5.11 1.51 2.85 3.46 10.05 11.30 17.97 22.20 14.65 15.73 10.59 13.83 12.33 14.03 14.93 14.66 12.83 14.17 17.78 16.08 15.68 16.76 17.88 18.35 18.07 17.68 15.73 14.92 14.24 15.11 15.94 15.54 14.97 15.53 15.41 17.55 17.62 20.83 15.01 10.83 7.11 4.77 4.23 9.41 17.04 12.06 11.36
16.47 9.73 9.66 6.31 9.43 8.67 3.59 10.12 1.24 2.83 5.68 2.13 17.75 6.45 5.78 8.48 10.10 11.43 13.78 13.07 11.70 10.45 11.42 11.94 11.46 12.77 16.27 17.44 19.02 18.64 18.53 17.19 15.56 14.89 12.89 12.56 12.54 11.98 10.48 10.37 7.11 5.58 3.59 4.66 4.83 4.57 3.04 1.31 0.06 1.80 2.57 4.96 6.30 5.74
-2.57 -2.02 2.15 -1.66 4.58 5.01 1.33 4.22 1.80 2.46 -1.24 -4.38 -1.67 0.32 -0.22 11.67 5.83 9.79 13.70 14.12 12.78 11.13 10.18 11.41 13.97 15.11 17.09 16.17 15.63 15.82 15.57 15.10 14.71 14.46 14.40 13.85 9.43 5.90 0.50 -1.61 -2.47 -2.27 -0.89 -0.85 -0.86 -2.77 -1.02 -2.13 -2.07 -2.24 -0.53 -0.04 0.47 0.64

GFSWCAN_sfc_wetblb_015.txt.gz
Wetbulb
49.77 49.85 49.65 49.41 49.22 49.41 49.61 49.83 49.85 50.15 50.31 50.42 50.60 50.99 50.42 50.37 50.68 53.01 52.37 51.32 48.41 40.04 44.14 47.42 46.62 42.92 42.65 40.87 38.40 40.54 40.50 38.52 36.64 33.50 32.96 32.60 30.69 32.80 32.16 33.15 30.73 31.56 30.56 28.37 28.85 26.83 25.85 38.90 39.13 36.22 40.48 42.09 42.02 42.40
48.98 49.03 48.84 48.87 48.77 49.06 49.44 49.60 49.73 49.70 49.79 49.84 50.20 50.75 50.67 50.21 49.76 51.45 50.87 51.15 50.11 46.50 45.08 49.45 51.31 50.66 48.88 46.75 43.37 40.18 41.41 39.16 39.94 34.80 32.89 31.39 31.66 29.81 31.36 32.25 35.32 32.49 35.27 33.51 33.84 34.21 39.92 40.61 42.23 43.78 42.66 40.51 41.35 41.81
47.66 47.98 48.91 48.28 48.60 48.76 49.13 49.30 49.27 49.23 49.33 49.58 49.95 50.59 50.75 50.56 50.77 51.23 50.47 49.81 47.25 39.85 43.86 46.16 46.45 49.66 52.11 50.95 50.14 43.21 38.45 43.06 40.78 42.05 36.50 34.21 33.69 34.11 31.56 31.30 34.18 37.05 38.49 35.55 35.80 40.07 40.82 42.48 44.97 43.55 43.48 41.21 40.70 41.03
47.17 47.14 47.77 48.44 48.20 48.40 48.52 48.77 48.72 48.74 48.78 49.02 49.00 49.69 50.21 50.37 50.21 50.29 49.96 48.49 47.19 41.54 34.05 41.28 46.52 47.10 50.88 51.51 50.68 49.70 46.24 44.11 42.30 40.56 34.41 33.50 33.69 39.46 34.32 37.95 36.94 39.57 39.11 37.18 36.55 40.83 42.06 42.30 42.35 43.13 41.47 41.41 40.84 41.58
46.74 46.67 46.78 47.17 47.90 48.01 48.22 48.43 48.31 48.58 48.60 48.95 49.42 49.60 50.39 50.29 50.12 50.15 50.06 50.82 49.70 47.14 36.40 38.01 44.74 46.76 46.71 48.56 49.64 48.17 46.63 44.72 41.36 37.31 33.87 35.14 37.46 37.01 37.31 36.08 34.63 41.00 39.54 36.82 36.46 42.68 41.88 41.89 42.46 42.44 40.31 40.00 40.40 40.04
46.47 46.56 46.51 46.62 46.83 47.32 47.68 48.00 48.04 48.20 48.69 48.58 49.40 49.40 50.17 49.68 50.29 49.75 44.89 48.47 50.68 49.51 38.93 34.41 41.98 41.23 43.04 45.90 46.60 46.28 46.53 44.68 43.49 39.45 35.30 38.78 42.84 40.04 33.14 33.26 39.78 42.83 44.04 44.90 42.45 44.33 43.73 41.59 41.25 41.04 39.78 39.75 38.32 37.19
45.98 46.33 46.38 46.42 46.58 46.87 47.26 47.48 47.63 48.19 47.99 48.55 48.53 48.98 49.25 49.09 52.06 48.24 43.72 45.95 50.29 50.27 37.85 35.14 36.95 38.17 40.59 41.52 41.14 41.50 42.91 43.80 44.35 39.80 36.03 37.64 39.24 41.04 32.96 33.93 40.64 41.28 41.65 43.20 43.43 43.43 39.47 39.86 37.30 39.08 36.91 36.72 36.86 36.45
45.76 45.82 45.96 46.11 46.37 46.56 46.76 46.74 47.46 47.97 47.97 47.95 48.33 48.53 48.73 48.94 48.35 47.08 47.46 48.78 50.28 45.66 40.90 34.95 35.14 35.18 40.10 36.36 35.86 38.90 37.46 39.42 40.28 39.57 35.96 35.86 37.28 35.14 33.84 37.58 35.95 37.44 39.74 38.99 38.32 39.47 37.64 36.63 36.44 35.98 36.18 35.58 34.26 33.56
45.44 45.16 45.34 45.53 45.97 46.21 46.65 46.81 47.06 47.59 48.09 48.47 47.97 49.02 47.99 46.11 42.55 44.46 47.17 47.41 47.03 45.29 37.49 33.32 34.05 33.69 40.11 36.91 35.67 35.42 36.76 33.87 37.15 33.50 34.41 36.44 34.03 33.59 33.73 33.87 35.19 36.07 37.31 36.12 35.01 35.44 35.66 34.39 34.56 34.85 34.74 34.64 32.81 32.96
45.29 45.01 45.14 45.02 45.83 46.11 46.42 46.70 46.90 47.43 47.72 47.88 46.65 42.82 35.48 39.11 46.96 46.63 44.26 40.14 38.12 36.74 36.99 33.32 35.90 34.95 39.78 34.77 34.05 34.41 33.32 32.96 31.93 33.49 35.15 32.78 32.96 33.84 33.83 35.52 35.40 35.28 36.20 36.23 34.19 32.74 33.42 32.92 32.92 33.37 33.35 34.04 33.21 32.49
45.49 45.35 44.98 45.28 45.34 45.47 46.49 46.63 46.83 46.72 46.42 42.82 37.61 35.30 41.79 46.25 42.58 38.14 33.43 34.14 33.99 32.40 33.77 34.30 34.15 34.70 37.55 34.14 33.13 33.31 32.78 32.58 28.40 28.96 31.31 30.39 30.00 31.71 33.17 33.11 34.73 35.30 35.53 35.28 35.64 35.14 34.26 33.31 32.27 32.20 32.50 33.14 32.68 31.93
46.05 45.51 45.07 45.54 45.58 45.50 46.49 46.29 45.82 44.41 43.19 42.93 42.19 43.53 41.93 39.29 34.89 32.57 31.66 31.65 32.22 31.39 33.04 33.07 33.41 35.66 34.20 38.31 33.59 32.15 31.01 30.13 25.45 29.04 28.31 25.95 28.93 32.42 34.43 34.35 34.33 34.73 34.62 33.91 34.00 32.77 32.65 32.08 32.59 31.66 31.45 31.35 30.96 30.64
45.28 45.21 45.14 45.46 45.93 45.55 45.55 45.57 45.41 45.54 44.00 41.52 38.13 34.48 35.57 32.90 30.88 30.04 27.51 29.55 29.96 32.16 32.90 33.11 32.22 33.50 34.09 34.98 32.01 30.74 26.53 25.02 27.78 25.16 24.07 25.90 31.09 32.84 32.36 32.55 32.69 33.36 32.44 30.65 31.99 32.37 32.44 32.07 31.09 28.75 28.94 29.74 28.62 29.26
44.98 44.94 45.15 45.49 45.13 45.30 45.56 45.60 44.76 42.24 39.21 33.78 33.35 30.11 29.64 28.71 30.07 29.62 27.83 28.70 30.64 32.57 32.96 33.14 31.42 31.46 30.62 30.02 28.58 25.67 25.68 24.96 22.96 20.08 21.21 26.34 30.80 30.55 31.05 31.71 31.34 31.41 27.05 27.02 29.67 30.83 29.16 28.04 27.90 27.74 26.00 26.98 26.13 27.29
44.88 44.76 45.29 45.06 44.50 44.14 44.45 43.99 43.20 41.22 34.63 29.01 29.46 25.53 27.20 28.01 30.37 32.22 32.42 32.96 32.57 33.46 33.32 31.98 30.31 29.92 26.99 25.93 26.87 24.67 23.03 20.83 21.31 21.09 23.78 28.01 30.17 30.54 30.88 31.56 31.02 28.08 25.56 26.59 30.60 29.17 26.98 26.51 26.47 27.59 28.88 28.97 29.16 26.85
45.07 44.73 42.82 44.01 44.17 44.09 43.32 42.63 40.59 37.15 31.37 28.95 25.84 24.75 26.98 27.25 27.49 30.21 32.05 32.05 33.44 32.57 31.40 29.69 24.90 25.47 23.97 23.95 22.25 21.30 19.97 17.31 21.73 22.65 25.83 27.95 29.62 30.32 30.56 29.89 29.58 29.67 28.88 29.33 29.87 29.22 28.85 26.83 25.84 29.22 28.73 28.03 27.22 27.05
44.60 40.05 44.29 43.72 42.89 41.51 41.29 37.57 34.64 29.17 27.53 22.16 21.81 25.91 24.61 23.98 27.28 28.38 32.55 32.78 34.39 32.55 27.40 24.91 21.83 22.64 22.82 19.67 19.99 21.92 18.45 21.67 23.44 25.34 25.87 28.08 29.52 29.73 29.67 29.03 26.93 27.92 28.98 29.39 29.57 29.36 29.26 29.19 26.90 25.89 26.60 30.60 30.29 30.02
39.96 43.24 44.04 42.99 41.63 39.99 37.07 33.61 29.06 27.24 23.33 24.01 21.34 24.78 27.59 27.84 23.89 24.24 28.52 30.76 31.15 28.21 26.24 24.52 23.81 17.76 16.73 16.32 18.07 20.51 22.19 23.90 23.97 25.60 27.93 28.97 30.20 30.12 30.03 29.63 30.32 30.33 30.24 29.78 28.31 28.22 27.71 25.98 27.80 29.27 29.46 30.27 29.56 30.22
42.80 43.40 42.87 42.37 40.30 34.55 31.18 30.62 29.67 22.12 20.64 21.62 23.12 25.54 25.09 26.74 27.17 27.01 27.72 29.76 31.18 29.97 26.80 23.19 17.80 18.88 19.87 20.84 21.11 20.08 19.90 21.73 25.95 27.72 28.14 29.50 29.26 28.98 28.72 29.45 29.09 29.69 29.57 29.13 29.78 29.80 29.72 28.67 28.73 29.51 29.78 29.70 28.77 30.13
42.09 40.96 40.40 39.89 38.86 29.45 25.98 23.76 28.54 24.45 21.53 23.71 23.48 23.84 22.75 23.56 26.14 27.24 28.77 30.70 32.03 31.90 29.21 26.05 22.66 23.35 22.42 23.81 24.40 25.32 25.77 25.59 24.81 24.87 27.15 27.92 29.15 28.65 28.96 29.87 30.27 30.72 30.34 29.68 28.39 24.57 28.09 28.84 30.13 30.84 30.08 29.99 30.42 29.99
38.86 38.96 38.25 37.00 30.85 29.42 26.25 22.00 21.60 22.52 23.84 22.36 22.22 22.43 19.98 25.65 25.49 25.73 26.82 30.08 28.55 27.62 25.02 26.06 24.72 26.71 26.97 27.26 27.70 27.69 27.85 27.43 27.03 27.17 27.37 27.27 29.29 28.60 29.43 30.03 30.22 28.95 27.52 27.53 26.36 27.56 24.76 28.18 29.90 31.03 30.37 30.35 31.36 31.28
37.53 38.74 33.53 32.42 26.32 24.47 24.23 24.04 22.84 22.17 20.36 18.44 18.15 19.04 12.39 11.88 21.10 22.98 25.05 25.47 25.27 25.19 26.08 25.42 27.29 28.20 27.92 27.69 28.79 28.80 29.30 29.23 29.34 28.43 25.80 26.54 26.51 27.48 26.99 28.21 26.48 27.17 26.46 27.01 27.49 27.62 28.68 28.80 30.31 30.18 29.97 30.62 31.51 31.33
36.60 33.82 27.64 24.48 22.50 20.48 19.42 22.91 16.72 19.38 14.73 14.14 14.15 13.80 11.17 9.94 14.68 24.18 22.78 25.44 24.56 26.40 27.56 27.12 28.22 29.36 28.72 29.34 27.74 28.85 28.91 28.49 28.03 27.75 27.04 27.32 27.89 28.36 27.31 27.47 26.52 25.29 25.46 27.15 27.80 27.59 27.70 30.40 30.38 30.43 31.25 31.10 31.10 30.93
33.24 25.75 22.23 17.46 14.09 14.63 15.11 12.21 20.03 15.87 10.89 11.22 10.33 14.15 12.19 13.18 19.98 20.27 18.45 16.95 22.47 23.40 25.05 27.92 27.71 26.62 26.16 25.51 25.87 27.42 28.56 28.35 27.99 27.12 26.97 25.93 26.17 27.43 27.98 27.48 26.81 25.33 26.58 28.82 26.98 27.01 27.88 28.46 26.80 30.36 29.36 27.93 28.49 28.79
23.19 22.88 16.88 14.72 15.84 14.53 7.73 19.17 19.75 21.14 9.77 7.57 14.11 11.39 9.08 13.25 11.02 15.63 17.11 18.38 16.81 18.18 20.83 20.71 21.37 25.15 24.14 23.31 23.01 24.99 24.65 27.01 26.56 26.37 28.73 25.48 26.68 25.16 26.81 26.74 24.96 26.09 27.43 26.93 26.67 25.26 26.06 29.78 30.00 28.81 28.04 27.67 27.27 27.80
15.35 21.53 11.99 7.86 10.36 10.56 8.02 14.42 16.56 16.96 10.11 12.84 13.90 7.04 2.94 6.11 7.45 11.57 15.42 17.75 15.95 17.79 16.93 18.41 20.29 20.64 22.28 24.50 25.27 25.48 26.96 26.11 25.43 24.80 28.02 27.01 26.03 25.77 26.36 25.55 24.89 26.98 27.52 26.80 27.30 27.77 26.67 26.64 28.02 27.58 27.78 28.40 27.84 27.09
15.84 19.40 22.70 20.75 17.50 13.42 7.94 6.14 9.43 4.95 9.76 9.21 6.43 3.41 4.66 6.87 6.04 15.02 19.25 20.04 21.96 22.12 22.97 23.79 24.45 24.55 26.56 27.65 25.59 25.71 25.52 23.64 24.92 27.20 27.10 25.70 26.25 26.90 27.56 28.44 26.94 28.12 28.62 28.74 27.90 27.13 26.97 26.89 27.14 27.54 26.39 27.29 26.97 26.54
12.19 12.31 14.59 20.09 17.65 12.25 5.20 1.05 3.41 8.81 8.75 12.79 9.43 8.49 10.13 10.86 14.13 19.21 21.28 22.14 21.62 22.63 23.79 22.80 22.33 23.54 24.39 25.51 25.47 25.14 25.23 23.72 28.71 27.83 26.08 27.10 25.03 24.17 24.44 25.29 25.87 25.78 26.37 26.08 28.35 28.85 28.16 27.91 25.92 24.43 25.27 24.68 24.73 25.47
18.89 13.35 15.01 18.61 16.04 16.09 9.01 11.64 12.03 14.83 18.17 14.96 12.27 8.76 13.29 18.18 15.59 14.99 17.02 17.15 18.85 22.66 22.35 22.60 24.96 23.39 25.05 23.88 24.87 25.42 25.47 27.13 27.47 26.05 25.50 24.16 25.53 23.36 20.16 21.30 22.74 24.16 24.79 25.66 27.44 28.80 27.63 25.96 23.95 22.53 22.80 21.57 20.67 20.33
18.05 16.97 9.60 8.85 7.74 10.67 15.19 17.04 13.29 10.11 14.03 16.34 16.72 17.94 18.13 12.64 13.45 13.43 13.02 12.76 12.39 12.44 15.11 15.98 16.68 17.76 17.44 16.38 16.75 18.37 19.65 19.98 18.91 20.04 21.63 19.82 17.44 16.53 16.69 16.86 17.53 18.23 18.83 20.98 22.26 23.19 19.38 17.80 17.10 16.80 16.32 15.99 14.66 13.59
11.23 16.66 11.04 8.04 7.67 10.55 9.54 0.82 -0.64 1.94 2.24 8.16 3.95 14.44 14.35 10.58 11.84 10.95 11.42 11.28 11.49 11.46 10.46 9.44 10.43 13.11 13.40 13.17 14.34 15.62 17.96 17.98 17.94 17.54 17.34 16.29 15.03 14.17 13.25 12.84 12.33 11.37 12.04 14.39 18.08 14.76 13.80 11.20 9.42 9.56 9.68 8.68 7.32 7.74
17.61 13.15 6.13 11.93 9.48 5.19 2.87 9.37 3.95 3.50 -1.49 2.21 5.42 -0.40 1.60 8.89 2.86 7.91 11.08 9.68 8.84 7.88 8.32 9.20 8.70 10.66 15.01 17.22 16.32 15.78 15.57 14.68 13.72 13.94 14.07 12.86 11.97 10.48 8.73 7.03 5.05 6.16 8.59 8.43 8.06 7.47 6.17 5.64 5.67 5.18 5.00 4.26 4.23 4.02
7.32 10.71 10.32 3.21 4.98 6.37 0.97 1.57 0.78 3.71 -0.22 -1.52 -3.01 6.31 -2.93 0.06 -1.73 5.21 7.06 10.59 9.42 8.48 7.16 8.35 10.33 14.69 14.36 13.06 12.18 12.37 12.45 11.79 11.74 10.86 9.57 9.72 6.85 5.33 4.44 2.98 2.33 3.05 4.34 4.44 3.57 3.68 3.13 2.71 2.14 1.59 0.71 0.02 0.17 -0.05

GFSWCAN_sfc_wetblb_021.txt.gz
Wetbulb
50.14 49.95 49.69 49.51 49.29 49.45 49.83 50.37 50.74 51.21 51.59 51.56 51.45 51.12 49.92 49.70 50.95 58.54 59.45 60.28 59.10 53.62 53.23 54.41 54.12 52.90 52.96 52.95 49.46 51.53 49.84 50.21 49.74 39.56 39.56 42.00 38.42 42.43 40.41 42.04 38.99 37.04 35.99 33.77 36.00 31.82 30.03 46.76 45.23 38.93 44.78 47.33 46.02 45.42
48.66 49.34 49.23 49.05 48.90 49.15 49.49 49.72 49.96 50.41 50.99 51.20 51.35 51.28 50.11 50.40 50.94 52.88 58.86 60.28 60.58 57.37 54.93 57.67 56.88 57.18 56.34 55.74 54.40 52.90 50.62 50.55 51.02 47.19 43.45 43.02 36.28 37.70 40.13 37.21 45.39 38.28 42.25 40.31 40.46 40.45 47.68 47.90 46.56 48.83 48.55 47.26 46.09 43.82
48.11 48.58 48.60 48.66 48.53 48.69 48.88 48.99 49.26 49.71 50.22 50.70 51.22 51.72 51.15 51.01 51.08 53.91 59.99 60.08 60.19 55.53 54.72 54.89 53.91 56.63 59.09 58.60 59.04 52.17 53.93 53.25 52.46 55.07 49.46 44.02 35.39 44.41 35.39 40.15 44.17 45.24 47.78 42.85 42.48 45.07 45.57 47.04 48.48 47.89 47.76 45.49 44.51 43.66
47.14 47.37 48.00 48.53 48.60 48.08 48.31 48.51 48.74 49.12 49.60 49.96 49.34 50.29 51.03 50.88 51.58 54.15 59.65 59.67 58.61 52.39 39.38 51.92 54.55 54.47 56.03 58.17 57.98 57.99 55.67 55.15 54.97 53.60 42.23 38.11 38.83 48.72 43.31 44.94 43.91 46.27 45.93 43.71 43.49 45.94 46.08 47.11 45.38 44.86 44.84 44.55 44.70 43.87
46.49 46.54 46.89 47.43 48.11 48.13 48.06 48.06 48.22 48.64 48.66 49.53 49.33 49.99 51.47 51.53 52.47 58.76 60.58 59.61 59.53 56.11 46.76 50.95 53.20 53.02 54.35 55.65 55.88 56.15 55.25 53.51 52.32 45.09 37.93 40.30 49.25 47.66 46.33 43.84 42.69 46.63 44.78 42.19 39.68 45.76 43.26 43.34 44.01 44.51 44.31 43.23 43.03 41.70
46.33 46.42 46.40 46.65 46.92 47.86 47.97 47.72 47.88 47.79 48.20 48.75 49.83 50.58 51.01 50.89 51.75 59.34 54.95 59.78 59.85 59.62 50.04 44.80 52.72 50.31 52.35 54.03 54.49 54.18 54.67 53.50 53.67 49.27 42.19 49.40 50.28 47.20 37.93 37.88 45.20 47.58 49.03 48.92 46.18 47.02 46.45 44.38 44.38 45.20 43.46 41.88 41.69 41.79
46.01 46.10 46.21 46.23 46.49 46.96 47.57 47.19 47.54 47.64 47.70 48.53 48.88 49.44 49.84 49.96 58.15 54.29 52.21 54.71 52.71 60.19 49.35 43.55 46.11 48.82 49.41 51.90 52.29 52.25 51.40 50.97 50.19 49.77 45.95 47.15 47.88 47.51 37.57 36.70 44.72 47.06 48.10 47.03 47.03 45.69 41.20 42.79 42.90 43.48 41.73 42.38 42.48 41.49
45.62 45.86 45.66 45.91 46.26 46.41 46.80 47.23 47.32 47.68 47.75 48.31 48.33 48.39 48.69 48.53 49.92 53.85 55.69 52.56 54.14 54.63 52.13 41.37 40.91 43.84 48.32 44.92 43.29 48.69 46.10 46.62 47.50 46.16 41.41 43.35 45.39 43.62 37.38 43.16 45.64 45.98 44.75 42.80 43.23 44.04 43.98 43.72 42.49 42.08 41.93 40.71 38.77 38.52
45.75 45.64 45.32 45.51 45.73 45.94 46.60 47.10 47.16 47.48 48.04 48.28 48.28 48.40 50.69 50.13 49.60 53.46 48.09 51.34 57.10 53.93 45.63 37.75 36.66 35.57 47.11 42.16 42.88 43.31 46.04 38.83 43.09 37.02 37.83 41.18 37.38 35.78 41.60 44.00 43.46 43.31 42.37 42.11 42.89 42.66 41.82 39.93 39.28 39.02 38.84 38.61 37.52 37.19
45.62 45.51 45.16 45.41 45.43 46.12 46.22 46.47 46.89 47.26 47.86 48.02 48.15 45.69 37.93 42.81 47.48 48.62 49.96 47.92 48.15 48.85 46.73 38.11 46.17 39.07 45.39 40.02 38.65 39.17 40.22 39.54 35.39 38.05 39.16 33.40 34.07 39.17 42.34 43.60 44.34 44.45 42.61 41.84 39.65 38.14 38.29 36.66 37.23 37.50 37.35 38.10 37.45 36.54
45.91 45.66 45.27 45.66 45.85 46.56 46.46 46.20 46.94 47.26 47.53 44.62 39.18 36.30 43.50 46.72 45.10 40.97 35.75 38.11 36.99 34.85 36.99 39.66 40.87 39.40 44.89 39.36 37.02 39.92 35.21 35.75 33.37 35.57 36.11 35.27 34.71 40.27 42.17 41.80 42.30 42.04 42.37 41.56 40.62 39.13 38.67 37.92 37.11 37.13 37.10 37.14 36.46 36.03
45.68 45.53 45.27 45.78 45.79 46.48 46.33 45.99 46.44 46.10 44.82 43.56 43.35 44.04 42.90 39.14 35.51 36.12 33.94 33.94 33.76 34.87 34.98 34.06 36.01 39.41 37.88 41.71 35.58 33.71 33.94 35.45 31.93 38.29 32.88 30.26 38.44 41.82 41.26 40.63 40.98 41.30 41.03 38.91 38.50 37.70 38.24 38.01 38.38 37.55 36.63 36.00 35.98 35.55
44.15 45.11 45.50 45.44 45.83 46.08 46.26 45.36 45.52 45.45 45.96 42.51 36.75 33.73 34.12 32.31 31.22 31.58 30.31 32.49 33.38 34.12 34.35 33.76 32.67 34.48 35.16 37.09 33.03 34.12 32.31 33.58 37.60 30.70 30.69 36.78 39.76 40.19 40.85 41.01 40.15 40.86 38.52 36.13 36.95 37.94 38.23 37.83 37.57 35.75 35.11 35.61 35.16 35.02
43.35 44.67 45.34 45.41 45.71 45.47 45.24 44.48 44.03 44.85 43.10 35.54 32.85 31.04 32.13 31.22 33.03 34.29 35.75 36.48 36.08 35.75 35.93 34.48 33.21 34.48 34.85 33.21 34.48 32.85 33.50 34.35 29.33 27.36 30.57 38.67 39.47 40.34 41.18 40.30 39.16 37.85 35.22 34.73 35.21 36.21 35.82 36.26 35.86 36.21 34.12 34.04 33.20 33.26
43.49 44.47 45.38 45.68 45.35 45.18 44.56 43.52 42.95 46.25 42.18 35.13 34.71 30.29 31.55 33.40 34.12 34.12 34.67 35.93 36.07 38.67 38.92 37.86 37.63 38.12 34.48 32.13 34.29 31.77 28.65 27.87 29.88 31.47 36.11 39.44 40.33 40.10 38.08 37.56 36.87 35.81 35.29 34.94 36.21 35.82 35.16 35.21 34.95 34.67 36.01 36.08 35.91 34.30
44.06 44.87 46.20 44.42 44.68 43.74 43.17 43.07 42.51 42.16 40.11 36.20 34.38 31.95 33.58 33.40 32.49 32.85 33.21 33.40 36.91 37.12 38.08 37.80 34.12 32.67 31.40 33.21 29.86 29.56 29.13 27.83 32.60 36.29 39.57 38.87 36.83 36.70 36.60 36.69 36.14 36.11 35.12 35.12 35.31 35.15 35.50 35.15 33.91 35.18 36.00 34.78 33.58 32.85
43.79 44.01 44.80 43.06 42.07 42.60 42.97 41.02 40.68 35.88 36.03 33.55 32.45 35.75 34.85 34.85 33.94 34.67 36.12 36.12 37.87 35.93 33.21 34.71 30.31 29.52 31.19 29.73 28.26 32.65 31.28 34.42 37.32 38.27 38.13 37.19 35.56 35.95 36.20 36.50 35.24 35.32 35.30 35.38 35.54 35.75 35.86 36.30 35.90 34.81 33.29 35.92 36.27 35.87
43.11 46.21 44.47 43.56 44.23 41.73 38.97 38.47 37.21 35.97 31.11 34.11 34.26 33.58 34.37 34.54 34.67 34.48 35.92 37.14 36.04 33.96 33.84 32.47 32.68 28.51 28.32 27.35 30.09 34.92 36.27 37.72 37.81 36.93 36.20 36.43 36.62 36.93 37.24 36.47 36.72 36.54 35.82 35.56 35.84 35.70 35.34 35.00 34.46 35.37 36.18 36.74 36.05 36.13
44.75 45.51 43.61 43.63 44.10 38.50 35.15 35.68 38.29 32.63 32.76 33.93 32.94 33.99 34.02 33.20 33.46 34.15 34.96 35.65 36.76 37.20 35.22 33.17 30.79 28.90 30.16 33.11 34.54 36.66 37.31 37.23 36.00 36.01 36.70 37.29 37.02 35.82 35.38 35.93 35.38 35.20 35.16 35.06 35.44 35.82 36.51 36.52 36.86 37.10 37.04 36.93 36.01 35.37
42.86 43.19 42.02 41.60 42.46 37.18 34.11 35.51 38.62 34.65 33.00 33.74 35.21 34.98 34.13 32.67 32.15 32.99 33.94 35.68 36.25 35.90 32.98 31.00 31.32 34.16 34.92 36.34 36.80 37.01 37.18 37.49 36.17 34.59 34.67 36.27 37.27 36.33 35.82 35.83 35.74 36.23 35.87 36.28 36.70 34.14 36.74 37.00 37.48 37.52 37.62 36.53 34.02 33.13
39.25 39.33 39.04 40.19 36.59 37.75 35.77 33.57 32.77 33.78 32.58 33.76 34.70 35.49 31.29 32.29 31.03 31.40 31.62 35.67 34.07 33.02 31.34 34.32 37.21 37.42 38.12 37.78 37.89 37.75 36.95 36.75 34.79 34.98 34.41 33.85 36.50 36.47 36.26 36.77 37.00 36.81 36.34 36.48 37.17 36.76 36.10 37.17 37.45 38.07 35.54 34.48 34.30 34.48
37.36 38.17 35.00 37.90 34.94 34.24 32.93 34.46 34.66 34.66 33.82 32.32 32.59 34.73 30.69 29.51 29.33 29.65 31.52 30.55 30.22 33.95 36.10 36.43 36.78 36.91 36.27 35.57 36.14 36.74 36.93 36.41 36.45 35.78 33.19 34.12 34.11 35.37 35.90 36.74 36.43 36.73 37.08 37.75 37.33 36.84 37.40 37.83 38.71 38.06 35.21 32.85 34.11 34.48
36.80 35.47 32.67 34.30 31.40 32.51 28.59 35.78 31.11 30.52 29.21 29.28 31.44 29.63 29.72 29.74 29.78 30.61 28.31 31.44 33.50 36.92 37.46 36.95 36.74 36.98 36.36 36.80 36.20 36.27 36.67 35.80 35.51 35.89 36.37 36.57 37.04 37.89 37.22 37.25 38.07 36.67 36.38 36.57 37.76 37.85 37.81 35.35 35.20 33.56 33.94 33.40 33.23 32.67
35.52 31.93 29.63 29.11 31.48 26.23 31.10 28.84 31.46 29.73 30.13 29.01 28.17 25.82 26.92 29.29 27.94 27.25 26.57 31.09 34.39 36.71 34.96 34.35 35.79 35.25 35.66 34.18 34.63 35.27 36.10 36.89 36.50 36.91 37.78 36.65 35.40 36.15 37.32 36.63 37.73 38.56 37.48 36.54 36.41 35.00 34.67 32.67 32.60 32.97 32.67 31.95 31.95 31.18
29.74 26.43 28.98 24.40 27.80 26.93 26.12 26.42 26.02 27.91 25.04 25.84 25.34 25.37 26.50 28.17 26.21 25.23 25.74 31.44 34.32 34.48 34.34 35.38 35.29 35.02 33.92 34.64 35.28 35.55 37.37 36.73 35.29 34.46 37.04 37.98 37.14 37.11 36.25 36.37 36.55 36.46 37.09 34.12 31.95 31.95 32.31 32.49 32.13 31.58 31.58 31.40 29.70 29.51
23.88 25.40 25.20 25.89 25.00 25.43 25.70 23.50 24.34 24.87 25.64 24.30 25.41 26.85 27.78 27.26 24.03 23.93 28.19 31.61 31.97 30.82 30.34 31.13 31.95 32.29 32.98 34.06 32.72 32.98 33.82 35.24 34.49 32.77 34.78 36.60 35.05 34.32 32.54 30.40 32.41 34.60 37.27 34.66 32.49 31.21 31.27 30.57 29.60 30.20 30.23 30.23 29.43 29.31
23.14 24.20 27.14 28.80 28.17 26.91 25.63 26.18 27.56 26.19 23.42 23.32 26.11 24.82 25.36 21.19 22.75 27.89 29.80 26.40 28.18 27.76 28.70 29.54 28.47 28.81 27.96 28.70 29.32 28.74 29.27 29.16 28.94 28.73 29.67 30.88 31.85 32.24 31.53 30.10 29.51 31.47 31.86 32.47 31.95 31.22 30.48 29.91 29.14 29.86 29.33 30.15 30.56 29.88
27.24 27.97 23.31 26.32 26.86 29.13 24.81 25.50 24.45 24.30 26.59 29.16 28.24 23.45 22.80 23.91 25.41 25.09 24.32 24.59 25.43 26.99 28.03 27.91 27.47 26.00 26.11 25.41 25.62 26.08 25.99 26.26 27.45 29.27 30.93 33.18 32.59 26.30 26.34 27.83 28.71 27.80 29.27 30.24 29.89 29.78 30.26 29.54 28.52 28.33 28.02 27.83 28.24 28.68
26.81 28.54 27.80 22.10 24.47 26.54 27.12 26.74 27.51 29.95 31.79 29.88 27.75 26.90 28.01 23.43 21.79 21.99 21.84 23.05 24.73 24.40 22.82 21.80 22.65 23.91 24.60 25.03 25.23 25.30 23.54 21.71 19.47 17.45 18.25 20.49 20.80 21.71 22.95 23.25 23.49 24.27 24.75 25.28 26.71 28.22 27.36 26.09 25.70 25.25 24.97 25.57 24.95 25.01
24.93 28.66 26.11 23.55 22.64 24.43 29.92 32.17 31.09 31.21 32.49 32.99 32.65 28.65 24.32 20.17 19.01 21.23 21.25 21.42 19.96 19.35 20.01 20.49 20.78 20.63 19.22 19.17 19.36 20.97 22.48 20.64 18.39 16.59 15.05 15.27 16.94 19.96 20.49 19.88 19.48 20.24 21.08 22.75 23.66 24.73 25.99 25.69 25.27 25.28 22.93 21.83 20.83 20.44
27.38 28.09 26.48 27.18 26.42 29.85 28.68 28.50 29.23 29.24 29.89 30.67 29.77 29.89 23.06 18.47 17.79 18.12 18.02 19.02 19.18 18.82 17.93 17.34 17.87 18.85 17.53 16.87 16.53 15.86 15.71 19.47 17.37 16.63 15.81 15.90 16.98 17.23 17.07 16.52 17.83 18.17 18.83 19.64 20.93 21.49 20.50 21.49 21.55 20.04 18.34 16.39 15.32 15.23
27.30 25.11 25.40 22.82 26.73 27.97 28.81 28.11 28.51 28.50 29.51 28.18 27.69 25.17 21.39 20.67 16.41 15.89 16.51 17.53 17.27 15.27 13.96 14.82 14.19 14.45 16.24 17.90 17.93 17.83 15.97 16.61 16.68 15.37 14.77 13.52 13.94 14.19 13.95 14.30 15.49 15.29 16.08 16.36 18.94 18.89 17.86 17.86 17.14 16.20 15.94 13.25 11.59 10.89
23.88 24.34 23.55 23.70 24.84 24.25 26.36 24.58 24.19 23.11 24.59 24.09 22.40 21.22 19.11 19.15 12.69 15.02 17.79 17.20 15.26 13.75 13.28 14.08 15.13 15.89 16.49 15.64 16.51 17.00 15.79 16.08 15.64 15.04 14.19 12.55 11.32 11.50 11.17 12.00 10.89 10.10 12.37 14.54 15.95 15.59 14.19 13.64 12.79 11.71 10.01 8.47 7.21 5.92

GFSWCAN_sfc_wetblb_024.txt.gz
Wetbulb
50.21 49.98 49.78 49.50 49.43 49.72 50.18 50.85 51.38 51.94 52.09 51.96 51.53 50.99 49.36 50.81 51.35 57.61 59.65 62.19 60.13 54.55 54.34 56.15 55.78 53.96 53.56 54.27 49.88 51.72 49.82 51.47 51.18 38.09 39.91 42.57 38.08 42.75 41.43 42.67 37.71 35.27 34.62 32.78 34.93 32.78 29.64 46.87 45.47 38.23 44.07 47.15 45.95 44.85
49.59 49.41 49.19 49.04 49.16 49.31 49.87 50.23 50.54 51.03 51.65 52.14 51.96 51.43 50.98 51.02 51.16 52.92 58.52 61.17 62.61 57.92 55.34 59.01 57.49 57.82 56.40 56.42 54.45 53.93 50.76 50.68 51.14 46.01 44.32 44.87 35.66 37.06 39.20 38.53 45.24 39.15 42.60 40.59 39.46 38.71 46.98 47.90 46.85 48.06 47.72 45.15 44.07 43.90
48.77 48.71 48.69 48.83 48.81 48.88 49.22 49.37 49.62 50.21 50.79 51.72 52.89 51.92 51.26 51.34 52.14 53.84 60.12 60.64 61.18 58.11 54.78 54.68 53.48 57.23 58.65 58.72 60.29 52.73 55.47 54.06 53.17 55.24 47.59 41.79 33.92 43.49 34.74 40.14 43.58 44.77 47.39 44.00 43.16 45.04 45.98 46.90 47.75 47.02 46.06 44.11 44.63 45.14
47.45 48.06 48.53 48.28 48.46 48.51 48.69 48.69 49.04 49.55 50.33 49.85 49.49 50.61 50.92 51.27 51.83 53.53 59.56 60.70 58.82 52.38 38.09 52.37 56.02 55.19 56.96 58.65 58.63 58.66 56.25 57.15 56.41 52.64 41.07 37.37 36.28 48.11 42.90 44.20 44.45 46.28 46.50 44.37 43.58 46.08 46.90 46.29 46.34 45.63 45.36 45.36 44.67 44.37
46.56 46.76 47.14 47.95 48.75 48.40 48.22 48.13 48.28 48.84 47.97 49.13 49.45 50.57 51.45 52.30 51.75 58.71 61.03 60.38 60.35 56.09 43.94 51.67 54.10 54.40 55.60 56.41 56.41 56.56 56.16 54.65 52.33 43.31 37.01 39.08 48.59 48.62 46.53 44.60 43.02 45.84 43.55 41.43 40.64 46.31 45.66 45.04 45.30 45.71 44.29 43.90 43.24 41.23
46.31 46.31 46.44 46.58 47.30 48.55 48.39 47.79 47.81 47.10 48.24 48.68 49.77 50.46 50.64 50.64 50.36 59.29 54.15 59.49 59.75 59.82 49.51 42.05 53.25 51.48 53.27 54.71 55.03 54.47 54.62 54.42 53.33 48.76 42.06 48.40 51.32 48.57 37.19 37.49 44.58 46.75 48.18 48.88 45.63 47.59 46.70 46.51 45.50 46.09 43.92 43.15 41.91 41.32
45.86 46.16 46.37 46.44 46.62 46.85 47.95 47.52 47.48 47.12 47.63 48.31 49.29 49.60 50.02 50.35 57.11 53.11 51.05 53.37 51.60 58.66 47.70 40.81 46.25 49.32 50.44 53.02 52.87 52.55 53.15 51.44 51.02 50.29 45.22 46.03 48.60 47.55 37.91 37.16 44.18 46.57 47.92 48.28 48.09 46.28 42.48 43.65 42.44 44.58 42.55 42.33 42.26 40.50
45.66 45.71 45.86 46.01 46.17 46.60 46.71 47.48 47.61 47.54 47.48 48.26 48.35 48.52 48.80 48.39 49.60 53.78 54.50 52.97 53.09 54.55 51.63 41.36 41.29 45.20 49.30 46.09 44.50 49.07 46.21 46.64 47.71 46.02 42.21 43.14 46.34 41.90 37.53 43.31 45.94 46.98 47.62 45.52 45.69 46.67 45.27 45.00 43.74 42.54 42.03 40.12 38.47 37.91
45.52 45.45 45.36 45.50 46.23 46.26 46.33 46.82 47.39 47.72 48.01 48.23 48.32 48.69 52.58 53.06 52.28 53.95 48.95 50.20 58.33 53.83 46.50 36.64 36.64 35.37 47.82 42.45 42.20 43.99 46.18 37.37 43.99 37.73 38.52 42.53 37.90 36.09 41.21 43.89 45.58 46.22 44.25 43.34 44.24 43.54 42.89 41.44 40.31 39.32 38.64 38.08 37.12 36.66
45.50 45.20 45.48 45.74 46.15 46.39 46.26 46.40 47.02 47.52 47.85 48.21 49.15 46.11 38.08 42.43 47.66 48.29 53.04 49.63 49.56 49.73 47.11 38.46 45.22 40.00 44.79 40.58 37.55 38.46 39.36 38.06 34.82 38.10 39.55 33.92 34.58 42.14 44.92 46.01 46.74 45.53 45.05 44.09 40.57 39.15 39.39 37.49 37.30 37.38 37.19 37.99 37.15 35.95
45.66 45.52 45.73 46.01 45.83 46.09 46.23 46.65 46.89 47.43 47.72 45.08 39.33 36.27 43.57 46.58 46.50 43.62 40.09 39.71 40.24 36.82 38.80 41.05 43.80 39.82 45.39 37.80 36.46 40.45 35.56 36.46 33.56 36.31 36.37 35.15 34.55 40.13 44.13 43.45 45.31 44.60 43.41 42.80 42.20 40.82 39.49 38.24 37.03 37.07 37.67 37.08 35.67 35.29
45.89 45.64 45.82 45.92 45.98 45.76 46.14 46.26 46.41 45.80 44.61 43.36 42.63 44.08 42.37 39.04 35.25 37.73 34.29 33.92 34.11 36.20 36.02 34.59 36.20 41.91 39.79 44.66 38.70 35.79 34.11 34.65 32.11 38.74 33.52 31.33 37.70 42.87 42.48 42.09 41.96 42.48 42.19 40.06 39.54 38.38 38.37 38.12 38.17 37.42 36.33 35.37 34.74 34.12
44.51 45.50 45.82 45.82 45.64 45.84 45.48 45.57 45.10 44.83 45.26 41.94 37.34 34.42 36.01 32.28 31.39 31.37 30.20 31.92 32.28 33.20 34.00 33.73 32.81 35.18 35.76 37.37 33.18 32.64 31.57 31.72 36.87 32.02 29.78 35.40 40.20 41.76 41.94 41.52 40.92 40.35 36.51 36.53 37.20 37.81 37.85 37.13 36.28 34.92 33.65 34.44 32.65 33.84
43.71 44.90 45.68 45.68 45.68 45.50 44.62 44.08 44.10 46.09 43.08 35.64 33.00 31.39 32.11 31.57 32.47 32.46 32.64 33.38 34.83 35.37 34.11 34.11 33.02 33.92 32.84 32.47 32.29 31.57 32.82 34.87 29.95 27.98 29.68 37.96 39.31 40.13 41.22 41.30 40.12 36.60 31.38 33.92 35.08 35.86 34.13 34.83 34.55 33.37 32.72 32.30 30.50 32.05
43.51 44.84 45.83 45.62 45.24 44.89 43.81 43.65 43.99 47.59 43.15 35.67 34.95 30.83 31.52 33.20 33.38 33.38 33.56 34.65 34.21 36.02 34.80 33.91 33.91 35.07 32.66 31.93 32.66 31.92 29.21 28.33 30.22 30.83 34.11 38.61 39.51 39.07 37.12 37.90 36.77 35.24 32.32 32.72 35.85 33.89 31.52 32.39 33.05 33.56 34.11 34.43 34.67 32.21
43.63 44.22 45.16 45.13 44.59 43.95 43.33 44.02 43.58 44.74 40.87 37.11 34.49 32.66 34.11 33.38 32.47 32.29 32.66 32.66 35.97 35.72 37.17 36.82 32.84 32.29 31.36 32.47 30.39 30.04 29.28 28.04 32.64 36.08 39.44 37.49 36.10 35.67 35.74 35.40 34.86 35.18 34.65 34.71 34.66 34.15 33.43 32.57 31.62 34.19 34.83 33.98 32.31 32.79
42.47 43.95 44.22 43.87 43.60 42.62 43.17 42.03 40.59 36.54 36.24 33.05 32.57 36.99 34.65 33.92 33.38 33.92 35.92 35.92 38.17 34.83 32.29 33.92 31.19 28.37 32.21 30.14 28.96 32.50 31.25 33.86 37.91 38.30 36.43 36.05 35.40 36.08 36.08 35.24 33.83 34.44 35.12 35.01 35.01 34.74 34.50 34.23 33.39 33.55 32.62 34.41 34.67 34.58
42.88 45.53 43.13 43.22 44.39 42.52 40.33 40.01 37.52 36.19 32.46 35.28 34.01 33.80 34.95 35.56 33.56 33.91 36.34 38.03 37.11 35.56 35.76 32.10 33.80 29.63 29.12 27.52 30.26 35.08 36.80 37.31 37.41 37.58 37.07 37.00 36.68 36.60 37.02 36.31 36.57 35.75 35.24 34.66 33.65 34.14 34.04 32.58 33.29 34.00 34.87 35.76 35.04 34.48
42.13 45.15 43.72 43.61 43.68 38.37 34.93 35.42 38.85 33.33 33.08 34.71 33.55 35.15 34.17 33.22 35.10 35.31 35.37 36.48 37.41 37.04 35.57 33.89 30.74 29.31 31.42 34.35 35.94 36.82 37.74 37.94 36.38 35.72 36.09 36.11 35.83 35.56 34.89 34.92 34.60 34.88 34.60 34.43 34.61 34.89 35.46 35.19 34.95 35.64 36.32 36.29 35.09 35.78
42.70 42.63 42.09 41.54 42.66 37.84 33.64 35.62 39.25 35.32 32.92 34.51 35.83 33.90 33.13 32.18 32.50 33.15 33.74 35.86 36.69 36.07 33.14 31.08 31.92 35.69 36.39 37.15 37.48 38.07 37.99 38.14 36.56 34.98 34.74 36.03 37.20 36.33 35.84 36.04 35.73 36.04 35.56 35.45 35.76 33.62 35.71 35.99 37.03 36.81 36.61 35.97 35.71 34.60
40.24 39.72 39.72 39.94 36.29 36.91 36.21 35.21 34.21 35.35 34.41 33.83 35.00 34.75 30.01 32.67 31.60 32.31 32.94 36.09 33.92 33.22 31.76 35.60 38.88 38.61 39.31 38.80 38.90 38.94 37.50 37.30 35.14 35.76 34.47 33.70 36.49 36.67 35.88 36.15 36.76 36.58 35.97 35.96 35.38 35.49 35.21 35.89 36.65 37.19 35.07 33.38 33.02 32.69
37.46 38.66 34.77 34.98 33.74 33.73 34.15 36.18 35.09 35.65 34.32 33.05 33.69 34.74 29.63 29.08 28.80 29.89 32.41 31.55 31.85 33.92 35.97 37.18 37.56 38.33 37.82 36.85 37.42 37.95 37.45 36.90 37.21 36.33 33.27 34.29 34.67 35.31 35.81 36.97 36.79 35.78 35.96 35.79 35.58 34.89 35.40 36.27 36.46 36.36 34.65 33.02 33.26 33.20
37.37 36.00 33.20 32.29 31.39 32.08 29.12 35.68 31.97 32.79 28.86 29.47 32.45 29.13 28.74 28.80 30.02 31.51 28.66 31.70 33.62 37.13 37.89 37.71 37.67 38.26 37.31 38.25 36.77 37.10 37.19 36.41 35.51 35.93 36.03 36.58 37.24 37.48 36.82 36.65 36.63 34.77 34.33 35.43 36.59 35.94 35.25 33.90 34.34 32.82 32.47 32.47 32.46 32.10
35.69 32.47 31.02 30.49 31.86 26.64 31.91 29.21 31.82 30.63 31.45 29.54 28.43 26.83 28.01 28.74 29.07 28.18 27.26 31.52 34.58 36.59 35.17 35.13 35.92 35.17 36.36 35.34 34.31 35.94 36.30 36.70 35.90 36.18 36.69 35.61 34.48 35.02 35.95 35.78 35.89 36.02 35.79 35.77 35.42 34.67 34.09 32.78 32.48 32.55 31.93 31.46 30.94 30.48
30.21 27.65 29.60 25.95 30.33 27.44 26.45 26.60 27.27 28.43 25.68 27.72 26.38 26.51 26.64 28.76 26.14 25.98 26.11 31.10 30.77 30.37 30.91 33.51 35.52 35.18 33.59 34.87 34.62 34.48 34.31 32.86 31.72 31.05 33.26 34.10 33.50 33.27 32.47 33.57 33.92 34.85 35.51 33.45 32.81 32.47 32.46 32.47 31.93 31.73 30.79 30.10 29.19 29.33
25.18 27.18 27.61 27.88 27.20 27.40 27.57 24.73 25.74 26.43 26.67 25.70 26.44 27.97 28.98 27.47 24.43 24.02 27.99 29.14 26.85 26.81 27.78 28.19 28.65 30.60 31.17 30.17 28.89 28.22 27.49 29.33 27.85 26.28 28.52 28.53 27.95 27.58 27.33 27.33 28.59 30.05 27.97 29.10 29.32 30.12 31.03 31.34 31.05 30.08 29.31 29.73 30.10 29.09
24.33 24.90 27.80 30.33 29.92 28.65 27.27 28.14 28.39 26.99 24.61 24.21 26.27 25.23 25.21 21.44 22.60 26.73 26.90 25.64 25.88 25.95 27.70 28.05 26.88 26.30 25.72 26.41 26.27 25.99 27.21 26.68 24.93 24.44 26.44 28.74 27.05 25.73 24.48 22.74 21.78 23.63 26.74 27.13 27.40 27.65 27.57 28.26 28.95 29.28 29.17 29.18 29.00 29.38
27.67 28.48 23.89 27.45 28.00 29.64 25.64 25.93 25.23 25.14 26.76 29.88 28.52 23.68 23.01 24.07 23.91 24.12 23.29 24.49 25.27 26.29 27.25 26.97 25.65 24.96 24.90 23.89 25.04 25.37 24.05 23.93 24.20 24.95 26.22 28.58 27.21 25.19 22.91 23.34 23.09 22.79 23.08 23.75 24.34 25.19 25.96 26.86 25.65 26.13 26.56 25.99 26.78 26.76
26.10 29.23 28.20 23.29 26.73 27.64 27.66 27.14 27.74 29.87 31.81 31.07 27.95 26.70 26.48 22.69 22.51 22.85 22.12 23.31 25.18 24.64 22.83 21.83 22.15 24.27 23.70 24.28 25.24 24.33 22.24 19.75 16.42 13.50 13.42 15.27 16.46 17.80 19.89 20.44 19.95 19.98 20.68 20.47 21.30 23.34 24.19 25.10 25.22 25.19 24.63 24.92 24.16 24.92
25.26 29.08 27.10 25.38 24.41 25.81 28.27 31.35 30.03 30.86 32.98 32.64 32.57 27.21 23.52 19.95 20.09 22.77 22.53 21.59 20.48 19.73 20.78 21.13 21.43 20.27 18.86 18.45 18.33 19.31 22.36 19.48 17.27 14.17 11.59 11.22 12.76 16.11 17.05 16.55 15.48 16.70 17.97 18.24 18.68 19.65 22.27 22.58 22.61 24.82 22.40 20.96 18.80 19.52
28.09 28.28 26.79 27.46 26.76 28.66 28.92 29.17 29.51 29.44 30.62 30.68 30.15 28.07 21.01 17.34 18.51 19.42 19.28 20.75 20.71 19.64 18.32 17.32 17.73 18.62 16.17 15.72 15.97 14.79 14.31 17.83 17.33 16.71 15.37 15.71 15.09 14.57 14.03 13.78 14.11 15.08 15.15 15.03 15.78 16.77 18.88 18.38 19.71 19.89 18.02 15.84 14.59 13.65
27.11 25.27 25.72 24.43 26.74 27.92 28.94 27.77 27.62 27.72 28.64 27.11 26.93 24.16 22.47 21.23 17.63 16.78 17.38 19.04 18.13 15.95 14.32 15.29 14.40 14.24 16.15 17.40 17.43 18.06 17.01 16.62 16.46 16.16 14.78 14.50 13.20 12.94 12.60 12.09 12.59 13.12 10.87 10.11 12.31 15.66 16.38 15.40 15.88 13.66 13.19 10.95 10.04 8.66
25.36 25.63 24.73 25.09 25.26 25.16 27.21 26.08 25.15 24.23 25.56 24.77 23.64 22.18 19.63 18.78 14.86 15.46 18.71 18.76 16.40 14.66 13.61 14.06 14.81 15.92 16.78 15.50 13.91 16.55 14.80 14.88 13.99 15.53 14.97 14.03 11.72 11.05 10.52 11.03 11.20 10.65 7.79 7.58 8.93 13.87 12.32 11.06 9.68 9.18 7.74 6.72 5.04 3.02

GFSWCAN_sfc_wetblb_027.txt.gz
Wetbulb
49.96 49.64 49.54 49.26 49.19 49.38 48.82 50.41 51.30 51.65 51.74 51.30 51.00 50.54 50.68 50.74 51.40 55.97 54.39 57.35 55.12 47.31 49.35 53.11 53.30 49.62 49.35 47.75 39.95 45.65 41.52 41.41 36.71 35.65 32.55 31.60 29.85 32.01 32.58 37.30 33.04 28.89 27.04 26.72 29.87 28.32 22.11 43.83 43.03 33.64 37.77 42.28 41.86 40.54
49.47 49.11 48.93 48.93 49.01 49.39 50.02 50.39 50.90 51.27 51.54 52.19 51.16 50.80 50.87 51.07 51.50 52.61 53.33 57.41 57.92 52.59 50.68 53.99 53.43 54.53 53.59 52.99 49.18 47.39 43.79 46.34 44.52 37.46 34.18 34.93 32.58 34.74 32.16 27.87 40.32 31.50 34.74 31.20 32.33 30.70 40.01 43.47 42.26 44.35 44.12 41.51 41.17 40.43
49.19 49.01 48.65 48.63 48.79 49.22 49.62 49.79 49.99 50.46 51.00 53.07 50.33 48.98 50.02 51.00 51.39 53.24 55.24 56.29 55.68 47.22 48.98 49.94 49.31 53.17 54.88 54.89 55.45 45.89 45.21 49.78 48.12 48.56 39.22 39.46 32.65 35.51 27.70 31.22 32.82 39.21 43.40 34.01 36.10 40.98 42.27 43.51 44.07 43.84 43.47 42.67 42.95 42.96
48.74 48.47 48.40 48.38 48.65 48.81 49.15 49.07 49.36 49.88 49.30 49.31 49.26 49.64 50.16 50.80 51.09 54.19 54.88 55.99 52.28 47.20 36.43 45.48 53.40 51.24 54.23 54.79 54.88 54.06 51.99 52.16 50.47 44.77 37.62 36.59 32.31 42.32 33.12 35.96 34.03 39.14 41.78 39.51 36.00 41.00 43.40 44.88 44.21 43.19 42.98 44.11 43.92 43.77
47.22 47.70 47.72 47.79 48.22 49.08 48.49 48.37 48.42 47.98 48.16 48.64 49.44 49.88 50.25 50.02 50.71 55.89 56.53 56.17 55.91 51.20 38.66 39.74 50.90 51.80 53.39 53.33 53.28 53.44 52.02 49.58 44.62 38.16 34.96 34.39 34.22 37.11 33.11 34.08 33.33 43.03 39.30 34.36 31.33 42.09 41.27 41.47 42.92 44.23 42.85 42.85 41.45 38.93
46.28 46.50 46.87 47.79 48.17 48.14 48.07 47.72 47.09 47.02 47.94 49.00 49.72 50.20 50.71 49.86 50.48 55.99 50.27 54.56 53.55 55.36 43.62 36.04 47.91 47.84 50.19 51.24 51.14 51.00 50.59 49.22 47.32 40.45 35.33 40.92 47.22 39.35 34.78 33.77 41.09 44.64 45.77 45.03 42.01 44.75 43.96 43.27 44.25 45.68 43.77 40.71 40.00 38.96
45.99 46.15 46.41 46.55 46.93 48.14 48.59 47.36 45.93 46.69 47.56 48.71 49.18 50.23 49.58 49.20 52.05 49.52 47.27 50.04 48.91 52.74 40.20 35.71 39.27 45.27 47.17 49.04 47.75 49.58 48.09 45.90 45.78 41.84 37.11 35.60 37.81 41.45 34.22 33.56 40.91 44.41 45.03 45.08 45.49 44.01 40.62 43.02 40.74 43.10 41.26 40.48 39.62 37.59
45.60 45.89 46.17 46.28 46.27 46.48 47.06 48.10 47.63 46.66 47.25 48.37 48.95 49.06 49.39 47.56 49.29 50.24 50.48 50.20 49.64 48.49 43.82 35.88 36.61 36.59 46.04 37.30 38.90 43.87 38.59 43.22 44.14 41.19 38.93 36.30 38.38 35.71 34.69 40.42 43.01 44.62 44.70 44.44 44.52 45.51 43.49 43.54 43.45 40.66 38.70 37.18 35.51 34.41
45.50 45.60 45.76 46.00 46.21 46.25 46.36 46.82 47.90 47.98 48.01 48.45 48.70 49.88 51.64 49.16 45.88 49.19 48.14 48.72 53.62 48.69 37.65 34.24 31.52 29.78 43.15 39.15 37.63 38.15 42.41 34.60 40.69 34.42 35.69 38.56 34.22 34.39 39.21 40.90 42.73 43.75 41.84 41.53 43.46 44.31 43.81 42.65 38.01 36.45 35.82 35.14 33.61 32.56
45.41 45.46 45.44 45.27 45.75 46.04 46.10 46.61 47.45 47.78 48.23 48.28 49.10 46.37 38.04 41.62 46.88 48.89 49.12 41.46 41.61 42.44 41.47 34.22 37.46 35.30 40.90 35.49 34.42 35.11 34.22 34.04 32.96 34.97 38.05 32.96 33.86 39.24 41.76 42.94 42.62 43.41 43.63 42.98 39.34 37.72 37.06 35.92 34.57 34.47 34.62 34.50 33.39 32.44
45.68 45.69 45.68 45.51 45.85 46.22 46.57 46.60 47.23 47.74 47.72 44.82 39.25 35.85 42.48 46.43 45.03 40.22 35.66 37.28 37.36 35.16 36.74 37.82 37.06 37.29 40.39 33.89 33.66 35.31 33.14 33.48 31.06 30.63 33.60 32.44 31.90 36.26 40.57 41.15 41.70 41.97 41.54 40.07 39.09 38.16 37.60 36.19 34.19 33.95 33.59 32.10 30.90 30.26
45.84 45.96 45.75 45.30 45.32 45.45 46.06 46.11 46.15 44.70 43.41 43.26 42.47 43.70 41.75 38.73 35.55 35.30 33.86 33.45 34.55 33.65 34.15 33.85 34.74 38.25 35.82 41.41 34.66 33.83 33.23 32.76 29.53 35.91 32.22 29.14 32.09 39.00 39.18 39.48 40.25 40.29 38.99 38.06 38.40 37.00 36.09 35.98 34.96 32.34 31.28 30.67 30.93 30.58
45.18 45.66 45.88 45.43 44.99 44.87 45.31 45.16 44.93 44.48 44.44 41.54 38.00 34.60 36.34 32.00 31.27 31.45 30.24 30.74 31.81 32.20 33.78 33.14 32.76 33.30 34.82 36.42 32.56 32.53 31.46 30.76 33.53 30.89 27.41 28.49 38.32 39.97 39.43 36.11 34.77 34.88 33.44 33.02 34.72 35.57 34.86 34.31 33.72 30.81 29.02 30.74 26.80 29.76
44.33 45.40 45.45 45.59 44.68 44.26 44.30 44.34 44.49 44.74 41.23 34.73 32.92 30.11 31.66 29.97 30.71 30.33 31.43 32.22 32.94 32.77 32.77 32.96 32.20 32.38 32.23 32.37 31.84 30.30 31.08 31.45 28.51 23.57 22.40 33.42 37.20 38.65 38.45 36.22 33.70 31.27 29.65 30.21 30.85 31.26 30.49 29.69 29.48 28.47 27.92 27.00 24.19 28.16
43.91 45.02 45.70 44.85 44.77 44.07 43.65 43.85 44.47 44.36 40.05 33.51 33.26 29.22 29.62 31.29 31.99 32.17 33.06 33.38 33.09 34.00 33.68 32.74 32.56 32.91 31.48 30.71 31.10 29.77 27.55 26.59 27.94 28.13 30.93 33.66 34.12 34.32 32.92 33.40 32.28 30.64 27.34 29.28 31.18 30.06 26.34 26.96 28.11 29.73 29.95 30.06 30.39 27.50
43.66 44.70 43.97 44.75 44.01 43.83 43.73 43.90 42.14 40.78 32.94 33.17 32.33 30.06 31.90 32.20 31.64 32.05 32.06 31.88 34.36 33.68 34.04 33.47 31.28 31.10 29.23 29.80 27.95 28.10 27.16 25.88 29.06 31.29 32.97 32.49 32.34 32.88 32.58 32.03 31.02 31.67 31.30 31.31 31.16 31.14 30.04 26.77 25.56 30.34 30.30 28.92 28.08 27.95
43.60 42.54 44.09 43.77 43.05 43.19 43.29 40.10 37.80 33.46 30.09 32.37 30.83 33.66 32.58 32.65 32.14 32.31 33.51 33.30 36.08 33.48 31.19 31.61 28.62 26.41 30.01 27.38 26.80 29.85 28.49 30.12 31.82 31.18 31.82 32.42 32.16 32.08 31.50 32.08 30.71 31.86 31.91 31.82 31.52 31.15 30.89 30.86 27.73 27.98 28.75 31.50 30.89 30.88
41.78 43.55 43.41 43.51 44.06 42.19 38.94 38.83 32.41 31.02 28.63 31.82 31.27 31.85 32.29 32.77 32.19 32.23 32.96 34.04 33.83 31.12 31.23 29.40 30.29 27.00 25.25 23.89 26.43 31.11 30.37 30.98 31.64 31.33 31.49 32.33 32.66 32.70 33.87 31.74 33.76 31.25 30.93 31.05 29.61 30.73 30.49 27.07 29.38 30.26 31.01 31.67 30.53 29.71
41.63 43.99 43.01 43.55 42.16 37.03 33.77 33.80 35.66 28.82 30.33 29.05 31.31 31.96 31.62 31.41 32.50 32.74 32.96 33.48 33.96 32.67 30.62 28.41 26.56 24.51 25.94 28.63 29.73 31.14 30.58 30.03 30.10 30.93 31.52 32.21 32.27 32.15 32.35 32.43 31.72 31.16 31.20 31.17 31.02 29.86 30.12 31.38 30.68 30.73 30.67 29.76 29.56 29.42
41.67 41.20 41.54 41.74 42.03 34.67 31.89 30.23 34.87 29.91 29.41 30.25 31.87 31.41 30.56 29.97 31.05 32.05 32.59 32.77 33.03 32.13 24.97 23.21 24.30 26.87 27.96 29.47 30.19 30.37 31.11 30.89 29.95 28.47 29.20 30.63 31.15 31.83 31.40 30.69 30.07 31.25 30.48 31.46 30.50 27.88 29.15 29.78 29.90 29.90 29.51 26.74 23.65 26.32
40.60 39.56 39.81 38.85 34.78 36.22 32.81 31.88 31.48 31.20 29.35 30.63 31.14 30.50 28.31 30.01 29.70 30.25 31.28 32.44 31.64 25.48 26.26 27.62 27.46 30.05 32.40 30.75 30.49 30.36 31.12 31.34 29.57 28.01 27.65 27.72 29.64 29.50 29.43 30.58 30.88 29.63 28.30 27.82 25.87 28.16 25.71 28.41 31.12 29.87 24.25 29.69 33.20 32.47
37.23 38.84 34.13 35.50 32.32 31.84 29.69 31.82 31.63 28.90 30.94 27.94 30.90 30.72 27.58 26.73 27.15 28.72 30.15 28.40 25.48 26.88 29.45 28.13 30.02 29.43 30.24 31.49 31.61 32.07 31.93 31.31 31.36 28.96 27.56 26.82 26.80 27.08 27.30 27.94 26.69 25.65 26.80 27.89 29.11 30.78 31.57 31.09 31.07 26.27 31.00 31.80 32.56 31.73
37.38 35.96 32.40 32.20 29.29 30.11 26.02 31.23 26.94 30.21 23.00 27.81 28.81 23.85 26.95 27.08 28.14 27.87 26.68 27.36 26.93 30.43 30.39 31.53 32.22 32.26 31.54 31.68 31.18 31.07 31.43 30.80 28.08 29.11 29.79 29.09 27.95 27.85 29.01 29.27 28.09 27.29 28.90 29.75 28.61 30.17 30.72 30.01 27.27 23.96 24.64 31.64 31.70 28.84
36.74 32.16 27.32 29.76 30.69 26.41 30.72 28.31 29.75 28.84 28.27 26.48 26.42 20.48 25.73 26.73 23.67 21.43 19.03 22.06 26.68 28.61 29.66 30.02 30.06 28.31 28.81 30.20 28.28 27.45 27.71 28.56 27.45 27.13 27.79 27.04 26.43 27.17 27.13 26.76 27.15 27.13 27.85 28.27 28.96 28.53 29.26 30.11 30.50 27.92 31.23 30.44 24.24 24.02
28.70 27.06 28.26 25.42 28.28 25.14 24.52 25.06 25.90 21.81 18.57 23.43 20.41 16.90 19.69 22.01 16.87 15.74 16.95 26.17 25.99 26.34 27.26 27.51 28.04 28.43 26.60 24.66 25.83 25.59 26.09 24.85 23.26 22.41 24.02 23.67 21.61 22.41 23.44 24.74 24.58 24.87 23.77 23.38 23.33 24.14 24.22 26.77 28.72 29.57 27.12 25.24 24.77 25.12
24.45 26.73 25.10 24.57 21.88 24.79 24.99 22.27 21.07 18.45 18.92 18.90 21.65 23.14 20.81 17.61 14.15 13.19 23.28 23.96 24.63 24.26 24.91 25.00 24.08 23.69 23.88 24.35 22.34 21.78 22.93 23.78 21.78 19.20 21.13 23.08 22.53 18.87 17.75 16.92 16.27 16.98 19.68 21.25 20.33 19.93 19.76 21.24 22.58 24.13 26.22 26.20 26.34 26.52
23.01 24.29 26.99 28.25 28.91 26.87 24.12 24.66 25.97 23.75 21.46 18.53 19.24 20.32 18.45 10.25 8.85 20.83 24.25 23.81 24.12 25.24 26.78 25.98 24.23 22.15 21.91 21.57 22.28 24.01 21.82 19.66 17.22 19.24 21.31 24.45 21.18 19.25 17.34 14.96 14.05 16.54 18.38 18.55 17.49 17.24 17.87 19.44 19.90 20.52 22.04 24.11 25.84 25.04
25.38 24.73 19.46 24.96 26.80 27.44 24.16 23.22 23.10 22.71 22.64 25.64 23.70 17.65 13.82 13.49 18.11 21.72 22.47 23.69 24.26 25.73 25.49 23.58 21.43 22.40 21.11 22.17 23.08 16.22 12.84 12.98 13.85 14.47 16.67 21.18 17.79 12.99 13.79 13.97 14.46 16.08 13.56 15.25 15.74 16.28 16.95 17.62 18.38 19.63 20.56 21.95 23.14 22.11
26.01 28.44 26.00 21.14 22.37 23.49 22.34 21.33 22.04 25.82 28.43 25.69 20.53 18.13 20.07 19.74 19.29 21.31 21.26 22.67 23.43 22.10 17.63 18.02 14.16 14.85 14.62 15.17 15.67 17.09 9.13 6.38 6.53 2.74 -0.62 0.04 5.71 7.34 11.92 12.31 11.50 10.78 11.34 12.55 13.89 15.23 16.21 16.75 19.14 18.96 19.33 20.81 19.49 15.44
24.52 27.80 21.99 18.48 16.84 20.28 25.99 27.80 28.27 28.24 25.69 26.03 23.95 21.11 18.93 17.68 17.17 18.62 19.49 16.74 14.86 13.75 16.98 15.88 15.85 10.33 5.32 4.41 4.73 6.43 13.02 9.01 3.31 3.04 0.16 -1.10 6.85 10.17 9.09 8.97 9.04 8.76 9.53 9.87 8.33 7.99 12.25 14.36 17.60 18.30 18.21 14.40 14.73 11.49
26.23 26.97 25.49 24.79 24.67 26.14 26.46 27.12 27.97 27.55 28.44 27.71 27.49 22.06 16.46 13.19 13.57 14.49 13.75 16.50 15.94 7.44 8.15 6.79 6.72 4.89 2.93 3.20 5.36 2.87 2.76 2.35 4.29 9.35 7.00 3.14 4.78 2.80 1.11 6.12 6.46 7.79 8.81 6.16 4.25 4.89 5.82 10.72 13.67 13.45 11.48 9.30 8.78 6.83
25.86 23.71 24.17 21.15 23.27 26.42 27.26 25.52 25.72 25.38 23.38 24.56 21.62 19.61 13.50 10.54 5.76 8.76 6.45 11.18 11.38 5.27 4.60 3.29 1.76 3.39 2.68 6.92 3.28 1.69 11.53 4.09 1.17 1.18 5.02 6.50 4.57 2.98 4.20 3.05 5.00 6.14 7.03 -3.64 2.92 4.63 5.88 9.01 8.93 7.86 7.38 4.88 3.82 2.93
23.13 22.35 20.00 15.32 15.77 16.10 20.15 14.64 14.43 13.14 13.68 13.08 15.38 15.07 10.72 7.62 3.39 6.97 10.74 8.47 5.27 1.79 1.00 1.01 0.96 1.49 7.90 3.76 -0.26 2.57 1.03 -0.87 1.92 11.12 9.21 10.08 6.54 3.00 0.27 3.47 7.21 6.80 1.85 -0.92 1.89 5.68 5.18 4.88 2.75 2.56 1.50 0.29 -0.93 -1.99

GFSWCAN_sfc_wetblb_030.txt.gz
Wetbulb
49.74 49.50 49.26 48.98 48.69 48.27 48.92 50.02 50.60 50.84 50.82 50.43 50.08 49.94 50.47 50.67 51.14 53.01 53.05 54.83 52.03 44.48 48.57 51.09 50.96 47.69 47.15 44.21 38.16 43.25 40.36 39.26 36.81 29.70 26.99 32.48 24.36 30.40 30.49 34.97 31.76 28.99 26.77 24.17 23.37 17.12 21.61 40.15 40.76 33.49 36.39 40.18 40.65 40.04
49.22 48.86 48.71 48.54 48.13 47.77 49.09 50.26 50.47 50.62 50.97 49.72 47.69 48.05 49.77 50.45 50.90 53.51 51.05 55.54 55.11 49.89 49.28 51.76 52.09 51.82 51.82 50.45 46.93 43.90 41.05 42.15 40.47 35.39 34.00 36.02 26.61 32.62 29.18 27.57 37.98 30.84 32.30 29.88 32.05 31.08 37.72 41.31 40.40 42.01 42.90 40.36 40.05 39.53
48.86 48.60 48.55 48.59 48.61 49.24 49.71 50.00 50.05 50.41 51.92 47.78 48.20 48.56 49.14 50.36 51.57 54.34 53.10 53.48 51.44 44.27 46.63 48.33 48.34 52.50 53.35 52.58 52.99 44.06 42.53 48.21 45.73 42.69 37.83 32.04 26.37 33.02 29.03 30.79 32.33 38.13 41.26 33.41 34.33 39.02 40.22 41.97 42.30 42.11 42.14 40.90 42.97 42.91
48.53 48.37 48.23 48.34 48.61 49.13 49.46 49.15 49.16 48.85 48.87 48.65 48.81 49.01 48.85 49.89 51.67 53.75 52.99 52.96 48.49 43.70 35.33 43.76 51.99 49.87 53.44 53.73 53.28 51.43 49.98 48.97 45.70 41.45 36.21 35.88 29.13 38.06 30.47 32.91 31.61 36.16 39.91 37.59 34.16 39.38 41.77 41.93 41.41 41.78 41.76 42.76 43.78 44.08
48.12 47.92 47.94 47.98 48.25 48.52 48.88 48.69 47.48 48.33 49.30 49.37 49.73 50.08 49.47 49.81 51.33 54.53 53.34 52.15 52.49 45.61 38.30 38.12 48.67 50.78 51.51 52.05 52.08 51.73 50.09 47.31 41.01 36.69 33.52 33.62 31.93 35.11 33.26 31.83 32.74 41.13 38.78 33.21 32.44 40.00 39.98 39.92 41.96 42.49 42.62 43.32 43.53 38.42
47.58 47.60 47.60 47.76 47.78 47.94 47.94 47.28 47.04 47.68 48.42 48.97 50.10 50.21 49.56 49.37 52.12 52.52 47.58 52.25 51.13 50.22 39.91 33.94 44.71 46.00 47.74 50.64 50.37 49.82 49.68 47.33 43.95 38.61 34.91 38.91 43.84 36.03 34.03 33.23 39.45 43.24 44.63 42.87 40.93 44.02 43.48 42.36 42.53 45.07 44.21 41.92 39.48 36.18
46.34 47.04 47.37 47.60 47.60 47.62 46.72 46.10 47.03 47.58 48.27 48.63 50.23 48.31 48.09 49.39 50.05 47.47 44.37 49.00 49.03 48.69 38.28 35.51 36.19 42.95 45.89 47.38 45.02 45.68 45.78 44.26 44.09 37.79 35.75 34.58 34.77 39.47 34.55 32.62 39.59 42.22 43.92 44.23 44.64 43.22 40.28 41.13 41.07 44.33 41.03 38.90 37.57 35.58
45.98 46.02 46.14 46.49 47.13 47.48 46.97 45.38 46.45 47.46 48.49 49.35 49.59 49.24 47.84 49.45 49.61 48.48 48.69 47.68 48.18 45.01 39.02 33.16 31.24 35.24 43.42 36.29 35.48 42.16 36.89 40.27 41.83 40.06 38.38 36.26 36.50 34.74 34.38 39.10 41.70 43.42 43.12 43.57 43.11 42.55 42.06 43.43 42.75 39.07 37.34 36.65 34.62 33.22
45.41 45.41 45.62 45.89 46.01 46.53 47.26 47.46 47.59 47.87 48.87 49.21 49.18 49.11 48.43 47.03 43.76 47.19 47.10 46.74 50.27 44.88 34.88 32.07 30.25 29.96 40.73 38.37 36.25 36.05 39.65 33.13 38.24 33.82 34.96 35.64 33.93 32.14 37.62 39.56 41.01 42.39 41.23 41.77 42.51 43.14 43.21 41.67 37.46 35.78 35.79 34.81 33.13 32.07
45.18 45.10 45.40 45.82 45.95 46.11 46.26 47.22 47.80 47.93 48.63 47.45 47.87 43.60 39.12 41.99 46.65 46.94 45.44 39.42 38.55 40.32 37.18 33.11 36.26 33.16 39.76 33.69 33.88 34.40 33.87 33.14 32.50 33.87 38.39 33.14 34.08 37.22 39.11 41.24 41.49 41.56 42.21 42.87 40.33 36.51 34.77 33.96 34.19 34.40 34.03 33.76 32.75 31.76
45.54 45.20 45.09 45.50 46.02 46.20 46.58 46.90 47.46 47.80 47.50 44.75 40.14 36.78 42.57 46.00 43.03 39.12 36.22 33.56 36.27 34.89 36.16 36.18 35.19 36.00 38.28 33.47 33.49 33.35 32.22 32.95 30.36 29.14 32.27 31.21 31.18 34.66 38.83 38.64 39.18 39.28 39.25 39.15 38.72 37.49 36.71 35.73 34.72 33.90 32.97 31.74 30.70 29.72
45.78 45.10 44.95 45.08 45.27 45.70 46.21 46.10 45.80 44.49 43.55 43.65 42.58 43.71 41.61 37.90 35.02 34.55 34.07 33.67 33.85 33.38 33.82 34.03 34.71 37.36 35.65 38.49 34.14 33.84 32.50 32.01 28.54 34.51 32.40 28.86 32.67 36.66 35.83 36.99 36.97 37.77 38.01 37.29 37.29 36.03 35.87 35.07 34.21 31.67 30.33 29.52 29.78 29.52
45.13 45.45 45.31 44.64 44.42 44.80 45.35 45.21 45.26 45.21 44.05 42.28 38.49 34.82 36.56 32.92 32.42 33.14 31.94 30.91 31.45 32.19 33.79 33.14 32.96 33.14 34.83 36.23 32.96 32.74 31.47 30.78 33.31 31.29 28.82 29.30 37.29 35.22 34.30 34.08 34.00 35.75 35.24 34.12 34.55 34.76 33.92 33.23 32.03 29.77 28.81 29.84 26.22 29.22
44.88 45.00 45.27 44.60 44.09 44.10 44.42 44.83 45.20 44.31 41.38 35.27 34.02 30.28 31.42 29.24 30.14 30.14 31.45 32.03 32.42 32.42 32.60 32.78 32.00 32.36 32.04 32.39 31.85 30.34 31.27 31.26 29.00 20.30 20.20 32.50 37.50 37.34 34.73 33.66 32.37 30.40 28.81 30.46 30.68 31.21 30.52 29.25 28.92 27.54 24.71 25.01 22.09 26.72
44.80 44.96 44.70 44.37 43.91 44.05 43.92 44.11 44.44 42.47 36.53 33.44 30.41 28.05 27.96 30.52 31.59 31.95 32.42 32.59 32.92 33.66 33.32 32.57 32.37 32.68 31.47 30.35 30.91 29.03 26.97 25.48 26.98 26.48 30.74 31.98 32.82 32.78 32.07 32.69 31.31 29.60 27.23 28.90 30.17 29.11 25.47 25.30 26.21 28.09 28.58 28.49 29.17 25.94
43.66 44.02 43.41 43.59 43.54 43.98 43.81 42.11 39.97 37.39 31.92 32.51 32.01 29.39 31.02 31.05 31.29 31.89 32.09 31.88 34.00 33.32 33.32 33.10 30.93 30.19 26.46 29.21 27.36 27.12 26.36 23.81 26.65 31.11 31.74 33.16 33.48 34.49 34.36 32.30 30.35 31.01 31.00 30.77 30.71 30.63 29.66 25.04 23.05 29.16 29.56 28.09 26.25 25.52
43.10 38.96 43.81 43.58 43.78 43.32 42.83 38.02 33.31 32.49 29.69 31.83 30.71 32.74 32.13 31.98 31.47 32.07 32.43 32.39 35.42 32.93 31.02 30.55 25.28 23.94 29.40 24.58 23.51 28.70 26.26 29.24 30.91 31.87 33.55 32.09 31.82 31.17 31.03 31.85 30.69 31.16 31.18 30.87 30.63 30.12 30.12 29.91 26.21 26.16 26.93 30.80 30.23 30.01
39.57 40.96 43.80 43.83 42.82 40.18 37.40 34.89 29.94 28.59 28.50 31.24 30.03 31.12 31.62 32.03 31.79 32.04 32.60 32.78 31.16 28.85 31.04 27.24 28.44 24.79 24.04 23.06 25.69 30.90 29.75 30.30 30.80 31.16 31.34 31.94 32.17 32.09 32.93 31.48 32.80 30.95 30.50 30.29 28.53 30.15 29.86 25.63 28.71 29.33 30.43 30.70 29.67 28.63
41.80 41.62 42.95 43.20 41.49 34.01 31.55 31.40 33.62 27.32 30.00 30.45 30.64 30.74 30.76 30.70 31.38 32.19 32.42 32.77 29.20 28.82 28.00 25.77 22.83 21.89 22.73 25.22 25.62 30.74 29.13 28.72 29.40 30.35 30.92 31.59 31.50 31.47 31.55 31.74 31.08 30.45 30.17 30.27 30.49 29.50 29.62 30.61 29.85 29.65 29.27 27.78 27.20 26.86
41.47 41.18 41.49 41.40 41.50 31.52 29.20 27.88 31.89 28.05 27.78 28.65 31.37 30.11 29.35 29.39 30.48 31.89 32.24 32.40 29.61 26.69 22.71 21.10 22.74 24.58 25.08 26.48 27.43 27.46 27.29 27.50 27.34 25.55 26.86 28.61 29.50 30.93 30.46 30.16 29.21 30.15 29.58 30.31 29.51 25.33 28.28 28.69 29.44 29.61 28.80 27.79 29.22 30.86
38.43 39.23 38.76 36.82 34.97 35.05 30.87 30.32 29.58 30.04 30.92 30.33 30.33 29.75 27.72 29.64 29.43 29.78 30.53 31.13 26.34 22.72 24.59 26.74 25.08 28.00 29.81 28.81 27.97 27.43 29.21 29.16 27.55 25.31 25.20 25.01 26.93 26.59 27.91 28.66 29.10 28.11 26.47 26.29 24.11 26.99 23.49 25.14 29.41 30.78 27.16 28.42 30.82 31.57
36.67 38.86 33.99 35.71 31.64 30.95 30.37 30.16 28.81 27.68 30.61 29.80 29.64 29.15 26.90 25.80 26.48 28.03 29.53 27.89 23.08 25.04 27.34 25.86 28.00 27.39 29.55 30.51 29.85 29.63 30.00 29.58 29.34 28.03 26.77 25.92 26.36 26.78 26.99 27.08 26.14 23.61 23.09 21.74 26.18 27.67 27.65 28.64 28.00 28.59 29.81 30.16 30.34 30.75
37.16 35.93 32.77 31.58 23.32 26.40 24.04 32.33 25.48 26.51 19.50 27.46 28.97 26.11 25.91 26.04 27.53 28.88 26.10 27.50 24.90 29.10 28.33 29.15 30.36 31.08 29.11 28.63 27.79 26.95 27.79 28.02 25.96 25.27 25.73 25.08 25.14 22.51 21.52 22.56 22.74 21.58 21.89 23.60 26.02 25.83 24.93 23.37 24.23 24.29 27.20 29.22 29.78 30.04
36.45 32.05 28.88 27.25 27.29 16.58 26.19 23.03 28.67 25.54 20.22 23.81 24.98 21.99 25.05 25.50 25.07 22.36 17.54 22.10 28.62 27.18 27.06 26.91 27.75 27.90 27.74 26.52 24.08 23.21 24.01 24.62 23.70 23.47 22.74 21.65 20.77 21.80 22.82 22.79 22.83 20.21 19.38 20.74 20.24 18.33 18.95 18.68 19.17 21.23 22.43 23.86 25.37 27.41
26.48 20.36 23.01 20.21 20.92 17.91 18.22 18.51 22.76 20.36 16.58 24.38 23.74 18.09 17.43 19.20 13.75 10.70 12.76 24.84 25.25 24.68 24.38 23.72 25.17 25.56 24.79 23.52 22.53 22.74 23.35 22.28 20.50 19.75 20.90 21.31 16.48 15.93 17.10 18.41 17.34 17.59 16.36 14.80 14.89 13.89 13.47 14.76 15.77 17.43 18.94 19.40 20.65 22.57
19.78 17.73 22.24 22.03 17.25 19.98 19.29 15.97 17.92 22.74 21.18 21.94 18.29 19.65 16.92 16.67 14.63 10.59 21.12 23.38 23.15 23.64 22.67 23.55 21.88 19.84 20.89 21.89 20.68 20.01 18.69 20.18 18.92 16.83 20.09 19.71 16.53 10.63 7.34 8.71 10.06 10.65 13.42 12.09 12.52 10.97 10.82 11.87 12.82 13.19 13.77 16.55 19.19 21.19
16.86 15.70 25.14 28.51 27.16 26.97 21.63 21.24 24.90 23.61 20.83 16.26 20.36 16.41 17.77 13.89 6.53 20.03 22.59 22.77 23.34 24.53 24.26 23.56 22.58 20.76 19.91 20.75 20.27 17.31 16.01 15.26 13.57 15.13 18.17 16.64 14.51 13.28 10.40 8.25 7.81 9.94 11.45 9.57 9.58 9.46 9.12 9.33 10.30 11.46 12.24 15.35 17.00 18.62
22.62 22.00 17.95 21.87 25.83 26.97 23.42 22.89 22.69 22.49 23.63 26.15 23.05 19.03 19.06 13.69 14.87 18.89 21.23 22.80 23.81 23.41 22.28 21.86 20.43 19.42 19.24 18.79 15.05 10.64 9.29 8.67 9.51 11.63 15.18 12.20 9.74 6.61 4.50 2.78 4.33 11.31 4.58 4.57 7.61 8.88 7.00 6.62 7.30 9.52 11.97 14.10 15.91 15.14
22.58 26.82 25.96 22.67 23.77 23.64 24.17 23.94 23.79 26.35 27.61 24.93 18.42 16.88 16.71 17.23 15.88 18.74 19.36 20.15 20.27 19.86 16.08 13.88 10.83 11.16 11.71 10.81 8.54 6.34 1.10 1.45 2.66 -3.29 -7.43 -7.80 -4.71 -0.46 2.82 -1.34 -2.24 3.33 4.31 5.20 7.97 8.75 7.89 7.58 8.83 9.46 14.10 14.80 10.66 9.70
23.23 25.67 21.37 18.38 19.17 20.74 24.03 25.71 25.75 26.92 26.23 22.34 20.30 18.66 16.91 14.07 15.41 17.17 15.01 13.70 12.87 12.09 11.91 11.72 5.47 4.60 -4.71 -1.45 -3.26 2.33 4.71 0.32 -3.08 -2.19 -5.62 -6.35 0.45 3.62 -0.40 0.19 3.09 3.43 3.44 4.60 4.41 3.15 5.39 4.48 5.06 10.46 9.62 9.75 8.41 6.48
24.70 25.07 23.84 22.99 22.25 23.96 24.69 26.18 26.81 27.04 27.15 25.85 21.59 13.15 10.33 9.63 9.20 10.81 11.83 10.53 8.39 6.03 5.32 3.38 3.03 -5.80 -2.91 -2.37 -4.90 -7.07 -3.10 0.78 -2.58 -0.49 -2.72 0.16 -1.64 -5.80 -4.54 -1.83 -1.32 -0.40 1.20 3.63 0.24 -1.74 0.90 1.80 3.92 4.89 3.26 2.39 2.06 2.03
23.97 22.46 21.93 20.07 18.20 24.92 25.35 24.96 24.16 23.49 23.57 23.41 17.83 13.26 4.58 2.67 -1.82 4.05 7.90 5.20 2.98 -0.03 -5.26 -7.80 -5.62 -2.54 -0.94 -0.26 -3.09 -5.63 -3.45 -5.63 -5.98 -5.62 -1.28 1.01 -1.46 -4.53 -4.72 -2.97 -3.47 -1.82 -0.96 -6.93 -6.96 -6.35 1.01 0.25 -2.04 -1.76 -2.10 -2.67 -1.83 -2.37
17.41 7.83 9.94 2.95 9.70 12.94 11.34 6.76 4.64 7.62 8.42 14.75 13.50 8.32 3.11 3.49 -0.11 3.76 5.72 -0.80 -0.27 -3.83 -5.44 -6.35 -7.25 -6.53 -1.10 -3.69 -5.38 -6.74 -5.10 -7.61 -6.53 1.99 3.25 6.28 -0.53 -2.72 -7.07 -9.79 -9.25 -13.60 -13.78 -12.33 -10.18 -7.43 -6.16 -9.25 -11.60 -6.74 -5.69 -5.18 -5.18 -5.00

GFSWCAN_sfc_wetblb_033.txt.gz
Wetbulb
49.50 49.34 49.03 48.46 48.10 48.48 49.47 49.95 50.03 50.10 50.89 48.97 48.11 48.59 49.82 50.75 52.68 53.33 52.30 53.16 50.15 44.26 47.27 49.44 49.81 46.03 44.88 42.66 38.02 42.05 39.72 38.31 32.57 28.53 25.69 27.04 22.13 29.88 29.88 33.09 30.96 29.31 26.13 25.54 21.81 18.16 22.62 37.92 38.43 33.37 36.36 38.08 40.87 40.04
48.89 48.80 48.28 47.69 47.69 48.23 49.51 49.75 49.74 49.63 46.66 48.57 48.21 48.75 49.26 50.33 52.09 52.24 51.45 54.45 53.11 49.15 47.96 50.55 50.67 50.85 49.80 47.17 45.17 41.76 41.52 40.19 39.21 32.33 29.16 31.65 25.39 32.27 27.61 25.78 35.58 28.50 31.26 29.63 31.15 30.67 37.06 38.71 38.41 39.70 41.12 40.28 39.45 39.87
48.58 48.35 47.83 47.40 47.36 48.32 49.44 49.49 49.57 47.35 47.20 47.69 48.21 48.75 49.35 51.04 52.31 53.46 52.22 50.95 48.65 43.91 46.40 47.47 47.30 51.42 52.28 51.42 51.18 42.19 40.97 45.35 42.59 40.47 37.64 31.17 25.65 30.50 28.24 29.57 30.14 36.42 38.42 31.08 32.88 36.81 37.57 38.99 41.11 41.54 41.83 40.41 40.95 41.96
48.38 48.35 48.16 48.21 48.48 48.88 49.17 48.34 48.11 47.51 47.96 48.73 48.99 48.67 49.71 51.26 51.78 52.74 51.23 50.28 46.28 41.70 35.44 43.19 50.59 48.52 51.79 52.45 52.30 50.15 48.29 45.49 42.86 39.20 32.70 31.39 25.88 35.25 28.52 31.59 31.62 35.50 37.88 35.37 32.85 37.21 39.62 41.61 41.31 41.12 41.03 41.95 42.75 42.95
47.90 47.97 48.14 48.10 48.23 48.48 48.23 47.33 48.14 48.18 48.88 49.32 49.03 48.83 49.89 51.65 51.96 52.89 51.18 49.97 50.00 43.73 37.78 36.60 46.98 48.90 49.34 51.44 50.49 49.90 48.06 44.98 40.10 35.84 33.26 32.92 30.62 33.13 33.53 32.90 32.66 38.86 37.09 32.36 32.19 38.79 38.97 38.73 41.30 41.52 40.55 41.65 41.96 38.04
47.52 47.70 48.01 48.01 47.98 47.85 46.60 47.02 47.69 47.98 48.37 49.28 48.05 47.49 48.95 50.78 51.71 48.81 44.83 50.17 50.43 47.52 40.08 34.35 43.31 44.74 46.77 49.43 48.77 48.06 48.03 44.92 41.45 37.91 34.49 37.39 41.12 35.27 32.62 33.65 38.97 41.56 42.55 40.60 39.17 40.70 41.04 40.70 41.14 42.69 42.57 42.82 39.44 36.35
47.29 47.51 47.72 47.74 47.49 46.24 46.46 46.77 47.54 48.11 48.49 49.30 48.20 48.77 49.09 49.24 49.91 45.64 41.95 47.20 48.10 46.58 38.51 35.49 33.74 41.15 43.97 44.85 43.14 44.10 43.98 42.98 42.94 38.73 34.47 36.02 33.90 38.79 33.25 30.90 38.79 41.26 42.40 42.43 43.31 42.45 38.75 40.09 40.17 43.39 40.94 37.96 37.50 35.49
46.60 47.20 47.27 47.18 46.66 46.28 46.26 46.82 47.54 48.45 49.06 49.44 48.41 47.83 48.97 49.37 48.91 47.08 47.91 47.24 47.26 41.94 37.55 32.20 30.13 34.07 41.96 36.12 36.33 41.31 36.43 38.85 39.51 38.85 37.40 34.09 36.65 34.32 33.96 37.86 40.25 41.77 41.97 42.14 42.50 41.80 42.13 42.01 38.68 36.15 36.55 35.68 33.83 32.95
45.56 45.67 45.92 46.77 46.69 45.74 46.08 46.82 47.91 48.67 49.15 48.71 48.02 48.13 47.98 46.16 43.08 45.50 46.63 46.75 46.72 43.22 33.73 31.50 30.59 29.94 39.27 37.70 36.45 36.82 38.82 33.94 38.06 33.97 34.88 35.82 33.05 33.25 37.08 38.32 39.43 40.23 39.98 41.07 41.69 41.35 40.62 37.01 35.37 36.11 35.58 34.88 32.79 31.90
45.30 45.43 45.49 45.48 46.48 46.50 46.30 46.69 47.53 49.08 47.75 47.23 47.39 42.93 38.49 42.98 46.51 46.27 43.94 38.62 37.56 36.29 37.04 32.84 35.99 33.32 39.02 33.79 33.81 32.16 33.94 32.69 28.59 32.87 38.12 32.89 33.87 36.00 37.08 38.27 39.35 40.62 40.67 41.77 37.60 33.72 34.80 33.75 34.03 34.74 35.20 34.35 32.68 31.84
45.60 45.69 45.74 45.96 46.01 46.52 46.71 47.09 47.74 47.52 47.11 42.89 39.54 36.89 43.02 45.53 42.62 38.46 34.21 32.02 36.47 35.14 35.89 35.92 34.79 35.64 37.90 33.80 31.72 32.10 31.17 32.03 29.73 27.84 32.74 28.88 31.11 33.26 34.83 34.81 35.98 36.97 37.47 37.26 37.20 36.77 36.80 35.76 33.89 33.83 32.60 32.10 31.18 30.46
45.10 44.88 45.21 45.48 45.73 46.07 46.26 46.14 46.06 44.87 42.53 42.52 41.29 42.55 39.33 36.74 34.41 34.78 33.34 33.76 33.72 32.42 33.75 34.14 34.86 37.17 35.41 36.01 33.85 33.94 32.35 31.68 28.09 33.55 32.15 28.66 31.64 33.42 34.40 34.73 36.26 37.79 37.64 37.35 37.78 37.20 37.25 36.67 35.31 32.07 30.42 29.78 29.72 29.44
44.88 44.78 44.56 44.41 44.91 45.40 45.58 45.55 45.32 44.88 44.46 42.52 38.34 35.14 36.80 33.55 32.95 33.41 31.18 31.36 31.74 32.31 33.73 33.08 33.07 32.87 34.48 35.43 32.70 32.63 31.72 30.20 32.95 31.24 29.34 30.47 32.85 35.53 35.80 36.38 36.43 37.31 36.37 35.60 36.50 35.41 33.69 32.61 31.84 30.43 29.24 30.05 26.61 28.91
44.35 44.18 44.07 44.09 44.25 44.35 44.67 45.11 45.09 44.24 41.83 35.62 33.76 31.62 32.09 29.30 30.05 30.28 31.20 31.95 32.13 32.34 32.52 32.69 32.13 32.48 32.15 32.43 31.95 30.82 31.36 31.38 28.80 23.46 19.42 32.03 35.15 36.29 32.33 31.71 30.76 29.33 27.61 29.94 30.35 30.34 29.66 28.83 28.61 26.57 24.94 25.16 23.37 26.51
44.34 44.25 43.85 43.53 44.05 44.21 44.22 43.92 44.61 42.77 37.28 32.74 32.56 28.14 28.20 30.67 31.33 31.57 32.33 32.49 32.49 33.56 33.05 32.49 32.27 33.13 31.38 30.59 30.83 28.91 25.58 22.31 24.14 22.92 29.57 31.39 32.48 32.49 32.17 33.30 30.73 29.58 27.84 28.68 29.55 28.95 25.89 25.46 25.89 27.58 28.10 28.03 28.43 23.68
43.99 43.47 42.86 43.60 43.93 43.90 43.30 41.22 38.90 37.55 31.11 32.52 31.47 29.47 30.85 30.94 30.85 31.81 31.99 32.01 34.12 33.07 33.07 33.01 30.83 29.49 27.64 29.13 26.14 25.38 24.67 19.43 20.37 29.33 31.38 31.77 32.04 32.99 34.42 33.46 30.44 30.80 30.09 30.06 30.11 30.35 29.43 25.89 24.74 29.15 28.57 27.02 23.53 22.86
42.82 40.43 43.49 43.55 43.41 42.38 42.17 37.08 33.32 31.54 28.75 31.44 30.82 32.69 31.83 30.94 31.38 32.01 32.55 32.51 35.18 32.84 30.25 30.33 20.42 22.62 28.90 24.51 24.49 28.95 24.49 27.92 31.01 31.49 33.32 33.10 32.74 32.67 31.60 30.89 30.31 30.73 30.56 30.12 30.23 30.22 30.20 29.50 25.16 25.24 25.95 30.18 29.53 29.09
40.07 40.56 43.19 43.44 41.49 39.05 35.97 33.86 30.03 29.19 28.98 31.04 29.78 30.68 31.38 31.74 31.71 31.95 32.34 32.51 31.92 31.47 30.86 26.18 27.74 20.84 18.91 20.06 22.70 27.91 29.54 29.73 29.74 30.46 32.02 32.56 32.24 31.19 31.83 31.06 32.12 30.67 30.36 30.22 28.36 29.71 29.62 25.33 28.05 28.59 29.76 30.06 28.42 27.68
40.34 39.36 41.63 42.15 39.58 32.26 29.55 30.59 31.16 26.26 29.68 30.62 30.22 30.20 30.58 30.64 31.11 31.93 32.15 31.93 26.81 26.41 25.90 22.43 18.71 18.33 20.61 25.16 24.77 30.70 28.54 26.72 27.94 29.03 29.59 30.29 30.69 30.55 30.90 30.81 30.54 29.90 29.72 29.64 29.45 28.36 28.05 29.02 28.39 28.50 28.81 28.58 27.78 28.27
41.15 40.74 40.56 40.64 39.79 29.69 27.75 26.92 30.80 27.71 27.43 29.83 30.80 29.39 29.27 29.16 30.29 31.99 32.16 31.56 29.47 26.93 21.42 19.96 21.50 23.00 24.19 25.87 27.02 26.48 26.81 26.92 27.36 25.01 26.15 27.47 28.52 28.85 28.41 27.95 27.63 27.67 27.65 27.69 27.00 24.08 27.23 27.59 28.65 28.16 27.46 27.15 27.06 27.41
36.93 36.98 38.39 35.93 34.84 33.65 28.71 29.24 29.04 30.38 30.69 29.50 29.97 29.51 27.52 29.53 29.19 29.38 29.91 30.45 22.43 21.55 23.78 25.87 22.26 25.76 28.36 27.81 26.99 26.90 28.66 28.65 26.65 24.59 24.45 24.67 25.77 26.84 26.15 26.18 26.07 25.40 23.55 22.44 23.62 24.87 25.09 24.62 25.33 24.20 24.00 24.35 26.18 27.60
35.92 38.59 34.75 34.93 31.27 30.61 27.84 30.29 30.43 30.31 30.06 29.47 28.84 28.98 26.66 25.72 26.38 27.87 29.17 27.10 24.06 23.76 26.19 24.65 27.10 26.87 28.60 27.47 26.88 27.64 28.13 28.09 27.19 26.09 25.35 24.50 23.40 22.45 23.08 23.58 22.07 21.13 21.97 21.38 22.09 21.59 20.38 21.37 20.19 19.02 20.32 21.46 23.57 23.96
36.21 32.88 32.72 31.94 21.11 25.12 20.79 32.51 26.90 28.15 26.17 27.35 28.14 24.49 25.05 25.45 27.24 29.33 25.45 28.00 26.62 27.49 27.16 27.77 28.39 28.41 27.07 26.13 25.43 24.67 25.53 25.29 23.26 22.52 22.82 22.97 23.00 20.69 21.66 21.23 18.18 13.73 13.71 16.69 18.41 16.82 14.99 13.92 15.02 14.60 16.40 17.25 19.13 18.68
34.27 25.70 28.32 27.67 26.84 19.55 24.61 20.80 26.39 25.46 23.37 21.86 25.07 22.20 23.46 24.85 25.62 24.49 22.17 24.54 27.60 27.34 25.97 26.38 27.01 25.67 25.53 24.53 22.04 21.27 21.78 23.26 22.26 20.53 21.22 20.45 19.64 18.78 18.67 18.39 16.04 14.02 13.34 13.46 13.07 11.11 11.08 9.84 9.70 11.85 12.64 11.98 12.43 14.14
24.42 20.62 20.96 19.40 22.56 17.29 12.79 9.33 15.39 18.38 15.22 14.34 16.33 16.41 19.15 19.71 17.95 18.22 14.42 22.67 24.49 24.04 23.91 23.85 24.70 26.42 23.28 21.09 21.70 20.72 20.59 20.93 19.86 18.97 18.92 16.93 11.81 12.15 13.42 14.57 14.18 12.82 11.05 6.90 5.31 6.41 6.82 7.38 7.50 8.03 8.53 9.11 9.11 11.26
19.52 16.95 16.51 15.91 16.24 17.90 13.26 9.70 13.07 14.67 16.43 19.87 19.68 20.30 19.59 18.46 18.22 11.47 20.86 22.09 22.49 23.14 22.49 22.58 21.88 21.31 21.06 21.97 19.77 17.22 16.02 17.62 17.94 16.26 15.80 14.57 11.69 4.96 1.86 2.59 4.21 5.22 9.41 0.99 3.64 3.02 4.24 4.73 3.86 3.42 4.43 6.52 7.64 9.08
12.40 10.97 19.16 27.23 25.88 26.14 23.58 19.16 22.01 22.48 20.58 19.64 15.79 17.93 20.42 16.29 15.29 17.71 21.82 21.61 22.67 22.33 23.24 22.70 22.71 21.54 20.19 17.18 15.43 13.90 12.65 11.91 11.49 14.97 14.43 13.05 12.04 10.96 3.40 -2.80 -0.63 5.23 8.29 4.23 -0.67 0.98 2.54 1.90 1.29 1.90 2.62 5.40 7.12 9.71
22.08 19.29 15.72 19.20 24.84 26.70 22.44 22.27 22.07 21.34 23.36 25.91 24.04 20.21 19.62 15.74 14.55 17.87 19.81 22.12 21.38 21.57 19.51 18.57 18.28 18.28 15.96 14.20 11.73 9.09 9.88 8.22 13.50 11.58 11.50 8.24 5.65 1.00 0.88 -1.06 -0.19 7.97 -0.00 -3.05 -4.97 0.40 -0.80 2.05 2.73 3.16 3.89 4.99 7.69 8.14
23.80 26.32 25.59 21.88 22.26 23.01 23.91 23.37 23.73 25.70 26.90 26.14 21.50 18.36 14.99 15.24 14.44 16.22 17.55 18.51 18.87 17.15 13.49 11.76 10.99 10.49 10.48 10.58 7.47 5.17 -0.54 -1.44 -1.40 -5.89 -9.69 -11.50 -10.05 -2.78 0.62 -6.79 -8.43 -6.80 -6.97 -6.97 0.65 5.99 5.68 5.93 5.92 5.93 7.67 9.13 6.86 3.18
22.61 25.07 20.29 18.42 19.50 18.66 22.03 22.98 23.27 25.27 24.41 21.26 19.43 17.27 14.78 12.30 13.20 14.91 13.75 12.92 11.13 8.58 5.93 5.83 2.85 3.72 -4.79 -5.34 -6.79 -2.80 -2.44 -7.15 -6.46 -5.15 -9.32 -9.87 -3.22 -0.08 -11.32 -9.69 -6.80 -7.33 -8.42 -9.69 -6.06 -2.46 -0.65 -5.20 -3.53 -5.91 -4.13 -4.74 -3.16 -2.27
21.67 22.87 22.04 20.96 20.43 21.87 24.03 25.77 26.32 26.69 26.13 21.38 18.14 12.48 9.49 8.30 9.13 10.66 10.12 7.31 7.45 5.11 2.44 -3.17 -3.34 -11.50 -7.15 -8.60 -10.41 -10.41 -6.97 -8.27 -10.96 -6.97 -5.70 -6.60 -7.33 -10.77 -11.50 -8.60 -10.05 -12.77 -11.68 -9.51 -11.86 -13.86 -13.86 -12.04 -13.31 -14.76 -12.22 -10.79 -10.43 -9.35
23.28 21.22 20.75 18.78 18.76 21.73 16.02 21.99 21.98 22.50 21.58 21.15 13.87 5.69 1.80 -0.26 -4.61 2.69 5.55 0.33 -0.79 -4.61 -8.96 -13.49 -9.14 -5.52 -6.06 -5.70 -8.42 -10.05 -4.98 -9.33 -10.41 -10.41 -9.32 -7.15 -7.51 -10.41 -12.41 -11.86 -15.67 -16.39 -17.84 -18.03 -18.03 -16.58 -16.94 -18.21 -18.93 -17.66 -18.39 -16.58 -14.76 -12.59
13.19 6.56 12.61 5.49 9.69 11.41 11.19 2.53 2.50 7.15 13.20 14.79 6.16 2.68 -1.23 0.06 -1.29 2.95 4.08 -2.80 -2.95 -5.89 -7.87 -9.32 -11.32 -12.04 -9.32 -8.66 -8.58 -10.42 -8.97 -11.87 -12.04 -2.98 -2.25 -1.71 -5.52 -6.24 -12.95 -16.58 -18.39 -19.66 -18.75 -20.56 -20.75 -20.93 -17.66 -17.84 -19.48 -19.48 -19.29 -19.48 -18.57 -16.94

GFSWCAN_sfc_wetblb_036.txt.gz
Wetbulb
49.32 49.07 48.73 47.94 47.77 48.89 48.87 50.27 50.33 48.52 47.58 48.27 48.66 49.44 50.27 51.18 51.93 54.91 53.04 52.52 48.65 43.73 46.07 48.13 48.51 44.40 43.40 41.56 37.48 41.36 39.33 37.98 31.84 29.10 26.09 25.56 22.42 29.13 29.35 31.93 31.02 29.61 28.08 28.04 22.08 15.17 21.94 36.29 37.80 32.80 36.11 35.63 38.74 38.60
48.64 47.81 47.42 47.42 48.37 49.06 49.29 49.28 48.46 47.96 47.99 48.50 48.59 49.03 50.30 51.67 51.50 54.34 52.89 53.58 51.52 47.95 46.95 49.35 49.56 49.59 48.41 45.69 43.82 40.52 41.30 39.53 38.19 31.22 26.08 27.58 25.83 31.36 27.16 25.52 33.88 28.46 30.98 27.68 29.72 29.72 35.74 36.78 37.29 39.11 39.16 38.51 38.77 39.18
47.49 47.13 47.11 47.83 48.59 48.77 48.77 47.43 47.38 47.56 48.10 47.92 48.50 49.80 50.26 51.40 51.28 53.71 52.10 48.44 48.19 43.63 45.45 46.52 46.20 50.38 50.90 49.83 49.12 41.61 39.25 43.12 40.14 38.39 32.70 29.21 25.55 29.20 25.98 28.48 29.15 34.60 35.79 29.58 31.89 35.10 36.15 37.90 38.98 41.66 41.07 40.15 40.12 40.79
47.52 47.15 47.33 48.30 48.73 48.03 47.29 47.02 47.29 48.30 48.52 48.01 48.99 50.05 50.36 50.94 51.31 51.88 49.76 48.39 45.45 42.26 35.67 42.12 49.17 47.39 49.98 51.34 50.65 48.46 45.73 42.99 40.55 37.70 32.15 30.31 26.25 33.48 27.67 30.17 29.41 34.49 35.61 33.21 31.96 36.39 36.88 40.42 41.05 40.54 40.84 41.09 41.35 41.75
47.63 47.70 48.12 48.52 48.01 46.95 47.16 47.43 47.60 48.38 48.18 48.19 48.88 50.64 50.78 51.29 51.64 51.93 49.73 49.46 47.85 42.98 37.68 36.13 45.64 47.23 48.84 50.25 48.80 48.05 46.19 43.63 39.64 35.47 33.30 32.01 29.15 32.22 33.63 32.30 32.05 36.72 35.21 31.56 30.79 37.55 37.48 37.69 40.25 40.90 40.82 40.98 41.25 37.54
47.69 47.81 48.08 47.98 46.75 46.86 46.68 47.05 47.43 48.41 47.92 46.66 48.14 49.13 49.73 49.79 49.51 46.77 44.23 48.89 49.05 45.78 40.72 34.73 41.96 42.91 45.39 47.16 46.89 46.11 46.21 42.80 40.16 37.66 33.46 35.40 39.63 34.33 32.86 33.67 37.98 39.82 40.55 38.97 37.47 39.42 39.64 39.69 40.36 40.93 40.95 40.69 37.26 36.57
47.47 47.87 47.99 46.86 46.51 46.68 47.07 47.14 47.53 48.29 48.01 47.94 48.61 49.31 49.66 50.08 50.42 44.22 41.32 47.04 47.00 45.24 38.38 35.35 33.87 39.79 42.06 43.20 41.46 42.48 42.09 41.23 41.15 38.46 34.32 35.33 35.13 37.45 32.53 31.19 37.67 40.14 40.88 40.88 41.48 40.32 37.97 38.14 39.26 41.64 38.46 36.05 35.94 34.69
47.38 47.54 47.05 46.33 46.31 46.53 46.73 47.13 47.85 48.86 48.14 47.63 48.21 48.47 48.38 48.48 48.10 46.81 46.87 46.59 46.55 40.40 37.24 31.86 30.92 33.94 40.70 36.73 36.45 41.51 36.84 38.46 39.41 38.98 36.69 33.96 36.73 34.35 32.98 36.57 39.00 40.53 41.28 41.13 41.27 40.57 39.96 37.72 35.03 34.29 35.62 35.93 35.07 34.25
46.68 46.51 45.97 45.97 46.15 46.35 46.91 47.47 48.07 48.28 47.61 48.04 47.70 48.06 47.68 45.80 43.76 44.74 46.56 46.23 44.82 42.19 32.80 27.14 29.94 29.03 39.36 37.02 35.95 36.84 38.18 34.34 37.66 33.84 35.46 35.63 32.92 32.62 34.77 34.21 36.36 37.73 38.34 39.08 39.42 36.51 35.27 34.18 35.02 36.12 36.34 35.76 34.30 32.85
45.70 45.97 45.63 45.46 45.63 46.19 46.57 47.16 47.97 47.32 47.25 47.16 47.16 42.79 36.74 42.87 46.47 45.66 42.80 38.11 37.11 35.54 38.43 32.09 35.27 33.25 38.86 33.84 33.68 33.04 34.02 31.91 26.82 30.14 37.80 33.09 33.07 34.52 32.93 33.34 34.11 35.18 37.68 39.92 33.42 32.32 33.89 34.34 34.69 34.93 34.84 34.31 33.86 32.19
45.81 45.72 46.04 46.15 45.97 46.15 46.75 47.33 46.59 47.27 47.47 43.74 39.54 37.28 43.07 44.79 42.49 36.11 32.02 32.55 35.39 29.68 35.50 35.02 34.77 34.42 37.66 33.84 31.94 31.32 30.81 32.14 29.56 27.15 32.58 29.96 30.43 32.31 33.33 34.73 35.84 36.30 36.51 36.34 36.55 36.57 36.51 35.26 34.08 33.31 32.34 32.09 30.74 30.37
45.28 45.40 45.76 46.03 46.17 46.24 46.11 45.99 46.20 43.76 42.01 42.93 42.01 41.79 39.79 37.41 34.68 33.28 32.24 32.60 31.78 27.76 33.60 34.19 34.35 37.02 34.91 34.99 34.47 33.61 31.16 31.26 27.72 32.85 31.59 28.09 29.29 33.64 36.30 36.62 37.22 37.93 37.93 37.36 37.70 36.75 36.80 36.45 35.96 32.83 30.17 29.32 29.47 29.21
44.28 44.56 44.73 45.15 45.65 45.68 45.50 45.34 45.12 44.84 43.96 41.03 36.84 33.51 34.91 32.12 32.91 31.25 31.02 31.80 32.03 32.36 33.78 33.12 32.94 33.10 34.73 34.74 32.72 33.24 31.32 29.89 32.44 30.90 29.01 30.46 31.66 36.17 36.75 36.70 35.56 35.01 34.46 34.81 35.54 35.37 33.46 31.68 31.17 30.07 29.14 29.78 27.34 29.17
43.91 44.07 44.37 44.31 44.48 44.91 45.29 45.24 44.99 44.39 41.64 34.84 33.21 33.28 31.76 30.91 30.48 30.85 31.79 32.21 32.00 32.36 32.56 32.94 32.17 32.51 32.20 32.69 31.98 31.53 31.09 31.40 28.65 25.38 21.74 31.59 34.31 32.10 30.42 30.88 30.55 28.78 26.18 28.89 29.38 29.93 29.58 28.88 28.50 26.98 25.80 24.54 23.42 26.77
43.91 43.80 43.83 43.56 43.89 44.04 43.80 44.85 43.90 42.60 37.82 32.91 33.19 27.75 28.18 30.34 31.03 31.61 32.20 32.51 32.35 33.25 32.92 32.71 32.69 33.36 31.41 30.82 30.51 28.76 23.75 19.65 21.38 19.92 28.85 30.87 32.14 31.46 32.85 32.69 29.25 28.44 24.77 27.32 29.04 28.18 24.53 24.45 25.23 26.63 26.88 26.78 27.41 22.00
43.25 43.13 41.99 43.52 43.53 43.09 42.57 41.47 39.66 38.54 33.43 32.64 29.99 29.32 30.88 31.16 30.70 32.04 32.03 32.04 33.98 33.10 33.10 33.04 31.03 28.21 27.68 25.94 22.70 21.37 21.18 15.44 20.83 29.21 28.91 31.56 31.52 33.61 33.84 34.12 30.39 30.71 30.24 29.90 29.88 29.78 28.67 24.38 23.21 28.49 27.49 25.88 21.00 19.97
42.67 40.07 42.32 42.99 42.74 41.91 41.37 36.48 35.40 31.51 29.63 31.01 30.85 32.54 31.94 32.00 31.59 32.04 32.41 32.57 34.65 32.56 30.28 29.57 22.77 21.98 26.99 21.44 21.68 25.36 20.56 26.32 30.52 32.24 32.91 33.24 33.22 33.76 34.22 31.32 29.83 30.34 30.18 29.85 29.92 29.69 29.47 28.86 24.24 25.79 26.86 29.49 28.52 28.32
37.96 38.48 42.07 42.67 39.96 37.67 34.74 32.33 29.54 29.56 29.68 30.69 29.72 30.17 31.23 31.61 31.77 32.01 32.20 32.36 32.36 31.90 29.85 26.39 28.34 19.99 17.68 18.06 18.45 24.05 26.17 27.21 28.60 29.16 30.75 32.52 32.30 30.96 30.83 30.47 30.84 29.83 29.51 29.18 27.45 28.67 27.77 26.34 26.88 27.11 27.30 27.28 26.53 26.44
39.04 39.09 40.67 41.14 38.27 31.75 29.74 30.04 30.41 28.07 29.42 30.33 30.12 30.10 30.46 30.52 30.81 31.80 32.00 31.59 28.33 26.30 26.22 22.05 17.91 18.44 19.42 22.49 20.21 27.09 29.57 24.04 26.20 28.13 28.20 28.80 29.42 29.39 29.33 29.49 29.29 28.54 27.71 27.49 26.95 26.35 26.14 27.25 26.70 25.51 23.95 23.91 23.30 24.25
39.71 39.98 39.74 39.50 38.39 29.47 27.55 26.27 29.95 28.04 28.34 30.25 30.51 29.08 29.17 29.06 29.99 32.01 32.11 31.41 29.43 25.87 21.16 19.44 19.95 21.77 22.27 24.16 25.72 26.54 26.08 25.93 26.37 24.17 24.27 25.93 26.99 27.05 26.38 25.96 25.48 26.08 24.46 24.37 24.19 21.08 22.81 22.58 23.25 21.60 20.02 21.16 20.64 21.09
35.75 36.35 37.79 34.80 31.78 31.01 28.88 26.93 28.73 30.36 30.53 29.19 29.70 29.26 27.58 29.39 29.22 29.41 29.78 29.80 23.88 19.80 22.27 23.50 19.16 24.06 27.31 26.48 26.35 26.11 27.71 27.98 25.71 23.96 23.61 24.94 24.97 24.72 24.30 23.88 23.21 22.46 20.29 18.86 17.95 17.20 15.94 16.70 18.10 17.92 14.87 16.98 17.04 18.50
34.21 37.59 28.34 31.39 28.11 24.34 30.00 31.84 30.15 30.34 29.58 28.46 28.09 28.96 26.12 25.62 26.30 27.48 28.77 25.33 24.18 23.01 25.82 24.88 27.18 26.82 27.00 26.35 26.50 26.49 26.93 26.69 26.19 24.57 23.28 22.35 20.92 21.25 20.49 18.45 16.77 14.38 15.56 14.57 15.52 12.84 12.33 14.91 13.94 12.45 11.01 11.45 13.38 13.97
35.68 32.12 29.96 25.64 21.05 21.00 24.35 31.13 25.78 28.50 25.95 26.36 27.37 24.47 24.61 25.17 26.93 28.70 25.01 27.88 27.71 27.83 27.08 27.82 27.49 27.79 25.94 25.49 24.86 24.05 24.69 23.35 21.70 21.54 21.57 21.48 21.23 20.84 19.11 15.42 13.11 9.46 9.13 11.52 12.45 12.41 10.30 7.50 8.68 6.85 8.32 8.58 8.74 8.79
32.52 29.51 27.48 26.92 24.70 22.28 24.84 17.28 24.76 21.71 20.21 22.86 24.23 22.45 22.67 24.39 25.64 23.65 22.30 24.59 27.07 27.00 26.99 27.62 26.64 25.05 24.53 22.52 19.98 19.84 21.57 22.21 20.12 18.70 19.18 18.41 16.39 16.08 16.32 14.95 12.14 10.19 9.77 9.11 7.60 3.61 4.57 0.74 1.61 4.44 3.69 2.87 3.87 5.21
18.09 20.18 17.99 10.15 22.19 11.56 17.60 11.56 17.73 22.00 11.53 11.95 16.13 15.43 20.05 17.63 16.94 18.51 17.61 22.58 23.33 22.95 23.49 25.82 26.44 25.12 22.16 21.29 19.45 18.07 18.52 20.60 18.61 15.90 15.22 14.21 10.94 10.69 11.13 11.51 11.06 9.95 8.49 -0.60 0.21 -1.71 -1.47 -1.48 -1.19 -0.74 0.41 -0.53 1.30 3.13
12.68 16.11 15.64 7.93 9.30 12.61 9.49 8.66 7.39 11.09 13.15 15.15 17.75 19.05 15.48 14.74 14.16 14.13 19.82 20.42 21.44 21.33 20.49 21.20 20.94 19.90 18.73 20.22 17.75 15.74 14.83 16.00 17.82 13.62 12.57 11.97 9.39 4.36 0.20 -1.71 -1.05 1.42 5.44 -4.58 -7.66 -7.29 -2.78 -1.29 -0.97 -2.67 -2.05 -0.59 0.86 2.05
11.20 10.35 18.29 25.61 22.63 20.89 16.78 14.55 17.03 17.51 17.27 20.80 19.24 18.67 20.47 17.37 14.13 16.09 20.66 20.62 20.63 20.72 21.25 20.90 22.40 20.18 16.69 14.59 13.53 12.63 12.15 12.24 12.88 12.90 12.92 11.99 10.35 8.26 -0.24 -5.84 -4.03 1.80 5.49 -0.31 -8.93 -12.73 -8.38 -4.03 -2.95 -2.01 -0.78 0.27 -0.11 2.67
16.69 15.07 12.38 13.66 17.88 21.18 18.41 16.41 16.26 18.34 17.58 25.07 23.37 19.53 18.08 15.66 13.01 16.94 18.88 20.58 19.04 18.78 16.93 16.27 15.55 14.53 12.05 10.36 8.69 6.94 8.36 11.41 10.36 9.34 7.67 5.97 4.60 -0.22 -2.27 -3.68 -3.08 4.67 -4.95 -10.74 -12.91 -10.01 -9.11 -4.76 -1.05 0.14 0.35 1.42 -1.35 -4.58
17.67 20.47 20.35 15.35 16.55 21.06 20.70 19.99 22.13 24.41 25.63 25.25 21.20 16.93 13.57 13.95 13.04 14.09 16.55 17.74 17.55 15.55 12.76 11.19 9.43 9.24 9.00 7.99 5.44 3.82 1.14 -3.00 -3.47 -6.28 -9.47 -12.01 -11.10 -4.36 -3.68 -10.92 -12.01 -11.10 -13.46 -12.19 -5.30 1.59 1.58 -1.67 -1.49 -5.84 -10.38 -11.46 -8.38 -10.38
17.02 21.30 17.09 13.19 16.49 17.97 19.26 22.08 19.86 22.06 21.77 19.99 18.44 15.82 13.59 11.52 12.26 13.99 13.85 12.55 10.01 6.05 2.60 2.92 2.55 2.05 -5.84 -6.75 -8.38 -4.58 -8.38 -13.28 -10.04 -7.55 -11.28 -13.10 -7.70 -3.27 -12.37 -15.45 -14.18 -12.19 -16.36 -19.62 -16.36 -13.34 -6.57 -13.84 -11.11 -15.34 -14.67 -14.82 -16.03 -18.54
18.68 17.26 14.01 14.65 13.63 16.41 18.06 22.28 22.64 23.48 21.07 15.97 13.40 9.54 8.58 7.42 9.33 9.93 7.77 5.72 5.72 2.12 -2.42 -7.66 -8.56 -15.82 -10.92 -11.65 -13.10 -12.37 -8.93 -10.78 -14.00 -9.83 -9.47 -11.83 -10.56 -13.28 -13.64 -14.91 -17.27 -20.35 -22.16 -21.98 -23.25 -22.89 -22.34 -21.62 -23.61 -23.79 -21.44 -18.36 -18.00 -19.08
21.16 18.97 13.55 13.48 16.20 15.52 12.60 15.42 13.89 19.62 18.31 17.78 8.11 1.16 0.34 -0.24 -5.30 2.34 2.03 -0.69 -4.78 -6.57 -10.56 -16.72 -11.10 -7.48 -10.56 -11.65 -14.91 -14.73 -8.56 -11.83 -11.83 -12.19 -12.37 -10.56 -10.56 -10.74 -14.37 -15.82 -21.25 -22.34 -21.44 -21.62 -23.07 -23.61 -22.89 -23.25 -23.79 -23.97 -24.34 -22.89 -22.34 -20.17
11.65 6.98 8.58 5.38 9.18 11.50 8.95 0.48 0.40 4.51 7.35 8.51 0.47 1.12 -3.15 -0.25 -3.72 1.20 2.15 -4.76 -4.73 -7.87 -9.66 -11.65 -12.19 -14.91 -12.91 -11.46 -11.48 -13.46 -12.55 -14.91 -14.37 -5.30 -3.49 -2.76 -7.29 -8.38 -15.63 -19.99 -22.34 -22.16 -20.35 -21.98 -23.79 -25.42 -22.16 -21.25 -22.16 -23.43 -23.97 -24.70 -23.61 -24.52

GFSWCAN_sfc_wetblb_039.txt.gz
Wetbulb
48.97 48.57 48.19 47.94 47.72 48.01 48.31 48.42 47.75 47.85 47.67 47.75 48.01 48.91 49.91 50.67 50.70 54.20 52.46 53.21 50.75 44.91 47.52 49.84 49.64 44.42 44.14 44.07 40.78 43.24 42.47 41.65 36.79 35.00 35.22 32.39 33.05 33.65 33.51 34.67 33.66 33.18 31.34 30.15 25.43 26.79 28.05 38.72 40.94 37.70 42.02 41.03 41.71 41.85
47.92 47.74 47.63 47.94 48.17 48.46 48.73 47.58 47.18 47.54 47.75 48.48 49.02 49.68 49.92 50.75 51.25 53.53 51.85 53.95 52.07 48.79 47.82 50.44 50.41 50.78 50.58 48.41 45.05 42.68 44.26 42.04 41.77 36.35 32.85 31.79 32.00 32.79 31.26 32.45 36.19 33.11 36.20 34.15 33.82 35.09 40.21 40.24 41.87 43.13 42.29 41.96 42.58 42.67
47.36 47.45 47.83 48.01 47.94 47.45 47.40 47.79 47.36 47.63 47.81 48.33 48.93 50.16 50.21 51.12 51.76 53.18 53.02 51.27 50.32 45.94 46.59 47.78 47.59 50.64 51.12 50.20 51.06 44.14 41.65 44.84 41.36 41.04 36.20 34.09 32.87 33.82 31.98 32.51 34.85 37.11 37.54 35.71 35.65 39.53 38.55 40.49 42.56 42.26 44.10 43.22 44.27 44.15
47.61 47.97 48.01 47.47 46.44 46.73 47.32 47.72 47.67 47.49 48.39 48.90 49.37 50.32 50.65 50.90 51.22 52.31 51.07 49.82 48.48 44.16 36.72 44.31 49.19 47.77 50.11 51.52 51.65 49.22 45.57 43.01 41.89 40.24 35.12 33.94 34.65 35.51 32.84 35.26 35.18 37.85 37.91 36.26 35.80 38.81 39.61 41.18 42.29 43.93 43.25 44.06 44.09 43.45
47.47 47.63 47.11 46.73 46.73 46.93 47.18 47.78 47.58 48.30 50.32 49.50 50.00 50.32 50.35 50.75 51.11 51.55 50.86 49.76 48.98 46.27 38.60 40.16 46.29 47.11 48.50 49.95 48.13 47.69 46.12 44.55 41.84 38.24 34.54 36.04 33.98 35.88 35.60 34.72 33.96 38.37 37.74 35.91 35.48 40.05 40.33 40.93 42.80 43.81 43.21 43.38 43.40 40.41
47.67 46.96 46.57 46.39 46.55 46.76 47.20 47.61 46.87 47.41 47.69 49.11 50.44 50.75 50.44 50.27 50.42 49.39 46.74 49.00 47.64 46.36 42.55 36.67 42.73 42.97 45.12 47.04 46.22 45.60 46.22 43.60 42.15 39.91 35.36 37.73 40.54 37.47 33.62 33.92 38.85 41.16 42.14 41.33 40.36 42.85 42.72 43.20 43.63 44.13 43.03 40.51 38.18 36.76
47.29 46.96 46.95 46.40 46.57 46.98 47.41 48.30 47.38 47.78 49.17 49.16 48.98 49.30 49.47 49.18 49.39 43.72 42.22 47.11 46.68 45.88 39.77 36.18 36.73 40.45 42.13 43.91 43.66 43.45 43.37 42.18 42.96 39.78 35.95 37.84 38.88 38.88 33.94 34.17 38.16 40.53 41.54 42.55 43.63 43.32 41.68 40.95 39.26 37.59 36.42 36.36 37.46 37.15
46.80 46.96 46.58 46.60 46.78 47.02 47.23 47.85 47.56 47.83 48.18 48.13 48.30 48.41 48.39 48.44 48.06 47.39 46.78 46.21 45.86 40.76 38.95 33.86 32.90 36.65 41.44 38.27 37.92 41.76 38.88 40.50 40.41 39.14 37.58 35.95 37.85 35.95 34.88 35.79 36.31 37.66 38.70 41.06 40.59 39.37 37.08 36.39 36.96 36.70 37.65 36.66 34.33 33.36
46.11 46.10 45.91 46.10 46.47 46.87 47.27 47.52 46.84 47.32 47.59 47.53 47.54 47.66 47.64 46.05 44.59 46.03 46.32 45.91 45.12 42.80 34.02 30.84 32.41 32.75 41.17 37.10 36.73 38.60 39.03 34.35 38.31 35.09 36.52 38.59 34.15 32.43 31.79 32.41 33.38 34.73 35.20 37.35 35.81 36.57 37.35 36.32 35.97 35.51 35.03 34.38 32.67 32.43
45.72 45.35 45.54 45.75 45.99 46.55 47.09 46.71 46.57 47.13 47.25 47.00 46.57 43.34 38.29 43.19 46.01 45.39 42.68 39.54 38.50 36.79 37.34 31.68 35.65 33.80 39.52 35.45 34.18 35.56 34.69 33.79 32.61 34.28 37.87 34.00 32.26 32.65 34.18 35.02 35.21 35.44 37.01 36.68 34.43 33.66 34.23 33.84 34.48 34.44 34.51 35.00 34.56 34.11
45.88 45.72 45.73 45.91 46.33 46.47 45.92 46.04 46.06 47.37 47.54 44.17 40.79 38.88 43.92 44.98 42.64 36.58 33.57 34.25 34.68 32.38 36.02 35.34 36.36 35.19 38.10 35.67 33.44 33.55 32.61 33.33 30.30 31.78 34.06 31.75 31.08 31.81 35.38 35.62 36.41 37.34 37.35 37.32 37.15 36.65 36.46 35.88 34.74 34.11 33.74 34.17 33.89 33.13
46.17 46.22 46.06 46.06 45.92 45.69 45.57 45.61 46.02 44.44 42.43 43.80 43.31 42.94 40.88 38.29 35.05 34.21 32.99 33.35 32.21 31.68 33.95 34.35 34.86 37.70 35.62 36.84 34.47 34.61 31.49 32.25 28.66 34.39 32.48 28.99 29.99 35.15 36.47 36.47 37.26 38.01 38.05 37.44 37.69 36.66 36.91 36.68 36.73 35.25 32.95 31.37 31.10 31.19
44.40 44.90 45.18 45.27 45.40 45.60 45.22 45.05 44.87 44.77 43.75 42.95 39.32 36.68 37.55 33.95 32.36 27.83 29.16 31.81 32.16 32.91 33.92 33.62 33.08 34.17 35.81 36.74 33.46 34.31 32.45 30.95 34.33 31.81 30.03 29.94 33.35 35.77 36.05 35.10 34.71 35.34 35.12 36.00 35.91 35.57 33.45 32.24 31.95 31.57 30.80 31.15 29.97 31.12
43.73 43.77 43.91 44.30 44.67 45.20 44.73 44.32 44.27 43.83 41.09 34.41 32.98 32.37 28.82 32.11 31.58 31.72 32.43 33.09 32.17 32.55 32.91 33.46 32.73 33.64 32.91 33.46 32.37 32.55 31.24 32.43 29.79 27.77 25.59 31.16 33.83 32.98 34.15 33.78 32.20 29.95 28.29 30.49 30.72 31.16 29.93 29.40 29.46 28.17 25.72 25.30 24.19 29.34
43.29 43.09 43.21 43.09 43.68 43.96 43.41 43.20 43.37 41.83 36.78 33.36 33.20 27.88 28.71 30.48 31.69 31.77 32.17 32.69 32.49 33.59 33.46 33.28 33.09 34.25 32.14 31.33 30.91 30.24 27.09 24.23 25.12 24.37 29.56 31.12 29.84 30.75 30.75 30.67 30.61 30.28 26.97 29.90 31.25 30.00 26.42 26.49 27.56 28.61 29.62 29.99 28.85 26.38
43.15 42.20 40.51 42.83 42.77 42.78 42.31 41.64 40.46 39.31 34.77 33.21 31.51 29.46 31.39 31.10 31.27 32.19 32.19 32.01 34.10 33.06 33.24 33.49 31.55 30.64 28.21 28.28 26.52 25.47 25.03 21.85 25.79 30.16 30.75 32.04 32.58 33.06 33.96 34.11 31.36 31.64 31.08 30.84 30.82 30.53 29.43 27.34 26.87 28.82 28.68 28.50 26.44 26.73
40.99 37.35 41.18 42.53 41.74 41.27 41.02 37.90 35.77 32.68 32.28 31.57 30.62 32.35 32.17 32.17 31.63 31.82 32.55 32.73 34.75 33.35 30.71 29.91 25.23 24.87 28.53 24.54 23.86 27.60 24.92 26.85 31.26 31.65 32.21 32.20 32.78 33.88 34.30 32.47 31.09 30.96 30.68 30.62 30.30 29.58 28.82 28.48 27.52 26.71 24.64 24.63 25.40 26.33
36.38 38.09 40.97 41.73 39.39 37.96 34.67 32.61 30.90 30.88 29.60 30.37 29.96 30.16 31.51 31.60 31.99 32.01 32.17 32.46 32.99 32.27 31.02 28.76 30.16 25.17 23.01 21.31 23.47 26.28 28.68 30.72 31.77 32.53 33.25 34.07 33.70 33.10 32.53 31.20 30.52 30.50 29.21 28.12 27.41 27.39 27.05 25.65 24.73 23.39 22.81 22.69 23.42 23.77
38.36 38.33 40.05 40.58 37.68 32.60 31.00 30.64 31.15 28.60 29.35 30.38 30.38 30.53 30.92 31.00 31.54 32.10 32.13 31.50 29.86 29.50 28.60 25.02 21.84 22.64 24.12 25.74 25.73 26.95 30.14 29.74 30.08 29.41 29.31 30.06 30.69 30.03 29.55 29.19 28.19 26.90 26.21 25.20 24.76 24.06 24.36 23.93 21.71 21.13 19.93 19.62 19.57 20.58
38.96 38.99 38.80 38.99 37.84 30.15 27.76 27.30 30.59 30.52 28.64 30.03 30.51 29.13 29.21 29.27 30.42 31.95 31.95 31.56 30.24 27.66 24.56 22.75 23.82 25.24 25.93 27.21 28.25 30.03 30.17 29.47 29.35 27.71 26.66 26.87 27.01 26.31 25.74 25.57 24.66 23.67 22.89 22.88 20.19 18.84 19.40 19.24 19.17 17.95 16.58 15.52 15.17 15.00
35.35 35.85 36.30 34.40 30.68 31.31 29.96 28.54 29.71 30.31 30.36 28.82 29.83 29.48 27.81 29.64 29.33 29.71 29.70 30.11 25.76 23.24 25.12 25.15 24.41 27.09 28.00 27.84 28.32 28.75 28.86 29.77 27.63 28.04 26.65 24.15 24.64 23.56 22.31 22.16 21.44 19.59 17.74 16.61 16.22 15.06 14.54 14.84 14.92 14.12 12.42 11.90 12.60 13.54
34.04 36.04 27.66 29.01 24.81 26.78 30.33 31.10 30.00 30.35 29.43 28.72 28.36 29.05 26.74 26.13 26.72 27.78 29.03 28.95 26.43 25.45 27.27 27.45 28.31 28.12 27.13 25.80 25.51 26.20 26.64 26.64 26.45 24.97 24.30 23.58 22.17 20.26 17.47 16.89 16.33 14.76 14.07 13.02 13.53 11.89 11.55 12.35 11.22 10.19 9.29 9.43 9.84 10.69
33.38 29.97 24.56 23.11 20.50 21.21 25.54 30.69 26.09 28.63 25.99 26.42 27.96 24.89 25.57 25.77 27.18 29.21 26.19 28.12 27.37 28.32 28.76 28.73 27.47 27.51 25.43 25.05 24.65 24.08 24.47 23.92 22.15 21.83 21.56 21.20 20.55 18.01 15.62 13.95 12.80 10.81 10.46 10.52 10.93 9.84 8.30 5.05 7.45 6.15 7.01 6.86 7.04 6.87
31.30 23.37 18.35 15.47 18.60 21.91 22.30 17.98 26.52 22.44 21.16 24.84 24.65 19.21 21.64 25.08 25.15 23.61 22.78 24.77 26.30 27.32 27.92 26.77 26.48 23.85 23.73 22.08 20.27 20.99 21.88 21.55 19.26 17.86 19.09 17.72 15.95 15.56 15.37 13.30 11.20 9.85 9.25 8.66 7.21 4.91 4.55 3.65 1.02 4.10 3.22 2.65 3.16 3.76
19.73 21.10 18.53 15.15 13.38 14.98 18.40 18.40 15.79 15.60 11.33 13.15 16.61 16.26 21.74 20.00 17.70 18.53 19.51 21.29 22.05 21.75 23.15 26.02 26.49 24.77 20.48 18.71 18.83 18.29 19.33 20.61 17.42 14.61 14.48 14.81 13.11 12.34 11.66 10.87 10.09 9.12 8.70 5.53 3.74 2.48 1.70 1.60 1.57 1.75 2.18 1.48 1.89 2.74
15.26 20.77 14.11 18.05 10.23 11.84 14.91 8.75 10.07 10.33 9.80 10.74 14.14 18.08 17.37 16.60 11.64 13.84 17.63 18.24 19.77 19.75 20.00 21.80 20.87 18.91 17.85 19.34 17.29 16.09 15.25 17.46 16.71 12.69 11.70 11.87 10.17 8.06 5.98 4.58 4.67 5.84 7.45 3.68 1.35 0.61 0.61 0.58 0.45 -0.02 0.63 2.00 1.27 2.13
14.52 15.80 21.56 27.03 24.34 22.93 15.44 14.13 17.18 16.98 13.41 13.97 17.15 17.34 19.82 17.70 12.34 15.61 20.14 19.18 19.64 18.82 18.81 18.68 20.74 18.18 15.46 14.48 13.97 13.64 14.21 14.28 14.26 12.71 12.28 11.01 9.82 8.40 5.53 3.60 2.24 5.30 6.41 3.76 0.22 -1.53 -2.26 -2.26 -1.72 -0.48 0.39 2.46 3.34 2.57
22.34 19.99 13.10 13.60 13.74 21.41 13.70 13.40 15.16 19.77 20.82 23.85 22.61 16.17 16.23 14.22 12.80 15.85 17.55 19.09 18.29 17.25 15.18 14.25 13.89 13.43 11.44 10.25 10.39 11.46 11.27 10.79 9.88 8.98 8.45 7.67 6.29 5.43 3.70 3.58 2.51 3.54 -0.89 -2.23 -2.12 -2.31 -1.45 -1.71 -0.70 0.96 0.64 -0.20 -1.28 0.01
20.48 19.05 17.86 9.66 10.64 15.74 15.26 15.06 15.19 20.59 23.46 23.92 20.14 15.16 12.14 12.83 12.46 13.09 15.67 16.66 16.89 15.82 12.64 10.74 9.89 10.38 9.01 7.39 4.64 3.41 3.20 5.69 5.08 -0.55 -1.58 0.03 -0.29 3.67 3.64 1.14 -0.35 -1.29 -2.86 -3.41 -2.65 1.50 3.83 4.88 2.42 -0.35 -3.41 -3.99 -4.39 -4.94
15.18 16.18 12.18 8.20 11.62 13.48 14.88 19.59 18.18 18.95 19.99 18.72 17.06 14.69 12.56 10.69 11.27 12.92 13.29 12.25 9.79 6.84 5.06 5.23 4.34 5.42 1.06 1.65 0.27 1.83 -0.20 -2.28 0.04 1.44 0.35 -0.57 0.45 1.99 -0.20 -1.53 -1.71 -1.77 -5.34 -5.84 -5.93 -5.12 -3.55 -4.79 -3.63 -6.00 -7.01 -6.81 -7.13 -7.13
16.57 15.06 12.98 12.68 11.82 13.79 13.54 20.85 22.50 21.73 15.96 13.64 11.12 9.30 7.90 8.78 9.85 9.01 6.99 5.68 5.51 3.42 2.87 -0.30 -1.04 -6.97 -1.04 -2.26 -1.71 -2.33 -0.83 -0.60 -6.97 -3.16 -2.62 -3.00 -2.98 -2.08 -1.35 -1.89 -3.71 -6.43 -7.70 -7.94 -8.21 -8.27 -8.43 -7.32 -9.08 -9.81 -8.85 -9.39 -10.99 -11.16
19.27 17.39 11.88 12.85 15.74 10.37 7.93 4.56 6.79 18.15 17.33 13.35 3.23 1.60 1.89 2.70 -3.17 5.59 4.56 0.76 -0.53 0.34 -7.33 -10.23 -5.34 -0.64 -4.25 -4.79 -8.42 -6.43 -7.72 -3.90 -2.80 -4.43 -5.34 -3.89 -1.53 -0.74 -0.59 -2.68 -7.51 -9.15 -7.88 -7.51 -8.52 -9.60 -10.60 -9.53 -9.21 -10.17 -10.52 -11.09 -12.04 -12.61
9.48 6.02 10.55 12.11 9.47 9.67 6.18 -0.05 -1.08 5.32 7.56 3.38 0.02 -1.26 -1.62 0.92 -0.41 2.94 3.54 -1.35 -0.44 -3.05 -4.55 -4.09 -4.07 -6.06 -7.15 -7.33 -4.21 -4.03 -8.30 -4.83 -8.24 -4.79 -2.80 -2.98 -5.70 -2.44 -2.08 -4.98 -8.06 -8.78 -8.06 -7.33 -8.06 -10.43 -9.43 -10.11 -9.16 -10.76 -11.48 -13.57 -13.67 -14.24

GFSWCAN_sfc_wetblb_042.txt.gz
Wetbulb
47.27 46.91 47.28 47.50 48.19 48.21 48.56 48.65 48.44 48.34 48.14 48.13 48.27 48.60 48.69 48.83 51.08 54.29 57.15 57.86 58.01 52.27 51.90 53.08 51.97 50.60 50.39 52.33 48.95 48.13 47.85 47.46 46.92 45.12 44.92 42.47 42.12 40.66 40.07 40.90 39.09 39.08 38.18 36.99 35.30 35.00 32.96 43.91 44.44 40.77 45.77 48.20 46.75 47.87
47.92 48.24 48.02 48.03 47.60 47.77 47.97 48.02 48.22 47.90 47.97 48.17 48.52 48.74 48.94 50.07 50.86 52.70 55.99 57.33 58.66 54.91 52.16 54.64 53.77 54.47 53.86 53.43 52.42 50.45 51.05 49.37 50.49 47.37 44.81 42.65 38.73 37.13 40.88 39.34 41.96 38.62 42.99 41.90 41.14 42.02 45.06 46.20 47.71 48.72 48.36 47.75 48.34 48.08
47.58 47.51 47.58 47.63 47.67 47.71 47.69 47.43 47.58 47.65 47.65 47.90 48.24 48.70 49.60 50.33 51.38 53.84 56.82 56.91 57.74 53.96 52.35 53.63 51.74 54.16 56.00 55.15 55.90 50.71 50.34 51.32 49.18 50.00 47.61 45.45 37.58 43.70 37.18 40.84 41.31 43.09 43.20 42.10 40.49 43.95 44.82 46.32 48.01 48.74 49.17 47.98 48.50 48.77
47.53 47.51 47.35 47.20 47.06 47.00 47.08 47.08 47.24 47.51 47.85 47.99 48.43 48.92 49.62 50.46 51.55 53.59 56.35 55.48 56.72 52.03 41.93 49.34 53.80 51.90 53.95 55.71 55.38 53.88 52.23 50.11 49.40 51.01 47.59 41.46 41.77 43.24 42.13 42.77 42.85 44.21 43.38 42.24 41.97 45.05 45.64 46.08 46.69 47.71 48.32 49.20 48.50 48.52
46.99 46.64 46.70 46.75 46.95 47.26 47.09 47.18 47.42 47.51 47.76 48.30 48.96 49.47 50.12 51.09 50.77 54.41 54.10 52.87 54.49 53.05 43.86 49.04 51.58 51.55 53.11 53.65 52.58 52.72 51.84 51.14 50.33 47.62 41.89 44.58 43.56 43.36 41.65 42.31 42.41 44.44 42.62 41.81 42.00 43.88 44.42 45.19 47.65 47.88 47.45 47.36 47.50 45.15
46.48 46.37 46.48 47.00 47.02 47.09 47.22 47.51 48.25 48.38 48.55 49.22 49.67 50.48 50.38 50.10 51.27 57.29 51.21 51.95 51.01 55.07 51.70 42.94 49.47 48.90 51.12 52.45 51.52 50.58 51.30 50.60 50.31 46.59 40.40 44.66 43.22 45.48 38.27 41.27 41.93 44.40 45.01 45.53 44.22 47.30 47.04 47.23 44.91 46.20 43.97 43.78 43.06 42.09
46.35 46.77 47.17 47.51 47.38 47.22 47.62 47.87 49.40 48.64 49.28 49.36 49.15 49.06 48.83 49.15 53.23 52.34 49.89 50.47 48.64 52.25 49.17 41.86 45.02 47.22 48.05 50.22 48.53 49.84 49.97 48.96 49.54 43.99 40.65 42.65 42.84 45.83 38.98 41.19 39.91 41.98 43.11 45.19 46.59 46.37 44.50 41.12 39.60 41.75 41.76 40.85 39.41 37.80
46.33 46.57 46.90 47.54 47.44 47.00 47.20 47.83 48.42 48.59 49.13 49.37 49.27 49.06 48.61 48.65 49.13 51.54 50.65 47.17 48.43 49.58 50.24 41.06 40.88 46.11 46.77 43.74 43.01 46.04 44.88 47.77 44.19 41.54 41.77 40.13 41.72 42.65 39.41 36.80 38.28 40.86 42.33 41.54 41.19 42.61 41.41 41.07 39.81 37.89 37.73 37.24 35.92 35.35
46.15 46.14 46.70 46.93 46.77 46.54 46.34 46.49 47.32 48.00 48.04 48.50 48.04 48.59 54.39 51.55 52.11 51.53 45.92 46.94 51.16 50.10 44.13 37.21 40.48 37.78 44.35 40.32 41.67 44.61 44.58 38.66 41.75 40.48 40.11 43.02 37.83 36.26 33.37 34.63 36.28 37.52 37.91 38.42 40.54 39.66 37.99 36.10 35.82 36.27 35.77 35.22 35.03 34.92
45.63 45.92 46.33 46.10 46.18 45.61 45.88 46.19 46.93 47.06 46.99 47.32 52.00 51.08 47.59 49.14 46.19 47.93 50.08 49.08 47.11 45.21 43.37 35.40 40.52 36.74 42.78 41.39 37.87 40.07 40.03 38.38 36.57 38.61 40.23 37.21 32.77 34.41 35.42 36.15 36.72 38.87 41.00 39.44 35.24 34.21 35.39 34.99 35.57 35.66 36.32 37.52 37.85 37.77
46.15 46.17 46.21 46.01 45.80 45.68 45.79 45.92 46.19 47.53 49.24 51.73 48.78 44.30 49.66 46.43 49.88 45.74 41.48 41.28 41.73 37.92 39.49 38.69 40.93 38.40 41.20 38.71 36.24 38.85 35.57 38.52 34.66 37.05 37.65 35.37 32.45 33.05 36.17 36.65 38.20 39.62 40.14 39.56 38.43 37.67 37.73 37.68 36.94 37.19 36.79 37.01 36.07 35.06
46.08 45.88 45.74 45.57 45.36 45.39 45.29 45.50 46.61 49.41 48.80 48.72 48.95 48.22 48.22 45.31 43.86 37.16 34.67 37.74 37.24 34.83 37.12 38.02 38.22 40.45 38.98 42.47 38.67 38.44 34.68 36.06 32.13 38.68 35.69 31.88 32.20 35.79 36.41 36.70 38.11 39.85 40.13 39.52 39.76 38.79 38.87 37.97 37.21 35.59 34.58 34.16 34.25 33.95
44.76 45.13 45.46 44.96 44.65 44.91 44.61 44.83 44.81 44.81 46.45 49.92 46.70 40.26 44.26 38.66 35.76 35.94 31.93 34.27 33.48 35.40 35.54 36.06 35.19 38.96 39.47 40.75 37.16 37.03 33.59 33.00 38.82 33.33 32.02 31.92 34.71 35.98 36.51 37.12 37.40 38.56 38.16 38.02 36.83 36.18 35.55 34.98 34.78 34.55 33.66 34.01 34.57 34.21
43.69 43.62 44.10 44.30 44.08 43.88 44.02 44.16 44.20 45.75 47.93 41.99 38.27 33.95 35.22 34.49 33.87 34.30 35.58 35.22 33.75 35.04 35.58 38.12 35.40 37.21 37.20 36.85 35.04 33.95 32.68 34.43 31.58 29.53 29.72 31.77 33.92 35.50 36.35 36.77 35.67 33.40 32.46 34.26 34.26 34.28 32.86 32.79 32.31 32.37 31.80 31.86 32.28 31.70
42.65 42.57 43.05 42.90 43.67 43.65 43.25 43.31 43.73 45.62 41.71 36.21 37.77 30.85 31.22 31.94 32.86 32.68 33.41 34.31 34.45 35.61 37.58 37.92 37.38 38.46 33.95 33.04 33.86 33.71 30.69 29.19 30.42 30.49 31.99 33.24 34.13 36.03 35.37 33.83 33.62 32.61 32.30 34.08 34.57 32.61 31.74 32.30 32.60 32.46 32.44 31.02 29.67 28.81
42.46 42.01 40.11 42.70 42.44 42.49 42.67 43.84 44.22 43.10 38.51 35.36 34.35 31.59 32.86 32.48 31.96 32.32 32.50 32.50 35.61 35.22 36.49 37.56 33.72 34.13 31.76 34.11 32.14 31.74 31.23 29.72 31.51 34.53 33.84 32.46 33.64 35.54 34.43 34.37 34.55 34.50 34.21 34.00 34.11 33.40 32.11 30.98 30.64 30.49 29.53 27.98 27.20 27.60
41.51 38.74 40.59 41.92 41.75 41.70 41.85 42.07 40.58 35.19 35.47 33.89 31.93 33.41 33.41 32.68 31.96 32.32 33.41 33.04 34.92 34.13 32.50 35.53 32.14 29.90 32.95 30.86 29.78 32.90 31.76 33.39 33.79 32.20 33.83 35.38 34.44 33.97 35.64 34.68 33.49 33.84 34.11 33.70 32.93 31.83 30.82 29.82 28.71 27.07 25.52 26.05 26.41 26.66
38.09 39.99 40.72 41.22 41.60 41.67 39.00 38.81 37.19 34.60 30.53 32.34 31.87 31.76 33.04 32.86 32.68 32.48 33.22 33.86 36.05 34.75 34.15 32.04 34.86 30.57 30.81 29.19 31.03 33.87 33.09 33.66 35.13 34.19 34.52 36.03 36.20 34.81 33.90 34.49 34.18 33.79 32.27 30.59 29.60 28.94 27.89 26.58 26.22 25.65 24.47 24.09 24.64 24.98
38.81 39.29 39.72 40.06 40.97 40.21 36.37 35.38 36.90 30.77 31.24 32.80 32.80 33.15 33.12 32.86 33.90 34.23 33.42 33.04 35.19 36.94 34.94 34.08 32.31 31.51 32.31 34.47 34.18 32.31 33.42 35.97 33.75 32.17 30.57 32.64 34.38 33.70 33.25 32.67 31.70 30.33 28.58 27.53 27.27 27.00 26.21 24.18 23.66 23.40 22.51 21.84 20.91 22.03
38.46 38.93 38.50 38.80 41.35 37.92 33.21 33.24 38.02 33.18 30.20 31.60 32.57 31.09 31.55 32.25 33.48 33.21 33.41 34.44 34.81 35.34 33.19 31.95 31.58 32.10 33.38 33.26 34.31 36.43 37.42 37.56 34.80 30.52 28.77 29.82 31.99 31.88 31.09 30.42 28.94 27.97 26.92 25.03 23.23 22.61 23.85 23.61 22.24 20.83 19.38 18.48 18.35 17.88
39.20 38.34 37.62 39.76 37.76 35.84 32.56 32.44 32.20 32.47 32.01 30.28 31.52 31.40 30.61 32.70 32.02 32.29 31.99 33.83 34.30 29.85 29.55 29.34 29.39 29.49 30.30 31.66 33.91 35.94 35.45 36.27 34.76 33.34 30.78 27.68 29.11 29.06 27.22 26.14 25.16 24.79 23.96 23.31 22.35 20.40 19.45 19.20 18.64 18.07 17.27 17.42 16.50 17.69
36.86 37.07 36.92 35.93 33.29 33.87 33.16 33.20 32.89 33.70 31.88 31.08 30.93 31.30 29.79 29.46 30.03 30.39 32.26 32.72 28.78 28.17 29.24 29.23 30.49 31.44 30.13 28.80 29.96 31.63 31.53 31.13 30.22 28.93 28.10 27.36 25.15 24.54 23.58 23.73 23.81 21.49 19.88 19.07 18.98 17.56 17.67 16.68 15.20 15.16 15.32 14.72 15.19 16.45
36.23 36.60 35.09 33.30 29.34 30.45 28.31 34.07 31.23 30.37 27.89 29.42 31.30 28.16 28.76 29.41 30.61 32.79 29.71 29.93 28.89 29.88 30.64 29.28 28.21 28.41 26.52 26.83 26.92 27.52 28.83 28.50 27.21 26.49 25.55 24.40 23.11 22.48 20.90 19.50 19.32 18.42 17.87 16.37 16.86 16.39 15.02 10.57 13.32 12.27 13.82 13.81 14.49 14.40
34.38 28.88 25.76 25.69 27.77 23.99 28.31 26.35 29.34 28.97 29.65 28.00 28.00 25.34 25.83 27.98 30.01 28.82 25.66 26.32 26.43 27.94 28.83 28.26 27.88 25.88 25.74 24.86 23.66 23.55 24.14 24.78 23.41 22.97 23.82 23.22 20.93 19.25 18.93 17.04 15.86 15.16 14.50 14.70 14.44 13.53 12.99 12.31 9.73 12.28 11.43 11.49 11.61 11.40
27.13 23.93 26.39 22.84 25.84 24.23 22.26 22.62 24.90 26.11 23.91 24.06 24.01 23.88 24.89 28.20 24.55 23.13 21.83 22.82 23.79 23.72 25.13 27.47 27.28 26.00 22.71 21.59 21.73 20.89 22.87 23.41 21.17 18.27 18.75 19.96 18.57 17.56 16.40 16.06 14.57 13.48 14.08 13.57 11.93 10.93 10.76 10.23 10.17 9.88 9.60 9.91 8.69 8.56
20.62 24.14 23.73 23.37 24.05 24.13 22.84 21.99 21.85 22.81 23.30 23.18 24.18 25.56 27.43 25.64 20.11 17.38 18.66 20.92 21.98 21.78 21.28 23.06 24.01 21.14 19.32 20.83 19.74 18.70 17.90 20.70 20.15 16.54 15.75 16.76 16.47 16.18 14.20 13.44 14.35 13.07 13.07 11.89 9.76 8.51 8.60 8.46 7.88 6.92 8.03 8.77 7.54 7.66
20.63 21.87 24.78 27.54 25.80 25.15 25.08 24.84 25.26 24.74 22.38 22.50 25.27 24.48 24.90 18.79 15.63 17.78 21.84 20.49 21.16 19.84 19.52 19.88 20.72 19.25 17.48 16.67 16.58 16.84 17.64 17.93 17.54 15.66 15.35 14.39 13.99 13.90 13.12 11.41 9.24 10.34 11.46 9.55 8.33 7.73 6.67 6.06 6.40 6.89 7.44 9.12 8.88 7.34
23.97 24.96 21.33 23.54 25.56 26.47 23.12 23.68 23.19 22.93 24.50 26.44 26.39 19.80 17.80 17.11 16.17 18.42 19.28 20.74 20.12 19.17 17.69 16.78 16.19 15.93 15.35 15.25 16.56 16.53 15.46 14.96 14.30 14.35 14.14 13.68 13.36 12.73 11.06 11.88 10.44 7.16 7.70 7.39 6.61 6.54 6.65 6.65 6.52 7.25 7.01 5.90 5.19 6.02
24.55 26.55 25.45 19.74 22.81 24.37 23.53 23.16 23.95 25.06 24.73 25.78 23.84 18.72 15.43 15.04 15.83 16.98 17.87 18.98 20.72 19.98 17.16 15.50 14.84 15.69 14.20 12.79 12.44 12.90 13.90 14.73 13.32 9.64 8.91 10.93 11.40 11.85 11.70 10.70 10.35 9.64 8.85 7.49 6.08 5.97 6.91 7.65 7.04 5.27 4.00 3.66 3.95 4.11
24.09 26.56 24.11 19.88 19.44 21.08 24.53 26.22 25.93 24.66 23.04 21.68 20.01 17.00 15.19 14.26 14.28 16.49 17.21 17.01 15.55 13.21 12.00 11.76 12.26 14.27 11.66 13.46 11.74 10.94 10.70 10.96 9.88 9.56 8.65 7.60 8.38 9.69 9.11 8.89 8.38 8.61 7.17 6.43 5.51 5.39 4.83 4.88 4.82 4.78 3.11 2.97 3.55 1.87
25.98 27.24 23.57 23.24 21.92 24.64 23.95 23.88 27.33 24.29 21.68 17.89 17.17 16.20 13.28 13.38 14.20 13.76 12.78 12.68 13.01 13.40 13.87 12.34 10.76 11.13 11.62 10.47 11.08 10.37 9.57 9.77 5.87 6.19 6.42 7.38 7.85 8.22 8.74 8.08 8.27 7.54 6.21 4.58 3.85 3.46 2.26 2.26 3.37 1.55 1.62 -0.11 -1.49 -1.96
23.74 20.93 21.16 19.83 21.57 21.89 20.90 22.25 21.02 22.96 21.40 18.05 13.05 13.28 12.49 12.96 9.02 11.86 10.73 12.32 13.36 11.54 3.75 9.46 11.26 10.29 8.97 9.88 7.86 8.98 0.26 7.56 7.91 6.38 5.70 6.78 8.24 8.85 8.56 7.95 6.66 5.50 4.50 3.38 3.27 2.43 1.02 0.19 0.61 0.35 -0.13 -0.97 -2.43 -3.84
20.58 20.82 20.28 20.74 20.71 20.29 16.86 16.77 15.69 15.90 15.91 14.02 11.34 11.42 10.53 11.07 6.09 10.25 10.99 10.03 10.35 10.26 9.64 10.10 10.74 10.24 7.30 5.27 7.62 8.66 3.05 7.98 4.20 3.72 3.09 2.71 1.26 2.98 4.67 6.95 6.12 4.70 2.72 2.69 2.93 1.90 0.01 -0.58 -0.40 -0.98 -1.43 -3.80 -4.35 -4.52

GFSWCAN_sfc_wetblb_045.txt.gz
Wetbulb
45.54 45.44 45.75 45.92 46.03 46.17 46.95 47.31 47.03 46.43 48.21 48.81 49.10 49.12 49.18 49.43 49.85 53.38 55.83 61.47 58.17 54.75 53.56 54.90 54.56 52.41 53.74 53.46 50.29 51.78 50.30 50.62 50.43 46.51 47.83 46.36 44.38 44.89 43.70 44.92 42.13 40.94 40.53 37.94 41.18 35.10 33.76 46.73 46.51 41.68 47.55 49.10 49.27 49.33
45.70 45.66 45.68 45.84 46.45 46.78 46.86 46.80 47.64 48.76 48.88 48.80 48.73 48.76 49.03 49.19 49.49 52.73 53.56 61.10 61.55 57.61 53.80 57.77 57.14 57.24 56.72 57.65 55.41 53.36 52.48 52.21 52.83 50.00 49.65 49.83 42.20 40.82 45.06 40.56 46.96 41.48 45.56 44.60 43.66 43.64 48.18 48.54 47.64 50.14 50.22 49.05 49.63 49.82
46.08 46.31 46.36 45.85 45.84 45.59 45.92 46.49 48.52 48.33 48.22 48.26 48.34 48.39 48.57 49.11 50.51 54.04 56.64 59.75 60.24 55.25 53.47 54.84 53.96 56.44 58.03 58.63 59.81 53.41 55.79 55.84 54.54 56.70 52.12 50.84 42.80 48.50 39.57 44.39 45.37 46.58 47.18 44.56 43.06 45.71 46.83 47.96 49.44 50.38 50.92 50.51 50.87 51.23
44.58 45.45 45.28 46.86 47.31 47.61 47.90 47.81 47.60 47.54 47.63 47.79 47.98 48.31 48.56 49.26 50.98 53.28 57.26 58.91 59.83 55.09 46.89 50.54 56.92 53.92 56.85 58.47 58.02 58.26 57.51 56.29 55.78 55.76 52.51 43.77 43.89 49.23 46.90 46.99 46.05 47.32 46.76 44.63 44.49 46.47 47.21 48.35 49.53 50.04 50.07 51.06 50.77 50.86
47.13 46.79 46.86 46.97 46.99 46.95 46.95 46.88 46.97 47.08 47.58 47.95 48.20 48.62 49.20 50.47 51.43 55.04 57.54 56.10 58.28 56.56 47.09 49.23 54.13 54.42 56.54 56.98 56.26 56.62 56.25 54.55 53.16 50.88 44.36 47.38 48.74 47.87 47.54 47.10 45.55 47.70 45.71 43.96 43.73 46.88 46.77 47.89 48.29 49.25 48.69 48.07 48.61 47.23
46.98 46.84 46.86 47.00 46.91 46.89 47.09 46.97 47.13 47.27 47.58 47.76 48.04 48.79 49.72 50.95 51.87 57.56 55.26 55.59 55.81 59.41 52.68 46.19 52.32 51.51 54.91 56.01 55.16 54.95 55.90 55.48 55.06 49.24 47.54 49.06 47.55 50.03 41.99 43.58 45.79 46.69 46.69 47.39 46.83 48.54 48.54 47.79 46.34 46.53 45.14 45.22 45.28 44.22
47.35 47.33 47.02 47.22 47.27 47.67 47.62 47.18 47.06 47.20 47.58 48.04 48.60 49.41 50.10 50.97 56.88 53.85 51.17 53.39 51.89 57.77 51.82 44.77 45.98 50.81 52.03 53.92 52.71 53.98 54.99 53.39 53.80 49.73 44.62 48.17 47.76 49.11 41.74 42.64 44.42 44.27 45.65 46.86 47.31 47.49 44.61 45.15 42.75 44.01 42.51 41.59 40.53 39.50
47.11 47.04 47.06 47.26 47.96 48.65 48.12 47.69 47.65 48.24 48.69 48.66 49.11 49.32 48.69 48.94 49.55 53.01 50.17 47.33 51.06 52.11 53.74 42.81 42.02 47.33 51.04 48.93 46.49 51.69 50.64 52.79 48.12 44.88 45.47 43.93 45.64 45.43 43.18 41.93 42.55 43.40 45.36 44.18 44.67 45.77 44.53 43.35 41.81 40.42 39.91 38.41 36.99 36.27
46.86 46.83 46.42 46.52 46.88 47.56 48.66 48.80 48.52 48.63 48.41 48.50 48.79 49.37 55.38 55.18 54.45 52.22 46.38 48.10 54.19 52.51 47.39 38.81 39.53 37.84 48.05 44.91 46.68 47.49 50.57 41.48 47.59 42.82 43.65 45.19 40.26 39.25 38.45 39.89 40.29 41.04 41.67 42.11 42.14 41.49 40.37 39.28 37.92 37.70 38.49 38.39 37.89 37.86
46.46 46.18 45.91 45.51 45.78 45.94 46.43 47.84 47.89 48.15 48.56 48.57 54.73 53.16 50.82 52.43 47.15 48.35 50.27 51.20 50.74 48.91 46.40 38.44 44.43 40.12 45.27 44.24 41.01 42.96 42.84 41.56 38.18 40.28 44.45 41.62 36.14 37.68 38.81 38.90 39.80 41.85 42.39 40.76 37.79 36.05 36.31 35.81 37.41 38.23 38.80 39.54 39.54 38.64
45.89 45.64 45.32 45.36 45.29 45.53 45.93 46.49 46.82 47.32 48.53 54.97 51.58 47.07 51.90 47.73 51.93 48.67 43.39 44.73 46.38 39.63 41.41 41.22 43.87 40.71 45.11 40.88 37.30 41.97 38.21 41.19 35.33 38.41 38.72 36.89 35.23 34.70 38.02 38.69 41.11 42.59 41.33 40.83 40.32 39.66 40.25 39.96 38.60 38.14 38.06 37.13 36.14 36.06
45.34 45.16 45.08 44.87 44.97 45.22 45.37 45.91 48.09 51.45 52.14 51.72 51.51 51.25 51.46 49.10 46.31 38.89 36.99 38.91 39.11 36.21 38.86 38.67 40.15 41.64 41.43 46.51 41.46 42.06 36.71 39.04 33.41 41.01 38.40 34.24 33.68 36.47 37.69 38.64 40.21 41.02 40.85 40.48 40.90 39.43 39.50 38.90 38.24 37.01 36.39 36.02 35.49 35.69
44.37 44.29 44.40 44.18 44.36 44.67 44.85 45.06 45.03 45.49 46.63 53.96 49.58 42.63 46.36 40.08 36.45 35.73 33.90 35.04 34.57 36.81 37.19 39.06 36.11 41.02 41.37 43.94 39.66 38.09 34.09 35.11 41.27 34.72 33.43 33.97 35.51 36.62 38.00 38.69 38.41 39.96 39.89 39.65 38.67 38.10 37.28 36.28 36.38 36.30 34.72 35.01 37.02 35.51
43.64 43.65 43.62 43.70 43.71 43.88 44.53 44.96 45.63 49.02 51.33 44.86 39.47 34.64 36.81 34.28 34.82 35.36 36.41 35.53 35.18 36.45 38.81 40.17 36.81 38.92 40.24 36.45 38.44 35.18 34.09 37.15 32.42 31.07 32.23 33.61 35.17 36.42 38.66 39.33 38.46 36.31 36.53 36.32 35.91 35.68 34.73 34.35 33.68 33.59 32.92 32.75 32.12 31.39
42.68 42.41 42.78 42.58 42.72 43.45 43.82 44.98 45.19 47.41 44.97 39.14 38.96 31.92 31.74 32.64 33.37 33.55 34.64 35.73 35.43 38.02 40.65 38.84 39.22 41.01 36.09 35.36 36.64 34.46 31.56 30.73 32.35 33.07 33.10 33.86 35.04 36.99 37.14 37.00 35.27 33.51 33.85 35.44 35.68 33.61 33.72 34.75 34.15 33.33 32.19 31.05 30.10 28.67
42.47 42.36 40.18 42.47 42.59 42.89 43.66 45.15 45.17 44.98 40.77 36.58 34.84 32.46 33.01 32.83 32.10 32.83 33.19 33.19 37.04 38.05 42.25 42.86 37.51 36.27 33.73 34.88 32.76 33.85 33.44 31.94 32.19 34.80 34.45 34.88 35.99 36.72 36.16 36.20 36.01 36.40 36.08 36.04 35.67 34.44 33.07 32.19 32.87 31.58 30.05 28.65 28.93 27.89
41.92 38.48 40.95 41.99 42.35 42.81 43.69 44.15 42.11 36.91 36.19 35.25 32.10 33.73 33.73 32.64 31.92 32.28 33.37 33.73 36.44 36.81 34.28 37.31 33.53 31.63 35.72 32.42 31.41 35.05 33.01 34.80 34.46 35.19 34.91 35.77 35.69 36.06 36.46 36.70 34.99 36.29 36.28 35.90 35.40 34.44 32.86 31.28 29.78 28.69 27.41 27.69 27.54 27.83
40.71 41.58 40.86 41.86 43.53 43.69 41.52 41.92 39.36 36.26 31.95 34.06 32.34 32.28 33.19 32.64 33.37 33.19 33.73 35.12 36.21 35.21 37.01 34.14 37.35 33.04 32.96 31.24 31.84 33.64 33.36 35.68 34.64 35.04 35.90 36.26 36.76 37.07 37.23 36.67 36.67 36.30 35.02 33.84 32.23 31.05 29.64 28.69 28.78 28.39 27.01 26.13 26.51 26.42
39.47 40.12 40.19 41.55 43.10 42.02 37.20 36.98 39.53 32.17 33.59 34.71 34.39 34.79 34.44 33.91 35.43 36.17 35.92 37.86 39.62 40.82 38.99 37.10 34.42 32.68 32.25 34.87 33.58 33.58 34.13 34.45 32.83 33.00 33.46 34.71 34.71 33.98 35.16 35.31 34.51 33.68 32.26 31.22 31.09 30.62 28.61 26.76 26.20 26.04 25.19 24.42 23.51 24.23
39.40 39.63 39.97 41.23 43.67 39.53 34.26 34.62 40.49 34.91 31.79 32.76 34.64 32.88 33.67 33.97 35.48 34.39 34.64 38.44 38.69 38.36 33.94 31.70 29.60 29.81 30.61 31.85 33.63 36.63 36.91 36.83 35.30 33.31 31.13 32.78 34.11 34.63 33.67 33.36 32.33 30.71 29.03 27.52 26.23 26.33 27.66 27.28 25.41 23.91 22.65 21.84 21.46 20.45
40.95 39.71 40.79 43.25 40.99 38.14 35.18 34.81 33.86 34.46 34.20 32.18 33.66 34.01 33.00 35.53 34.00 33.55 34.11 37.57 33.79 29.30 28.48 29.73 30.13 30.85 32.34 33.49 35.89 37.37 37.72 37.94 35.76 36.19 34.40 31.72 32.72 32.17 31.02 30.43 30.04 29.80 28.71 27.91 26.55 24.03 23.55 22.64 22.19 21.40 21.19 21.40 20.06 20.82
38.89 39.55 40.14 40.26 36.94 36.40 34.78 36.59 34.80 36.50 34.05 33.15 33.20 33.93 32.03 31.69 32.04 31.92 34.75 32.96 28.85 29.07 30.00 29.56 30.62 32.44 31.64 31.20 32.53 33.77 33.99 33.22 32.30 31.68 31.42 30.92 29.68 28.81 28.17 28.24 27.81 25.47 24.12 23.56 22.96 21.76 21.87 20.21 18.89 18.72 19.43 19.10 19.21 20.11
38.81 39.52 37.36 36.85 32.47 32.72 29.55 37.34 32.08 32.65 29.42 30.33 32.85 28.82 29.52 30.82 32.12 35.68 29.92 29.84 29.07 30.56 31.20 29.76 28.85 29.35 28.82 29.45 29.63 29.90 31.68 31.86 29.87 29.05 28.27 27.71 26.93 26.21 24.95 24.07 24.68 23.46 21.54 19.56 20.55 19.90 18.82 15.50 17.87 16.50 18.24 17.88 18.54 17.96
37.45 32.56 29.82 29.88 30.88 26.57 31.51 28.35 30.72 30.47 30.63 29.50 28.65 26.02 27.18 29.42 32.70 30.12 26.16 25.20 26.75 28.67 29.63 30.29 30.93 28.78 28.21 26.45 24.82 24.91 26.45 28.02 26.73 26.89 27.35 25.78 23.53 22.10 22.07 20.47 19.50 19.00 18.49 19.03 18.99 18.47 18.05 17.07 14.95 16.70 15.82 15.22 15.62 14.47
30.26 26.81 30.33 26.56 31.00 28.38 26.52 26.56 27.36 28.06 24.92 26.88 26.87 26.11 26.81 30.45 27.12 24.97 23.58 23.58 24.92 24.81 25.67 27.82 27.62 27.50 25.41 24.67 23.72 22.26 24.10 25.11 22.78 20.81 22.71 23.34 22.17 21.13 19.80 19.04 17.74 16.76 17.65 17.58 16.29 15.55 15.67 15.06 14.88 14.00 13.00 13.83 12.49 11.89
23.64 26.21 25.91 26.47 27.04 26.84 26.90 24.26 24.22 24.42 26.04 25.29 25.31 27.62 29.40 28.05 22.88 19.73 20.78 22.50 23.18 22.85 22.89 23.57 26.16 24.10 20.95 22.03 20.68 19.30 19.66 23.42 22.34 18.90 18.38 20.10 20.50 20.57 18.96 18.19 18.33 16.71 17.10 16.31 14.53 13.05 13.09 12.78 11.93 10.83 11.64 12.49 11.77 11.40
22.73 24.08 27.05 29.47 27.75 28.04 26.92 27.65 28.52 26.94 24.81 24.63 25.83 25.59 27.07 20.50 18.81 19.56 22.47 21.85 21.84 21.61 21.82 21.89 22.44 21.43 19.89 18.84 18.51 18.91 19.30 19.10 18.72 17.34 17.89 17.66 17.50 17.48 17.01 15.14 13.06 13.81 14.74 13.54 12.50 12.07 10.55 10.30 10.58 10.84 10.90 12.47 12.25 11.20
25.42 26.39 23.45 26.02 27.15 28.71 25.16 25.58 25.23 24.04 25.04 26.48 27.59 21.91 20.55 20.01 18.17 20.34 21.09 22.30 22.48 22.22 21.14 20.50 19.74 19.45 18.94 19.22 20.26 19.94 19.37 18.59 17.66 17.98 18.12 17.72 17.42 16.64 15.30 16.07 14.00 9.00 12.28 12.26 10.82 10.13 10.12 10.17 10.02 10.78 10.58 9.83 9.14 10.44
25.67 27.42 27.79 22.87 25.74 25.91 24.99 24.36 24.72 24.76 25.49 26.29 25.23 21.22 18.18 17.37 18.38 20.44 19.97 21.82 23.73 23.51 20.50 19.43 19.04 20.09 18.75 18.14 17.78 18.11 18.28 17.93 16.53 13.05 12.86 14.50 15.45 15.76 15.35 14.28 14.13 13.81 13.45 12.50 11.11 10.52 10.07 8.62 9.13 8.89 7.94 7.75 8.83 9.13
25.25 28.50 26.11 24.37 22.83 22.35 24.35 26.40 25.21 24.94 24.84 24.36 22.91 19.83 17.57 16.56 17.21 20.81 20.37 20.12 18.66 17.29 17.28 17.26 17.90 18.33 16.91 17.65 15.80 14.87 15.29 14.37 12.66 11.87 11.06 10.57 11.01 12.79 13.07 12.90 12.47 12.61 12.14 11.36 10.15 10.02 9.96 9.63 9.35 9.64 8.55 7.98 8.05 6.77
28.44 29.14 25.60 25.05 22.86 24.72 25.86 27.77 27.31 26.13 24.46 21.78 22.30 20.23 16.72 15.62 17.04 17.22 16.39 17.23 17.51 18.04 18.18 16.35 15.25 16.36 15.09 13.82 14.35 13.66 13.51 13.79 10.30 10.36 9.53 10.45 11.68 12.20 12.70 11.79 12.01 11.94 10.57 9.67 8.80 8.12 7.76 6.25 7.08 7.01 6.93 5.71 4.47 3.50
26.38 23.34 23.50 21.35 23.08 24.94 27.21 26.07 25.72 25.22 23.29 21.76 18.16 19.02 17.39 17.41 13.14 14.33 14.64 17.51 16.75 15.48 11.30 15.25 14.98 13.04 13.07 14.03 13.46 14.28 6.32 11.16 11.60 10.09 9.64 9.94 10.83 12.02 11.61 11.18 11.16 10.83 9.50 7.96 7.45 7.42 6.82 5.65 5.28 5.20 5.02 4.34 3.36 1.33
24.40 24.82 23.98 23.56 23.12 22.03 22.98 22.75 21.72 19.37 19.96 17.77 15.98 16.51 15.48 14.99 9.92 13.09 15.76 15.78 14.17 13.41 13.09 14.01 14.77 14.75 11.78 10.69 11.20 11.97 10.56 12.43 9.83 9.34 9.13 7.25 5.30 6.52 7.25 9.79 10.52 9.80 8.23 7.49 6.94 6.74 5.95 5.04 4.15 3.89 2.75 1.86 1.17 0.33

GFSWCAN_sfc_wetblb_048.txt.gz
Wetbulb
44.72 44.42 44.44 44.58 44.68 45.06 45.77 46.19 46.67 47.05 47.38 47.64 48.06 48.28 47.96 48.12 48.31 48.45 47.47 51.31 50.19 53.29 54.53 56.45 55.62 52.53 53.13 53.91 45.17 50.00 50.31 51.57 52.35 46.62 47.15 47.92 44.45 46.49 44.82 45.52 42.08 40.06 40.38 36.54 42.01 34.82 33.01 47.36 45.85 41.70 47.25 49.84 49.11 49.39
44.56 44.44 44.59 44.70 45.01 45.32 45.89 46.31 46.71 47.03 47.28 47.55 47.94 48.27 48.34 48.65 49.23 49.52 46.70 53.26 55.20 51.43 55.12 58.19 57.44 58.08 56.22 57.27 54.28 53.46 53.12 51.88 53.21 50.53 49.77 51.30 40.75 40.19 45.57 41.20 47.75 41.83 45.74 43.84 43.25 42.38 49.18 49.27 48.32 50.46 50.45 48.98 49.30 49.26
44.66 44.77 44.73 45.20 45.35 45.72 46.09 46.38 46.84 46.90 46.02 47.14 47.61 48.20 48.51 48.72 49.21 49.32 49.99 54.08 57.12 55.23 53.99 54.82 54.03 56.37 58.13 58.87 61.48 53.05 56.95 56.53 55.53 59.12 53.46 51.38 39.57 49.59 38.80 45.64 47.38 47.69 48.79 46.15 44.83 46.48 47.21 48.55 50.03 50.47 50.19 49.37 50.12 50.69
45.35 45.34 45.35 45.61 45.68 45.81 46.11 46.42 46.18 45.79 45.77 45.79 48.05 48.31 48.63 48.84 49.42 49.56 50.10 54.17 56.32 56.56 47.60 50.87 57.29 54.38 57.47 59.02 59.22 60.35 59.66 59.40 58.74 57.65 53.93 42.58 42.62 51.49 48.12 49.27 47.93 47.75 47.76 44.93 45.11 46.74 47.70 48.47 48.84 48.96 49.56 50.11 49.72 49.17
45.70 45.75 45.61 45.43 45.77 45.84 45.66 45.34 44.88 44.16 46.23 46.03 48.13 48.60 48.80 48.93 49.39 50.44 52.97 56.26 57.14 54.22 46.26 49.07 53.72 55.34 56.90 57.72 56.77 57.97 58.25 56.50 55.50 51.46 41.86 48.69 50.60 49.76 49.05 49.40 47.94 48.29 46.13 44.76 44.34 47.15 47.19 45.21 46.45 48.10 46.35 45.48 46.12 44.20
45.03 44.59 43.92 43.53 44.25 44.84 44.83 44.71 46.76 47.42 47.76 47.94 48.34 48.38 48.54 48.76 49.49 52.02 49.63 56.84 57.73 57.40 51.95 44.49 52.47 52.66 55.46 56.53 55.54 56.05 56.59 57.10 55.54 50.20 49.19 50.13 50.13 51.04 41.58 44.62 47.10 47.69 48.51 48.71 47.04 48.97 47.51 45.46 45.36 45.71 43.92 43.28 42.68 41.41
44.37 44.96 45.55 46.70 46.65 46.83 46.94 46.96 46.96 47.12 47.30 47.53 47.73 48.10 48.42 49.15 51.84 51.21 49.21 51.48 49.76 56.34 51.18 42.08 44.23 50.41 53.66 54.29 54.03 54.01 56.48 54.27 53.83 50.32 47.10 48.56 47.95 49.31 41.17 44.77 45.61 46.02 47.09 47.38 47.48 47.98 44.15 45.31 40.98 42.66 41.53 40.39 40.36 39.77
47.01 46.79 46.65 46.38 46.53 46.62 46.53 46.36 46.72 47.03 47.42 47.57 47.96 48.43 48.86 49.10 49.64 50.94 51.17 48.58 49.34 53.41 53.27 40.44 38.43 46.92 51.42 49.14 47.57 52.08 51.78 52.12 48.84 44.93 45.98 45.36 46.22 47.83 44.13 44.10 44.51 44.69 45.66 44.98 44.79 45.82 44.40 43.12 41.55 39.86 40.36 39.53 38.24 37.45
46.22 46.54 47.01 46.83 46.88 46.61 46.51 46.60 47.05 47.26 47.78 48.45 48.81 49.54 51.98 52.33 50.82 50.54 46.49 47.64 56.99 52.10 46.36 37.54 38.45 37.36 49.03 45.89 46.28 47.87 50.13 40.95 47.15 42.60 43.88 46.08 40.72 39.85 42.84 42.23 42.46 43.34 43.53 42.07 42.86 42.76 42.17 40.07 38.87 38.56 38.79 38.18 37.02 37.42
45.29 45.81 46.54 47.69 47.15 46.92 47.05 47.32 47.66 48.03 48.70 49.01 52.08 50.61 43.33 48.81 46.58 48.22 52.24 50.48 50.37 48.56 46.86 40.63 44.35 39.90 45.02 43.88 41.35 42.22 43.81 40.59 38.83 41.26 44.76 40.36 36.66 39.82 40.82 42.16 42.48 43.54 43.57 42.71 39.06 37.06 37.36 36.77 37.08 37.82 38.06 38.56 37.30 36.09
45.00 45.16 45.54 46.16 47.28 47.67 47.88 48.06 48.38 48.78 49.04 55.36 49.66 44.35 48.92 47.15 51.48 49.67 42.09 43.71 45.17 39.88 42.01 42.50 44.07 41.47 45.49 40.49 37.83 43.46 39.13 40.97 36.64 38.86 40.03 36.37 35.63 36.39 40.10 40.92 43.25 43.51 42.65 41.68 41.68 40.20 40.20 39.47 38.37 37.48 36.18 35.92 35.96 34.97
44.78 44.78 44.94 44.93 45.23 46.30 46.55 47.47 48.08 53.22 54.61 52.88 51.96 52.02 52.85 49.58 46.63 38.25 36.28 39.29 38.93 36.18 39.00 39.24 41.02 41.94 42.77 46.97 41.40 42.01 37.01 39.07 34.20 40.91 36.05 34.36 34.47 37.98 38.77 39.92 41.16 41.67 40.82 40.14 40.90 39.48 39.28 38.80 38.07 36.88 35.86 35.00 34.62 33.91
43.66 43.93 44.32 44.16 44.63 45.47 46.07 46.62 47.43 48.52 48.92 54.65 48.80 41.42 45.54 39.04 35.91 34.64 32.45 34.67 33.80 36.28 37.40 38.83 36.66 41.11 42.35 43.54 38.88 37.79 34.28 35.87 41.33 34.87 33.51 34.43 35.85 37.78 39.00 39.53 39.53 40.75 40.23 38.88 38.14 37.91 37.07 36.04 36.14 34.90 33.60 34.25 33.86 33.42
43.32 43.41 43.56 43.39 43.95 44.54 45.08 45.63 46.42 49.54 50.67 44.32 38.27 33.74 35.37 33.56 33.01 33.56 34.64 34.46 34.10 35.19 37.91 38.76 36.82 38.75 39.90 35.55 37.00 33.37 34.46 36.51 32.42 30.72 32.68 33.78 35.85 37.75 38.27 38.81 37.72 36.06 34.39 36.21 35.95 35.00 33.66 32.87 31.94 31.46 30.50 29.99 28.40 28.55
43.09 42.84 43.18 42.72 43.64 44.80 45.26 45.18 46.12 49.11 44.30 37.65 37.45 31.20 31.18 32.09 33.01 33.01 34.10 34.64 35.32 39.16 40.58 39.97 39.55 39.22 35.37 34.46 36.46 33.56 31.74 31.34 33.24 33.11 33.98 34.71 36.30 37.87 37.76 37.00 34.82 34.18 33.28 34.07 34.44 33.13 32.17 32.40 32.02 30.43 29.85 29.66 28.62 25.82
43.15 42.84 40.79 42.54 43.42 44.30 44.82 46.25 46.01 45.48 40.58 35.64 33.52 32.26 32.83 32.83 32.11 32.47 32.65 32.83 36.59 38.78 42.21 43.41 36.80 33.92 33.37 34.82 33.56 33.33 32.65 31.72 32.80 33.93 34.29 35.69 36.12 36.88 36.75 35.01 35.00 35.41 35.89 34.62 34.10 33.54 32.62 31.58 30.50 29.62 28.70 27.31 26.31 25.18
42.03 38.92 41.07 42.32 43.23 43.59 44.52 44.44 41.78 36.45 35.36 33.92 31.73 32.80 32.83 32.26 31.34 31.92 32.83 33.53 37.61 38.35 34.46 38.29 33.19 31.65 35.76 32.70 31.30 33.94 31.56 33.12 34.26 33.89 34.95 36.12 35.38 35.58 35.83 35.87 34.70 35.59 35.81 35.25 34.62 34.05 32.19 30.83 29.74 28.87 27.31 26.58 27.21 27.13
39.43 41.57 41.89 43.07 43.99 43.38 42.69 43.05 38.30 35.53 31.48 33.13 30.89 31.35 32.05 32.45 32.65 32.47 33.56 35.19 36.79 36.58 37.51 34.21 38.36 33.78 32.62 31.35 30.95 33.16 33.45 34.70 35.19 34.83 35.22 35.86 35.92 36.35 36.53 36.10 36.65 36.33 34.55 33.39 32.07 31.05 30.01 29.52 29.02 27.36 26.41 25.56 26.36 25.76
39.73 40.87 41.69 42.83 44.41 42.19 37.68 38.33 40.48 32.09 32.60 33.53 33.71 33.84 34.08 33.37 34.73 35.80 36.08 37.99 39.49 41.57 40.28 38.10 33.81 31.32 30.77 31.58 32.63 33.34 33.27 33.13 31.51 32.45 33.06 34.43 35.24 35.49 36.05 35.67 34.75 33.46 32.51 32.01 31.75 29.75 27.31 26.52 25.49 25.32 24.20 23.93 22.85 23.16
40.52 40.37 41.05 42.28 43.85 39.56 34.84 35.49 41.52 34.59 31.77 33.43 34.75 34.07 34.23 34.05 35.16 34.08 35.55 37.64 36.62 36.25 30.10 27.95 26.26 27.44 28.50 30.57 32.27 33.74 34.73 33.50 32.64 31.08 31.17 32.29 32.83 33.12 33.28 33.12 31.80 30.61 28.45 27.16 26.65 27.77 27.56 26.07 24.49 23.34 21.85 21.75 20.85 19.43
41.27 40.38 41.81 43.51 41.68 39.58 36.38 35.35 33.80 34.95 34.35 32.23 34.87 34.57 33.41 36.34 34.29 33.19 34.75 36.72 32.07 28.35 27.29 29.78 30.10 31.36 33.01 32.41 33.03 33.19 32.94 35.69 34.47 35.35 33.04 31.11 33.35 33.00 32.03 31.55 31.23 30.57 28.95 27.87 26.04 23.67 23.59 21.93 21.29 21.21 21.28 21.45 19.67 20.27
39.38 40.59 41.23 41.41 37.45 35.86 34.92 37.09 35.19 36.62 34.05 33.47 33.63 34.49 32.30 31.84 31.84 32.68 35.73 30.31 27.25 28.29 29.34 28.56 28.93 30.82 29.64 29.31 29.69 32.08 33.19 33.24 33.65 32.40 32.40 32.13 29.96 29.08 28.24 28.64 27.91 25.66 24.31 23.97 23.20 22.00 21.23 19.34 18.40 18.61 19.27 18.90 18.41 20.29
40.12 40.24 37.35 36.46 32.26 32.26 29.98 37.78 32.26 32.87 28.80 29.95 32.96 29.44 29.76 30.59 31.99 36.20 28.71 27.78 27.20 30.25 31.48 29.74 29.53 30.60 28.79 28.58 28.63 28.67 30.85 30.48 29.08 28.87 28.38 27.33 26.81 26.24 25.01 24.75 25.95 23.34 20.35 19.50 20.67 20.00 18.79 15.95 17.28 16.43 18.49 17.99 17.78 18.07
38.38 32.73 30.68 30.64 31.30 26.61 32.54 29.24 31.90 30.72 31.06 29.88 28.30 25.77 26.82 29.16 32.98 29.40 23.41 24.73 26.20 28.02 28.13 28.46 30.44 28.85 27.64 25.43 23.51 24.02 26.92 27.72 26.39 27.09 27.98 25.42 22.88 22.00 21.91 20.41 19.44 19.21 19.45 19.84 19.23 18.67 18.58 17.73 15.15 16.62 16.25 14.67 15.36 14.53
30.08 27.16 30.39 26.96 32.56 28.96 26.79 26.51 27.95 27.87 25.45 27.70 26.39 26.26 26.45 30.65 26.49 24.30 22.21 23.67 23.13 22.93 23.73 27.03 26.37 26.47 24.47 23.21 22.41 21.90 24.34 24.81 22.77 21.11 23.12 24.05 22.51 21.06 19.19 18.12 17.21 17.23 18.50 17.44 16.12 15.62 15.69 15.82 15.26 14.04 12.67 13.03 12.26 12.08
23.58 26.11 25.18 25.63 26.11 26.18 26.64 23.64 23.86 25.24 26.73 25.76 25.03 26.86 30.40 27.85 22.68 19.53 20.14 22.20 20.84 20.64 20.89 22.25 24.20 21.91 19.23 20.48 19.31 18.60 19.39 23.21 21.54 17.48 17.61 19.35 19.51 20.36 19.17 18.28 17.56 14.62 16.74 15.82 13.84 12.32 12.66 12.68 11.94 11.12 11.29 11.92 11.02 11.75
22.23 24.06 27.50 30.55 28.60 28.95 27.21 28.29 29.76 27.89 25.30 24.88 26.33 27.05 27.34 21.69 18.42 19.64 21.61 21.72 20.48 21.11 21.53 21.77 21.87 20.57 19.26 18.88 19.19 19.42 19.51 19.45 18.55 17.39 18.26 17.70 17.06 17.04 15.77 13.70 11.89 11.43 13.84 13.60 11.99 10.64 9.49 9.68 10.10 10.20 10.68 12.11 12.13 10.88
25.17 25.98 23.27 27.20 27.34 29.30 25.85 26.41 25.53 24.07 24.63 26.02 28.38 21.20 19.75 18.04 15.86 20.22 21.19 23.02 23.33 22.73 21.46 20.60 20.13 19.67 18.93 19.42 20.31 20.75 20.65 19.37 18.65 18.77 18.57 18.43 18.27 17.20 16.31 16.03 14.17 12.30 12.92 13.26 11.53 11.26 10.22 9.55 8.59 9.05 9.33 8.54 8.33 10.21
25.59 27.93 29.11 22.86 25.95 25.38 24.83 24.90 24.06 23.36 24.52 26.20 24.90 19.85 17.11 16.88 18.75 20.23 21.35 23.37 24.27 22.90 20.67 19.93 20.20 21.07 19.51 18.82 18.57 18.00 17.20 16.36 16.15 13.27 13.24 14.04 15.19 14.30 15.40 14.81 14.73 14.38 14.14 13.05 13.00 12.40 11.90 10.21 9.50 8.99 8.21 7.93 8.29 9.61
24.91 30.25 26.66 24.89 23.65 22.10 24.03 26.30 23.28 24.29 24.82 24.61 22.03 18.73 16.37 16.29 18.24 21.02 20.36 19.98 19.04 17.73 18.23 18.73 18.93 18.54 17.82 17.66 15.90 14.75 14.22 12.96 11.65 10.24 9.56 9.08 9.68 12.70 13.60 13.63 12.56 12.83 12.71 11.62 10.61 10.59 11.66 10.73 9.95 9.28 9.61 9.32 8.83 7.71
28.50 29.10 26.05 25.51 23.04 24.36 25.92 28.01 26.86 25.56 23.42 21.78 23.23 19.01 15.13 14.88 16.63 17.62 17.03 19.49 18.48 19.22 18.98 16.47 15.06 15.68 14.05 12.73 12.82 12.78 12.65 13.13 11.49 10.76 9.54 10.61 11.83 12.47 13.27 12.46 12.61 12.33 11.37 10.38 9.42 8.47 8.14 7.72 7.21 6.59 6.44 6.27 5.90 5.58
25.90 23.60 23.87 22.39 23.36 25.28 27.07 26.72 26.47 25.46 23.79 21.61 18.62 19.09 18.53 18.60 13.16 13.62 15.03 17.86 17.23 15.35 14.00 15.47 14.33 12.53 13.10 14.45 14.67 14.19 6.77 11.99 12.47 10.46 9.68 8.88 9.11 9.86 10.31 10.27 10.59 11.12 10.60 9.05 8.63 8.08 7.57 6.89 6.54 5.73 5.13 5.08 4.59 2.56
24.92 25.11 24.56 23.96 23.95 23.41 23.47 23.82 22.32 20.19 20.51 18.05 16.41 17.50 15.54 14.53 9.26 13.13 16.67 16.88 14.56 13.83 13.53 14.21 14.86 15.22 13.69 13.19 12.40 12.59 11.27 13.20 11.82 12.47 11.82 9.10 5.31 7.01 6.89 8.36 8.40 7.88 7.40 6.73 6.12 6.44 6.22 6.06 5.61 5.18 3.90 2.52 2.18 1.85

GFSWCAN_sfc_wetblb_051.txt.gz
Wetbulb
44.96 44.67 44.36 44.03 43.95 43.97 44.23 44.16 43.63 44.27 45.98 46.62 47.36 48.08 48.65 48.94 49.42 49.09 46.79 48.95 47.60 46.12 47.78 51.96 50.29 47.38 48.77 48.06 41.54 46.19 44.57 46.67 45.38 37.60 38.16 33.22 31.63 36.13 36.75 41.75 36.65 33.76 31.69 26.97 31.18 30.84 27.77 44.65 43.16 36.50 41.21 43.56 44.30 44.16
44.86 44.65 44.13 43.84 43.76 44.25 44.23 44.64 44.81 45.52 45.97 46.86 47.35 47.80 48.44 48.71 48.90 48.81 43.22 49.16 51.14 45.97 47.24 51.38 53.79 53.52 53.37 52.34 47.51 46.65 45.70 46.99 47.14 42.73 40.66 38.14 36.71 34.42 35.16 30.27 43.15 34.18 39.63 34.82 36.22 34.87 43.39 45.00 44.36 45.66 45.83 44.26 44.41 44.60
44.62 44.20 44.01 43.93 44.00 44.25 44.55 44.62 45.28 45.96 46.43 46.98 47.35 47.91 48.01 48.17 48.22 47.65 44.65 48.99 49.00 46.21 46.83 49.02 50.69 54.54 56.09 54.62 55.11 45.89 46.11 50.95 50.79 52.17 45.11 41.32 35.76 37.59 31.74 33.23 36.65 42.18 45.35 38.99 38.35 42.40 43.37 45.52 46.53 46.84 46.88 45.91 45.41 44.29
44.11 44.04 44.22 44.24 44.26 44.78 45.09 45.35 45.73 46.38 46.65 46.90 47.39 47.61 47.80 47.80 48.18 47.88 46.29 49.43 50.34 45.61 39.44 47.76 55.51 52.77 55.97 57.46 56.45 54.44 53.32 55.25 54.28 51.09 40.76 37.57 36.25 44.59 34.80 39.52 38.46 41.51 42.54 41.05 39.54 43.47 43.98 43.74 44.81 45.54 45.11 44.96 41.17 41.06
44.30 44.46 44.39 44.55 44.93 45.12 45.42 45.57 45.77 46.22 46.79 47.15 47.50 47.66 47.89 48.34 48.60 48.95 48.57 50.03 51.89 47.62 42.34 46.00 51.81 53.65 55.13 55.47 55.54 55.91 55.01 52.69 49.13 41.03 35.94 38.43 42.80 40.51 38.98 37.83 34.11 42.94 41.59 34.80 34.20 43.00 41.77 40.61 42.99 43.86 41.36 40.63 40.72 39.05
44.82 44.73 44.82 45.10 45.31 45.38 45.57 45.85 45.99 45.74 45.75 46.06 47.22 47.80 48.16 48.33 48.81 48.34 43.99 49.71 51.01 52.68 47.56 37.98 49.14 49.11 53.24 54.12 53.41 51.27 52.80 52.38 49.31 42.54 37.16 43.32 46.19 40.14 33.38 30.38 42.09 44.11 45.40 45.34 42.77 43.55 41.89 41.07 41.10 41.55 39.61 39.08 39.06 37.86
45.18 45.16 45.39 45.43 45.64 45.67 45.76 45.45 45.06 44.89 44.78 45.89 46.35 47.90 48.42 48.34 48.94 47.76 47.01 49.86 51.32 53.39 45.95 37.79 39.72 48.12 50.70 50.75 48.88 50.48 51.09 48.19 47.76 43.64 39.48 40.82 41.94 41.70 35.72 32.10 41.78 44.26 44.04 44.02 44.68 43.02 39.34 40.29 37.46 39.28 38.73 38.25 38.35 37.09
44.55 44.40 44.29 44.20 44.51 44.88 44.86 44.50 44.77 45.11 45.26 46.65 47.04 47.94 48.12 48.55 49.60 49.04 51.66 48.97 49.11 51.12 46.92 37.02 36.69 41.99 48.48 41.64 41.14 48.08 45.11 44.47 43.83 42.55 41.44 35.73 39.02 34.32 32.46 39.76 41.68 43.08 42.59 41.74 41.48 42.46 39.59 39.13 38.76 37.96 37.71 37.38 36.62 35.52
44.47 44.61 44.08 44.82 45.04 44.33 44.26 44.25 44.88 46.12 47.40 47.72 47.78 47.94 48.43 48.98 47.87 50.13 50.39 47.08 50.80 48.32 38.44 34.53 35.60 34.68 46.24 42.98 42.10 43.04 43.77 36.97 43.39 36.51 38.74 38.03 35.08 34.04 38.92 39.13 40.05 41.40 40.47 39.66 40.29 39.29 37.94 36.78 37.36 37.75 37.26 35.70 33.97 35.15
45.71 45.53 45.72 45.87 45.85 45.94 46.25 46.56 46.84 47.33 47.56 48.01 48.42 48.77 42.13 48.00 48.25 48.39 48.97 44.30 44.13 43.02 40.91 35.24 41.55 36.34 43.01 37.58 36.53 36.63 36.89 35.80 34.02 36.42 41.12 34.83 33.13 38.12 38.56 39.77 40.45 40.62 40.54 39.99 36.46 35.53 36.08 35.86 36.23 36.63 36.90 36.31 35.10 34.03
46.37 46.17 45.94 45.98 45.89 46.03 46.23 46.57 47.11 47.85 48.26 49.25 46.39 41.06 47.00 47.71 47.17 42.58 36.12 35.51 37.96 33.50 37.02 38.97 39.53 38.26 43.04 35.87 34.86 36.48 34.90 33.64 28.41 32.51 33.49 31.75 32.09 36.79 40.56 40.73 42.08 41.72 40.15 39.37 38.93 38.39 38.85 38.14 35.66 34.14 34.26 33.98 31.91 30.59
45.49 45.91 46.57 46.52 46.50 46.54 46.61 46.99 47.49 48.93 50.09 49.58 47.77 49.00 48.21 45.28 39.46 34.39 33.02 34.24 34.60 32.48 35.43 36.10 37.41 40.31 37.70 43.48 34.44 36.23 33.62 32.18 28.71 36.24 34.03 27.83 33.22 36.87 38.44 39.55 39.84 39.73 39.71 39.60 40.21 39.08 38.62 37.65 35.88 34.63 33.06 31.41 29.91 28.72
44.35 44.67 45.22 45.78 46.65 47.35 47.33 47.61 48.34 48.95 50.40 49.72 43.60 38.28 41.10 35.15 32.71 28.08 28.26 32.09 31.88 33.25 35.38 35.20 34.15 35.23 37.36 38.25 34.68 34.62 33.08 29.42 31.15 29.67 27.55 31.02 35.45 37.36 38.37 39.03 38.81 39.76 38.77 37.25 35.45 35.35 34.88 33.40 33.08 32.02 31.18 31.03 28.30 26.44
44.17 44.01 43.76 44.13 44.79 45.35 45.80 47.16 47.41 47.47 47.22 38.95 35.41 31.46 32.48 31.50 30.23 30.11 31.57 32.52 32.52 33.07 34.71 35.60 33.99 33.96 34.17 33.75 33.07 31.50 32.30 33.08 28.32 22.58 26.05 32.60 35.49 36.76 38.02 38.30 36.72 35.21 32.89 33.42 33.13 31.98 30.40 29.98 28.85 28.14 26.40 25.68 25.51 24.59
43.54 43.27 43.04 43.01 44.27 45.23 45.24 45.66 45.88 45.26 40.08 33.47 32.96 28.26 28.77 31.06 32.15 32.33 32.71 33.04 33.75 36.08 35.79 35.18 34.67 35.01 32.89 32.87 32.72 32.21 30.65 28.50 26.69 26.55 31.60 34.38 35.88 36.17 35.14 33.75 32.70 31.91 31.99 32.12 32.61 30.77 29.45 28.22 27.39 27.03 26.99 26.00 24.89 20.86
43.64 42.67 40.87 42.98 43.89 45.10 45.43 44.62 44.10 42.46 36.77 33.31 31.86 31.43 32.30 32.12 31.74 32.13 32.37 32.37 35.31 34.35 34.70 33.88 33.16 32.48 31.57 32.45 31.53 30.69 26.98 25.95 29.62 31.06 33.55 35.70 36.00 35.53 33.78 33.07 33.48 33.57 32.36 31.64 31.66 31.34 29.92 27.55 25.97 25.45 26.10 24.54 19.21 18.30
41.96 38.32 42.21 43.48 44.21 44.34 44.38 41.72 38.10 34.21 33.13 31.95 29.87 31.77 31.97 31.68 30.49 31.39 32.19 32.51 34.59 34.15 32.52 32.66 28.94 29.39 32.57 30.32 29.11 30.96 27.94 30.35 31.91 32.66 34.56 35.35 34.03 32.27 33.12 33.13 32.77 32.83 32.39 31.47 30.69 29.86 28.02 27.91 26.14 25.14 23.15 24.10 24.40 22.79
38.76 41.22 43.06 43.94 44.66 42.89 41.98 40.71 35.32 33.14 29.80 30.97 28.37 30.26 31.74 31.78 31.77 31.97 32.69 33.43 33.57 32.51 32.80 32.14 33.77 31.25 29.33 27.67 28.09 30.52 31.02 32.25 33.31 33.81 34.29 35.00 33.89 33.68 34.59 34.41 34.67 33.64 31.52 30.41 29.60 28.78 28.09 25.86 24.43 22.66 22.82 23.44 23.02 22.15
39.61 40.74 42.53 43.38 43.29 39.67 34.47 35.43 37.06 29.88 30.44 31.59 31.60 31.60 31.59 31.60 33.01 34.54 34.27 35.02 34.75 34.68 33.28 32.01 25.49 24.79 25.77 27.78 29.33 31.20 31.39 31.41 30.91 31.67 32.90 34.27 34.43 34.22 34.43 32.95 31.32 30.40 29.98 28.69 27.00 23.82 23.04 23.21 22.01 21.21 21.18 21.36 19.38 18.61
41.41 41.11 41.93 42.84 43.19 35.28 32.69 32.98 37.91 32.35 30.05 30.67 31.95 31.75 31.59 31.42 32.33 33.26 32.73 32.65 32.33 30.79 27.25 25.31 24.73 26.46 27.28 28.67 30.78 31.78 32.04 32.71 32.20 30.09 29.98 31.29 33.04 32.59 32.09 31.06 27.59 26.09 25.71 25.26 24.60 23.31 22.26 20.93 21.71 20.68 19.51 18.14 13.99 12.25
39.28 38.62 41.72 42.14 37.91 36.32 33.43 32.44 32.57 33.01 32.15 31.14 31.97 32.33 31.23 32.67 31.92 30.52 29.23 30.74 27.27 26.40 24.55 26.36 27.59 28.19 29.09 28.68 29.70 32.09 32.71 33.74 32.42 31.48 30.62 29.76 31.50 30.49 29.34 29.40 28.89 27.51 25.54 23.23 22.22 20.10 18.97 17.75 18.22 18.09 10.40 7.59 8.17 8.80
36.24 41.22 34.15 36.88 33.50 32.73 31.24 33.52 32.13 33.00 32.09 31.54 31.13 31.51 29.63 29.05 29.08 29.90 29.30 24.55 24.77 26.01 27.04 26.77 27.74 27.22 26.41 26.15 27.45 29.23 30.12 30.37 31.12 31.40 31.09 29.86 27.51 27.12 27.01 26.13 22.86 20.66 21.14 21.52 21.25 17.53 17.15 17.09 16.38 15.23 7.61 6.19 9.45 8.99
39.17 36.91 32.92 31.15 26.89 27.45 26.49 32.92 28.36 29.83 25.89 27.49 29.62 27.20 26.85 26.62 29.51 31.10 23.10 25.36 25.45 27.21 28.61 28.86 27.32 27.11 25.22 25.18 25.84 26.99 27.91 27.40 25.78 25.11 24.47 23.53 22.80 21.84 20.13 20.75 21.93 19.26 17.99 18.78 19.82 18.11 15.95 14.50 12.41 8.49 7.43 5.50 4.87 1.57
37.03 31.23 27.56 26.36 25.79 24.66 26.56 24.28 28.44 27.75 26.66 25.54 23.42 21.73 24.01 24.75 28.77 22.12 19.88 21.13 22.31 23.87 23.05 25.88 27.92 24.79 22.79 21.74 20.08 21.12 24.54 24.85 23.22 23.59 23.90 21.70 19.38 18.92 18.79 17.77 18.00 18.29 19.27 18.50 17.41 15.28 14.32 8.84 8.90 7.03 0.52 -1.83 -2.87 -1.53
22.51 22.89 24.82 21.01 25.75 21.29 19.06 23.99 22.95 22.54 20.35 22.88 20.34 22.60 22.54 27.23 21.79 18.80 18.72 19.71 18.22 17.82 19.27 23.24 20.68 20.76 19.91 18.59 18.62 18.30 21.13 21.34 18.48 16.33 18.01 21.72 19.38 18.24 16.72 16.52 15.88 15.64 16.25 12.68 11.36 8.53 6.14 2.93 0.57 -1.32 0.52 -3.95 1.38 -1.34
21.63 25.09 23.43 23.80 24.36 22.27 22.12 20.97 20.49 22.36 20.67 18.06 23.45 25.45 24.49 21.06 13.77 14.10 16.88 16.88 15.05 16.74 16.57 18.15 19.39 17.10 15.93 17.39 15.59 15.30 16.46 21.22 18.74 15.06 15.59 16.64 15.75 16.79 16.43 13.90 11.62 10.55 13.17 10.03 5.23 1.94 2.51 0.94 -2.34 -1.71 -3.73 0.26 1.38 2.32
21.24 22.96 26.92 29.29 28.23 27.07 21.37 24.09 24.32 19.73 17.17 19.53 19.17 20.47 22.05 9.03 9.73 16.11 18.84 19.29 17.89 17.90 18.85 18.99 19.16 17.88 16.79 16.78 17.46 17.02 16.70 16.78 15.90 15.49 16.25 15.62 15.39 14.50 11.33 6.98 2.86 5.84 8.24 3.71 -1.38 -3.76 -5.33 -5.52 -5.88 -4.97 -4.79 3.00 1.09 -1.57
24.94 26.57 22.71 25.82 22.93 25.58 22.69 21.06 16.15 16.52 16.36 21.77 23.43 11.74 10.26 8.83 10.34 17.48 19.22 21.55 18.89 19.64 18.83 18.50 18.24 17.54 16.56 16.36 15.57 14.89 15.55 15.24 13.70 14.62 14.99 14.33 12.08 9.46 6.51 5.12 5.81 10.32 6.69 4.39 -1.81 -0.69 -3.16 -3.52 -6.24 -6.97 -4.79 -6.24 -7.51 -6.83
24.89 27.81 22.62 21.80 23.45 22.41 19.93 19.77 20.24 21.33 22.62 22.24 12.96 11.30 11.10 14.93 16.87 18.36 19.75 19.73 20.06 18.35 16.70 16.22 16.81 15.22 14.99 14.02 12.07 10.94 8.69 7.74 5.02 1.31 -0.80 1.19 2.72 3.28 2.79 1.20 2.07 0.87 0.49 0.46 6.98 7.95 5.52 3.23 3.21 0.66 -4.61 -0.70 0.55 -2.95
23.56 27.05 23.37 20.84 18.89 19.09 21.41 21.44 18.80 20.97 22.47 17.85 15.61 14.48 13.56 12.99 15.41 17.50 17.10 17.13 15.40 12.39 15.29 15.13 14.34 11.32 10.18 9.24 6.85 4.36 2.29 0.29 1.43 -3.72 -6.97 -7.51 -4.07 0.70 1.64 5.92 -0.02 -0.47 2.57 -2.83 -3.89 -1.48 4.33 -0.22 -0.26 -4.32 -5.40 -4.70 0.75 -1.22
26.65 22.94 20.42 18.70 20.03 22.48 24.04 24.27 22.43 17.00 13.83 14.26 13.36 7.30 8.63 8.81 9.94 13.57 13.04 14.60 13.55 15.67 12.25 6.21 6.09 5.97 4.07 2.72 -0.62 -2.46 -1.72 -1.44 0.72 -1.44 -2.95 -3.16 -2.09 0.97 5.39 5.80 4.76 -2.29 -1.72 3.59 -2.07 -5.52 -7.15 -6.97 -4.79 -2.08 -7.15 -8.05 -7.15 -4.43
23.37 20.46 14.31 14.35 16.13 23.76 25.02 24.12 23.18 20.86 18.33 10.23 9.26 7.26 8.70 8.94 2.60 5.47 11.60 13.06 9.79 9.56 6.52 6.23 2.74 -0.26 -1.02 -0.33 2.55 0.19 -1.20 0.90 2.53 -2.44 -1.78 -3.88 -4.97 -6.60 -5.70 -4.25 -2.68 3.57 1.58 1.71 1.54 -1.38 -1.50 -4.43 -4.61 -1.95 -2.80 -4.43 -9.51 -10.68
17.41 15.91 15.00 14.75 18.85 16.50 13.75 15.83 16.38 11.38 11.12 8.53 9.58 8.90 3.62 2.60 0.09 5.12 10.50 7.79 4.29 2.27 3.00 3.36 5.19 6.92 5.30 1.76 -0.88 -0.23 3.83 0.29 0.50 7.87 7.65 4.55 -2.62 -2.25 -6.07 -7.33 -9.14 -10.05 -9.69 -9.69 -10.05 -9.87 -6.60 -0.98 0.04 -0.28 -1.66 -5.88 -10.23 -7.87

GFSWCAN_sfc_wetblb_054.txt.gz
Wetbulb
44.32 44.05 44.27 44.05 43.68 43.68 43.93 44.09 44.35 44.37 44.51 44.53 45.07 45.00 44.94 45.20 48.72 47.20 44.43 49.87 46.03 44.39 45.51 49.57 48.72 43.70 45.63 44.95 39.96 44.14 43.89 43.92 40.98 35.32 36.40 36.30 31.65 35.21 34.62 38.34 34.88 32.83 29.68 25.87 28.34 24.49 25.86 43.34 41.82 35.60 37.81 41.56 42.65 42.52
44.44 44.20 43.95 43.54 43.51 43.63 43.76 43.84 44.11 44.33 44.57 44.86 44.88 45.65 46.16 48.16 48.63 48.06 43.17 48.84 50.21 43.88 45.27 49.64 49.69 50.42 48.93 48.77 47.00 45.11 44.92 45.01 45.36 40.41 41.15 38.57 35.02 33.38 33.59 30.97 41.13 33.09 35.60 32.59 34.24 32.74 41.11 43.08 42.38 43.49 44.00 42.75 42.70 42.83
44.23 43.60 43.74 43.51 43.65 43.70 43.68 43.78 43.71 43.99 43.63 44.74 45.77 46.55 47.47 48.08 48.40 47.51 44.73 47.19 46.44 43.30 43.78 46.92 46.16 51.72 54.80 53.12 53.08 45.18 45.27 49.45 47.30 47.64 44.29 41.50 35.46 36.36 30.96 30.99 35.74 40.08 43.71 38.03 37.18 40.64 41.91 43.44 44.67 44.90 43.99 40.58 40.54 41.46
44.11 43.79 43.80 43.82 43.78 43.80 43.85 43.77 43.25 44.84 45.73 46.09 46.67 47.14 47.53 48.08 48.80 47.87 44.14 48.09 46.57 45.77 38.47 41.08 54.55 51.66 54.61 54.93 52.91 51.91 50.30 51.08 50.40 46.32 39.33 37.16 35.17 41.58 32.35 37.87 36.35 40.17 41.63 38.39 38.54 41.04 41.88 42.33 42.80 41.17 40.00 39.97 38.74 38.87
43.80 43.54 43.66 43.80 43.74 43.90 43.86 44.41 45.29 45.54 45.99 46.48 46.83 47.15 47.99 48.15 48.16 46.44 48.31 47.46 49.32 46.54 38.95 43.01 50.59 52.24 53.77 53.89 52.27 51.89 51.82 50.42 45.14 39.21 34.01 36.59 39.32 38.37 36.81 35.92 32.49 41.11 39.74 34.58 33.56 42.38 39.97 39.45 40.08 41.10 39.07 38.35 38.06 36.76
43.68 43.75 43.84 43.91 44.13 43.87 44.55 45.05 45.82 46.06 46.41 46.48 47.31 47.48 47.74 47.76 47.59 44.78 41.18 45.65 49.21 50.04 43.73 37.37 48.46 49.48 51.34 53.89 53.04 51.56 52.14 49.66 48.14 43.24 35.37 41.68 45.34 38.18 32.56 28.36 40.76 42.65 43.68 43.28 41.27 41.66 40.02 39.22 39.23 39.67 37.63 36.99 36.64 35.44
44.07 44.31 44.46 44.62 44.74 44.82 45.10 45.71 45.93 46.10 46.50 46.75 47.03 47.26 47.51 47.37 46.69 42.45 39.97 45.67 48.02 49.35 42.97 37.08 39.07 47.25 50.57 50.84 48.51 49.72 49.60 47.25 47.77 43.13 40.05 40.63 41.83 39.53 31.89 31.73 40.74 41.58 41.47 40.79 40.87 40.02 37.21 37.85 35.37 37.46 36.52 36.05 36.34 35.27
44.68 44.80 45.05 45.07 45.14 45.31 45.33 45.37 45.70 45.84 46.12 46.85 47.05 47.05 47.39 47.41 47.66 44.09 49.09 49.07 48.88 45.46 45.40 35.74 37.98 40.75 47.59 41.81 42.19 46.62 44.37 44.48 43.74 42.06 39.02 35.90 38.92 33.20 31.43 39.12 40.06 40.38 41.19 40.50 39.27 40.31 38.17 37.19 36.41 35.70 36.16 35.70 34.35 33.47
44.78 44.84 44.86 45.18 45.27 45.37 45.27 45.29 45.05 45.35 45.84 46.69 47.00 47.35 47.28 45.61 43.86 46.01 48.69 48.87 50.41 47.05 38.29 34.11 35.18 34.65 43.59 41.17 39.43 38.10 40.28 36.07 40.89 35.71 35.58 38.29 34.90 33.02 36.72 38.64 38.86 39.93 38.72 36.59 37.30 37.20 36.39 35.01 35.06 35.46 35.31 34.16 32.31 31.14
44.12 44.05 44.04 44.47 44.56 44.63 44.57 44.60 44.78 45.04 46.32 46.78 45.91 44.50 39.72 45.46 49.16 49.67 47.77 44.77 44.91 43.10 40.14 34.65 39.74 36.10 41.51 34.59 35.57 33.22 34.29 33.91 29.72 36.01 39.56 32.96 32.58 36.69 38.14 39.01 39.53 39.17 38.24 37.49 34.09 33.25 34.65 34.84 35.19 34.69 34.22 33.30 32.25 30.48
44.69 44.39 44.12 44.29 44.50 44.36 44.46 44.64 45.40 46.92 46.67 44.99 42.29 39.74 45.82 49.02 48.18 43.77 38.42 35.48 36.98 32.01 35.81 38.21 36.70 37.82 41.42 34.28 34.11 33.88 33.20 33.26 30.31 34.32 32.60 32.46 31.69 35.71 39.50 39.64 40.19 40.21 39.83 37.99 37.71 37.10 37.69 37.15 35.44 33.38 32.86 32.01 30.64 29.52
45.46 45.47 45.79 45.61 45.16 44.87 44.61 46.01 46.80 46.67 45.55 48.04 47.18 48.49 47.28 44.65 38.49 34.72 32.73 32.52 33.06 31.52 34.86 35.71 36.61 39.72 37.22 42.23 35.85 35.34 32.91 29.27 28.08 36.43 32.88 30.08 33.80 38.62 39.44 39.44 40.26 39.78 38.88 38.50 38.81 37.56 36.37 35.63 34.87 32.75 30.66 29.15 28.44 28.73
46.09 45.98 46.11 46.01 46.24 46.53 46.60 46.89 47.08 49.21 48.31 47.67 42.73 37.64 39.94 33.49 29.76 25.35 27.61 30.17 30.13 33.00 35.13 34.59 33.88 35.33 36.91 37.92 33.73 32.04 28.53 26.15 31.31 24.48 30.65 31.84 35.98 38.22 39.07 38.53 38.15 38.34 37.41 36.42 36.51 35.72 34.72 33.65 32.64 30.19 27.26 26.94 27.04 25.56
44.71 45.25 45.84 46.35 46.38 46.64 46.80 47.21 47.48 47.52 45.63 38.10 35.63 30.65 31.69 30.35 29.61 29.87 31.07 32.25 32.76 33.00 34.63 34.45 33.73 34.08 33.38 34.06 32.25 30.09 31.89 31.24 27.43 23.32 25.76 32.40 35.26 37.09 38.04 37.22 34.27 33.19 32.43 32.64 32.27 31.78 30.50 29.77 29.07 28.66 26.47 25.04 24.41 23.32
43.72 44.13 44.45 44.63 46.11 46.62 46.74 46.33 45.55 44.02 38.28 33.33 33.26 27.48 28.18 30.97 32.05 32.08 32.28 32.79 33.49 34.97 31.69 32.06 34.00 35.16 32.64 32.17 31.98 31.74 30.15 27.07 26.28 26.79 31.13 33.79 35.49 36.02 34.88 33.15 32.16 31.05 31.05 30.86 30.76 29.02 27.62 27.30 26.43 25.92 25.99 25.35 24.33 21.49
44.14 43.24 42.12 44.27 44.74 45.21 44.84 44.00 42.04 39.98 34.55 32.85 31.27 31.18 32.23 32.05 31.49 31.86 32.11 32.31 34.89 33.37 33.91 34.64 32.01 29.98 30.05 30.60 30.64 28.69 26.75 26.09 28.76 30.80 32.97 34.63 33.53 33.08 33.00 32.58 32.56 32.31 31.17 30.08 29.13 28.30 27.33 26.08 25.13 25.13 24.77 22.75 19.90 19.18
42.60 39.25 42.73 44.31 44.25 43.84 43.77 40.61 36.85 33.08 32.46 31.12 29.26 31.66 31.69 31.27 30.26 31.31 31.95 32.61 34.75 33.35 32.11 29.37 29.66 29.14 31.41 29.48 27.97 29.85 26.59 29.32 31.34 32.26 34.37 34.15 31.98 32.04 32.14 31.79 31.62 32.11 31.06 30.51 29.43 28.37 27.17 26.44 25.71 24.30 22.13 22.45 23.18 20.83
38.42 40.90 43.51 44.51 43.57 42.20 40.83 39.11 33.07 30.65 29.61 30.71 28.46 29.84 31.65 31.68 31.33 32.02 32.58 33.46 32.64 30.99 31.82 32.07 33.30 26.70 24.72 25.79 26.52 29.29 30.18 31.48 32.51 33.00 32.49 33.17 33.36 33.62 33.56 32.99 33.09 32.14 30.59 29.07 28.53 27.74 26.14 25.09 23.31 22.38 24.02 22.95 21.68 21.83
40.30 41.53 42.96 43.59 42.43 38.17 34.07 35.14 35.42 29.09 29.82 31.15 31.52 31.51 31.52 31.33 31.75 31.78 32.10 32.78 33.05 32.85 31.38 28.65 23.40 22.73 23.40 26.90 27.19 30.21 30.59 30.79 30.49 31.41 31.93 33.02 33.11 32.52 32.12 31.47 30.72 30.01 29.26 27.63 26.04 24.05 23.37 22.71 21.63 21.51 21.19 19.96 17.24 17.40
40.94 41.34 41.97 42.21 42.15 34.83 32.16 32.88 36.26 31.62 29.24 30.57 32.04 31.33 31.31 30.94 30.89 29.77 29.39 30.05 30.21 28.77 25.16 23.22 22.42 23.37 23.92 25.51 27.98 31.16 31.49 32.20 31.91 29.98 29.72 31.03 31.89 31.76 30.32 28.76 27.13 27.24 25.25 24.06 22.63 22.00 21.29 20.64 20.92 20.16 18.88 16.78 11.65 10.72
36.72 37.86 39.02 38.16 35.90 35.56 33.02 32.23 31.86 32.07 31.68 30.88 31.71 31.86 30.36 28.70 25.81 25.46 25.62 28.55 24.87 24.41 22.63 25.34 24.35 25.45 27.35 27.51 28.54 29.59 29.62 32.49 31.80 31.35 29.80 27.68 28.65 27.81 27.69 27.76 27.07 25.47 22.72 20.55 18.86 18.50 18.57 17.95 18.36 17.19 13.67 7.91 8.49 5.32
34.68 38.59 29.60 33.33 30.12 30.19 30.96 32.81 32.17 32.44 31.56 30.97 30.91 31.49 29.25 27.91 25.89 24.88 26.26 22.36 21.62 23.27 26.19 24.83 24.36 24.01 23.25 23.96 24.92 26.81 27.49 26.89 27.38 26.48 25.78 26.42 24.18 22.42 21.59 22.25 21.28 19.70 20.02 19.43 18.61 16.88 16.60 16.29 16.24 14.45 12.26 10.56 11.44 9.47
36.27 33.11 27.18 26.12 23.27 24.25 24.40 31.10 27.99 30.31 26.54 27.60 28.76 26.53 26.44 26.65 28.65 28.39 21.25 22.25 21.63 23.73 25.37 23.80 23.14 23.36 22.31 22.77 23.92 24.24 25.55 24.66 22.53 21.88 21.20 20.20 20.02 19.80 19.58 19.60 20.02 18.12 17.20 18.06 18.95 17.24 15.80 15.43 14.18 11.81 9.98 7.81 5.68 -0.26
34.06 27.54 25.26 22.15 21.79 17.31 19.28 21.56 27.13 26.65 25.55 24.37 23.40 20.94 23.37 25.73 25.72 20.58 16.60 17.12 19.27 20.98 21.88 21.78 22.76 20.26 19.69 19.16 17.76 18.91 21.07 21.60 20.25 20.65 21.19 18.67 16.22 16.23 17.01 16.27 16.14 16.61 16.71 15.87 14.87 13.47 12.35 9.91 9.03 8.22 3.40 -1.45 -5.40 -6.49
20.50 19.85 19.39 17.81 21.71 18.77 16.27 16.85 16.44 19.23 19.01 20.33 19.08 18.28 22.55 24.05 17.30 15.44 14.15 15.30 15.46 15.24 17.27 19.33 17.73 18.16 15.51 15.19 16.02 16.86 19.22 18.54 16.19 14.38 16.18 18.92 16.88 15.89 14.59 13.76 12.77 13.13 13.80 9.92 7.46 5.50 4.84 3.52 1.77 0.90 1.00 -8.66 -1.10 -3.59
19.42 19.25 19.04 21.22 20.89 19.24 17.60 15.85 14.41 17.40 13.68 17.32 21.12 22.32 20.42 14.47 9.98 9.93 14.16 13.64 13.43 15.06 14.57 16.17 15.19 14.08 13.75 14.99 13.60 13.53 14.90 17.79 15.72 12.06 13.04 14.56 14.42 14.17 12.84 11.19 9.11 8.00 10.51 5.64 1.57 -2.57 -3.27 -7.05 -9.39 -7.76 -9.21 -2.33 0.48 -1.27
17.82 17.58 23.48 28.88 26.12 23.26 19.97 19.06 19.27 14.50 12.23 13.27 17.67 17.34 13.16 5.55 6.26 13.13 17.39 18.09 15.85 16.20 17.59 17.38 17.58 15.76 14.76 15.06 15.36 14.92 14.77 15.02 13.82 13.18 14.12 13.44 12.43 10.84 4.23 -0.82 -0.94 2.86 4.75 -1.96 -6.89 -8.85 -8.12 -10.29 -11.56 -11.74 -13.56 -12.11 -10.11 -9.75
21.86 23.64 18.57 19.71 15.07 19.21 10.88 9.50 10.54 12.16 12.56 19.04 13.75 5.12 -0.21 1.76 7.40 15.43 16.94 18.87 17.08 17.93 17.24 16.65 16.17 14.44 12.08 11.13 10.32 9.32 7.52 11.36 12.14 11.62 10.70 9.80 8.32 6.49 3.99 3.86 1.91 10.72 3.10 -0.51 -2.87 -2.14 -3.77 -2.51 -3.22 -5.94 -7.57 -11.20 -8.84 -9.27
22.02 23.65 17.14 12.61 11.43 12.37 15.89 13.11 13.98 18.15 20.08 16.26 2.83 5.53 6.65 12.29 13.38 15.32 16.89 17.64 18.33 15.92 13.95 13.68 12.00 11.34 8.85 7.44 5.69 4.78 4.31 1.50 -1.73 -5.76 -9.93 -9.21 -7.03 -1.75 4.07 3.81 2.57 -1.97 -5.58 -3.96 0.95 4.64 2.35 -0.41 0.46 -4.31 -8.48 -10.47 -4.33 -8.30
14.59 18.07 12.23 6.75 8.33 10.77 12.73 10.43 10.52 12.93 16.09 11.16 12.63 11.86 10.76 10.89 12.65 14.50 14.11 14.38 11.95 9.96 9.66 9.25 6.84 4.76 -0.32 -5.04 -5.58 -1.13 -2.87 -5.70 -2.75 -7.39 -12.29 -12.47 -7.04 -1.65 -2.68 -1.95 -1.25 -1.48 -4.85 -10.47 -4.31 -5.58 -1.05 -9.21 -6.67 -7.61 -6.72 -5.05 -13.38 -15.19
17.94 12.57 9.64 11.75 11.81 15.80 12.88 11.03 13.44 11.98 5.33 3.61 2.21 -0.70 0.99 6.74 7.27 11.37 12.20 11.09 11.14 2.93 4.55 -0.98 -1.27 -5.94 -0.57 -2.86 -10.47 -11.02 -6.85 -2.74 -7.03 -7.21 -8.66 -10.47 -13.19 -13.38 -13.19 -12.11 -12.65 -12.29 -11.20 -9.57 -6.67 -6.85 -7.03 -10.29 -11.74 -10.84 -6.49 -4.51 -7.21 -10.66
8.96 7.54 9.92 8.18 10.37 19.60 17.29 15.27 17.23 7.86 1.49 0.39 2.39 -3.95 -0.54 -3.68 -3.59 3.75 7.81 3.83 6.61 4.83 0.76 -7.57 -6.49 -3.40 -8.48 -9.75 -11.02 -8.12 -1.87 -3.59 -5.04 -6.12 -3.22 -7.21 -9.93 -13.38 -13.38 -11.92 -14.83 -15.73 -16.46 -16.64 -16.28 -15.91 -16.64 -14.10 -9.75 -5.62 -4.07 -5.45 -7.22 -7.06
5.97 4.42 2.48 8.59 11.74 9.56 5.36 12.65 8.69 6.83 3.17 -1.23 2.99 1.59 -1.09 -2.67 -3.62 2.22 7.82 2.78 -0.92 -5.40 -4.85 -4.67 -3.22 -0.21 -0.93 -5.76 -5.40 -7.57 -6.49 -10.47 -8.48 -1.23 -0.50 1.13 -0.91 -3.59 -10.66 -15.01 -15.55 -15.37 -13.38 -16.46 -18.27 -15.91 -11.74 -14.64 -17.00 -16.64 -12.47 -11.20 -9.96 -10.87

GFSWCAN_sfc_wetblb_057.txt.gz
Wetbulb
45.55 45.88 46.09 45.17 44.80 44.51 44.09 44.20 44.21 44.11 44.12 43.93 44.21 44.69 45.12 45.77 46.11 43.68 43.66 48.26 44.89 42.64 44.58 46.75 47.03 43.26 43.06 43.82 37.53 41.59 43.55 42.86 39.16 35.27 35.64 33.24 30.47 34.89 33.56 36.76 33.85 33.72 30.77 25.79 26.07 21.55 26.82 41.10 39.65 34.39 36.59 39.70 41.40 41.42
45.02 44.74 44.42 43.91 43.72 43.76 43.99 43.82 43.89 43.72 43.74 43.84 44.00 44.30 44.21 44.81 45.92 44.89 42.54 48.78 49.73 43.38 43.83 46.80 47.19 47.81 47.14 47.08 44.74 43.71 42.17 43.36 43.65 39.35 37.30 35.53 33.03 31.13 32.48 30.41 39.25 33.12 35.56 33.05 33.93 32.99 39.90 41.54 39.96 41.07 41.79 41.61 41.51 41.93
43.54 43.38 43.49 43.38 43.00 43.60 43.74 43.70 43.78 43.66 43.82 44.25 44.10 44.32 43.31 43.96 45.76 44.92 44.61 46.44 44.68 40.11 39.91 43.25 44.49 48.77 50.74 49.48 51.55 42.86 43.37 47.14 46.16 46.23 41.35 39.09 33.41 35.28 31.98 32.14 36.10 39.05 40.97 35.63 36.50 39.54 40.53 41.71 42.26 41.65 42.09 41.30 41.93 42.75
43.52 43.12 43.26 43.61 43.74 43.72 43.89 43.89 43.77 43.86 44.39 44.57 44.78 44.62 45.16 45.65 45.27 47.31 44.71 46.35 43.84 42.32 36.32 40.78 51.99 51.58 53.75 53.13 52.09 51.13 49.06 50.30 47.69 45.38 39.90 36.52 33.08 42.02 36.94 39.40 37.56 40.24 41.18 37.44 36.62 39.20 41.38 41.78 39.57 38.86 38.58 38.71 37.91 37.92
43.58 43.48 43.38 43.37 43.46 43.49 43.64 43.77 43.93 44.02 44.43 44.64 44.92 45.03 45.11 46.43 48.06 47.23 46.89 46.78 46.87 43.75 38.64 37.57 46.90 50.71 53.21 52.49 51.97 51.31 51.25 48.19 42.94 38.64 34.67 36.67 38.12 37.72 35.15 37.01 36.47 40.74 38.75 35.95 34.32 40.88 39.68 40.11 38.96 39.48 38.00 36.92 36.98 35.93
43.51 43.47 43.43 43.44 43.44 43.40 43.37 43.32 43.36 43.22 43.93 44.85 45.43 45.51 47.62 47.60 47.14 45.21 40.47 44.33 49.03 48.40 42.13 34.81 45.68 47.57 51.48 52.63 50.89 50.33 50.33 48.37 45.72 42.24 38.45 42.44 43.73 37.48 33.79 32.33 39.68 41.64 42.64 41.53 40.70 43.38 39.32 38.58 38.08 38.21 36.56 35.55 35.65 34.99
43.62 43.71 43.84 43.65 43.64 43.31 43.72 44.13 45.28 43.92 44.64 45.56 46.75 47.10 47.15 46.87 45.34 41.31 36.88 41.50 48.53 48.43 41.25 34.75 36.57 46.46 49.82 50.13 47.25 48.08 47.30 45.24 45.16 42.37 37.49 38.74 40.47 39.15 30.60 29.36 39.37 40.42 40.08 39.74 39.91 39.18 36.00 36.85 34.70 35.81 35.18 35.02 35.51 34.24
43.97 43.95 43.36 43.96 44.32 44.17 44.23 45.05 45.18 45.63 46.23 46.64 46.94 46.73 46.64 46.68 45.76 40.20 47.50 48.08 47.65 44.94 43.69 34.49 35.24 39.75 47.75 42.61 42.45 44.79 41.72 42.51 43.26 41.26 39.25 32.74 38.42 34.08 32.86 37.35 38.93 39.80 39.83 39.27 38.11 39.08 37.79 35.91 35.09 34.15 34.66 34.29 32.87 31.81
44.39 44.50 44.21 44.59 44.95 45.12 45.42 45.68 46.03 46.21 46.41 46.62 46.86 46.93 45.90 42.24 38.52 42.58 47.39 48.27 48.93 43.44 35.76 33.24 33.41 33.46 44.36 40.88 40.24 40.47 40.74 35.76 41.14 33.96 37.77 39.62 34.45 35.71 37.53 37.99 38.61 38.91 38.58 35.46 36.08 35.57 35.24 33.97 33.72 33.57 33.41 31.58 29.69 29.51
44.51 44.51 44.57 44.53 44.82 44.77 44.90 45.27 45.98 46.43 46.48 46.50 43.87 40.02 35.12 39.58 47.73 48.08 46.03 42.69 43.50 43.12 41.10 34.51 39.14 34.67 42.39 36.12 34.87 36.54 35.38 34.67 34.13 36.37 39.39 34.10 34.02 37.43 38.12 39.79 39.33 38.09 37.33 36.76 33.69 32.67 33.72 32.93 32.76 32.72 31.60 31.70 31.18 29.33
44.87 44.70 44.57 44.66 44.78 44.80 44.76 44.99 45.79 46.50 45.62 40.27 39.48 37.89 44.66 47.92 43.67 40.92 34.45 34.01 35.47 33.24 36.01 36.74 38.10 37.69 41.57 35.74 35.02 34.28 33.57 32.27 32.20 34.20 34.50 31.93 32.23 34.58 38.61 38.86 39.05 38.98 38.74 38.25 38.43 37.16 37.05 35.99 34.31 32.59 31.52 30.77 29.41 29.04
44.67 44.75 44.62 44.63 44.67 44.71 44.77 44.88 45.52 43.20 41.78 42.77 43.90 47.09 46.29 43.11 37.50 33.64 32.06 33.03 33.57 32.17 34.34 35.38 36.60 39.06 36.60 40.02 34.90 34.92 33.07 30.60 30.63 35.83 33.13 31.35 32.06 36.96 37.79 37.33 37.99 38.44 38.40 37.93 38.58 37.69 37.14 36.21 34.62 32.30 30.29 29.33 28.84 27.87
44.69 44.52 44.64 44.61 44.57 44.81 44.67 44.77 45.56 46.49 46.43 45.81 42.55 36.43 38.67 32.97 31.43 30.39 28.50 29.95 30.43 32.68 34.61 34.69 33.60 34.45 35.31 35.02 32.24 30.13 25.05 27.54 33.24 31.62 30.30 31.42 36.28 37.98 38.07 38.00 37.81 38.71 37.94 36.57 35.92 35.23 33.60 31.89 31.42 30.01 28.26 27.67 26.74 25.37
44.70 44.91 44.55 44.65 44.66 44.69 44.62 45.55 45.44 45.96 45.59 36.80 34.28 29.79 31.13 29.51 29.68 30.03 31.50 32.30 32.68 32.50 33.60 34.31 33.04 33.36 32.68 31.67 29.88 28.19 31.74 31.40 19.80 21.69 26.36 32.39 35.99 36.66 36.23 36.08 35.17 33.78 32.84 32.70 32.39 31.40 29.94 28.26 27.08 27.02 26.55 25.11 23.37 22.29
45.27 45.50 45.83 45.33 44.95 45.06 45.36 45.73 45.62 44.26 38.31 32.89 32.61 27.23 28.20 30.96 31.90 31.93 32.32 32.68 33.00 34.46 33.72 33.66 33.96 34.71 31.55 31.99 29.89 31.30 29.57 27.19 22.49 22.94 30.81 33.54 35.73 34.15 33.49 32.60 31.61 30.85 30.61 30.51 30.72 29.40 27.77 26.72 25.57 24.83 25.23 24.66 22.39 20.26
44.59 43.73 42.53 45.79 46.28 46.38 45.82 44.23 41.44 39.91 35.62 32.61 30.95 31.07 32.08 32.11 31.16 31.71 32.14 32.35 34.57 32.86 33.13 32.04 31.55 30.63 29.86 30.54 29.80 27.51 23.95 25.41 28.14 30.46 32.47 34.42 33.37 32.82 32.33 31.92 31.88 31.63 30.79 30.07 29.57 28.89 27.76 25.99 24.41 24.12 23.96 22.18 19.95 18.68
42.99 39.80 43.12 44.38 45.14 44.53 43.58 39.94 34.19 31.24 32.15 30.66 28.76 31.71 31.53 31.14 30.45 31.38 31.93 32.03 34.53 32.85 30.98 29.22 29.16 29.21 30.97 28.40 26.88 28.98 25.71 28.64 30.82 32.08 32.54 32.66 31.79 31.52 31.66 31.46 30.97 30.92 29.91 29.06 28.12 27.32 26.44 25.89 23.63 22.51 21.04 21.48 21.83 19.72
39.35 41.46 44.19 44.25 43.93 42.11 40.44 38.05 32.17 31.87 29.40 30.74 28.47 29.48 29.87 29.55 29.86 29.97 31.25 32.17 29.62 31.05 32.44 29.86 30.33 23.18 21.85 23.78 24.61 28.76 29.82 30.74 31.42 31.57 31.90 32.22 32.19 32.77 33.10 31.92 31.72 30.81 29.14 28.24 27.04 25.91 25.53 24.12 23.74 22.53 22.82 22.29 20.32 19.88
40.41 41.34 42.84 43.52 42.25 37.94 34.25 34.29 34.61 28.77 29.51 31.01 31.70 31.56 30.90 29.05 29.65 30.27 30.26 31.57 31.88 31.06 28.82 26.13 20.47 19.95 20.41 24.17 24.42 28.72 30.04 30.43 29.77 30.53 31.07 31.84 32.47 32.06 31.90 31.51 30.48 28.68 27.69 26.75 25.57 24.17 23.27 23.04 22.46 22.09 20.57 20.17 18.66 17.77
40.49 40.60 40.88 41.84 41.83 34.88 32.30 32.38 35.63 30.91 28.89 30.45 30.45 26.84 27.88 27.00 28.30 28.01 27.75 28.06 27.93 27.31 23.79 20.74 19.64 20.98 22.14 24.04 26.30 29.62 30.96 31.74 31.34 28.94 28.41 28.91 29.66 29.35 28.88 28.55 26.56 25.61 23.70 22.76 21.97 21.50 20.64 19.85 19.93 18.77 17.87 16.86 14.96 13.59
36.72 36.89 38.11 39.14 36.31 35.01 32.68 31.88 31.29 31.88 31.87 30.33 31.90 29.96 25.89 26.37 23.32 22.49 22.65 26.27 23.52 22.77 20.60 22.20 21.60 22.87 25.34 25.32 26.57 27.11 28.16 30.71 29.48 29.62 27.03 25.14 25.98 25.90 25.48 25.24 24.22 22.77 20.60 19.74 18.70 18.06 18.07 17.53 17.90 17.11 15.36 12.55 12.54 13.63
33.20 36.87 28.48 31.78 30.58 31.36 30.99 32.17 31.87 32.27 31.46 30.79 30.19 30.75 27.56 23.76 22.23 22.49 23.92 19.35 18.71 20.01 22.41 21.73 21.61 22.07 21.67 21.53 22.58 24.64 25.30 24.78 24.56 22.77 22.75 23.40 20.80 20.02 19.96 21.05 20.30 18.28 17.88 17.66 17.44 15.64 15.74 16.60 16.61 15.63 13.23 11.63 13.36 11.90
34.31 32.14 26.61 25.72 22.73 24.14 26.40 31.41 28.92 30.54 26.77 27.62 28.63 26.33 25.89 25.16 25.25 26.79 18.03 19.15 18.63 21.40 23.54 22.59 22.18 22.02 20.83 21.54 22.07 22.03 23.11 22.02 19.95 19.59 19.09 18.41 18.39 18.17 17.76 18.17 18.59 17.03 15.93 16.65 17.56 15.99 14.55 15.06 13.30 11.26 10.42 10.05 8.95 4.33
31.82 22.29 19.14 19.45 21.03 15.43 22.24 23.67 27.54 27.03 26.53 24.70 23.91 21.96 24.30 23.26 24.44 18.33 13.42 14.47 17.17 19.46 19.48 19.70 20.07 18.18 18.28 17.81 16.23 16.58 19.03 19.50 17.99 17.99 18.79 16.78 14.24 13.78 14.46 13.51 13.34 13.49 13.80 13.46 12.21 10.41 9.47 8.02 7.74 6.82 3.74 -0.61 -0.95 -2.31
20.04 18.65 16.07 12.88 17.84 17.48 14.10 13.95 17.31 19.72 19.63 20.86 19.48 20.21 21.77 21.70 14.73 12.76 11.20 13.09 14.40 14.17 15.66 16.81 16.47 16.32 14.35 14.43 14.93 15.45 16.88 16.48 14.47 12.23 14.59 16.38 14.09 12.83 11.28 10.69 9.93 10.24 10.69 6.47 3.91 2.56 2.41 1.29 -0.30 -1.92 -0.79 -8.26 -0.24 -5.36
14.44 18.74 19.99 14.63 18.06 16.62 14.98 12.53 14.75 15.46 12.34 11.56 16.34 19.29 16.23 12.76 8.73 8.35 12.34 13.41 13.01 14.30 13.86 14.53 13.92 12.78 12.13 13.49 12.17 12.05 13.56 15.44 13.34 9.58 9.99 11.29 11.46 9.96 6.74 5.18 4.86 5.58 6.07 -0.19 -3.02 -6.08 -6.99 -10.27 -12.79 -11.17 -13.52 -8.80 -6.99 -11.16
15.29 17.00 20.50 25.28 21.66 21.22 15.20 12.52 15.97 11.57 10.32 11.60 13.56 10.10 5.49 1.34 2.61 11.53 16.56 16.71 14.72 15.73 16.41 15.83 14.76 12.93 12.03 11.95 12.24 12.05 12.87 12.87 11.38 10.46 10.69 9.40 8.48 7.40 1.68 -1.67 -2.10 2.98 3.91 -3.45 -8.45 -8.99 -7.35 -10.07 -13.15 -11.52 -12.07 -18.05 -16.42 -15.33
23.50 23.05 14.67 11.95 11.62 15.41 8.40 4.85 7.36 9.47 10.95 17.36 8.48 -0.22 -2.48 -1.08 5.85 13.13 15.39 16.84 16.07 15.63 13.58 11.86 10.77 9.48 7.76 7.35 8.06 8.47 9.55 7.80 7.78 7.01 5.89 5.55 4.48 4.78 4.81 4.88 4.03 7.87 1.75 -0.86 -6.81 -10.44 -10.25 -5.18 -6.08 -7.35 -10.80 -8.80 -8.44 -14.79
17.09 15.70 13.64 7.66 7.25 9.02 11.59 8.25 8.93 13.35 14.19 10.96 -1.79 0.80 3.67 8.94 9.37 12.17 15.14 15.86 15.41 13.87 10.75 8.79 5.76 1.89 3.60 4.30 2.10 1.34 1.68 -2.90 -4.00 -7.50 -13.52 -14.97 -10.98 -4.84 -1.27 -2.49 -3.92 -4.27 -7.35 -8.99 -2.28 2.80 0.44 -3.37 -7.90 -9.71 -10.07 -12.43 -7.35 -10.44
10.84 11.81 8.69 2.24 4.37 7.81 7.59 10.03 6.80 3.05 10.49 7.84 10.69 9.91 8.29 8.59 10.73 13.83 12.71 10.72 8.05 4.61 1.17 0.05 0.19 -1.29 -11.16 -6.29 -8.62 -2.91 -5.01 -10.28 -8.83 -9.79 -13.88 -13.88 -10.07 -8.45 -16.06 -16.24 -14.97 -14.24 -15.87 -15.69 -13.88 -10.64 -2.82 -11.34 -8.08 -12.97 -13.89 -12.81 -15.51 -18.96
10.62 9.52 6.41 6.57 9.65 7.13 9.07 8.35 10.78 5.36 -1.29 0.29 -3.98 -1.92 -0.18 3.95 5.36 10.17 9.08 6.91 4.98 -0.18 -2.14 -5.91 -5.90 -13.52 -5.90 -10.80 -14.42 -13.34 -9.35 -5.55 -7.72 -8.62 -9.17 -12.25 -15.15 -16.78 -17.51 -17.32 -17.87 -20.23 -20.95 -20.04 -19.50 -19.14 -18.41 -19.50 -19.86 -18.96 -16.78 -14.25 -11.56 -11.70
4.69 -3.00 3.58 4.76 8.22 9.35 9.98 10.42 0.54 -0.13 -6.08 -5.36 -4.09 -8.62 -4.47 -6.41 -6.63 0.90 4.62 1.04 2.20 0.37 -6.63 -12.61 -8.26 -3.73 -11.34 -13.70 -13.52 -11.16 -6.45 -9.35 -11.34 -11.70 -9.89 -9.71 -9.35 -12.43 -16.06 -16.24 -19.50 -19.86 -19.50 -21.13 -22.94 -21.86 -20.41 -19.86 -21.86 -22.58 -23.31 -20.59 -18.96 -16.42
0.56 -1.69 -2.57 0.20 6.75 7.73 11.16 13.21 6.42 2.31 -0.55 -1.75 -1.39 -1.61 -5.18 -8.23 -8.09 -0.42 2.85 -4.28 -7.01 -9.17 -9.17 -9.17 -10.07 -9.71 -4.65 -8.11 -11.16 -12.97 -11.89 -15.51 -14.42 -3.73 -3.91 -3.91 -7.90 -8.80 -14.42 -18.23 -19.32 -19.50 -18.59 -20.41 -21.31 -21.13 -19.32 -18.96 -22.40 -23.85 -24.21 -24.40 -24.40 -22.94

GFSWCAN_sfc_wetblb_060.txt.gz
Wetbulb
45.94 45.21 45.38 45.80 45.96 45.68 46.88 46.31 45.85 45.60 45.62 45.56 45.61 45.78 45.90 45.79 46.10 42.20 40.73 45.05 41.81 39.84 43.31 45.64 44.88 41.16 41.86 41.60 35.14 39.12 42.91 40.80 36.25 33.19 32.72 31.14 28.73 35.06 34.05 36.93 35.23 34.97 31.87 27.83 25.72 23.26 27.52 39.84 38.44 34.66 37.17 37.73 39.39 39.48
45.87 44.68 46.09 46.03 45.69 45.99 45.55 45.39 45.39 45.25 45.33 45.36 45.07 45.03 45.53 45.69 45.19 42.87 37.85 43.67 47.41 43.34 42.54 45.79 45.61 46.79 46.67 46.13 43.16 42.26 39.86 41.68 41.76 38.47 35.34 33.03 31.20 31.66 33.77 31.05 38.68 33.96 37.08 34.08 35.06 34.17 39.54 39.97 38.72 39.42 39.95 39.85 40.58 41.01
44.83 44.62 44.49 44.60 44.73 44.69 44.84 44.75 44.85 44.91 44.97 44.97 44.74 44.91 45.17 45.33 44.95 42.62 40.27 43.80 44.63 40.56 41.65 42.93 42.71 47.90 48.90 48.12 48.59 40.96 41.16 45.68 43.55 44.34 40.15 37.83 33.54 35.76 31.71 32.89 35.18 38.91 40.18 35.78 36.46 38.44 39.88 40.87 40.95 40.86 40.99 40.53 41.55 41.57
43.56 43.54 43.72 43.95 44.06 44.12 44.10 44.13 44.17 43.96 44.22 44.19 44.31 44.26 44.50 44.83 45.07 43.65 40.79 43.30 44.63 42.24 36.18 39.95 49.40 48.37 51.42 50.33 49.91 48.53 46.65 47.62 45.95 43.77 37.58 36.58 34.03 40.66 33.91 38.87 37.00 39.55 40.64 37.32 36.50 39.39 40.72 41.39 39.55 39.17 38.71 39.33 38.78 37.79
42.70 42.66 42.94 42.85 43.43 43.59 43.61 43.54 43.46 43.39 43.55 43.76 43.64 44.38 44.84 45.00 45.16 43.65 43.14 45.96 46.11 42.13 37.17 37.93 43.20 49.11 52.23 51.00 50.18 49.91 48.84 45.79 42.15 38.02 34.73 35.63 38.03 37.74 35.26 35.97 30.69 40.68 39.23 36.71 37.00 41.83 41.06 39.51 38.39 38.66 38.16 37.04 37.06 36.07
43.36 43.46 43.64 43.57 43.61 43.46 43.44 43.37 43.26 43.30 43.33 43.58 43.86 44.32 44.55 45.13 45.78 41.66 37.77 45.83 46.73 46.25 39.23 33.00 40.93 42.76 48.80 51.04 50.37 48.05 48.34 45.82 43.94 39.50 36.53 40.39 42.27 38.13 32.76 31.37 39.31 41.52 41.97 42.31 41.43 42.61 38.81 38.09 37.35 37.50 36.16 35.41 35.46 34.83
43.52 43.45 43.42 43.47 43.57 43.59 43.49 43.60 43.67 43.87 44.02 44.24 44.18 44.63 45.03 45.38 43.59 40.31 37.63 43.89 47.12 46.08 38.69 33.94 34.57 42.98 48.44 49.98 47.87 47.67 45.90 43.84 44.04 40.95 35.44 38.58 39.64 37.95 28.97 30.33 38.52 39.47 40.04 40.52 39.42 39.45 36.35 37.05 35.21 35.34 34.70 34.34 34.62 33.35
43.50 43.44 43.51 43.51 43.34 43.34 43.46 43.65 43.94 44.08 44.45 44.64 44.87 44.99 45.55 46.36 45.77 40.44 46.26 47.16 46.87 42.99 41.52 33.77 34.57 37.69 46.63 42.47 41.78 45.72 42.32 42.29 42.05 40.63 37.37 33.87 38.02 32.97 35.09 37.20 37.66 38.04 37.66 37.03 36.34 37.51 37.38 35.53 34.51 33.48 33.82 33.60 32.34 31.47
43.52 43.15 42.77 43.06 43.39 44.16 42.74 42.67 43.05 44.37 44.49 45.08 45.60 46.11 45.15 42.25 38.01 39.54 47.45 47.81 47.67 41.65 33.66 32.03 32.91 29.41 41.38 39.74 40.09 40.74 42.61 35.46 39.79 34.73 36.38 37.88 32.94 35.58 37.39 36.79 37.32 38.62 38.05 34.44 34.95 35.51 35.44 33.06 32.58 32.68 32.60 31.68 30.31 29.75
43.73 43.98 43.35 44.14 43.97 43.93 43.98 43.49 44.08 45.39 46.06 45.99 43.98 39.48 33.89 37.65 47.06 47.38 44.57 38.68 40.99 40.12 40.26 34.20 38.17 33.99 39.22 34.55 35.84 35.28 35.24 34.35 33.63 35.75 39.04 33.96 33.85 37.09 38.36 40.09 39.98 37.20 36.48 35.98 33.18 31.93 31.97 31.51 31.42 31.01 31.05 31.52 30.75 30.17
44.57 44.52 44.53 44.66 45.13 45.14 44.65 44.21 45.33 46.13 45.00 38.61 35.57 35.93 41.48 46.40 44.56 40.10 33.95 34.07 35.23 33.18 35.76 35.83 36.47 36.02 40.74 34.92 33.63 34.32 33.98 33.28 32.48 34.56 34.63 32.35 32.09 35.77 38.63 39.72 39.71 38.93 38.02 37.64 37.59 37.34 36.72 34.57 32.21 30.55 30.09 30.71 30.54 30.58
45.09 44.88 44.98 44.82 44.72 45.18 45.44 45.69 45.64 43.30 39.79 39.97 43.03 44.20 44.49 40.90 36.94 30.77 32.12 32.60 33.61 32.52 33.93 34.70 36.39 38.15 36.73 39.82 35.27 34.13 31.82 31.99 31.20 35.53 33.57 30.88 32.55 36.02 36.57 35.96 37.21 37.73 37.53 36.97 36.64 35.54 35.05 33.95 32.99 31.27 30.26 29.82 28.87 27.20
44.70 44.77 44.90 44.74 44.73 45.10 45.51 45.59 45.38 44.80 44.41 42.77 41.42 36.40 37.94 33.42 29.47 21.57 26.76 30.17 31.05 32.87 34.29 34.57 33.46 34.61 33.99 36.26 32.30 31.25 29.91 29.57 33.48 32.05 30.91 31.73 36.24 37.11 37.06 37.33 37.11 37.88 37.36 36.58 35.56 34.76 33.38 31.84 31.80 30.60 28.61 27.58 26.41 25.41
44.38 44.63 44.83 44.67 44.73 44.81 44.98 45.36 44.61 43.79 41.60 36.69 32.69 29.15 30.90 28.88 29.89 30.46 31.53 31.14 31.64 32.56 33.46 33.99 32.71 33.61 32.72 32.48 31.02 31.37 31.37 31.58 27.68 26.22 27.26 32.33 35.40 35.90 36.68 36.69 35.05 33.64 33.12 32.69 31.97 31.24 30.07 29.46 28.09 27.51 26.88 25.36 24.11 23.39
44.38 44.48 44.79 44.57 44.59 44.81 45.00 44.44 44.53 43.43 36.95 31.80 32.23 27.12 28.40 30.67 31.77 31.80 32.18 32.71 32.53 34.13 33.80 33.45 33.61 34.27 31.95 30.74 30.81 30.96 28.97 26.61 24.60 22.10 30.30 32.69 33.93 34.09 33.19 32.84 32.07 31.26 30.99 30.14 29.64 28.11 27.20 26.90 25.76 24.33 24.07 23.99 22.91 21.44
44.70 44.11 43.29 44.70 44.79 44.94 44.65 44.36 42.10 40.31 34.69 31.94 30.14 30.40 31.38 31.29 30.46 31.20 31.98 32.03 33.89 32.91 33.19 34.20 31.92 30.75 30.12 31.02 29.45 26.54 26.34 24.96 27.44 29.93 31.98 33.00 32.15 32.03 31.72 31.35 31.31 31.12 30.36 29.69 28.81 27.74 26.63 25.27 24.22 23.06 22.27 21.00 19.83 19.17
43.16 39.89 44.91 44.69 44.89 44.87 44.24 39.98 36.35 32.11 31.55 30.08 28.21 29.80 30.10 30.27 28.82 29.93 30.81 30.03 33.58 33.27 30.30 30.45 29.63 28.32 31.28 27.25 25.18 28.29 24.81 28.15 29.91 30.81 31.67 32.06 31.19 30.98 30.94 30.61 30.25 30.15 29.41 28.66 28.21 27.18 25.12 24.47 23.05 21.73 19.76 20.47 20.97 19.02
39.53 43.33 45.06 43.99 43.51 42.41 40.20 37.22 32.14 31.58 28.87 30.42 26.80 27.62 27.40 27.14 26.65 27.43 29.01 30.94 31.82 32.27 30.27 26.96 29.01 23.09 20.77 21.62 22.59 26.72 29.50 30.06 30.95 30.96 30.95 31.50 31.66 31.71 31.69 30.32 29.73 29.12 28.01 27.43 26.55 25.10 24.09 23.54 22.77 21.90 21.74 20.48 19.52 19.22
41.08 42.71 44.01 44.02 42.43 38.14 33.34 33.33 33.15 28.54 28.81 30.46 29.41 29.52 28.64 27.15 27.82 28.34 28.91 30.12 30.64 30.04 27.89 23.97 16.46 15.87 17.06 21.63 21.69 24.02 28.94 30.10 29.07 29.25 29.96 31.16 31.49 30.61 29.83 28.92 28.22 26.63 25.86 24.87 23.81 22.63 22.34 22.57 21.56 21.34 20.76 20.22 18.06 16.39
40.43 40.27 41.75 43.40 42.10 34.62 31.84 31.37 34.74 30.87 28.51 26.86 27.43 24.44 24.92 24.23 25.30 25.48 25.28 27.27 26.88 25.31 20.99 17.67 16.50 18.67 19.81 21.88 23.93 25.30 30.46 31.61 29.37 25.75 24.56 25.65 26.97 26.62 26.04 25.22 24.19 23.57 22.61 22.07 21.47 21.23 20.41 19.05 19.16 18.54 18.32 18.14 17.12 15.11
37.78 37.09 37.67 40.18 36.53 34.84 32.03 31.56 31.16 31.74 31.19 27.71 28.87 27.70 24.45 24.60 20.85 19.90 20.40 24.30 20.52 20.21 17.35 19.33 19.10 21.10 22.80 22.98 24.39 25.32 24.71 25.48 24.30 25.67 23.09 20.50 23.00 23.39 22.50 22.44 22.28 21.30 19.29 18.41 17.22 16.82 16.93 16.09 16.86 16.43 14.89 13.91 14.47 14.96
33.33 35.97 30.76 33.02 32.03 31.80 30.84 31.82 31.35 31.79 30.96 30.48 29.88 29.08 24.63 21.46 20.30 19.86 21.59 16.87 16.26 18.07 20.27 19.63 19.53 20.54 20.16 19.82 20.83 22.84 23.17 22.72 22.34 21.07 20.74 21.03 18.63 18.13 18.11 19.22 17.91 16.24 15.99 15.63 15.56 13.88 14.42 15.14 14.67 13.49 11.86 11.97 13.81 12.18
33.63 31.60 26.84 26.66 24.55 26.01 26.10 31.65 27.97 29.83 26.08 26.37 27.53 25.01 22.74 21.68 22.43 23.83 15.29 16.92 16.57 19.45 20.66 21.05 20.91 20.79 19.40 19.88 20.56 20.42 21.25 20.10 17.84 17.41 16.79 15.72 15.31 15.06 13.94 14.09 15.34 13.68 12.50 13.21 14.28 12.78 11.03 11.44 10.25 8.39 8.37 8.50 7.88 4.91
30.84 21.83 18.30 17.64 19.98 14.73 21.30 23.34 28.00 26.92 25.86 24.77 23.79 21.66 21.92 20.83 22.03 16.20 11.44 12.89 15.68 17.86 17.36 18.52 19.32 17.70 17.49 16.25 14.25 14.54 17.73 17.99 16.05 15.74 16.12 13.89 11.32 10.71 11.17 10.27 10.31 10.29 10.84 10.49 8.74 6.69 5.95 4.17 4.31 3.99 -0.06 -4.60 -4.79 -6.93
20.02 18.84 16.78 13.24 16.49 15.48 13.18 15.59 18.88 19.39 20.01 21.07 20.32 20.41 19.09 20.91 13.72 11.71 10.05 12.15 13.63 13.35 14.70 16.05 15.49 15.27 13.64 13.20 13.73 13.49 14.79 15.07 12.33 10.15 12.60 14.04 11.24 9.67 8.20 8.13 7.73 7.74 8.39 3.95 0.23 -1.48 -3.34 -8.24 -10.60 -12.23 -9.48 -15.27 -5.66 -10.38
16.47 18.12 14.74 13.96 15.87 13.25 14.55 10.04 10.88 14.84 14.11 14.92 16.07 14.07 11.94 9.33 6.12 7.25 11.16 12.70 12.28 13.07 12.64 13.49 12.85 11.56 10.42 11.79 10.67 10.65 11.53 13.27 11.35 7.25 8.03 9.05 8.63 6.08 4.31 3.03 2.83 4.81 3.55 -3.92 -7.16 -10.74 -9.47 -11.65 -13.82 -10.01 -14.18 -10.56 -11.65 -17.08
13.28 14.43 18.07 21.91 19.58 18.11 8.36 7.28 12.10 7.22 5.24 7.64 9.12 2.32 3.04 -0.05 1.92 10.51 14.51 14.47 13.08 12.66 12.75 12.63 12.99 11.61 10.09 9.89 10.35 10.41 10.33 10.06 8.89 7.93 8.41 7.40 6.83 6.34 3.08 0.46 -0.25 2.73 4.76 -1.37 -9.47 -10.74 -9.29 -11.10 -14.37 -14.37 -16.18 -20.17 -19.99 -17.08
21.51 16.12 8.20 8.32 7.68 12.11 3.57 2.34 4.67 5.97 7.57 12.75 4.20 -4.97 -6.75 -4.22 3.59 11.90 13.50 14.96 12.40 11.65 10.22 9.16 8.32 7.96 7.47 7.45 7.51 7.03 6.84 6.38 6.33 5.49 4.93 3.36 2.10 1.84 -0.02 -1.40 -2.25 2.86 -8.75 -12.01 -12.37 -13.10 -11.28 -8.20 -9.29 -11.65 -14.73 -14.91 -12.37 -15.82
9.87 9.55 10.66 3.63 3.90 6.01 8.08 5.63 4.93 8.23 10.31 7.09 -5.55 -3.85 1.01 7.03 7.68 10.50 13.25 14.02 13.73 10.84 6.70 4.18 2.07 0.76 3.08 2.83 -0.15 -0.86 -2.19 -5.89 -5.54 -9.49 -15.63 -16.54 -15.09 -7.34 -8.38 -13.82 -14.37 -14.18 -15.82 -12.91 -4.58 1.59 3.32 -3.31 -3.13 -10.01 -12.01 -15.09 -14.91 -18.35
8.05 8.90 5.73 -0.66 1.09 2.68 -1.69 4.61 -0.15 0.64 8.33 6.43 8.98 8.63 6.57 6.68 9.34 11.58 9.77 8.19 5.19 1.10 -2.60 -3.50 -9.11 -9.66 -14.18 -9.29 -10.92 -4.08 -7.11 -13.64 -13.71 -11.13 -14.55 -15.45 -12.01 -10.56 -20.17 -19.62 -17.99 -18.35 -21.98 -22.16 -20.71 -15.30 -6.93 -15.09 -11.48 -16.94 -16.95 -17.86 -19.45 -21.98
7.12 6.59 5.27 4.28 3.89 0.52 -1.78 -1.05 2.60 1.63 -3.50 -0.92 -4.82 -4.70 -1.92 1.34 3.46 7.27 5.46 -0.60 -5.52 -10.56 -4.62 -8.38 -8.93 -17.99 -12.19 -14.91 -16.72 -15.45 -12.01 -10.01 -14.55 -13.28 -12.91 -13.10 -14.55 -17.27 -18.35 -19.26 -21.07 -23.61 -23.97 -23.07 -24.16 -23.97 -22.89 -23.79 -25.97 -26.51 -25.24 -21.44 -20.35 -21.62
1.83 0.86 2.59 2.44 4.18 8.20 6.29 -1.32 -6.57 -5.87 -7.84 -8.75 -7.29 -12.73 -9.91 -9.22 -9.11 -2.78 0.22 -2.12 -3.18 -7.11 -10.92 -16.18 -10.92 -7.48 -14.00 -16.72 -19.08 -17.63 -11.83 -14.73 -15.09 -15.09 -11.83 -13.64 -16.00 -17.08 -17.99 -17.81 -21.80 -22.34 -23.43 -24.16 -25.06 -24.88 -24.34 -23.97 -25.79 -27.06 -27.78 -26.51 -26.69 -25.42
-4.52 -6.95 -5.00 -0.62 3.07 3.86 5.90 5.63 1.99 -0.46 -4.05 -4.39 -3.32 -6.39 -13.28 -11.03 -9.50 -3.61 -1.19 -11.46 -9.49 -10.74 -11.28 -12.01 -10.74 -10.92 -10.75 -12.38 -14.00 -17.27 -15.63 -18.35 -17.45 -4.76 -5.48 -7.48 -11.65 -12.01 -18.90 -22.89 -24.34 -24.16 -21.07 -23.43 -25.79 -25.61 -23.43 -22.89 -24.52 -26.33 -27.60 -29.41 -26.51 -27.06

GFSWCAN_sfc_wetblb_063.txt.gz
Wetbulb
44.81 45.41 44.93 45.08 44.36 45.06 45.80 46.38 46.44 45.99 46.27 46.88 46.52 46.26 46.36 46.54 46.95 43.99 41.80 44.22 41.57 39.25 40.50 44.21 44.54 41.10 41.59 41.18 36.24 39.72 40.60 41.52 38.78 34.79 34.36 34.35 33.43 36.87 37.01 38.86 36.61 36.60 34.65 33.14 31.42 31.94 32.11 42.31 40.26 39.07 44.05 42.44 43.44 43.60
44.92 45.54 45.27 45.34 45.33 45.71 45.91 46.04 46.13 46.18 46.89 46.42 46.06 45.92 45.92 46.63 46.87 45.28 40.16 45.01 45.19 39.90 41.94 45.90 46.22 47.34 47.29 46.15 42.95 43.76 41.95 41.95 41.93 38.89 37.27 36.34 34.65 34.03 37.57 34.34 40.10 36.23 39.72 37.29 37.79 39.35 44.33 42.96 45.24 44.18 43.49 44.80 43.62 44.34
45.67 45.62 45.45 45.40 45.42 45.49 45.43 45.82 46.04 46.54 46.03 45.71 45.80 45.87 46.04 46.23 46.25 43.96 40.47 42.46 41.93 38.47 41.82 42.08 43.29 48.42 49.55 48.55 50.14 43.26 43.18 46.76 44.84 46.65 41.80 40.27 35.92 37.57 33.92 34.99 37.80 39.97 42.31 39.40 40.26 42.41 42.38 43.69 44.53 44.42 44.55 44.42 44.69 45.33
44.16 44.52 44.97 45.70 45.67 45.72 45.76 45.68 45.51 45.37 45.23 45.36 45.40 45.68 45.97 46.41 45.36 43.37 40.69 43.21 41.39 40.62 34.73 39.54 48.73 48.39 51.02 50.28 49.50 49.25 48.30 48.35 47.72 46.20 39.95 36.55 37.31 41.86 36.75 40.79 39.98 41.62 42.43 39.94 39.92 41.87 42.49 43.89 44.23 44.15 42.75 42.69 41.87 41.95
43.57 44.02 44.09 44.29 44.38 44.57 44.57 44.68 44.68 45.09 45.32 45.43 45.47 45.52 45.68 44.97 44.42 42.29 43.48 43.71 43.54 40.56 35.21 38.33 44.71 48.52 51.27 50.37 50.72 50.55 49.44 47.01 44.99 42.02 36.72 39.83 40.84 39.99 37.68 39.51 37.55 42.92 41.40 39.36 39.38 44.42 44.61 45.83 46.03 43.06 41.65 41.27 41.02 38.84
43.50 43.36 43.47 43.78 43.87 44.22 44.50 44.62 44.72 44.65 44.68 44.68 45.19 45.38 44.98 44.16 43.42 40.63 35.53 42.97 44.09 43.41 37.89 33.44 42.99 43.85 50.07 50.97 49.65 48.81 49.18 47.67 46.65 42.94 40.08 41.95 43.53 41.85 36.80 37.91 42.61 43.86 44.02 43.00 43.85 43.76 40.41 39.84 39.19 40.79 39.70 39.48 39.00 38.65
43.52 43.56 43.54 43.42 43.52 43.56 43.61 43.70 43.65 43.71 43.85 44.20 44.68 44.84 44.62 44.29 41.29 37.88 36.80 42.61 43.67 45.93 37.19 33.34 35.56 43.17 48.74 49.39 48.69 48.10 48.96 47.70 46.24 43.69 40.24 42.15 42.28 41.42 35.40 36.60 41.44 40.87 41.22 41.40 40.73 41.09 39.23 39.45 38.64 37.94 37.30 36.45 36.13 35.52
43.49 43.49 43.60 43.41 43.31 43.40 43.36 43.12 43.52 43.75 43.77 43.90 43.90 43.75 44.26 44.31 43.39 39.67 45.92 46.19 46.12 41.82 40.13 31.80 33.94 39.79 46.32 43.01 41.81 46.28 43.70 44.63 43.66 42.15 39.54 40.26 40.47 37.45 36.69 39.23 39.29 39.06 38.87 38.13 37.37 38.69 39.06 36.46 35.81 34.64 35.18 35.17 33.96 33.41
43.24 43.45 43.10 43.28 43.45 43.53 43.43 43.32 43.47 43.75 43.77 44.01 44.32 44.53 42.77 40.83 38.37 41.14 46.61 46.61 47.36 42.77 33.31 32.19 33.10 33.79 42.68 39.72 40.26 41.59 42.23 35.26 40.97 35.62 38.27 40.88 36.82 37.53 40.47 39.40 38.71 38.71 39.42 35.37 35.87 36.23 36.06 34.58 33.76 34.01 34.31 33.83 32.63 31.99
43.60 43.34 43.21 43.17 43.21 43.52 43.63 43.55 43.84 44.08 43.87 44.18 42.24 38.13 32.72 39.74 45.32 46.27 43.52 39.85 40.00 40.13 37.44 33.49 36.34 35.26 40.00 35.82 36.34 36.33 36.15 33.61 33.25 37.01 40.29 36.72 36.83 39.39 39.99 41.01 40.91 38.09 36.49 36.49 33.73 32.37 33.06 32.71 32.54 32.77 33.11 33.58 32.90 31.84
44.61 44.14 43.85 43.57 42.90 42.95 42.87 43.61 43.96 44.12 43.74 39.64 38.16 36.48 41.54 46.61 43.95 39.92 32.70 32.85 34.44 32.87 36.48 36.09 36.94 36.30 41.22 35.06 34.52 35.63 33.26 32.70 31.60 35.30 36.98 34.18 34.28 36.80 39.46 40.61 39.59 38.43 38.28 38.76 40.04 37.56 37.21 35.60 33.34 31.78 31.55 32.13 31.19 30.24
45.05 45.02 44.58 43.60 43.25 43.56 44.20 44.23 45.03 43.54 41.44 40.85 42.10 44.77 43.90 38.99 36.26 32.99 32.16 32.84 33.50 31.95 34.83 35.01 36.47 38.33 37.52 40.65 35.34 34.82 32.51 31.90 30.43 35.93 33.97 31.72 34.39 36.89 37.77 37.61 38.11 38.66 38.12 36.92 36.77 35.36 34.43 33.32 32.99 32.33 31.42 30.62 29.51 28.46
44.63 44.79 44.93 44.21 43.93 44.91 44.78 44.77 44.52 44.46 43.73 42.41 39.75 35.97 35.63 32.84 29.24 28.68 27.41 30.50 31.01 32.88 34.62 35.27 34.00 36.31 35.81 36.53 33.10 32.57 30.96 30.59 33.52 32.36 31.93 32.06 35.86 36.49 36.78 37.03 36.94 37.83 36.52 35.23 33.65 33.21 32.43 31.71 32.00 30.43 28.53 28.81 28.56 27.25
44.41 44.63 44.69 44.80 44.84 44.26 44.20 43.96 43.79 43.20 40.30 34.45 32.22 29.61 30.46 30.15 30.82 31.23 31.75 32.52 32.79 33.28 34.55 34.65 33.10 34.71 33.82 33.28 32.73 31.36 32.72 31.72 29.77 28.74 27.05 32.30 34.62 35.53 35.64 35.67 34.17 32.63 32.15 31.98 31.32 30.82 29.87 29.15 27.88 27.75 27.80 27.75 26.49 24.57
44.50 44.49 44.74 44.37 44.48 44.29 44.07 43.75 43.34 40.58 35.54 31.45 31.72 27.00 28.37 30.83 31.72 31.98 32.37 32.88 32.84 34.39 34.42 33.96 33.97 34.58 32.16 31.32 32.14 32.34 29.95 26.88 27.12 26.81 30.67 32.13 33.16 33.01 32.38 32.20 31.27 30.43 29.86 28.94 28.83 27.67 27.19 26.87 26.39 25.69 26.08 25.75 24.39 23.23
44.56 43.82 42.24 44.49 44.68 44.48 43.58 42.45 40.76 39.10 34.15 31.90 29.02 28.07 30.23 29.32 28.52 29.75 30.80 31.59 33.13 33.05 34.27 34.05 31.80 31.36 30.07 31.80 29.25 27.32 26.88 25.01 27.43 30.14 31.72 32.21 31.56 31.32 30.92 30.75 30.39 29.86 29.14 28.49 28.00 27.62 26.81 25.44 24.33 23.18 22.96 22.17 21.48 21.16
43.61 40.38 44.18 44.32 43.88 43.04 42.49 38.77 36.48 32.40 31.17 30.07 26.44 27.87 27.06 27.62 25.42 27.28 28.92 28.85 32.30 32.70 30.86 31.96 28.42 26.53 31.05 26.15 24.14 27.70 24.58 27.17 29.51 30.20 31.06 31.48 30.24 29.67 30.03 29.76 29.36 29.25 28.29 27.59 27.03 26.06 24.79 24.23 23.54 22.49 20.54 21.11 21.14 20.07
40.25 43.93 44.50 43.92 42.77 41.46 39.31 36.87 32.45 31.87 28.05 28.60 24.87 25.94 25.45 25.30 24.61 25.66 27.91 29.38 31.55 30.82 29.07 24.93 27.83 21.21 18.42 19.72 20.14 23.26 27.55 29.63 30.14 30.14 30.49 30.85 30.78 30.40 30.03 28.49 28.38 27.76 26.50 25.90 25.46 25.23 24.53 23.58 22.26 21.22 20.79 20.50 20.25 20.09
43.31 44.15 43.78 43.72 42.36 37.51 32.61 33.04 33.96 26.96 25.08 27.49 26.45 26.05 26.57 24.78 25.48 25.71 26.68 28.38 28.99 28.54 26.82 22.77 17.42 15.69 17.06 20.43 20.07 22.18 24.53 29.16 25.92 25.78 26.51 27.96 28.09 27.34 26.66 26.37 25.76 25.20 24.76 24.02 23.08 22.50 22.54 22.76 22.40 21.73 21.43 20.63 18.24 17.70
42.18 43.09 42.32 42.06 40.96 33.26 31.66 31.72 34.61 28.44 24.18 24.45 26.05 22.53 22.73 22.05 22.96 23.39 22.63 24.41 24.38 22.65 18.26 15.69 14.73 16.89 17.63 19.89 22.32 23.63 27.81 29.89 26.84 22.83 21.93 23.04 24.20 24.01 24.18 23.77 23.13 22.86 22.05 21.43 21.23 20.94 19.93 18.84 18.94 19.12 19.66 19.60 18.42 16.59
38.54 37.89 40.81 39.18 35.01 33.49 31.71 31.69 31.30 31.41 29.17 25.76 27.39 25.83 23.48 23.50 19.74 18.52 18.66 22.33 18.14 17.36 14.91 17.37 18.15 19.74 21.56 22.07 23.46 23.96 23.65 24.25 22.84 23.09 21.19 19.57 21.92 21.97 21.29 21.26 20.97 19.96 18.51 17.97 16.90 16.11 16.30 15.37 15.98 16.23 16.15 16.03 16.45 16.14
33.86 37.05 31.97 34.68 32.40 32.24 30.80 31.59 31.36 32.10 30.84 29.31 28.88 27.22 22.80 19.87 18.81 18.09 20.31 15.44 14.10 15.65 18.79 18.12 18.24 18.83 18.51 18.33 19.50 21.30 21.45 20.83 20.42 19.14 18.83 19.09 17.01 16.69 16.66 17.74 16.91 15.27 15.31 15.15 14.56 13.37 13.16 13.28 13.72 13.32 12.96 12.83 13.12 12.12
34.17 31.44 27.73 27.88 26.18 27.19 26.45 31.89 27.94 29.43 25.31 26.05 27.52 22.47 20.75 19.43 20.01 21.43 13.89 15.36 15.17 17.88 19.42 20.00 19.58 19.35 17.56 18.89 19.43 19.08 19.63 18.25 15.99 15.56 15.01 14.23 14.16 14.12 13.27 13.32 14.70 13.11 11.25 11.31 12.14 10.53 8.96 8.68 8.21 7.98 8.37 7.85 8.11 6.95
30.30 21.26 18.61 18.89 20.94 16.96 22.70 22.66 27.37 26.11 25.57 24.47 23.00 19.57 19.63 19.11 20.43 14.85 10.15 11.92 14.63 16.70 16.24 17.10 18.52 16.75 16.09 14.97 12.92 14.29 16.95 16.78 14.71 14.38 14.80 12.49 9.51 8.94 9.54 9.37 9.29 9.26 9.45 8.62 7.13 5.56 4.49 3.55 2.89 4.44 2.78 3.08 2.12 2.44
19.56 16.76 17.46 13.85 15.16 13.26 10.66 13.97 17.27 18.63 19.04 20.78 19.01 16.83 17.14 19.59 12.06 10.09 8.84 11.14 13.01 12.55 14.04 15.42 14.35 14.90 12.86 12.40 12.61 12.22 13.92 14.21 11.57 9.26 11.72 11.44 9.73 9.12 7.90 7.77 7.33 7.70 8.67 5.85 3.17 3.15 2.06 1.32 1.13 1.25 1.19 -0.04 0.95 0.01
13.19 14.91 12.48 12.51 15.21 12.81 13.58 10.11 11.19 12.00 12.11 13.04 12.75 12.38 13.10 11.06 7.60 6.94 10.39 12.25 11.70 11.77 11.31 12.69 12.72 10.95 9.78 11.23 10.25 9.57 10.17 12.44 10.56 7.01 7.09 8.84 8.80 7.37 5.84 5.01 4.66 4.94 5.83 3.83 4.63 3.14 2.45 1.07 0.49 0.43 1.26 0.93 -6.64 -2.47
12.12 11.44 14.48 18.62 16.96 14.34 7.26 7.38 11.07 7.21 6.19 6.55 6.93 0.30 1.73 -1.66 1.54 9.34 13.24 13.37 11.73 10.77 11.51 12.01 12.54 10.80 9.27 8.72 8.92 9.02 8.91 8.74 7.84 7.04 7.36 6.65 5.95 5.97 4.71 2.70 2.00 3.71 5.04 2.31 1.44 1.62 1.80 0.79 -0.27 -0.67 -1.17 -0.63 -1.34 -3.52
17.41 13.24 5.32 5.14 5.44 9.90 -0.82 0.70 1.39 3.44 5.84 10.04 3.12 -5.55 -7.35 -5.89 2.85 10.49 11.88 12.03 11.38 10.85 9.44 9.26 8.54 8.00 7.03 6.64 6.86 7.04 6.37 6.37 5.88 5.41 5.23 3.72 2.25 0.82 -1.16 -0.82 -1.30 1.01 -2.80 -2.68 -0.62 -0.93 0.02 -0.30 -0.26 -1.39 -2.62 -2.80 -3.73 -3.76
7.12 7.68 8.68 -0.18 1.38 2.39 2.85 0.77 0.26 5.49 8.34 5.20 -4.91 -3.17 1.19 5.82 7.39 10.44 11.90 11.75 11.69 9.19 6.19 4.22 2.44 2.72 3.48 3.01 0.99 -0.01 -0.65 1.67 1.31 -3.18 -4.45 -4.18 -3.64 -0.19 -2.60 -3.24 -3.23 -4.89 -6.10 -1.61 -1.73 4.80 2.49 1.84 -1.02 -3.31 -5.15 -5.96 -7.38 -9.52
6.12 8.11 3.37 -4.26 -3.25 -2.07 -2.62 0.46 0.21 1.94 7.36 7.37 8.65 7.22 5.27 5.68 7.75 10.12 9.94 9.41 6.90 3.42 0.61 -2.08 -4.91 -1.90 -3.94 -1.23 -2.44 -0.41 -3.18 -5.54 -3.69 -2.82 -3.99 -4.61 -2.86 -0.99 -5.52 -5.15 -4.43 -6.24 -8.24 -4.99 -4.57 -2.62 -2.85 -5.38 -3.33 -6.95 -8.14 -8.12 -8.57 -8.40
5.42 4.96 2.24 1.00 -1.36 -3.11 -1.72 -5.93 -5.55 0.57 -3.52 -1.86 -3.48 -3.69 -1.10 2.06 5.59 6.34 4.51 1.39 0.50 -1.17 0.16 -2.63 -4.79 -9.51 -4.00 -5.53 -4.44 -4.31 -4.07 -3.55 -10.23 -6.61 -4.30 -3.73 -4.97 -4.97 -4.79 -6.42 -8.24 -10.05 -9.51 -8.06 -8.24 -7.87 -7.36 -8.35 -10.15 -10.61 -9.59 -10.66 -12.62 -13.13
-0.33 -1.17 0.58 -0.48 0.80 1.90 3.72 -5.52 -9.14 -6.26 -8.96 -5.52 -7.51 -12.04 -8.38 -6.41 -7.69 0.44 2.39 1.83 1.32 -2.29 -8.60 -8.78 -3.16 -1.71 -7.15 -8.24 -11.86 -9.87 -11.69 -6.79 -5.52 -6.61 -6.42 -4.79 -2.62 -4.79 -5.89 -7.33 -11.32 -10.41 -9.51 -10.05 -10.96 -10.59 -11.14 -10.05 -9.97 -11.13 -11.63 -12.38 -13.67 -14.40
-7.08 -8.61 -6.42 -1.01 1.06 2.05 3.15 3.27 0.84 -1.99 -5.17 -5.52 -4.97 -6.97 -13.50 -7.73 -7.26 -2.50 -1.60 -8.60 -3.06 -2.14 -3.72 -4.07 -3.41 -5.34 -7.15 -10.59 -7.69 -8.06 -11.72 -8.60 -12.23 -4.79 -5.34 -5.34 -9.69 -7.33 -7.01 -8.42 -10.05 -10.41 -9.14 -8.79 -9.89 -11.19 -10.70 -11.31 -10.63 -11.89 -12.62 -15.21 -15.41 -15.47

GFSWCAN_sfc_wetblb_069.txt.gz
Wetbulb
45.44 45.62 45.87 46.17 46.30 45.94 45.93 46.07 46.33 46.56 46.31 46.29 46.87 47.20 47.25 47.02 47.90 45.85 44.76 50.18 47.50 41.92 42.90 45.36 45.37 42.76 43.38 42.85 39.99 43.71 43.65 44.40 45.12 40.57 39.45 39.85 40.08 39.71 38.73 41.00 41.22 40.63 39.53 39.73 41.90 39.42 36.60 50.28 47.54 44.55 50.37 53.44 53.26 53.37
45.32 45.76 46.09 46.00 45.52 45.27 45.24 45.29 45.96 46.24 46.22 46.45 46.68 46.98 47.25 47.15 47.69 46.79 43.36 49.82 50.52 45.20 43.65 49.10 49.34 49.49 48.91 47.64 46.04 44.94 45.15 45.68 46.26 42.93 44.23 43.95 42.69 43.04 40.59 35.99 44.64 38.09 44.87 42.61 44.17 44.28 51.75 51.29 51.35 52.62 53.64 53.19 54.03 54.07
45.30 45.22 45.71 46.04 45.83 46.07 46.58 46.23 45.46 45.81 45.89 46.56 46.59 47.20 47.15 47.76 47.34 46.77 46.47 48.85 47.73 43.12 43.14 45.21 44.99 49.46 52.28 51.76 52.14 45.94 47.22 49.69 48.44 50.59 47.03 45.72 41.31 44.56 39.23 40.72 42.27 45.49 47.62 44.73 45.66 48.32 50.40 51.55 52.63 53.31 53.87 53.20 54.41 54.14
45.27 45.22 45.28 45.89 45.82 45.15 45.28 45.19 45.39 45.77 46.32 46.38 46.73 47.34 47.23 47.20 46.63 47.11 46.31 48.57 46.51 42.63 37.00 40.52 48.89 46.95 51.00 50.77 50.87 51.01 50.90 51.90 52.56 50.77 47.94 45.61 43.74 48.04 44.49 44.20 43.58 45.74 47.06 45.04 45.22 47.60 49.05 51.42 51.79 53.56 53.78 54.05 53.16 53.57
44.83 45.13 44.94 45.71 45.68 45.59 45.73 45.84 46.01 46.03 46.28 46.79 47.07 46.84 46.94 46.24 46.58 47.55 48.04 47.83 48.55 43.08 38.95 39.36 46.04 48.25 49.75 49.21 48.94 48.44 50.23 51.36 49.72 47.83 46.40 43.72 46.21 45.72 48.24 47.05 44.95 47.74 46.78 44.95 43.77 49.17 49.96 50.23 52.29 52.91 53.93 53.98 53.62 52.21
44.73 45.06 45.39 45.61 45.54 45.63 45.37 45.46 45.65 45.54 46.03 46.53 46.90 46.71 45.85 46.12 46.43 44.43 38.14 46.54 48.92 48.18 41.75 36.53 45.54 45.20 48.22 48.47 47.49 47.92 49.31 50.47 49.55 47.36 46.98 47.13 48.05 46.84 45.08 41.87 46.28 47.53 49.71 50.87 48.99 50.44 50.56 50.76 48.72 49.55 50.34 53.14 53.85 52.71
44.67 44.80 45.27 45.58 45.66 45.87 45.75 45.76 45.92 46.10 46.16 46.65 46.31 45.46 45.68 45.73 45.24 41.44 40.66 45.24 47.09 48.69 42.06 36.09 38.20 43.89 46.49 45.44 45.56 47.95 48.34 49.34 49.64 48.05 47.21 47.72 47.88 48.22 46.07 41.69 46.02 48.87 50.38 51.78 50.93 48.81 48.23 49.75 48.77 47.69 48.05 49.49 48.25 50.61
44.17 44.69 44.55 44.80 45.00 45.10 45.27 45.33 45.12 45.17 45.16 44.67 44.84 45.35 45.61 46.02 46.27 43.99 46.50 46.79 47.92 44.50 43.48 35.31 34.56 36.75 45.47 38.59 42.53 49.14 46.64 47.47 47.21 46.44 48.81 46.87 48.52 48.41 42.14 46.38 47.90 49.45 50.87 49.75 49.58 49.07 48.99 48.47 47.59 46.46 46.66 46.06 46.06 46.04
43.61 43.91 44.37 44.48 44.25 44.38 44.41 44.03 44.34 44.45 44.56 44.59 44.72 44.90 44.77 44.09 41.31 43.36 45.32 45.39 48.86 44.63 36.78 34.53 33.83 31.82 43.58 44.15 45.13 44.60 46.97 41.29 48.19 44.48 45.39 46.79 44.38 41.29 43.96 46.21 47.58 49.85 49.63 49.64 48.11 47.29 47.14 46.43 45.84 45.12 45.11 44.90 44.24 43.18
43.28 43.46 43.72 43.96 43.67 43.69 43.68 43.58 43.59 43.79 44.08 44.44 45.00 41.06 37.59 43.23 44.68 44.39 40.54 40.10 41.46 42.18 41.75 34.36 38.60 33.77 38.05 39.03 40.06 41.84 44.92 41.11 37.33 41.91 47.61 43.32 42.94 47.56 48.56 49.87 50.97 50.37 49.89 48.09 45.89 44.67 44.47 44.25 44.26 44.05 44.50 44.68 43.77 42.99
43.59 43.44 43.56 43.70 43.93 43.96 43.92 43.38 43.21 43.53 43.95 43.42 40.02 38.13 44.10 45.14 45.32 39.68 35.01 35.77 37.13 33.85 38.27 38.91 37.52 33.61 39.01 36.70 36.64 40.47 38.02 40.30 36.44 38.91 40.04 38.67 40.48 43.14 45.77 46.98 48.29 48.72 48.42 47.34 47.32 46.93 46.35 45.86 43.93 42.25 41.22 40.94 40.19 37.95
43.89 43.82 43.72 43.70 43.83 44.11 43.87 43.45 43.74 44.54 43.51 42.88 44.05 44.75 43.86 39.64 34.89 32.93 32.52 34.48 33.06 32.61 38.81 37.22 34.82 33.66 37.48 45.60 41.27 40.71 37.40 38.96 34.44 38.66 34.44 33.52 34.11 37.53 40.03 42.11 44.37 44.95 44.83 43.96 43.07 40.82 41.49 40.00 38.07 36.00 33.14 30.61 29.84 29.59
43.72 43.97 44.01 43.74 43.66 43.74 43.53 43.42 43.79 43.27 44.93 47.12 42.19 37.07 36.18 33.88 29.91 30.27 28.23 32.82 33.17 38.21 39.12 36.91 33.51 38.51 42.22 43.28 38.65 38.12 35.53 34.44 39.31 33.70 32.60 33.17 34.97 36.28 36.12 35.00 34.98 37.61 37.90 36.39 34.15 32.70 31.67 30.88 30.97 30.07 29.08 30.06 29.96 29.17
43.30 43.48 43.68 43.94 43.97 43.75 43.43 43.50 43.62 44.03 39.75 40.07 35.59 30.82 32.45 31.72 34.11 34.34 35.37 37.24 36.74 39.42 41.50 41.03 38.51 39.58 41.12 38.30 37.89 33.36 35.50 37.79 34.08 32.36 31.67 33.81 33.66 33.38 34.05 33.85 31.03 29.78 29.87 29.51 29.41 29.89 29.65 29.89 29.85 30.57 31.25 31.48 30.65 29.40
43.90 43.87 43.52 43.37 43.71 43.52 43.46 43.33 43.30 43.51 41.23 34.84 34.80 28.30 28.82 32.22 32.65 32.80 35.17 35.82 35.82 41.52 42.64 40.78 40.46 40.15 35.53 35.53 36.62 35.53 32.81 30.71 30.45 29.95 31.13 32.55 33.64 32.51 30.59 30.14 29.43 29.05 29.30 29.86 31.01 30.76 30.50 30.66 30.06 29.85 30.29 30.07 28.96 28.12
43.97 43.28 42.33 43.56 43.60 43.66 43.93 43.95 45.90 45.68 39.01 33.40 30.00 29.75 30.71 31.38 28.80 29.31 30.72 31.86 33.20 35.78 43.96 40.09 36.04 33.72 32.81 34.89 33.99 30.23 31.93 27.59 28.03 30.48 32.52 31.69 29.97 30.22 30.33 30.34 30.41 30.73 30.50 30.14 30.54 30.08 29.56 28.79 27.94 27.37 27.85 27.24 27.37 26.81
44.14 41.58 43.15 43.45 43.58 43.26 43.06 45.31 42.31 35.44 32.80 30.82 28.32 30.11 29.61 29.71 25.92 26.69 28.30 28.23 31.57 35.88 32.81 35.82 32.09 28.04 35.09 30.55 27.02 28.57 25.63 28.91 30.99 31.14 32.15 31.24 30.15 30.22 30.90 31.15 30.91 30.99 30.50 30.04 29.86 29.36 28.70 28.84 28.66 26.90 24.29 24.71 24.55 24.30
42.57 44.27 43.56 43.70 44.96 43.41 41.85 41.08 36.47 32.53 27.46 28.56 26.00 27.34 27.77 26.98 25.40 23.59 26.13 28.98 31.66 31.36 31.89 27.70 31.67 27.20 25.44 25.02 24.29 27.73 29.30 29.86 30.97 30.95 31.26 31.55 31.53 31.85 31.31 30.08 30.29 29.83 29.28 29.25 28.94 28.76 28.22 27.57 26.28 25.34 25.62 25.70 25.33 25.17
43.93 44.39 42.38 42.52 43.08 39.76 35.44 34.88 35.23 25.74 26.20 27.70 27.94 27.85 26.91 25.95 26.33 25.75 27.02 28.95 28.66 29.46 29.47 26.66 21.44 19.78 20.82 23.12 24.51 27.57 30.40 29.00 26.59 27.52 28.84 29.92 30.40 29.78 29.67 29.29 28.91 28.50 27.85 27.24 26.72 26.43 26.83 26.81 26.64 26.95 26.75 26.15 24.21 24.99
41.62 41.34 41.31 41.56 42.45 37.40 33.52 33.14 35.62 29.36 25.83 26.23 27.76 24.51 23.95 23.41 25.05 25.53 25.18 25.59 25.26 22.89 19.30 18.30 17.41 18.96 20.25 23.03 26.06 29.48 29.61 29.86 28.10 25.56 25.65 26.87 28.47 27.92 27.40 27.07 26.55 26.65 26.33 25.94 25.59 25.32 24.52 23.09 23.69 23.56 23.61 23.28 22.10 20.67
40.83 39.94 40.92 42.38 40.15 37.68 34.70 33.90 32.07 31.28 30.35 27.92 28.33 27.42 25.86 26.33 22.64 21.29 21.29 22.90 20.41 19.09 16.81 19.86 20.82 21.82 23.96 25.17 27.25 27.68 27.93 29.32 27.64 26.03 23.90 22.93 25.59 25.64 25.40 25.70 25.73 25.02 23.89 22.94 21.90 21.06 21.26 20.70 21.03 21.36 21.27 20.22 20.21 20.58
36.99 38.97 39.02 41.32 37.31 36.48 35.16 35.97 34.02 34.34 32.66 30.65 29.89 28.82 25.39 22.03 21.10 20.49 21.63 17.75 15.89 18.59 19.72 19.40 20.61 21.60 20.51 21.06 22.38 23.85 23.97 23.76 23.74 23.74 24.12 23.62 21.71 21.55 21.67 22.51 22.11 21.00 20.64 20.36 19.36 18.19 18.15 19.08 19.59 19.73 19.86 19.23 17.82 16.53
37.77 39.41 37.14 36.53 33.46 33.94 30.39 37.53 32.14 32.37 29.48 28.39 29.03 24.74 23.74 23.19 22.79 25.41 18.11 18.58 18.22 21.48 22.94 21.27 20.55 22.38 21.34 21.43 21.09 21.43 22.05 20.85 19.44 19.18 19.25 18.99 19.49 20.03 20.11 20.20 20.59 18.46 16.83 17.13 18.32 17.10 15.63 15.44 16.02 16.92 17.00 17.37 17.23 16.50
36.05 31.03 29.09 28.66 30.33 27.00 32.71 28.36 30.79 29.17 28.74 25.86 23.50 20.72 20.66 22.32 25.16 20.20 14.80 16.13 18.15 21.15 20.33 21.60 22.84 19.96 18.99 18.25 17.74 18.39 19.38 19.89 18.53 18.70 18.85 17.16 15.75 15.76 17.09 16.89 17.21 17.32 17.21 17.21 16.63 15.94 15.46 14.72 14.41 14.60 14.34 13.83 13.32 13.17
25.83 22.25 26.49 23.49 27.31 26.42 24.82 24.32 24.29 25.61 21.39 23.16 20.45 19.91 20.60 25.24 18.66 15.93 13.95 15.99 16.79 17.04 19.05 19.11 19.47 18.79 16.34 15.85 15.65 15.83 18.17 18.29 16.81 15.93 17.96 18.09 16.61 15.83 14.67 14.57 14.55 16.11 18.00 16.22 14.18 13.81 13.55 13.68 13.26 12.35 11.23 9.95 10.40 10.50
18.75 20.91 21.01 22.02 22.44 21.94 22.16 20.08 20.43 20.52 21.34 19.07 18.94 21.73 23.65 20.13 14.95 12.58 14.31 16.36 16.22 16.78 18.19 18.45 17.01 14.49 13.14 14.60 13.37 13.49 15.20 17.91 16.47 12.89 14.07 17.36 18.11 17.74 15.85 14.05 12.14 11.35 15.28 15.91 15.28 13.20 11.93 11.52 10.54 10.19 10.75 9.97 6.89 8.87
18.50 19.98 21.89 24.05 23.69 23.61 22.19 22.05 22.19 19.82 16.58 15.69 18.08 17.01 17.85 12.07 10.76 13.09 17.03 17.78 16.52 17.49 18.62 19.02 17.54 15.33 13.58 12.92 13.42 13.77 14.13 14.21 13.38 12.19 13.52 13.38 13.24 14.02 14.49 11.91 9.17 10.55 13.28 12.93 12.79 12.57 11.40 10.52 9.70 9.60 9.49 10.21 9.11 7.79
21.34 20.87 14.64 17.53 16.87 19.07 14.93 15.51 14.63 13.51 14.59 16.46 18.46 11.07 9.87 10.86 11.07 15.98 16.71 18.22 18.14 17.68 16.72 16.50 16.61 16.24 15.63 15.81 15.76 15.16 14.33 14.09 13.50 13.85 13.68 13.23 13.05 12.73 11.37 10.54 10.07 9.16 10.39 11.41 12.00 10.93 10.75 9.90 9.54 8.50 7.36 7.46 6.24 7.59
20.29 21.87 17.79 8.97 13.83 13.91 12.13 12.51 12.75 13.23 14.04 16.49 14.72 11.27 9.90 12.51 17.59 16.58 16.93 18.47 19.79 18.57 16.05 14.55 14.30 15.83 14.97 14.79 15.28 15.89 16.65 16.94 13.71 10.31 9.97 10.26 10.36 9.14 11.67 11.61 11.01 11.15 12.48 11.86 9.18 9.65 8.17 7.67 6.21 6.65 5.41 7.35 8.15 8.83
18.46 23.02 15.01 10.93 9.58 10.05 11.53 13.96 12.72 15.56 16.47 15.54 14.64 12.67 12.28 13.12 14.72 19.90 19.17 18.81 17.49 15.70 15.53 15.49 16.44 16.51 14.58 13.54 11.51 10.86 12.33 12.71 13.32 13.67 11.40 9.35 8.49 10.05 10.62 10.12 10.14 9.68 10.93 10.85 9.81 10.08 5.23 8.84 8.29 8.95 7.14 7.02 6.46 5.29
24.05 21.98 16.36 14.69 11.91 13.45 15.24 16.89 17.13 16.24 16.24 15.42 16.89 14.21 11.87 12.95 14.41 15.14 15.21 16.25 15.65 15.18 14.52 12.85 13.09 14.65 13.48 13.00 13.31 11.32 8.67 9.47 7.66 8.81 10.61 10.47 10.60 10.19 8.87 8.50 9.25 10.05 9.94 8.81 7.98 7.66 6.52 7.64 7.76 5.37 4.07 2.66 1.31 1.99
20.90 18.44 15.01 11.37 12.54 15.86 17.86 18.27 17.71 15.86 16.54 15.54 13.44 14.54 13.74 14.40 11.12 13.51 14.50 17.02 15.42 14.00 10.59 14.48 13.16 10.79 11.15 10.95 10.35 8.85 8.20 9.60 8.86 8.74 9.03 9.83 9.82 8.53 8.99 8.89 8.57 9.23 7.83 7.30 7.16 6.47 4.06 3.41 4.78 3.85 3.72 2.89 1.44 0.34
19.89 19.30 18.10 16.24 13.87 13.23 16.30 17.05 15.43 13.56 15.90 14.56 13.58 14.53 13.65 14.11 9.37 12.74 13.93 15.12 16.04 15.46 14.35 13.91 13.56 11.83 9.21 9.15 9.92 8.96 9.27 9.00 4.99 6.22 4.96 4.42 2.87 4.43 8.12 9.90 8.86 7.68 5.07 5.80 6.26 5.39 2.86 2.69 3.00 2.29 1.95 0.84 0.33 -0.16

GFSWCAN_sfc_wetblb_075.txt.gz
Wetbulb
45.03 45.24 45.01 45.17 45.31 45.52 45.82 46.40 46.65 46.72 46.75 46.76 46.80 46.60 46.76 47.22 47.88 46.98 45.25 47.04 42.68 38.28 39.91 41.88 43.43 39.61 39.02 38.89 34.04 37.38 37.50 36.96 34.81 30.06 30.66 30.52 27.63 34.59 34.14 37.35 36.58 34.71 32.59 32.54 33.71 31.78 30.78 47.23 45.93 40.90 42.93 46.35 48.52 48.06
44.83 44.73 45.08 45.35 45.77 46.08 46.19 46.35 46.35 46.66 46.59 46.54 46.70 46.63 46.62 46.95 47.39 47.26 42.11 46.93 47.08 42.18 40.37 46.05 46.38 46.00 44.19 43.27 40.81 40.09 38.25 37.42 37.86 34.58 34.46 34.65 30.23 30.40 32.23 27.64 40.97 35.00 38.99 36.62 38.76 35.95 44.91 47.85 46.64 48.96 48.93 48.35 48.72 47.94
44.66 44.95 45.40 45.91 45.88 46.03 46.04 46.24 46.42 46.49 46.43 46.42 46.61 46.64 46.73 47.07 47.18 46.48 41.61 44.80 44.49 40.78 40.48 41.96 40.09 45.64 48.05 46.24 47.58 40.00 39.58 41.78 40.17 42.42 38.60 36.84 30.89 36.24 26.70 30.73 35.32 39.96 42.30 38.15 37.82 41.58 43.21 47.41 47.95 48.87 50.17 49.63 50.54 50.53
44.92 45.20 45.79 45.81 45.96 45.67 45.44 45.69 45.62 45.97 46.27 46.26 46.82 46.75 46.71 46.85 47.33 46.33 41.40 44.57 43.65 38.02 33.28 37.91 46.89 45.53 48.44 48.37 48.25 47.87 45.94 45.28 44.55 42.51 37.78 38.86 33.41 40.13 33.48 37.61 36.09 39.92 41.38 39.57 39.11 42.03 44.11 46.67 46.95 47.73 48.27 49.57 50.97 51.36
45.16 45.62 45.83 45.81 45.65 45.40 45.82 45.86 46.04 45.79 45.76 46.13 46.63 46.65 46.66 46.75 47.16 45.13 44.08 45.96 45.84 41.57 35.07 36.52 43.64 46.18 48.36 47.36 46.69 45.46 45.23 42.64 40.44 37.73 33.64 35.03 38.87 40.25 39.38 38.59 35.76 42.00 40.40 38.22 35.81 43.71 43.59 45.09 47.04 49.51 48.86 49.72 50.23 50.15
45.44 45.63 45.93 45.85 45.53 45.20 45.32 45.38 45.31 45.65 45.95 46.38 46.17 46.22 46.66 46.78 46.05 43.47 38.38 45.47 47.29 46.73 39.26 32.27 42.41 42.88 44.39 45.34 44.44 43.12 43.88 42.80 41.34 37.96 36.80 41.49 42.59 40.28 35.16 33.30 41.65 43.96 44.65 44.62 43.72 47.05 48.11 48.15 47.52 47.85 47.66 47.72 48.23 48.48
45.27 45.65 45.63 45.65 45.75 45.60 45.49 45.47 45.51 45.53 45.60 45.44 45.92 46.54 46.49 45.85 44.94 39.48 36.61 43.10 47.34 46.86 39.09 32.39 32.68 40.10 43.84 43.18 42.17 42.03 43.39 40.96 40.93 38.93 36.99 39.73 40.65 40.05 37.21 30.71 41.46 44.55 45.58 45.67 44.88 47.22 44.74 45.72 44.36 46.16 45.69 46.07 46.78 46.65
45.48 45.27 45.50 45.59 45.68 45.56 45.18 45.36 45.57 46.01 45.80 46.19 46.58 46.68 46.36 46.13 45.87 42.75 45.48 46.55 47.20 42.88 40.63 29.49 28.54 34.81 40.53 36.19 35.18 41.00 38.35 39.14 39.14 37.90 37.93 38.98 40.71 39.79 32.52 39.38 41.65 43.72 44.95 47.54 47.12 46.74 46.39 45.98 44.80 44.11 44.89 44.26 42.93 42.03
44.68 45.14 44.92 44.90 45.33 45.35 45.65 45.79 46.16 46.25 46.41 46.56 46.45 46.42 44.98 43.13 40.11 42.11 46.81 47.09 47.31 42.12 31.30 29.62 26.68 25.69 37.74 36.49 37.74 37.92 38.78 32.88 37.92 31.17 37.27 39.52 36.81 34.39 39.89 41.55 42.74 43.92 44.25 44.23 46.10 45.66 45.48 43.61 43.38 43.57 42.59 42.11 40.44 37.67
44.51 44.47 44.44 44.34 44.63 44.30 44.67 45.25 45.22 45.10 45.50 45.99 44.68 38.60 32.98 40.74 46.07 45.67 42.77 38.74 38.73 38.81 37.75 28.82 33.26 29.14 35.77 33.94 32.82 34.01 35.15 33.07 30.61 32.86 40.41 34.68 34.49 40.87 40.81 43.55 45.26 45.33 45.21 44.92 42.57 41.56 41.81 41.33 40.39 38.80 34.87 34.41 32.69 31.45
43.97 43.68 43.73 44.09 44.22 44.36 44.44 44.74 45.27 45.90 45.90 42.77 37.47 35.87 41.57 45.31 42.80 38.57 32.20 32.29 34.14 30.02 33.53 33.28 33.58 31.92 36.11 31.88 29.61 34.53 32.42 32.93 27.16 33.85 32.60 32.40 33.43 37.56 38.28 38.42 41.73 40.13 39.61 38.63 38.72 41.76 43.02 38.91 35.29 32.23 30.48 30.15 28.83 27.35
44.16 43.77 43.55 43.41 43.48 43.35 43.71 44.48 45.35 43.66 42.07 40.77 40.51 42.98 42.18 38.78 35.10 30.46 28.59 30.52 29.49 27.88 32.62 33.11 33.26 32.51 34.31 36.41 29.81 33.62 32.49 32.51 28.84 38.05 33.10 31.13 31.44 34.70 34.39 33.44 35.73 36.54 35.45 33.79 33.88 32.81 32.48 31.79 30.99 29.58 28.37 27.32 26.73 26.84
43.88 43.92 43.91 43.48 43.39 43.34 43.32 43.57 44.36 44.64 44.54 42.30 40.05 34.45 35.11 31.02 27.09 22.75 21.34 24.55 25.41 29.25 33.96 33.11 30.47 32.34 34.18 35.59 31.83 31.69 30.39 31.00 34.84 32.60 29.96 29.50 31.72 32.38 32.34 31.87 30.93 32.03 31.74 30.89 30.48 30.08 29.55 28.82 28.93 28.01 26.57 26.76 26.10 25.00
43.49 43.42 43.72 43.62 43.76 43.79 44.05 44.13 44.07 44.01 43.06 36.33 33.11 27.62 29.68 25.78 27.68 26.44 29.60 31.95 32.42 33.70 32.46 32.74 33.16 31.39 32.22 29.82 31.63 30.94 32.36 33.80 31.09 28.14 25.27 28.33 28.86 28.78 29.48 30.00 29.06 28.26 28.91 28.84 28.56 28.73 28.16 27.56 27.22 27.37 26.75 26.39 25.17 24.30
43.51 43.61 43.66 43.11 43.57 44.14 44.22 44.23 44.33 42.64 36.33 29.65 28.49 23.74 24.10 28.48 27.07 28.61 29.15 30.85 29.82 31.55 32.96 33.38 32.46 34.34 31.69 31.31 32.05 31.50 30.38 25.44 25.04 22.91 27.04 28.41 28.66 28.77 28.80 28.85 28.59 28.33 28.01 27.57 27.40 26.44 25.78 25.69 25.17 24.60 25.50 25.52 24.81 23.62
43.45 43.17 41.24 43.17 43.56 43.98 43.55 42.96 41.24 39.60 34.33 27.74 25.33 24.50 25.57 24.32 22.50 23.78 24.10 25.75 29.65 28.65 31.91 34.23 33.34 31.95 30.73 30.47 26.01 24.09 25.02 20.40 22.74 26.59 28.43 28.47 28.12 28.29 27.87 28.02 27.89 27.64 26.63 26.12 26.10 25.84 25.25 24.50 23.92 24.01 24.61 24.34 23.69 23.05
43.64 40.09 42.72 43.56 43.69 43.61 43.39 40.34 35.45 30.03 27.92 28.02 22.40 24.46 24.60 22.53 22.75 24.22 25.43 25.56 29.16 28.29 31.69 31.59 27.06 26.47 31.55 24.70 22.21 24.83 21.28 24.55 26.39 27.28 28.68 28.79 27.86 27.73 27.87 27.80 27.42 26.96 26.02 25.65 25.28 24.96 24.47 24.92 24.54 23.26 21.84 22.89 23.15 22.55
41.16 41.93 42.89 43.30 43.54 42.88 39.20 38.08 30.33 27.78 22.38 23.64 21.69 23.64 23.79 22.94 22.04 22.10 24.40 26.54 27.23 29.30 29.13 26.08 28.58 21.47 18.10 19.83 18.57 24.55 25.16 26.22 27.47 27.50 27.50 28.08 28.23 28.25 28.26 26.78 26.80 26.45 25.59 25.60 25.38 25.24 24.70 23.57 22.57 22.10 22.99 22.84 21.87 21.09
40.48 40.83 42.38 42.73 42.20 37.88 31.73 31.44 32.18 22.43 22.89 23.19 22.34 23.84 24.96 23.82 24.02 23.19 23.54 25.68 27.65 26.04 25.42 22.25 16.05 15.36 16.43 20.15 20.13 23.45 25.06 24.47 22.97 23.77 24.86 25.82 25.92 25.34 25.19 25.29 24.86 24.29 24.19 24.00 23.45 22.80 23.44 23.66 23.00 22.93 23.03 22.32 19.97 19.91
42.69 42.19 41.87 42.40 42.75 34.95 31.07 31.20 34.27 27.28 23.60 23.21 24.99 21.23 21.27 20.83 21.38 19.72 19.85 21.39 22.76 20.81 17.57 15.59 14.80 16.34 17.49 20.03 22.40 26.72 26.44 26.22 24.32 21.89 21.91 23.60 24.85 24.52 24.14 24.13 23.37 23.53 22.51 22.23 21.78 21.15 20.03 19.21 19.71 19.32 18.41 17.23 17.02 17.19
41.02 40.34 41.28 42.13 38.27 35.98 32.98 31.81 29.65 29.20 28.68 26.18 27.50 25.70 23.42 22.24 17.13 15.74 16.20 20.52 16.11 16.25 14.38 17.31 16.85 19.47 21.13 21.24 24.18 25.03 24.82 24.50 23.00 22.24 20.86 19.67 22.15 22.39 21.88 21.94 21.92 20.90 19.57 19.01 18.15 17.44 16.88 15.55 15.85 15.13 14.65 14.95 14.31 14.70
36.98 39.18 36.54 38.92 34.09 33.67 32.79 33.82 31.49 31.92 29.30 27.24 26.84 26.58 22.07 19.30 17.99 16.37 19.07 14.90 14.80 15.41 17.50 17.24 17.92 18.43 18.09 18.20 19.17 20.97 21.41 21.16 21.25 20.90 21.21 20.77 18.09 17.86 17.73 18.35 17.40 15.62 15.66 15.55 15.57 14.94 15.90 17.47 15.94 13.65 11.78 11.65 12.05 12.19
38.88 37.67 32.78 32.96 27.59 27.53 26.44 34.04 28.94 30.09 26.32 26.22 26.87 23.00 22.10 20.45 21.05 22.39 13.90 16.48 16.70 19.98 19.07 17.75 17.89 19.54 18.75 19.23 19.27 19.27 19.69 18.50 16.96 16.85 17.02 16.86 17.19 17.79 17.34 17.16 16.88 14.75 13.44 13.95 15.33 14.44 13.43 13.27 13.08 13.43 13.83 12.07 9.41 5.60
35.32 27.82 24.79 24.92 27.20 24.27 25.11 21.40 28.53 26.12 24.38 21.71 19.91 17.28 19.34 21.44 21.98 16.18 11.19 13.82 17.13 19.17 19.22 18.87 18.57 16.30 16.37 15.91 15.69 16.52 17.32 17.93 16.36 16.44 17.27 16.13 14.72 15.23 15.89 15.11 15.55 15.67 15.49 15.19 14.15 12.73 11.31 9.21 8.48 9.07 5.76 3.94 2.14 2.11
18.36 16.64 20.20 15.69 22.74 24.22 22.88 20.76 19.31 19.63 12.73 16.86 15.15 14.83 17.63 21.81 12.76 11.08 10.05 13.13 15.37 15.66 15.39 15.97 16.41 15.72 13.41 13.39 14.02 14.37 16.24 17.71 15.87 14.04 15.64 15.52 13.95 13.53 12.56 12.60 13.18 15.13 15.64 12.25 10.18 8.81 7.81 6.33 4.13 3.76 3.44 0.07 2.88 -1.11
14.09 17.87 17.09 20.53 20.77 19.08 19.55 17.54 17.67 17.17 17.93 14.83 16.96 20.65 16.97 10.21 4.96 6.19 11.65 11.69 12.90 14.97 14.31 13.32 12.13 10.83 10.32 11.93 10.32 10.82 13.33 15.74 14.40 10.50 10.75 11.88 15.39 12.94 10.52 8.94 8.20 9.37 13.40 12.67 9.13 6.01 5.30 5.46 5.68 1.23 -1.71 0.09 -2.78 -4.06
12.17 13.55 19.56 23.63 22.09 22.67 16.16 17.09 17.93 11.43 7.56 10.65 14.32 8.10 8.87 0.98 2.16 10.52 14.76 15.92 14.61 15.89 16.99 16.89 15.25 12.76 11.30 11.23 12.02 12.44 12.82 13.04 11.54 10.66 11.46 10.99 10.45 10.84 10.22 7.37 6.33 9.31 11.02 9.08 8.05 4.69 2.14 0.25 -0.50 -0.43 -3.68 -8.92 -9.82 -9.40
16.53 16.76 10.35 13.72 11.46 16.01 7.29 8.24 6.47 6.34 7.80 13.05 12.48 3.26 -0.58 2.52 4.83 12.97 13.73 16.24 15.83 16.25 15.89 16.34 17.07 16.66 15.57 14.31 13.58 12.50 12.26 12.54 12.54 12.03 11.76 11.40 11.02 8.92 6.52 6.59 7.28 9.85 4.34 3.85 1.62 0.94 0.12 -3.20 -6.34 -8.26 -8.10 -9.38 -9.56 -10.35
15.42 15.99 12.00 2.83 6.84 8.04 9.61 6.83 7.46 11.88 13.57 13.31 7.64 4.26 4.62 13.64 13.31 13.17 14.97 16.57 17.59 16.22 13.39 12.51 13.01 14.00 13.25 12.30 11.63 11.72 11.02 11.58 10.25 7.55 4.42 2.76 -0.23 4.70 3.93 1.39 2.42 6.47 1.94 -1.51 6.30 -0.82 -2.51 -6.98 -7.88 -8.19 -7.90 -6.86 -6.44 -3.81
13.54 17.93 7.81 3.33 1.14 3.38 7.72 13.70 8.30 7.12 11.97 10.15 11.42 11.40 10.14 9.35 14.78 18.04 18.79 17.07 14.84 13.95 14.52 15.58 15.70 12.07 9.73 7.54 5.22 4.77 6.32 6.92 7.56 5.37 2.19 -1.08 -0.38 0.34 -2.04 -1.33 -3.31 -3.73 -3.36 -4.19 -2.41 -2.56 1.92 -3.29 1.21 -4.38 -8.30 -8.65 -11.28 -13.39
20.13 15.38 9.17 8.13 6.16 6.75 7.39 8.62 11.59 14.53 12.73 11.49 6.73 3.72 3.44 3.51 5.72 10.58 14.51 12.83 12.83 11.91 10.96 10.97 9.35 10.40 8.43 6.99 5.26 1.15 -2.00 1.60 0.93 3.69 4.73 2.45 -0.28 -5.81 -5.97 -6.23 -5.74 -2.60 -5.93 -6.88 -6.99 -10.21 -10.63 -7.92 -5.33 -7.05 -6.82 -11.25 -12.75 -14.19
15.22 9.18 5.37 2.46 5.89 9.71 13.89 15.83 11.78 10.26 9.62 4.43 1.65 3.43 5.69 7.47 3.44 7.52 9.26 12.66 13.68 9.05 11.72 9.47 7.63 5.61 5.13 3.42 0.93 4.70 1.28 -0.79 1.26 -0.72 1.79 -2.38 -5.97 -5.61 -5.16 -4.16 -4.80 -6.73 -8.08 -7.00 -8.23 -8.53 -9.14 -10.43 -11.58 -11.37 -12.02 -12.54 -13.33 -14.62
12.90 11.91 8.96 7.39 5.38 8.54 8.20 12.61 8.95 6.34 9.81 7.53 6.74 5.75 3.20 4.60 -0.01 3.80 9.06 12.41 13.84 11.03 8.82 6.26 0.65 -1.38 -0.73 -1.67 -2.29 -0.05 -3.99 -7.06 -4.34 2.73 -1.08 -2.53 -6.51 -5.43 -2.41 -3.75 -5.47 -6.79 -8.38 -9.02 -8.43 -8.21 -8.20 -8.86 -12.75 -13.20 -13.58 -14.52 -15.04 -16.49

GFSWCAN_sfc_wetblb_078.txt.gz
Wetbulb
45.04 45.11 44.95 44.85 44.87 45.04 45.34 45.70 45.86 46.23 46.42 46.58 46.49 46.37 46.57 47.01 47.60 45.93 44.16 47.19 42.08 37.63 38.35 40.08 41.98 38.21 37.44 36.96 31.66 35.36 34.49 35.13 32.72 27.97 28.31 27.04 24.61 31.81 33.30 35.92 34.89 33.45 31.76 31.85 32.77 30.08 28.86 44.68 45.08 39.43 42.12 44.27 46.85 47.47
44.70 44.58 44.42 44.41 44.67 45.07 45.44 45.72 46.02 46.33 46.30 46.26 46.58 46.63 46.56 46.78 47.10 47.05 41.27 47.30 46.55 40.54 39.68 43.31 43.62 44.99 43.53 42.72 38.26 37.38 35.64 36.10 36.23 31.83 30.05 30.31 27.16 28.41 32.12 28.00 38.21 31.85 38.06 34.90 35.10 34.54 44.00 45.08 45.74 47.61 46.79 46.47 47.66 48.30
44.50 44.45 44.48 44.80 45.08 45.55 45.91 46.00 46.16 46.18 46.33 46.51 46.64 46.95 46.84 46.87 47.01 46.30 43.20 44.52 44.02 39.99 39.99 40.29 39.91 44.36 46.98 45.45 45.26 36.88 37.35 41.19 38.81 39.53 35.58 33.97 29.21 33.73 27.23 30.74 34.30 39.55 42.25 38.31 38.16 41.82 43.37 44.44 45.33 47.42 47.28 47.47 48.68 49.08
44.30 44.53 45.09 45.46 45.95 46.01 45.98 46.05 45.87 45.88 46.16 46.30 46.51 46.58 46.74 46.77 47.10 46.65 42.14 44.63 43.53 37.48 33.48 37.05 45.60 42.83 47.26 46.89 46.32 44.67 42.53 44.00 44.56 40.34 36.72 32.38 28.82 37.75 31.46 35.20 35.00 37.68 40.76 38.65 37.21 40.60 42.09 43.52 44.61 45.83 47.61 48.83 50.34 50.14
44.94 45.27 45.43 45.79 45.75 45.50 45.59 45.69 45.80 45.71 45.67 46.32 46.72 46.67 46.60 47.15 46.86 45.45 43.71 44.69 44.58 40.27 33.66 34.15 42.51 45.32 46.12 46.86 46.14 44.91 44.19 42.78 40.52 37.18 34.60 32.99 36.17 36.72 36.23 36.03 34.54 40.56 38.59 34.69 33.68 41.63 41.39 42.57 45.23 47.35 47.25 47.83 49.06 49.26
44.93 45.39 45.81 45.66 45.42 45.36 45.10 45.37 45.76 46.08 45.59 46.00 46.53 46.48 46.67 46.88 46.42 42.64 37.64 43.49 45.83 46.39 39.35 32.21 39.82 42.70 45.03 45.51 44.60 42.60 42.78 43.71 42.37 37.46 35.23 39.01 41.83 37.63 31.55 32.93 38.28 41.37 41.85 42.77 42.16 44.48 44.23 45.55 46.38 47.55 46.45 46.37 46.74 46.94
45.44 45.44 45.74 45.54 45.32 45.66 45.39 45.35 45.40 45.69 45.63 45.95 46.48 46.35 46.39 46.58 43.90 39.04 36.63 40.61 45.30 45.81 39.04 33.12 34.13 40.27 44.48 44.03 43.06 41.69 42.15 41.88 41.52 39.19 35.91 36.99 37.71 37.94 32.36 31.70 38.94 41.83 42.15 43.72 44.31 45.77 43.47 44.83 44.46 45.03 44.95 44.42 43.20 41.69
45.22 45.40 45.45 45.40 45.37 45.35 45.28 45.04 45.37 45.60 45.39 46.10 46.28 46.14 45.62 45.35 45.02 41.33 44.44 45.76 45.63 43.37 40.06 32.04 32.68 36.53 40.81 36.92 37.07 40.59 37.62 37.74 38.13 36.37 35.56 34.86 37.22 35.51 32.54 37.13 40.31 42.66 43.31 42.79 45.78 45.50 45.26 44.25 43.95 43.17 42.56 41.12 35.77 33.58
44.78 44.98 45.09 45.25 45.26 45.48 45.24 45.05 45.37 45.42 45.63 45.54 45.66 45.75 44.01 41.58 39.79 42.19 46.14 46.97 47.30 41.76 32.04 26.16 26.66 30.07 38.33 36.29 35.96 35.89 36.44 32.90 35.30 28.02 33.24 34.69 32.62 30.59 36.91 39.65 40.26 41.86 41.41 42.53 44.10 43.77 43.48 42.51 41.95 41.27 38.82 35.46 32.43 29.92
43.72 43.81 44.23 44.73 45.42 45.53 45.66 45.72 45.46 45.44 45.54 45.40 43.02 38.19 32.15 38.79 46.24 45.34 41.14 37.09 38.21 37.09 34.71 25.72 30.12 31.34 34.75 31.82 31.67 32.09 29.94 26.88 29.83 32.73 37.06 28.80 29.48 39.76 39.77 38.82 39.26 38.54 37.99 43.04 40.34 38.86 39.93 38.23 35.44 33.62 32.39 31.86 30.04 28.32
43.80 43.75 43.74 44.40 44.94 45.12 44.93 44.90 45.40 45.87 45.37 40.23 36.41 32.33 41.78 45.70 42.01 37.45 32.13 31.37 33.51 30.23 32.39 31.43 31.20 30.33 34.53 29.85 29.02 30.03 32.17 32.82 27.47 28.93 30.18 30.23 30.04 36.29 37.87 37.34 37.10 37.29 35.74 36.42 39.25 39.32 38.62 35.74 31.72 29.77 27.66 27.40 27.08 26.29
44.12 43.87 44.05 44.28 44.67 45.02 45.06 45.15 45.50 42.94 39.60 38.94 39.37 42.12 40.75 37.98 33.27 28.75 25.74 29.10 28.45 27.56 30.29 29.64 33.39 32.92 32.39 34.06 26.94 29.04 32.20 31.74 25.05 32.70 29.48 27.70 30.46 33.82 33.08 32.08 33.57 34.32 33.79 33.37 34.03 33.05 32.38 31.58 30.01 27.93 26.67 25.80 25.38 24.66
43.50 43.89 43.85 44.12 44.39 44.70 44.67 44.70 44.70 44.62 44.46 42.34 37.84 33.36 33.04 30.08 22.99 18.64 19.78 25.90 27.34 29.57 32.99 31.94 31.10 31.60 33.48 34.90 30.52 30.13 30.08 28.03 34.85 30.60 29.11 27.40 30.13 30.95 31.59 30.93 30.50 31.53 30.90 30.01 29.00 29.18 28.78 27.82 27.65 26.42 24.96 25.19 24.80 23.90
43.37 43.56 43.60 43.80 43.93 43.99 44.04 44.26 44.77 43.68 39.87 34.16 27.76 19.89 20.48 20.65 24.22 23.94 26.91 29.96 29.93 31.73 30.73 28.75 31.18 31.62 32.11 30.01 30.38 29.01 32.33 32.87 29.72 26.34 22.91 26.20 27.21 28.33 29.48 29.83 28.82 28.10 28.26 27.49 26.95 26.69 25.85 25.15 24.59 25.14 24.97 25.01 24.01 23.08
43.52 43.26 43.27 43.11 43.89 44.20 44.01 43.72 43.26 39.53 33.70 27.00 26.95 19.39 22.34 25.22 25.28 26.06 27.35 28.55 28.23 30.03 31.71 29.19 32.83 33.57 30.96 30.26 30.99 30.76 28.95 22.91 22.16 19.55 24.83 26.56 28.23 28.31 27.72 27.74 26.89 26.22 25.47 25.09 25.16 24.51 24.15 24.13 23.75 23.24 24.32 24.63 24.01 22.99
43.86 42.18 41.40 43.21 43.72 44.20 43.29 42.10 38.79 37.79 32.19 26.34 23.09 20.56 22.43 22.90 21.03 23.01 23.23 23.63 28.05 27.98 30.94 32.13 32.68 31.18 29.69 26.99 24.40 21.97 22.17 17.06 19.22 24.37 26.47 27.23 25.93 25.66 25.26 25.32 25.28 25.26 24.78 24.47 24.47 24.23 23.90 22.95 22.21 22.12 22.72 22.48 21.78 21.47
42.15 37.17 42.57 43.04 43.54 43.00 41.91 37.29 33.02 28.33 27.01 24.41 19.87 22.51 19.49 21.48 20.48 21.73 22.79 23.54 27.51 27.79 29.74 30.58 23.42 22.65 28.08 22.26 20.37 22.81 19.16 22.44 25.34 26.00 27.00 26.62 25.31 25.00 25.30 25.03 24.69 24.49 23.95 23.77 23.91 24.01 23.72 24.41 24.01 22.23 20.29 21.56 21.74 21.31
37.91 38.73 42.81 43.56 42.64 39.87 36.19 33.17 27.64 25.31 20.88 22.01 19.09 20.16 19.40 17.45 18.83 20.28 21.37 24.22 25.03 27.63 26.99 23.38 24.68 17.84 13.86 15.95 15.09 22.03 22.68 23.59 25.16 25.74 25.92 25.92 25.70 25.54 25.65 24.47 24.69 24.58 23.90 23.94 24.15 24.22 24.09 22.86 21.44 20.43 20.90 20.78 20.04 19.29
39.55 40.29 42.41 42.89 40.28 34.54 29.22 28.72 27.85 20.06 20.74 21.37 20.12 19.93 20.88 18.58 19.89 20.94 20.97 23.32 25.50 25.08 24.14 20.26 13.49 12.67 13.61 17.61 17.54 21.54 22.78 22.54 20.99 22.22 22.94 23.90 24.17 23.63 23.27 23.32 22.89 22.54 22.48 22.71 22.27 21.41 21.86 23.12 22.44 21.68 20.49 19.37 16.85 16.81
42.15 41.02 41.41 42.11 41.07 32.07 28.66 26.75 29.74 23.81 20.21 21.60 21.72 18.15 17.54 15.59 16.94 15.56 18.99 19.70 20.90 19.08 13.66 11.92 12.07 14.59 15.52 17.34 19.55 23.32 24.56 24.76 22.48 19.85 19.61 21.11 22.59 22.49 22.02 21.84 21.07 21.46 20.70 20.53 20.23 20.04 18.89 17.69 18.24 18.76 18.84 17.02 14.45 13.36
38.46 38.06 41.06 40.47 36.76 35.67 32.11 29.76 25.82 25.98 26.79 23.49 24.40 23.41 19.10 19.29 15.86 15.17 15.02 18.75 14.12 13.30 11.94 15.05 15.13 16.81 19.17 20.06 23.10 22.86 22.17 22.89 21.15 20.36 18.90 17.22 19.52 19.98 19.26 19.69 19.95 19.67 18.15 17.00 15.71 15.33 14.98 13.74 15.10 15.54 14.48 13.48 12.73 11.83
35.93 40.10 35.76 36.98 32.19 33.19 32.26 32.95 29.67 31.11 26.81 25.86 24.97 24.05 17.74 14.68 10.30 13.32 17.65 13.23 12.40 13.36 15.78 15.56 16.41 16.86 16.63 16.46 17.99 19.59 20.23 20.31 20.26 19.57 19.49 18.93 16.23 15.85 15.71 16.49 16.02 14.67 14.95 15.42 15.61 14.00 13.41 13.91 13.91 13.33 11.88 10.94 10.80 9.12
36.21 34.15 29.61 29.59 25.88 26.33 25.70 33.52 28.01 29.02 24.75 24.81 25.14 21.28 18.94 16.47 17.95 20.37 12.22 15.20 15.94 17.90 17.66 16.98 16.68 17.96 17.20 17.85 18.08 17.91 18.91 17.80 16.00 15.89 15.90 15.91 16.27 16.50 15.88 15.71 15.69 13.91 12.80 13.64 14.89 13.72 13.07 13.48 12.31 10.47 9.74 8.78 7.16 4.36
31.62 23.85 20.26 19.54 24.66 18.73 21.91 21.03 26.46 24.05 22.04 20.88 19.43 16.32 18.93 17.14 19.45 13.21 9.70 12.84 14.84 16.72 16.72 16.55 16.58 15.26 15.33 14.46 13.38 14.98 16.34 17.04 15.60 15.49 16.68 15.20 13.61 13.92 15.20 14.51 14.84 14.67 14.24 13.47 11.80 10.34 9.32 7.65 8.61 7.83 5.87 3.36 1.90 -0.16
15.59 14.00 15.44 11.02 16.91 18.07 13.37 10.80 12.82 14.66 9.04 12.70 12.16 13.67 19.39 19.39 10.92 9.10 7.70 10.87 13.31 12.57 13.00 13.70 13.34 13.62 11.52 11.87 12.87 13.02 15.06 15.02 13.44 12.54 14.53 14.68 13.15 12.77 11.90 12.16 12.95 13.63 13.90 10.05 7.77 6.32 5.03 4.36 4.15 2.63 2.50 1.40 0.70 -4.64
10.09 14.08 12.54 13.42 13.56 12.18 14.30 10.02 10.77 8.52 9.65 10.67 10.60 17.32 10.19 4.17 0.19 3.40 9.38 10.93 11.55 13.07 11.92 11.68 10.70 9.87 9.31 11.12 10.26 10.77 12.00 15.17 13.53 9.79 10.09 14.69 13.76 11.57 9.82 8.62 8.52 8.86 11.74 9.53 7.68 4.72 3.11 1.52 1.62 0.37 -2.66 -3.80 -4.88 -6.64
6.53 4.69 14.92 20.16 18.48 17.47 8.07 7.65 11.08 4.37 1.32 3.16 6.30 0.43 -0.06 -5.01 -2.27 7.49 13.46 14.04 13.08 14.50 15.25 15.02 13.64 11.70 10.35 10.31 11.70 12.15 12.11 11.85 10.42 9.47 10.78 10.35 9.96 10.44 9.23 6.76 5.37 7.13 8.68 6.50 4.33 4.15 2.46 -0.95 -4.47 -5.67 -10.60 -16.59 -16.41 -12.08
10.58 11.53 2.22 4.50 5.50 10.18 -1.92 -0.67 -0.11 -0.09 1.18 10.73 5.88 -4.29 -6.43 -4.80 0.81 9.18 11.17 14.12 13.91 15.52 15.13 15.34 15.30 14.62 13.36 12.68 12.66 11.71 11.42 11.28 10.90 10.50 10.07 9.75 9.26 7.39 5.52 4.29 5.77 7.96 2.12 0.86 -1.03 -3.03 -3.70 -3.95 -6.10 -12.07 -13.51 -12.42 -13.51 -18.94
8.39 9.74 7.84 -2.19 -0.11 2.01 6.86 -1.36 0.09 6.31 9.74 8.31 -3.72 -3.35 1.53 11.21 7.61 8.72 12.76 14.29 14.88 13.99 11.70 10.85 11.31 11.93 10.61 8.96 8.27 8.49 8.66 9.70 7.56 1.57 0.53 -0.28 -1.91 1.44 -0.90 3.17 2.43 -0.50 -5.20 -2.80 3.35 -2.90 -3.09 -7.00 -8.39 -9.92 -12.42 -9.55 -10.24 -11.17
5.72 8.53 0.53 -5.71 -3.75 -0.63 2.05 3.94 2.94 -0.78 8.19 5.94 9.95 9.67 8.44 7.97 12.24 17.30 15.84 14.24 10.75 8.97 10.56 10.91 10.22 7.14 4.23 2.14 1.39 3.55 5.22 4.01 3.32 2.37 -1.90 -3.77 -1.97 -1.04 -3.90 -5.53 -5.17 -6.25 -9.88 -11.52 -10.27 -8.17 1.52 -6.80 -4.08 -11.93 -13.75 -15.82 -17.23 -18.76
11.63 5.09 0.98 -0.02 -0.63 2.47 4.78 -2.45 3.97 4.61 0.20 -1.61 -5.57 -4.31 -1.58 2.74 7.44 10.64 10.98 11.05 11.06 11.28 10.12 8.04 6.47 6.88 5.25 1.32 -1.37 -1.53 -0.64 1.73 0.39 2.22 2.39 -2.22 -7.52 -10.42 -11.33 -10.24 -11.51 -14.06 -14.41 -13.75 -15.04 -16.24 -15.68 -13.51 -12.60 -12.05 -15.88 -17.86 -18.76 -18.76
1.68 -4.85 -1.65 -3.53 1.50 3.20 7.56 6.62 2.97 -2.27 -5.17 -6.08 -4.62 -8.43 -1.36 -1.56 -2.63 3.57 8.55 8.55 10.10 8.96 7.06 5.04 3.88 2.22 1.40 -0.38 -0.23 -0.75 -0.95 -3.90 -3.35 -5.54 -6.63 -6.98 -11.15 -12.96 -11.69 -11.15 -14.97 -15.18 -13.69 -14.05 -16.59 -15.88 -16.12 -17.68 -18.94 -19.13 -19.31 -18.76 -20.03 -20.76
0.61 -1.69 -6.07 -2.65 -0.47 0.08 1.60 5.45 0.21 2.90 0.54 -1.19 -1.04 -2.28 -3.90 -1.34 -4.64 1.69 6.25 9.54 6.01 6.55 5.22 0.39 1.02 -2.34 -4.11 -5.72 -6.80 -11.33 -10.42 -12.96 -10.60 -0.09 -5.53 -6.98 -8.79 -6.98 -13.22 -15.15 -16.59 -16.77 -13.18 -15.50 -14.59 -16.22 -14.60 -14.78 -18.58 -18.40 -20.21 -20.21 -20.76 -22.57

GFSWCAN_sfc_wetblb_081.txt.gz
Wetbulb
45.08 45.02 45.24 45.12 45.08 44.99 45.15 45.19 45.40 45.62 45.94 45.97 45.99 46.10 46.43 46.83 47.46 46.14 42.91 45.88 41.87 37.10 38.83 39.39 40.10 37.02 37.08 36.46 31.38 35.14 33.99 32.76 31.67 26.99 27.74 27.27 22.71 28.32 29.01 32.94 32.17 30.93 30.08 29.89 32.36 30.01 26.98 42.55 43.69 37.85 41.16 44.87 44.95 46.59
44.87 44.71 44.80 44.64 44.81 44.81 44.94 44.84 44.96 45.21 45.42 45.76 46.03 46.15 46.36 46.57 46.92 47.13 41.75 46.16 45.79 39.50 39.57 43.08 42.36 43.71 42.88 42.15 38.25 37.93 34.69 34.80 34.24 30.11 28.76 28.45 24.71 24.47 29.29 25.34 36.45 31.26 34.73 32.91 35.31 33.97 41.71 43.55 43.78 46.95 46.92 45.18 46.30 46.93
44.60 44.57 44.35 44.38 44.36 44.59 44.85 44.99 45.30 45.48 45.71 45.96 46.22 46.47 46.45 46.69 46.90 45.97 42.90 44.18 44.15 39.03 38.88 39.16 37.96 42.66 45.69 45.15 45.02 37.01 36.49 39.71 39.24 38.43 33.26 32.24 27.32 30.35 23.96 28.68 33.03 36.14 40.89 36.63 36.95 40.08 41.42 44.02 45.32 45.42 47.60 46.88 47.73 48.63
44.22 44.18 44.26 44.70 44.99 45.22 45.51 45.74 45.86 46.00 45.79 45.99 46.18 46.40 46.47 46.71 47.01 46.50 42.04 44.42 42.62 38.91 32.84 36.56 43.23 41.23 45.76 45.83 45.10 44.98 43.07 44.19 42.30 41.56 36.74 31.25 28.52 35.20 28.76 32.24 32.57 36.76 40.28 38.58 37.50 40.32 41.94 42.83 43.47 45.41 46.37 48.03 48.28 49.71
44.51 44.86 44.88 44.92 45.32 45.82 45.99 45.80 45.57 45.85 46.11 46.40 46.31 46.63 46.84 46.77 46.82 46.04 44.05 44.46 43.73 39.50 33.27 34.51 39.77 43.21 44.84 45.46 44.20 44.43 43.96 41.75 39.21 35.93 32.98 32.57 34.68 34.99 33.81 34.37 32.09 38.60 37.72 35.24 34.17 41.39 40.17 41.18 43.65 45.26 44.81 46.36 47.97 47.84
45.12 45.51 45.37 45.77 45.70 45.53 45.39 45.39 45.30 45.46 45.70 45.97 46.34 46.66 46.68 46.79 46.48 43.85 37.61 43.42 44.90 44.05 38.92 32.45 39.14 40.09 42.94 43.82 42.81 43.09 43.31 42.62 40.46 37.96 33.01 38.39 41.53 36.96 26.02 29.64 36.72 39.05 40.41 40.35 38.51 42.01 42.16 43.38 44.77 45.38 45.25 45.18 44.65 44.60
45.21 45.49 45.63 45.63 45.26 45.33 45.29 45.25 45.32 45.86 45.93 45.95 45.96 46.29 46.66 46.47 45.05 38.23 35.23 40.48 45.22 45.37 37.61 32.63 30.96 38.87 42.65 41.96 41.59 41.41 42.36 41.66 40.44 38.00 34.57 35.76 38.15 39.01 28.79 28.09 37.27 40.50 40.73 41.17 42.24 40.92 41.46 43.62 42.92 44.48 43.27 40.16 38.99 40.09
45.02 45.55 45.42 45.24 45.27 45.20 45.05 45.18 45.61 46.02 45.90 45.96 46.15 46.45 46.22 46.15 44.51 41.39 42.16 45.62 45.22 41.96 38.23 31.35 32.86 35.15 40.96 37.85 36.92 40.82 38.82 38.83 39.67 37.81 36.14 34.34 37.62 34.78 28.96 34.43 37.41 40.56 42.16 42.32 41.27 41.66 42.43 43.42 42.45 40.77 39.28 37.34 33.04 30.35
44.80 44.98 45.06 45.19 45.17 44.78 44.46 45.11 45.42 45.69 46.08 46.38 46.38 45.66 43.84 42.05 39.50 42.22 45.41 45.42 46.23 40.59 32.77 28.34 30.46 29.50 39.21 37.15 38.39 37.76 38.33 32.47 36.48 31.50 33.18 35.02 30.98 29.99 33.93 35.98 38.88 40.00 39.94 39.25 38.67 40.78 41.88 40.61 38.91 36.99 35.70 33.17 29.74 27.18
44.73 44.96 45.10 44.89 45.13 44.85 44.86 44.65 44.93 45.14 45.35 44.61 42.40 37.62 32.12 40.55 45.69 45.02 40.06 36.92 37.79 38.30 35.67 30.72 32.31 31.70 36.58 33.70 32.45 33.45 32.48 31.01 29.77 32.68 34.96 27.43 29.04 35.66 38.02 39.65 38.91 37.80 36.36 36.92 37.75 37.21 37.42 36.21 35.22 33.07 31.06 29.95 28.11 26.33
44.79 44.89 45.05 44.83 44.69 44.89 44.96 44.52 44.91 45.15 44.01 40.43 35.33 34.25 42.16 45.08 39.93 37.45 31.11 31.67 32.96 29.87 32.04 29.45 31.87 31.37 33.85 30.16 32.00 30.85 31.24 30.57 26.66 27.37 29.60 28.03 28.65 33.63 37.02 36.30 36.33 35.75 35.66 35.06 35.31 36.38 35.24 33.52 29.24 27.67 26.79 27.11 26.61 25.98
44.85 44.99 45.00 44.90 44.87 44.98 44.86 44.84 44.73 41.84 38.96 39.57 39.84 42.67 41.79 36.05 32.72 30.02 29.40 30.22 26.52 26.91 29.67 29.32 26.78 28.93 33.16 34.09 30.87 31.65 31.05 31.26 26.97 29.81 26.63 27.05 30.40 32.27 32.27 31.38 32.36 32.86 33.58 32.99 32.30 30.44 29.54 28.74 27.80 26.75 25.60 24.39 24.14 23.86
43.98 44.25 44.50 44.47 44.40 44.37 44.58 44.92 44.74 44.50 44.21 42.12 38.53 33.34 33.16 27.77 20.88 20.64 21.14 27.60 27.55 31.15 32.43 30.81 29.26 32.02 33.07 33.13 30.68 31.62 29.59 28.31 31.88 30.63 29.19 26.41 29.04 29.61 30.60 30.18 29.67 30.32 29.53 29.15 28.25 28.21 27.58 26.65 26.62 25.89 23.89 24.16 24.09 23.17
43.53 43.65 43.79 43.95 43.88 43.91 43.72 43.40 43.86 42.09 39.03 32.06 26.96 18.41 16.77 12.99 20.26 22.12 24.35 27.94 28.16 31.29 29.52 31.51 31.23 31.49 31.70 29.15 30.05 28.28 28.99 32.07 28.24 25.87 20.97 24.65 26.75 27.89 28.68 29.12 28.12 26.72 27.00 26.30 25.69 25.63 25.32 24.54 23.88 24.17 23.89 23.71 22.78 21.85
43.30 43.28 43.19 43.22 43.96 43.33 43.33 42.20 41.98 35.79 30.61 25.01 24.82 17.67 19.91 23.88 24.28 24.91 26.38 27.24 27.05 29.89 31.65 32.17 32.12 32.73 30.34 28.24 30.15 29.67 27.43 18.82 20.69 17.39 19.70 25.81 27.20 26.94 25.89 26.19 25.28 24.78 24.41 24.01 24.23 23.65 23.37 23.27 22.90 22.38 23.38 23.34 22.16 20.40
42.92 42.00 40.49 43.25 43.57 42.43 42.65 38.78 36.03 35.38 29.53 24.91 21.37 19.36 21.05 20.53 18.90 20.89 21.17 22.85 26.86 26.84 30.93 33.30 31.00 30.48 26.49 24.26 22.34 19.09 18.40 14.89 19.57 22.36 25.14 25.37 24.35 24.42 23.92 24.39 24.27 24.41 23.98 23.44 23.03 22.91 22.31 21.57 20.72 20.60 21.28 20.90 20.82 20.20
41.71 37.40 42.00 43.36 43.21 41.12 40.44 33.85 29.82 26.96 25.19 22.28 18.70 20.78 19.64 19.28 17.19 18.80 20.02 21.56 25.53 27.17 27.46 29.01 22.21 20.45 27.18 20.30 19.05 21.28 15.24 20.46 23.49 23.75 24.78 24.46 23.43 23.12 23.80 23.89 23.99 23.76 23.03 22.61 22.41 22.51 22.21 22.71 22.31 20.67 18.56 19.30 19.41 18.58
37.15 38.41 42.31 42.99 41.79 37.04 34.12 30.29 26.24 23.79 19.90 21.24 17.80 18.79 18.27 18.18 16.82 17.92 19.70 22.58 24.27 26.90 25.42 20.70 23.01 16.37 13.91 14.79 14.14 19.78 21.34 21.87 23.26 23.67 23.70 24.07 24.06 24.27 24.66 23.42 23.79 23.89 23.34 22.99 22.73 22.55 22.01 20.95 19.28 18.44 18.69 18.77 17.97 17.50
38.87 39.18 42.28 42.26 38.28 32.11 28.30 27.52 26.37 18.62 19.08 20.19 20.40 19.84 18.94 15.93 18.92 19.39 20.15 22.20 24.05 24.15 22.34 18.40 13.03 10.53 11.43 15.82 16.34 20.37 21.46 21.73 19.94 20.75 21.44 22.39 22.71 22.08 22.11 22.46 22.06 21.50 21.45 21.68 22.04 21.04 21.11 21.10 19.91 19.23 18.54 17.65 14.97 14.89
40.92 40.76 41.65 41.26 38.64 29.53 26.62 25.97 27.93 22.25 16.91 18.95 19.72 17.04 16.31 14.82 16.72 16.13 17.84 19.08 19.85 17.93 13.29 11.12 10.50 12.72 13.28 16.04 18.27 18.56 23.26 22.99 20.72 17.64 17.42 19.06 20.69 20.55 20.18 20.41 19.81 20.24 19.67 19.70 19.35 19.09 18.00 17.54 17.85 17.29 16.52 15.16 13.15 11.82
37.57 37.76 40.19 38.77 34.50 34.42 30.68 25.57 24.09 24.10 23.31 20.10 21.33 21.60 17.47 17.77 14.68 14.29 14.56 18.14 12.85 12.11 10.24 13.26 13.64 16.03 18.23 18.94 21.45 21.53 20.80 21.39 19.59 19.08 17.21 15.21 17.85 18.31 17.99 18.79 18.70 17.91 16.57 15.97 14.85 14.42 14.68 13.81 14.59 14.12 12.16 10.81 10.75 10.52
34.48 39.07 33.54 34.34 30.08 31.87 29.90 30.88 27.76 28.99 24.73 22.89 23.09 22.35 14.67 9.43 7.99 12.67 16.76 11.92 11.18 12.37 14.30 13.93 14.89 16.04 15.67 15.50 16.86 18.87 19.30 19.14 18.99 18.13 18.40 18.13 15.14 14.76 14.80 16.14 15.71 14.49 14.79 14.36 14.32 12.84 12.96 13.45 13.10 11.58 9.88 8.83 9.02 8.10
34.69 33.10 29.32 29.16 24.88 24.12 24.66 32.53 26.32 27.56 23.19 20.64 22.12 18.01 15.12 13.36 15.16 19.06 9.59 13.25 13.75 17.10 17.26 16.61 16.01 16.36 15.76 16.93 17.18 16.96 17.79 16.93 15.11 15.00 15.35 15.00 15.17 15.39 14.96 14.98 15.36 13.59 12.64 13.54 14.62 12.92 11.35 11.46 10.21 8.78 7.54 6.01 4.36 1.90
29.71 20.60 17.39 17.82 21.70 15.31 21.10 19.65 24.85 22.09 20.68 20.20 19.63 17.28 16.10 16.31 17.70 12.55 8.31 10.78 13.33 15.08 13.79 14.32 15.71 14.52 14.79 13.78 11.74 13.14 15.40 16.11 14.50 14.34 15.56 14.51 12.70 12.83 13.96 13.45 13.43 13.33 13.17 12.63 11.61 10.31 9.57 8.41 7.78 6.22 3.33 0.98 -0.30 -1.39
14.65 12.36 13.94 10.82 15.92 14.21 10.47 8.91 11.26 14.11 8.14 12.08 10.67 13.05 14.52 16.94 9.03 6.90 5.32 8.79 11.25 10.31 11.16 12.54 12.16 11.87 10.56 10.73 11.55 12.27 14.32 14.65 13.07 11.97 14.15 14.38 13.01 12.53 11.56 11.81 11.82 12.59 13.01 9.70 7.09 5.79 4.45 4.61 3.87 2.82 1.88 -0.04 -1.19 -5.35
7.22 8.59 8.56 7.03 9.64 9.20 10.28 3.09 4.58 3.84 5.84 5.29 6.61 11.35 5.74 2.00 -1.44 -0.32 7.30 6.79 6.77 9.92 7.14 8.73 9.30 8.90 8.22 9.85 9.12 9.25 10.72 14.42 13.34 9.41 9.41 13.24 13.36 11.43 10.02 8.77 8.26 8.63 10.80 9.07 6.74 4.61 3.79 3.38 2.46 0.71 -2.31 -2.33 -3.53 -7.39
3.36 1.39 12.58 16.00 15.19 13.41 3.28 3.57 7.18 1.06 -2.36 -1.58 0.38 -1.52 -4.17 -8.49 -7.39 4.38 9.72 9.72 10.19 10.18 13.15 13.06 12.17 10.72 9.57 9.72 10.55 10.91 10.92 11.02 10.04 9.23 10.24 9.82 9.44 9.69 9.47 7.31 6.00 7.17 9.42 8.20 6.11 3.97 1.60 -0.94 -2.64 -3.94 -8.11 -14.82 -14.82 -11.40
8.36 8.99 -0.01 -0.18 2.11 7.22 -6.48 -4.67 -4.30 -4.49 -1.40 9.05 1.40 -8.30 -10.47 -9.02 -1.40 6.27 7.81 11.32 11.02 13.67 13.10 13.11 12.64 12.22 11.24 11.31 11.51 10.53 9.64 9.92 9.83 9.50 9.01 8.34 7.75 6.99 6.13 5.56 6.23 6.90 -0.08 -1.70 -1.37 -0.88 -3.03 -5.36 -8.73 -13.73 -12.48 -13.73 -16.99 -23.16
2.46 3.64 4.00 -6.32 -3.55 1.30 3.38 -5.94 -3.04 3.53 8.43 4.98 -8.47 -7.57 1.12 8.47 6.93 6.91 11.27 12.90 13.01 12.73 10.02 8.83 8.62 9.26 8.47 8.07 7.43 6.76 6.35 6.26 3.16 0.49 -0.80 -3.04 -2.39 0.97 0.83 0.54 -0.74 -2.49 -2.82 0.17 4.38 -2.85 -5.12 -9.02 -10.73 -11.23 -14.82 -15.18 -18.45 -22.98
2.26 5.35 -2.14 -7.95 -3.81 0.40 -0.88 0.33 -0.16 -3.24 5.80 4.33 8.62 9.09 7.11 5.97 10.96 13.00 12.29 10.88 8.51 5.35 5.51 6.92 4.07 2.39 0.48 0.60 -0.20 2.74 3.23 -0.55 0.56 0.39 -2.36 -4.54 -2.25 -1.64 -6.48 -7.20 -7.39 -11.92 -14.46 -9.80 -12.28 -7.57 0.95 -9.56 -9.02 -15.18 -16.34 -18.13 -21.35 -20.62
7.58 1.45 -2.29 -1.99 0.21 2.86 -0.04 -7.22 -1.11 1.55 -3.78 -4.50 -9.20 -5.78 -1.24 1.98 6.17 8.48 8.44 6.74 9.04 7.93 6.23 2.42 2.43 0.30 -0.60 -3.55 -4.18 -5.04 -3.41 -0.30 -1.78 -0.38 0.12 -1.91 -5.57 -9.92 -12.10 -14.09 -17.18 -18.99 -17.90 -17.01 -16.63 -18.63 -18.99 -19.35 -19.90 -18.99 -17.90 -18.81 -21.35 -22.07
-4.02 -9.92 -3.47 -3.94 0.38 2.58 2.61 -0.35 -8.84 -7.58 -11.92 -8.12 -6.84 -12.64 -6.85 -6.55 -7.75 -1.30 6.39 4.44 5.61 2.49 2.63 1.17 0.93 -0.70 -4.49 -5.21 -4.85 -5.04 -1.51 -6.30 -8.47 -7.39 -9.22 -11.92 -15.36 -16.63 -14.82 -15.36 -20.62 -18.45 -15.73 -17.72 -19.90 -20.08 -20.08 -18.63 -19.71 -19.71 -19.71 -19.71 -21.89 -22.61
-6.35 -7.93 -9.56 -5.40 -3.78 -2.85 -0.23 2.87 0.22 -1.25 -2.00 -5.39 -2.33 -5.21 -5.39 -5.10 -7.22 -2.12 3.46 6.82 3.65 2.75 1.35 -0.47 -2.92 -4.86 -6.32 -7.75 -11.19 -15.91 -15.36 -17.36 -14.64 -3.58 -8.11 -8.11 -11.01 -10.83 -18.08 -20.80 -21.16 -19.17 -14.28 -18.26 -19.53 -19.36 -18.63 -18.26 -21.35 -22.25 -24.07 -24.25 -24.07 -24.79

GFSWCAN_sfc_wetblb_084.txt.gz
Wetbulb
44.05 44.24 44.67 44.95 44.90 45.11 45.43 45.61 45.21 45.47 45.63 46.01 45.84 45.75 46.10 46.33 46.93 45.21 42.34 44.80 40.48 35.57 37.44 38.67 38.99 35.84 36.37 35.96 31.43 35.36 34.69 33.90 32.62 29.19 28.54 28.08 25.12 27.72 27.30 29.96 30.03 28.56 29.14 29.29 31.96 29.24 26.49 41.78 41.20 37.91 40.71 43.16 44.42 44.45
44.00 44.70 44.82 44.72 44.74 44.83 45.02 45.20 45.27 45.24 45.40 45.40 45.87 46.06 46.20 46.38 46.34 46.77 40.19 45.16 44.82 39.10 38.32 41.97 42.17 43.10 42.05 41.12 37.71 38.25 35.76 34.70 33.64 30.73 27.94 27.92 23.84 24.27 28.00 23.86 32.28 27.83 32.62 30.20 33.24 33.32 40.95 41.52 41.86 43.73 45.76 45.45 44.53 46.03
44.28 44.56 44.66 44.74 44.50 44.65 44.83 44.97 44.95 45.02 45.10 45.22 45.35 45.84 46.19 46.41 46.55 45.57 43.20 44.02 42.11 37.59 36.98 38.00 38.69 41.84 44.36 44.41 45.09 35.16 35.71 39.78 38.30 37.45 35.89 31.78 25.98 29.00 23.16 25.97 29.24 32.82 38.35 34.03 34.76 37.42 38.99 41.41 43.19 44.56 45.39 46.08 48.39 47.09
44.29 44.52 44.27 44.18 44.15 44.39 44.45 44.78 44.81 44.92 44.94 45.12 45.40 45.73 46.01 46.19 46.45 46.04 41.86 44.68 42.14 37.25 32.01 36.10 42.42 40.63 44.63 44.54 44.08 43.37 41.33 42.92 41.02 40.86 36.91 34.62 28.66 34.04 27.65 30.71 30.05 33.63 35.87 34.44 34.77 39.50 41.44 42.78 43.47 43.88 43.60 45.27 46.90 48.18
44.03 43.94 44.34 44.79 45.18 45.31 44.85 44.89 45.11 45.44 45.58 45.80 46.01 45.97 46.15 46.18 46.54 45.48 43.96 44.23 44.77 39.09 32.81 34.62 39.07 41.44 43.28 43.00 42.72 42.57 42.54 41.37 39.66 37.53 35.10 34.02 35.86 36.12 32.06 32.01 29.37 35.27 34.10 32.19 31.77 39.46 38.55 39.40 41.47 43.08 43.25 43.28 45.14 46.26
44.49 44.65 44.74 45.48 45.79 45.70 45.66 45.62 45.82 45.81 45.88 46.11 46.27 46.19 46.29 46.45 46.38 43.36 37.44 43.05 44.60 44.43 36.96 30.91 38.29 38.07 40.87 41.86 41.60 40.50 41.32 41.32 40.28 37.06 36.48 36.82 38.53 35.36 31.05 27.61 34.88 37.31 38.57 39.39 37.83 40.86 40.38 41.62 42.52 43.65 42.23 39.27 41.08 40.39
45.09 45.23 45.56 45.49 45.31 45.38 45.33 45.17 45.22 45.46 45.71 45.83 46.17 46.29 46.35 46.29 45.03 37.45 35.50 40.51 44.86 44.25 36.62 31.83 32.87 37.54 40.33 40.83 40.19 40.19 41.77 40.85 40.53 38.83 36.62 34.86 35.37 37.85 31.81 30.29 35.50 38.42 39.22 39.45 40.74 41.01 39.35 40.12 41.36 40.07 38.96 38.85 38.10 35.34
45.17 45.29 45.22 45.05 44.77 44.73 44.95 45.07 45.45 45.59 45.63 45.73 45.71 46.24 46.22 46.52 45.15 40.51 43.36 44.93 44.31 40.00 38.76 29.87 31.95 34.52 39.27 36.56 35.83 38.85 38.27 39.58 39.63 38.12 37.94 32.65 34.37 33.97 31.39 33.17 37.11 39.42 40.10 40.08 41.12 41.79 40.82 41.39 40.43 37.41 36.99 34.26 31.33 29.30
45.09 44.96 44.83 44.11 44.96 44.88 45.12 45.45 45.86 45.97 46.13 45.95 45.84 46.27 45.09 40.42 35.48 41.29 45.38 45.09 44.72 39.83 32.30 29.64 30.57 29.63 39.50 37.26 38.22 37.15 38.98 31.87 37.76 33.92 34.93 34.03 29.82 30.41 34.04 34.75 35.84 37.28 38.84 38.70 38.39 38.89 40.30 39.92 36.58 35.45 33.64 31.54 28.56 26.28
44.91 44.71 44.44 44.28 43.92 43.90 44.73 45.50 45.79 45.99 45.94 45.96 43.07 35.26 31.15 39.76 45.60 44.80 40.91 37.63 36.75 38.05 34.96 28.01 32.94 31.89 36.67 34.58 33.35 33.79 34.32 32.04 29.75 32.60 34.01 29.34 28.37 34.07 35.47 36.95 36.81 37.07 36.53 36.13 34.96 36.45 36.23 35.44 32.85 30.25 28.43 27.99 26.68 25.27
45.15 44.89 44.66 44.59 44.81 44.81 44.93 44.48 44.28 44.69 44.17 39.66 35.69 34.62 42.14 45.15 40.35 37.10 30.53 31.23 31.86 29.64 32.12 32.12 33.23 32.63 35.05 32.27 31.81 31.87 31.65 30.46 24.59 26.86 29.31 28.55 28.40 32.39 34.36 34.59 34.76 35.25 35.32 34.17 34.01 33.98 35.60 35.03 28.41 27.03 26.10 26.52 26.00 25.10
45.17 44.70 44.38 44.48 44.86 45.06 44.65 44.44 44.24 41.18 39.61 40.72 40.46 42.32 40.32 36.75 32.75 29.78 28.98 30.32 30.25 27.18 31.81 28.46 31.60 30.33 33.13 36.07 33.04 32.66 28.52 29.39 23.52 29.31 29.37 25.97 29.36 30.46 31.50 30.48 31.18 31.91 33.32 31.79 30.58 28.36 28.79 28.38 27.51 26.27 24.64 23.74 23.23 22.76
44.15 44.10 44.08 43.64 43.35 43.79 44.87 44.92 44.94 44.63 43.87 39.81 35.13 30.42 30.35 25.72 24.73 24.33 19.18 25.70 26.98 30.67 31.62 30.94 29.60 32.03 31.98 33.40 31.30 31.02 28.85 26.63 31.81 29.28 25.97 25.79 26.96 28.75 29.33 30.36 28.96 29.66 29.41 28.73 27.71 27.49 26.81 25.88 25.75 24.52 22.90 23.22 22.54 21.41
43.44 43.34 43.69 43.52 43.56 43.04 42.77 43.79 44.36 42.25 37.84 30.59 24.50 15.89 17.70 11.30 18.87 20.88 21.74 25.96 27.69 30.16 28.00 29.92 30.31 29.19 29.95 28.62 30.02 26.05 26.30 31.56 27.83 25.24 19.03 22.61 26.28 26.91 27.12 27.48 26.53 25.54 25.97 25.74 25.32 25.28 24.57 23.92 23.24 23.58 23.13 22.51 20.99 19.64
43.14 43.06 43.11 43.22 42.53 42.80 41.69 41.66 39.04 34.12 28.43 22.79 22.19 14.76 17.38 22.70 22.39 23.57 24.81 26.72 26.58 29.16 31.65 31.00 31.94 30.82 29.62 28.75 29.29 29.26 26.97 20.63 17.60 14.47 19.39 23.01 25.12 25.07 24.57 24.86 24.46 23.99 23.46 23.45 23.57 22.90 22.38 22.41 21.82 20.83 21.28 21.47 19.98 18.84
43.18 41.78 40.82 42.95 41.89 41.35 39.89 36.97 34.78 33.27 27.87 22.64 18.46 17.38 18.64 18.71 16.71 18.79 19.53 21.41 25.39 25.23 30.50 32.70 31.00 28.07 24.44 23.64 21.05 18.39 16.14 12.37 16.60 21.58 23.68 24.13 22.95 23.23 23.39 23.61 23.32 23.11 22.52 22.15 22.14 21.95 21.57 20.41 19.46 19.41 20.23 19.74 19.25 18.43
41.58 37.00 41.81 43.19 41.44 39.30 38.29 32.53 30.03 26.44 23.84 20.89 16.44 19.24 18.14 17.06 15.16 16.73 18.87 19.97 24.55 26.29 25.35 26.72 21.47 19.37 24.95 19.41 16.71 18.99 10.94 18.05 21.34 22.15 23.41 23.68 22.79 22.61 23.32 23.22 22.86 22.64 21.73 21.51 21.31 21.12 20.45 20.77 20.14 18.44 15.88 16.80 17.28 16.75
36.07 38.01 42.05 42.26 40.04 36.24 32.37 29.58 25.80 23.42 18.34 19.58 16.55 16.53 17.26 16.90 15.50 16.75 18.71 21.77 23.34 25.06 23.19 18.86 22.03 15.95 12.69 13.60 12.94 18.16 20.21 20.76 21.20 20.88 21.26 22.57 22.93 23.32 23.95 22.63 22.64 22.18 21.62 21.49 21.25 20.76 20.12 18.98 17.51 16.34 16.82 16.86 15.84 15.34
37.53 39.00 41.73 41.05 36.74 31.54 27.87 26.51 26.16 17.15 17.38 19.17 18.95 19.26 18.36 17.59 19.20 19.41 19.44 21.43 22.83 23.47 21.30 17.74 11.81 9.73 10.36 15.36 15.35 18.30 20.49 20.97 18.70 18.92 19.43 20.75 21.43 21.19 20.84 21.15 20.94 20.78 20.90 20.38 19.66 18.68 18.79 19.17 17.95 17.44 16.59 15.61 13.13 12.90
40.42 40.50 41.12 40.48 37.13 28.39 25.87 24.77 27.43 21.38 16.80 17.77 19.09 15.95 15.90 15.59 17.49 17.42 17.35 18.85 18.69 16.85 12.38 10.32 9.66 11.74 12.83 15.26 17.63 18.61 22.28 22.40 20.29 16.90 15.95 17.60 19.43 19.31 18.69 19.07 18.72 19.32 18.72 18.61 18.28 17.69 16.47 15.39 16.08 16.07 15.22 13.98 11.84 10.36
36.42 36.25 38.77 36.36 32.53 30.84 29.14 24.61 23.13 21.56 21.67 19.01 20.42 20.53 14.24 16.06 14.15 13.60 13.53 17.62 13.11 11.61 9.86 12.09 12.85 15.45 16.93 17.63 19.39 20.58 19.71 20.38 18.47 18.62 16.33 14.65 17.10 17.76 17.81 17.87 17.95 17.21 15.89 15.28 14.15 13.35 13.28 12.02 12.69 12.58 11.30 10.20 10.29 9.85
32.34 37.45 30.75 32.02 28.69 30.39 28.84 28.96 26.41 26.51 22.28 21.84 21.37 20.28 12.06 5.50 6.38 10.98 15.90 11.13 10.88 12.48 14.19 13.30 13.22 14.91 14.49 14.21 15.75 17.39 18.03 18.00 17.72 17.04 17.14 17.26 14.61 14.41 14.44 15.78 15.36 13.57 13.35 13.44 13.25 11.77 11.56 11.84 11.49 10.50 9.15 8.27 8.56 7.39
33.01 31.65 27.04 26.77 21.86 20.96 22.83 28.45 20.54 25.21 17.59 18.66 19.92 14.54 11.15 10.19 12.26 17.23 6.63 11.36 11.38 14.53 14.71 15.59 16.03 15.60 13.92 14.89 16.00 15.78 16.65 16.14 14.37 14.45 14.46 14.11 14.45 14.67 14.25 14.25 15.18 13.20 11.91 12.27 13.08 11.39 9.74 9.66 8.44 7.27 6.82 6.12 4.85 3.38
28.42 19.43 15.78 16.60 19.03 11.91 20.88 19.19 24.04 21.30 19.38 17.68 17.49 13.22 13.75 13.20 15.83 10.42 6.23 8.77 11.89 13.70 12.95 12.88 14.88 13.39 13.23 12.81 11.33 11.66 14.45 15.41 13.63 13.45 14.47 13.63 11.63 11.74 13.08 12.56 12.55 12.58 12.68 12.28 11.19 9.69 8.59 6.74 6.04 4.55 3.08 1.37 0.67 -0.69
13.63 9.59 11.31 7.53 13.27 10.84 7.05 5.39 8.36 13.32 10.31 13.30 11.48 9.43 7.98 14.37 5.49 3.67 3.21 7.33 9.11 8.45 9.13 11.28 11.24 10.78 9.50 9.30 10.24 11.51 13.91 13.69 12.14 10.88 13.41 14.22 12.84 12.21 11.27 11.19 10.80 11.72 13.08 9.41 7.32 6.24 5.12 4.87 3.66 2.31 1.72 0.76 -0.43 -2.87
4.71 5.51 6.24 5.51 6.25 5.42 6.67 -1.64 -0.53 0.73 1.75 2.23 4.40 6.20 3.73 0.74 -1.99 -0.19 5.89 7.54 6.20 9.13 7.07 7.78 8.46 8.26 7.51 8.79 8.06 8.20 9.44 13.70 13.02 8.85 8.85 11.81 12.92 11.63 10.03 8.82 8.12 7.87 10.41 9.50 7.46 5.45 4.44 3.34 2.34 0.64 -1.57 -2.64 -5.12 -8.22
0.68 -1.38 10.02 13.23 12.54 9.82 0.22 1.11 5.20 -1.08 -4.88 -5.61 -4.35 -8.08 -7.39 -11.78 -8.87 3.39 10.09 10.30 9.49 10.31 12.40 12.01 11.72 10.05 8.71 8.70 9.45 9.98 10.35 10.28 9.12 8.12 9.33 9.15 8.82 9.17 9.05 7.63 6.46 7.22 10.00 8.60 7.10 5.92 3.57 0.84 -1.73 -3.82 -7.80 -10.52 -13.05 -11.46
4.88 6.55 -1.91 -2.83 -0.03 4.30 -9.23 -6.15 -6.51 -6.15 -3.43 7.31 -0.58 -10.33 -13.22 -12.14 -2.89 4.90 8.91 11.67 10.15 12.64 11.66 11.65 11.08 10.43 9.63 9.93 9.99 8.66 8.41 8.84 9.08 9.14 8.73 7.55 6.42 5.27 4.85 4.28 4.94 6.84 1.90 1.66 1.09 0.17 -0.73 -2.91 -4.89 -8.03 -11.05 -13.22 -18.12 -25.91
-0.61 0.72 2.43 -6.35 -2.84 0.37 0.66 -6.70 -3.61 3.91 7.17 0.49 -10.90 -8.33 -0.54 6.55 4.56 7.81 10.09 11.52 12.33 10.61 8.10 6.92 6.47 7.19 7.60 6.83 5.10 4.38 2.84 1.47 1.83 0.31 -0.12 -1.35 -1.23 1.09 0.53 -0.06 -1.99 -2.84 -2.29 1.89 5.62 -0.49 -2.27 -5.84 -7.78 -9.43 -16.30 -16.85 -22.65 -28.45
-0.68 3.03 -3.55 -9.26 -4.61 -3.25 -4.88 -2.05 -3.64 -4.20 3.87 4.24 7.50 7.99 5.63 4.68 7.91 10.42 9.38 8.84 4.38 0.37 -1.08 -2.35 -3.80 -3.86 -5.43 -4.39 -3.82 0.31 1.20 -1.73 -3.75 -2.64 -4.58 -5.69 -5.01 -3.83 -7.60 -7.61 -6.71 -10.52 -7.98 -3.84 -3.25 -1.98 -0.71 -10.50 -9.96 -18.13 -19.02 -20.47 -22.47 -21.74
4.34 -1.04 -3.38 -2.07 -1.62 -2.48 -4.46 -10.36 -10.32 -4.65 -6.44 -4.79 -9.05 -7.25 -3.45 -1.83 2.97 6.32 6.33 3.70 3.86 -0.43 -3.15 -4.19 -1.73 -4.89 -6.07 -7.45 -9.24 -9.47 -6.00 -2.45 -4.95 -1.62 -0.45 -2.81 -5.61 -10.32 -12.50 -12.13 -16.30 -16.50 -15.04 -12.32 -15.58 -19.21 -20.84 -21.38 -22.65 -21.02 -19.02 -19.57 -22.65 -23.92
-7.27 -13.22 -4.91 -3.80 -1.27 -0.48 -1.00 -9.78 -12.68 -11.42 -15.22 -9.60 -10.50 -15.58 -9.26 -8.98 -9.96 -1.91 3.46 1.53 0.97 0.81 -0.05 -4.34 -5.79 -6.51 -10.32 -10.87 -12.32 -12.68 -8.34 -12.86 -13.77 -13.59 -12.14 -14.13 -15.22 -15.94 -15.58 -18.12 -23.01 -21.02 -17.40 -19.21 -21.56 -21.74 -20.84 -20.84 -21.74 -20.66 -20.47 -21.20 -23.38 -24.64
-10.73 -11.95 -11.23 -7.24 -5.97 -5.61 -3.82 -0.62 -2.19 -5.25 -7.42 -8.69 -7.42 -11.41 -13.22 -11.12 -8.92 -3.00 1.62 2.39 0.25 -0.85 -3.64 -6.15 -9.05 -11.23 -10.69 -12.50 -13.40 -17.75 -17.57 -19.75 -14.49 -4.70 -8.51 -9.05 -12.50 -13.40 -21.20 -24.10 -23.19 -20.47 -15.58 -20.84 -22.83 -22.11 -20.84 -19.75 -22.65 -23.01 -24.83 -25.91 -26.09 -26.82

GFSWCAN_sfc_wetblb_087.txt.gz
Wetbulb
42.65 43.13 43.49 43.68 43.83 44.42 45.05 45.17 45.07 45.18 45.41 45.14 44.68 44.86 45.36 46.23 46.02 44.80 41.85 44.19 38.16 33.21 34.74 38.29 38.56 35.52 36.19 35.84 32.20 36.11 34.89 34.91 33.02 29.63 29.23 28.58 28.12 30.35 29.33 31.78 32.18 30.29 29.43 28.69 28.76 26.29 25.23 42.54 42.21 36.98 40.55 43.47 43.46 44.64
43.01 43.31 43.58 43.88 44.21 44.83 44.94 44.83 45.33 45.51 45.20 44.79 44.78 44.54 44.94 45.03 46.00 45.81 40.22 44.36 44.43 36.81 36.82 40.98 41.57 42.65 41.75 40.86 37.77 37.83 35.73 35.27 36.08 32.82 31.85 32.63 29.06 29.74 30.73 25.94 34.31 29.07 34.88 33.54 34.14 34.26 41.84 43.14 43.05 45.47 45.46 43.98 44.30 44.20
43.17 43.33 43.72 44.00 44.43 44.79 44.96 45.05 45.10 45.24 45.24 45.06 45.29 45.46 45.56 45.51 45.25 45.03 42.20 43.45 41.62 37.15 36.23 37.75 36.88 42.08 44.53 44.26 45.26 35.28 37.98 40.14 38.17 40.30 35.27 32.96 28.77 32.02 28.23 29.57 32.67 34.82 38.58 35.63 35.72 38.77 40.30 42.18 43.94 44.65 46.21 44.97 46.20 46.58
43.12 43.70 44.03 44.22 44.45 44.38 44.16 44.30 44.52 44.75 45.03 45.15 45.32 45.58 45.67 45.84 45.63 45.26 41.38 43.56 41.00 36.51 31.31 35.28 42.26 40.77 44.86 44.47 44.28 43.32 41.66 43.44 42.66 40.39 35.70 35.22 32.27 35.84 31.67 33.61 33.02 36.15 37.64 35.90 35.63 38.91 40.89 42.39 44.25 44.44 43.39 45.03 46.12 47.15
43.31 43.27 43.32 43.62 43.92 44.29 44.35 44.42 44.55 44.51 44.77 45.30 45.44 45.47 45.60 45.91 45.68 44.74 43.33 44.21 43.78 38.44 32.57 33.91 39.95 41.18 43.47 43.17 42.17 43.02 41.55 40.42 39.42 37.50 35.25 34.10 36.80 36.87 37.17 35.14 33.48 37.38 36.62 34.74 33.89 40.20 39.57 40.37 43.52 44.13 43.20 44.39 43.72 46.30
44.92 44.90 45.03 44.60 44.75 45.01 45.49 45.70 44.96 44.83 44.59 45.17 45.58 45.72 45.70 45.84 45.62 42.78 36.86 42.03 44.99 43.69 37.15 31.61 40.03 39.08 41.03 42.09 40.91 40.79 41.16 40.60 39.83 37.47 35.58 37.95 40.62 37.76 33.06 31.14 36.71 39.92 41.43 40.72 39.08 43.11 43.20 43.14 43.34 44.73 45.07 41.90 40.40 41.07
45.18 45.24 45.51 45.37 45.48 45.71 45.68 45.62 45.49 45.37 45.36 45.43 45.61 45.80 45.91 45.56 43.83 37.77 36.02 41.23 44.09 42.96 34.49 31.56 33.29 38.80 40.49 40.01 39.87 39.95 41.76 40.70 39.26 36.96 35.83 37.15 38.14 39.52 33.82 30.88 37.10 39.83 40.95 41.26 42.21 42.20 40.63 42.10 41.40 43.77 42.12 37.66 36.04 35.79
45.07 44.72 44.62 44.65 44.71 44.70 45.28 45.39 45.53 45.69 45.96 46.01 45.94 45.87 45.86 46.17 44.82 39.84 43.54 44.73 43.95 39.73 37.88 31.01 30.90 35.62 39.93 36.09 35.15 40.56 38.01 39.13 38.60 37.42 37.31 35.67 36.97 36.82 32.19 36.24 38.26 39.82 40.84 40.75 41.15 42.70 42.99 43.09 42.07 40.83 38.36 36.21 33.44 30.92
44.67 44.45 44.51 44.59 44.59 45.07 45.01 44.94 45.41 45.59 45.79 45.89 45.82 46.38 44.50 39.70 34.54 40.17 45.21 44.85 45.41 39.28 31.92 31.84 28.25 29.48 39.09 37.10 38.45 37.95 39.22 31.82 38.22 33.75 35.11 36.09 34.14 30.53 35.28 37.16 37.62 37.58 37.82 39.20 39.94 40.35 40.71 40.34 41.36 38.41 35.82 33.89 31.24 29.25
44.36 44.12 44.39 44.45 43.89 44.01 44.88 45.41 45.30 45.47 45.65 45.70 42.95 35.13 31.47 36.79 45.44 44.77 40.89 37.23 36.63 38.45 35.96 31.50 34.74 31.94 37.13 35.40 34.36 33.33 34.63 32.40 30.30 32.55 36.71 33.50 32.36 35.66 35.80 36.11 35.63 35.40 35.96 36.51 36.89 38.40 38.91 38.86 36.34 32.70 31.16 30.65 29.97 28.06
44.50 44.54 43.41 44.60 44.21 44.63 44.37 45.37 45.64 45.62 44.30 39.02 32.88 34.01 41.89 45.05 40.30 35.71 30.50 31.52 32.20 28.61 31.78 31.88 33.66 31.77 36.46 32.83 31.93 34.43 32.17 32.40 28.25 30.36 32.10 30.11 28.97 32.64 33.66 33.40 34.17 34.23 35.27 35.46 34.05 33.90 33.90 34.44 34.53 29.80 27.89 27.84 27.96 27.41
44.21 43.47 43.23 43.79 44.71 44.98 44.75 44.44 44.34 42.15 40.86 40.84 40.80 41.67 40.37 35.70 32.53 30.60 28.02 30.57 28.77 27.50 32.05 30.69 32.67 34.94 34.33 37.47 34.07 31.97 30.92 30.73 24.65 32.07 29.93 25.88 28.10 29.42 29.97 31.18 31.36 31.45 32.15 32.34 31.62 29.53 29.65 30.12 30.30 28.82 26.90 25.69 24.72 23.16
43.41 43.32 43.44 43.16 42.78 43.88 44.79 44.04 44.01 43.82 42.30 39.22 34.25 30.14 29.94 26.07 24.17 21.30 21.84 26.75 27.90 31.22 31.83 32.31 31.23 33.54 33.65 35.88 33.09 32.38 28.45 27.19 32.95 29.71 27.40 24.72 26.57 28.23 28.01 28.47 29.39 29.45 29.47 28.97 28.07 27.93 27.52 26.61 26.63 25.38 23.44 23.58 23.10 21.27
43.51 42.99 42.87 42.92 42.72 42.63 44.73 41.87 40.90 39.23 35.47 28.99 25.53 16.95 17.45 12.30 18.40 19.19 22.09 26.12 27.77 30.37 31.32 32.30 30.79 30.61 31.90 30.54 31.46 28.10 30.31 31.67 27.60 26.29 21.26 23.04 24.73 25.94 26.58 26.82 25.94 25.08 25.76 25.39 25.32 25.35 24.71 23.89 23.14 23.45 22.59 22.18 20.04 18.31
43.07 43.33 42.60 41.86 42.07 41.85 41.22 40.25 38.15 32.83 28.19 22.37 22.20 13.96 15.93 21.17 20.41 21.86 23.34 26.30 25.52 28.10 32.32 32.10 32.46 32.42 30.20 29.29 29.49 29.91 27.42 21.87 19.84 17.33 21.32 23.35 24.33 24.44 23.77 24.29 23.84 23.67 23.60 23.13 23.20 22.14 21.40 21.22 20.48 20.05 20.77 20.55 19.45 17.62
42.89 41.79 40.91 41.50 40.98 40.73 38.61 36.53 34.33 31.95 26.85 21.36 17.08 15.85 16.82 17.88 15.82 17.76 18.56 20.53 24.36 24.68 29.58 33.20 31.54 25.11 23.89 24.78 22.37 17.75 18.90 14.74 17.84 21.16 23.00 23.57 22.51 22.87 22.73 22.79 22.33 22.72 22.37 21.63 21.74 21.02 20.56 19.61 18.47 18.04 18.36 17.44 16.76 16.12
41.18 36.59 41.58 42.52 38.87 37.95 37.42 31.73 30.01 25.91 23.01 18.41 14.71 17.96 16.27 15.38 14.41 16.03 18.48 19.13 24.06 26.33 25.17 25.23 18.84 18.85 24.65 19.66 15.72 18.41 14.15 17.28 20.90 21.25 22.42 22.79 22.29 22.53 23.30 23.05 22.75 22.28 21.31 20.67 19.99 19.74 18.88 19.21 18.39 16.60 13.93 15.01 15.42 15.06
36.23 37.58 41.84 41.60 38.99 35.71 31.62 29.74 26.43 22.79 16.72 18.62 14.57 16.59 17.54 17.71 15.75 16.69 18.79 21.55 22.98 24.25 22.50 18.51 21.57 14.86 12.32 12.35 12.15 17.48 19.87 20.43 20.60 19.96 20.28 21.12 21.50 22.72 23.18 22.07 22.14 21.86 21.00 20.54 20.28 19.62 18.98 17.65 16.02 15.04 15.28 15.50 14.81 14.29
38.06 39.23 41.08 39.74 36.33 31.44 27.71 26.12 25.69 16.31 17.06 18.73 18.70 18.86 18.42 18.24 19.27 19.38 19.69 21.09 22.43 22.59 20.37 16.83 11.33 9.14 9.70 14.70 14.33 16.46 19.33 20.30 17.99 18.50 18.96 19.93 21.16 20.82 20.56 20.72 20.45 19.94 19.51 19.55 19.00 18.12 18.20 18.18 17.27 16.74 15.70 14.65 11.93 11.89
40.22 39.85 40.35 39.04 35.67 28.17 24.89 24.16 27.37 20.23 16.64 17.52 19.08 16.39 16.62 16.61 17.93 17.99 17.42 18.62 18.35 15.94 11.80 9.72 9.36 11.44 12.05 14.99 16.84 18.65 21.45 22.31 20.08 17.30 16.39 17.86 19.57 19.14 18.90 19.00 18.51 18.96 18.19 17.77 17.38 16.81 15.53 14.65 15.52 15.32 14.63 13.39 11.21 10.11
35.85 35.65 37.51 34.90 30.58 29.91 28.19 24.42 22.25 21.04 20.66 18.98 20.00 19.37 15.40 16.72 14.45 13.85 14.00 17.09 13.32 11.31 9.36 11.84 12.07 15.01 16.60 17.32 18.31 19.43 18.92 20.15 18.65 19.09 16.63 15.16 17.83 18.26 17.72 17.83 17.79 17.27 15.87 15.11 13.92 12.99 12.72 11.78 12.36 12.63 11.79 10.63 10.49 10.20
31.53 35.97 28.50 30.83 28.60 30.19 28.78 27.95 24.86 24.30 22.23 21.28 20.28 18.40 12.43 9.96 10.40 12.02 15.11 10.95 9.65 10.61 13.23 13.64 13.20 14.01 13.69 13.57 15.07 16.70 17.69 17.61 17.54 16.82 16.61 17.06 14.97 15.00 15.26 16.06 15.14 13.46 13.56 13.62 12.95 11.79 11.34 11.92 11.82 11.07 9.89 9.00 9.07 8.40
31.51 30.12 25.76 25.73 20.13 19.96 21.99 28.22 19.61 23.96 15.08 19.52 18.53 13.68 11.86 10.29 13.92 15.84 8.01 10.54 10.96 13.73 14.24 14.36 15.86 15.38 13.82 14.53 15.58 15.45 15.78 15.59 14.44 14.59 14.46 14.31 14.41 15.00 14.58 14.92 15.63 13.58 11.76 11.82 12.48 10.81 9.73 9.67 9.28 8.71 8.49 7.83 6.95 5.69
27.03 17.66 14.07 14.04 17.53 11.75 17.18 13.95 22.04 19.41 16.72 17.83 15.68 11.84 12.47 12.53 14.80 10.38 5.66 8.05 10.91 12.47 11.61 12.24 13.54 12.95 12.84 12.19 11.37 11.54 14.19 15.66 14.23 14.06 14.92 13.50 11.98 11.88 13.30 12.96 13.00 13.03 13.03 12.46 11.05 9.66 8.73 7.80 7.78 7.16 6.27 5.45 4.66 3.68
13.11 7.27 9.20 5.20 10.62 7.54 2.81 4.04 7.97 12.74 9.72 11.01 7.81 5.70 7.12 12.95 5.68 4.36 4.06 7.30 9.08 8.79 9.36 11.33 11.02 10.65 9.36 9.60 10.35 10.93 13.38 13.79 11.94 10.17 12.63 14.95 13.44 12.84 11.75 11.46 11.15 12.47 13.32 10.67 8.41 7.50 6.73 6.74 6.16 5.74 5.06 4.39 2.98 1.38
1.23 2.21 3.88 3.13 2.59 3.44 4.81 -2.24 -1.69 -1.15 0.19 -0.02 2.93 3.82 4.49 2.49 -0.22 1.02 5.59 7.35 8.19 8.91 8.64 9.16 9.64 8.87 7.59 8.62 7.78 7.90 9.35 13.18 12.51 8.96 8.70 10.79 12.64 12.64 11.27 10.16 9.41 9.06 11.46 11.20 9.17 7.06 6.09 5.62 4.97 3.90 2.67 1.53 0.03 -0.24
-2.25 -4.46 8.09 10.76 10.56 7.27 -0.97 0.35 3.98 -0.70 -4.40 -5.67 -3.23 -6.07 -4.55 -9.50 -6.94 4.59 10.17 10.43 9.69 10.55 11.86 11.74 11.60 9.77 8.63 8.41 9.00 9.68 10.26 10.21 9.05 8.09 9.16 8.95 8.66 8.85 10.17 8.87 7.40 8.35 11.21 10.79 10.16 9.02 6.68 5.09 4.04 3.01 0.86 0.88 1.26 2.07
3.48 5.50 -2.96 -3.20 -1.04 2.79 -9.30 -6.40 -6.04 -5.13 -1.53 5.88 -0.29 -9.86 -12.02 -9.12 -0.85 7.04 9.57 11.87 12.08 12.10 11.36 11.03 10.76 10.11 8.94 8.70 8.74 9.27 9.57 9.87 9.61 9.81 9.39 8.11 6.85 6.01 6.10 6.05 6.81 7.57 6.00 6.78 7.07 6.67 6.24 4.90 2.89 1.56 1.55 0.99 -2.51 -6.27
-1.91 0.40 1.92 -8.24 -4.25 -1.86 -0.84 -6.04 -1.87 3.61 5.76 -0.21 -7.74 -4.77 0.43 5.99 6.27 9.07 11.18 12.48 13.16 11.23 8.65 7.95 7.46 8.80 7.56 6.31 4.62 4.06 3.45 5.20 5.75 3.25 2.05 2.08 3.50 3.27 3.06 3.78 4.02 4.47 6.67 6.83 7.49 3.88 2.81 1.80 0.84 0.66 -0.73 -0.78 -5.34 -9.30
-1.76 2.62 -3.31 -8.86 -6.80 -4.04 -3.87 -1.85 -0.30 -1.77 3.25 4.94 8.07 7.53 5.72 5.48 7.87 10.46 11.14 10.80 8.84 5.81 3.51 2.98 2.11 4.35 2.01 3.01 1.67 2.33 1.58 -0.15 0.41 2.89 1.82 1.24 2.13 1.67 0.34 1.20 0.68 0.73 3.46 4.19 2.77 2.10 2.48 -1.41 -1.10 -4.16 -3.80 -4.22 -2.96 -2.96
2.58 -0.82 -2.98 -2.57 -2.24 1.30 -2.40 -8.99 -9.49 -6.82 -5.22 -3.32 -5.90 -4.14 -1.23 0.56 5.79 6.57 5.98 5.36 4.99 3.09 4.63 3.07 2.03 -1.09 0.91 0.73 0.59 0.94 0.53 0.30 -2.05 0.19 0.83 -0.06 -0.59 -0.73 -2.26 -3.86 -4.95 -3.02 -0.64 -0.73 -1.37 -1.76 -3.32 -3.68 -3.06 -3.09 -2.38 -3.65 -7.46 -6.71
-7.50 -12.20 -4.62 -4.95 -2.05 -0.24 -1.28 -9.84 -11.11 -8.59 -10.39 -3.88 -6.58 -11.29 -7.58 -4.91 -6.40 1.34 4.03 2.82 4.18 2.84 0.05 0.20 2.39 0.76 -3.88 -4.95 -5.35 -3.92 -5.52 -5.13 -4.77 -5.85 -3.51 -3.14 -4.04 -6.94 -6.84 -6.63 -8.12 -4.87 -3.67 -4.67 -4.77 -4.95 -5.31 -3.68 -4.22 -4.22 -3.86 -5.49 -7.49 -8.39
-11.33 -12.74 -10.93 -6.58 -5.85 -5.49 -3.69 -3.89 -4.61 -6.04 -8.03 -8.94 -8.76 -13.11 -12.74 -7.80 -7.18 0.29 3.52 2.55 2.62 0.92 0.37 -0.77 -2.96 -4.59 -5.49 -5.49 -5.67 -8.05 -11.69 -8.76 -7.67 -2.23 -7.85 -8.57 -10.75 -8.03 -8.03 -8.39 -7.12 -5.50 -4.68 -5.27 -6.33 -6.04 -5.75 -5.85 -6.27 -7.03 -7.95 -8.50 -9.31 -10.93

GFSWCAN_sfc_wetblb_090.txt.gz
Wetbulb
41.96 42.25 42.63 42.56 42.92 43.25 43.86 43.91 44.49 44.92 45.50 45.66 45.87 45.85 45.80 45.55 45.86 43.93 41.17 43.90 40.53 34.41 36.41 38.64 38.64 36.37 36.39 37.08 33.17 36.54 35.81 36.25 34.94 30.82 31.06 31.33 30.72 32.79 31.54 34.73 34.05 31.64 30.27 29.42 30.54 27.89 25.31 42.88 43.25 37.13 42.57 46.02 46.35 47.12
42.22 42.61 42.75 43.11 43.38 43.71 43.98 44.24 44.87 45.41 45.57 45.40 45.35 45.71 45.90 45.92 45.70 45.60 39.33 43.66 42.70 37.85 37.48 42.22 41.63 43.74 42.99 41.88 39.21 39.44 36.91 36.35 36.85 33.47 35.59 35.64 32.19 34.81 33.26 28.91 38.33 31.84 37.15 35.25 35.61 35.43 42.56 44.69 43.26 45.81 47.41 46.37 45.89 46.48
42.55 42.86 42.94 43.18 43.38 43.76 44.10 44.38 44.92 44.95 45.05 45.49 45.47 45.26 45.01 45.19 45.73 45.31 41.65 42.51 40.94 36.00 36.39 37.03 36.32 42.77 44.81 44.96 46.24 36.25 38.13 40.40 39.10 41.46 39.34 37.74 32.59 36.63 31.28 32.33 35.56 38.87 41.37 37.29 37.56 40.53 41.76 43.81 45.85 46.93 47.64 46.94 46.38 47.59
42.68 42.97 43.16 43.39 43.54 43.80 44.04 44.39 44.67 45.10 45.20 45.40 45.43 45.07 44.98 44.84 44.64 45.65 41.21 43.79 40.55 37.82 31.90 35.60 43.20 42.02 46.21 45.10 44.46 44.00 41.79 43.21 42.85 40.89 35.72 35.94 33.94 39.46 35.52 36.81 36.67 39.58 40.84 38.14 38.09 40.96 42.56 43.74 45.00 45.90 46.26 46.67 47.08 47.47
43.00 43.33 43.38 43.62 43.50 43.28 43.83 44.16 44.23 44.61 44.77 45.19 45.41 45.38 45.18 45.28 45.11 44.58 43.30 43.89 44.34 38.61 33.40 35.55 41.37 43.18 44.29 44.71 42.99 43.56 41.74 40.38 39.33 36.40 35.21 34.68 38.82 38.39 39.48 38.96 36.53 41.33 39.18 36.98 36.42 42.66 42.45 43.11 45.66 47.49 45.88 46.07 45.97 44.30
44.00 44.23 44.81 45.24 45.26 45.12 43.85 43.86 44.16 44.33 44.49 44.84 45.43 45.54 45.51 45.21 44.94 42.13 35.41 41.98 44.82 43.86 37.23 33.25 40.21 40.33 43.28 43.33 42.11 42.02 42.06 40.41 39.62 37.31 36.01 39.39 42.32 39.95 34.86 34.06 40.37 43.13 44.46 44.88 42.30 45.32 45.52 46.40 47.01 47.49 46.33 45.47 42.14 42.67
44.86 45.24 45.42 45.45 45.54 45.44 45.01 44.67 45.05 45.28 45.29 44.78 45.08 45.49 45.56 44.87 43.65 37.47 37.30 42.11 45.01 43.46 36.74 32.58 34.75 39.93 42.87 41.30 41.17 40.54 42.35 40.49 39.41 37.31 36.34 37.37 39.29 40.53 35.60 32.53 39.79 42.15 44.21 44.80 45.77 45.45 43.26 45.18 43.96 46.28 45.34 41.83 40.43 38.88
44.70 44.95 44.81 44.86 45.11 45.01 45.31 45.24 45.58 45.91 45.31 45.03 45.03 45.24 44.97 44.93 43.44 39.76 45.12 44.94 44.24 39.69 37.23 33.17 33.80 36.62 41.66 36.79 36.09 41.24 37.77 38.76 38.30 36.11 38.17 36.73 39.51 38.07 34.02 38.28 40.68 42.28 43.57 43.98 44.55 45.45 45.17 46.08 46.10 46.14 44.00 41.01 38.78 37.44
44.36 44.20 44.46 44.38 44.55 44.94 44.73 45.03 45.71 45.87 45.60 45.43 45.34 45.52 44.04 41.42 34.52 39.82 45.10 44.97 46.77 41.03 34.86 34.17 31.64 29.74 40.98 37.33 38.81 38.25 39.36 32.36 38.68 34.39 36.16 38.69 36.09 31.98 37.20 39.55 40.61 41.42 39.83 40.71 41.92 43.71 44.84 44.33 44.52 43.44 41.97 39.70 37.38 34.95
43.97 44.28 44.45 44.62 44.51 44.45 44.83 44.92 45.43 45.78 45.76 45.67 42.24 33.61 31.63 36.83 45.25 44.33 40.61 36.56 37.62 39.23 38.70 34.27 38.53 32.10 38.93 36.93 35.59 35.69 36.76 34.88 31.59 34.56 39.59 35.51 34.70 39.87 39.16 38.90 39.16 38.67 38.74 39.88 37.74 38.41 39.81 39.75 41.71 40.65 38.82 38.57 37.29 35.70
43.94 43.88 43.85 44.73 44.53 45.32 45.07 45.01 45.26 45.96 43.91 38.58 33.58 34.71 41.42 45.37 41.56 36.97 31.99 33.44 34.48 31.02 34.32 36.14 36.74 33.74 38.61 35.10 34.88 37.34 33.46 34.95 30.20 33.81 32.88 32.47 31.12 34.20 34.10 35.37 37.11 37.31 37.39 38.17 38.36 37.94 36.41 36.00 37.50 39.06 36.40 35.03 34.18 32.82
43.83 43.53 43.51 44.48 44.60 45.37 45.23 45.08 44.56 43.79 42.22 40.50 41.30 42.36 41.14 37.19 34.68 32.13 30.89 32.48 30.41 29.41 32.67 32.22 35.05 37.30 36.22 39.96 36.34 34.95 33.32 33.95 28.90 36.06 32.24 29.00 27.83 29.89 30.63 30.91 32.52 34.43 34.30 34.31 33.94 33.11 32.85 31.93 33.96 35.50 33.37 31.89 30.51 28.14
43.55 42.96 43.18 44.23 43.40 44.53 44.46 44.53 44.38 43.97 44.05 41.08 36.52 32.35 33.40 28.60 29.44 29.15 24.97 28.54 29.93 33.61 33.90 34.39 33.43 37.26 33.53 36.04 35.61 33.26 31.27 31.10 36.50 30.72 29.30 26.75 28.37 29.24 29.25 30.26 30.01 31.49 31.51 31.11 30.49 29.56 28.95 28.40 29.21 28.72 26.13 24.69 24.48 23.54
42.33 42.34 42.99 44.48 41.51 41.12 40.10 39.97 41.52 40.78 39.17 31.89 28.92 21.35 24.58 21.98 24.62 25.81 28.31 29.90 30.10 34.05 35.25 35.99 33.85 36.90 35.80 34.70 34.60 30.72 33.95 33.82 28.92 27.34 25.33 26.10 26.19 27.11 27.90 28.44 28.03 26.72 26.91 26.87 26.50 26.72 25.37 24.40 23.40 23.63 23.38 22.80 21.19 19.35
42.57 42.06 41.61 41.96 41.96 40.91 40.06 38.92 37.27 35.77 30.63 26.16 26.48 19.46 20.70 23.82 24.69 25.03 26.51 28.26 27.84 30.04 34.62 34.82 35.94 36.60 33.34 31.63 33.03 32.16 29.62 26.73 24.61 23.05 24.38 24.83 25.58 25.96 25.58 25.71 25.35 25.27 24.78 24.44 24.26 22.96 22.18 21.50 20.43 19.73 20.37 20.49 19.12 18.06
43.14 42.29 39.75 41.25 40.53 39.39 38.47 38.37 36.47 34.26 28.29 23.75 20.41 20.20 22.43 24.18 21.69 22.00 21.26 22.74 25.46 27.20 32.98 35.39 33.65 31.09 27.96 30.20 25.98 22.77 23.22 20.87 21.86 23.50 24.66 25.37 24.45 24.55 24.41 24.44 24.03 24.27 24.62 23.75 23.43 22.70 21.34 20.03 18.55 17.95 18.71 18.33 17.91 18.00
42.27 40.76 41.16 39.31 38.77 37.21 37.86 35.29 32.40 26.61 23.61 20.10 18.48 21.57 21.29 20.77 19.42 21.40 23.02 22.20 25.89 28.11 29.55 31.04 25.91 23.04 28.85 23.00 18.39 22.02 19.77 21.57 22.90 24.15 24.66 23.86 23.36 23.62 24.26 23.88 23.39 23.11 22.51 21.98 21.41 20.92 19.99 20.03 18.97 17.25 15.17 15.85 16.12 15.55
40.42 41.48 42.04 39.87 39.16 36.77 33.90 32.71 27.95 24.06 18.64 20.87 18.23 19.45 20.71 20.89 20.71 21.41 23.11 24.97 27.84 28.40 26.82 21.81 25.08 18.57 16.74 14.86 16.93 19.87 22.94 24.18 24.08 23.15 22.87 23.40 23.67 24.08 24.45 23.15 22.87 22.71 21.84 21.31 20.69 20.29 19.91 18.83 17.58 16.71 16.65 16.27 15.57 14.75
40.82 41.49 41.18 41.15 39.70 35.49 29.81 28.47 28.60 19.42 20.05 21.91 21.93 22.06 21.75 21.11 22.10 22.52 23.23 24.14 25.02 25.71 23.08 19.39 15.16 13.19 13.89 17.00 16.90 19.53 21.19 22.64 21.54 21.37 21.65 21.68 22.71 22.41 22.21 22.33 22.12 21.73 21.17 20.95 20.96 19.96 19.69 19.55 18.77 18.00 16.84 15.55 12.86 12.66
39.92 39.77 39.23 38.56 38.71 32.98 26.90 26.86 30.90 23.38 19.97 20.40 21.57 19.46 19.45 19.27 20.75 21.25 20.42 21.21 20.87 18.70 14.20 12.82 12.71 14.45 14.91 16.70 18.41 19.83 23.32 25.32 24.04 21.37 19.98 21.21 22.13 21.64 21.26 20.71 19.86 20.07 19.28 18.86 18.33 17.71 16.87 16.19 16.75 16.74 15.74 14.77 13.23 11.83
40.07 38.92 38.97 39.63 36.21 33.96 29.70 27.55 25.12 25.06 23.75 21.47 22.70 21.73 19.14 20.56 17.98 16.73 16.31 19.01 15.25 13.58 12.36 14.66 15.23 16.63 17.89 18.87 20.06 21.83 21.55 22.73 21.91 22.88 20.69 19.71 20.87 20.83 20.46 21.13 21.35 20.64 18.69 17.76 16.18 15.68 15.31 14.63 15.19 15.66 14.58 13.71 13.43 12.74
36.57 36.60 37.52 37.43 33.58 32.02 30.06 31.19 27.67 28.39 25.64 23.81 22.90 21.88 18.15 16.56 16.13 15.67 18.41 14.02 11.90 12.55 14.21 15.23 15.39 16.06 16.38 15.99 17.50 19.20 19.98 20.70 20.93 20.67 20.28 20.82 19.80 19.73 19.52 19.66 19.00 17.42 17.15 17.01 16.34 14.70 14.57 14.92 15.01 14.58 13.71 12.76 12.49 11.83
33.48 34.51 31.80 31.05 27.45 27.43 25.17 32.54 26.03 26.47 21.63 21.99 22.71 17.97 16.69 16.63 17.15 19.89 12.59 13.30 13.21 15.76 16.43 16.64 17.38 17.27 16.58 17.20 17.83 18.07 18.62 19.35 18.62 18.69 18.65 18.49 18.60 18.85 18.56 18.55 18.58 16.63 14.74 14.65 15.78 14.82 13.55 13.47 13.57 13.58 13.17 12.56 11.49 10.11
28.41 21.60 20.28 20.98 24.33 19.79 24.60 21.34 25.15 22.93 22.84 20.60 17.83 14.24 14.58 16.55 18.70 14.46 9.36 11.61 13.75 16.04 15.46 15.63 17.41 17.11 17.14 16.23 15.38 15.39 17.50 19.31 18.15 17.81 18.54 17.42 15.65 15.45 16.69 15.85 16.07 16.34 15.80 15.54 14.76 13.90 13.42 12.58 12.48 12.69 11.87 10.99 10.24 9.43
19.58 12.29 17.25 14.38 18.84 17.08 15.31 15.08 15.36 17.64 14.57 15.93 12.63 12.37 12.92 17.79 11.36 9.71 8.11 11.00 13.09 13.30 14.03 15.50 15.03 15.09 14.27 14.78 15.39 15.20 16.38 17.53 16.19 14.02 16.42 18.03 16.67 16.23 14.67 14.20 14.29 15.54 16.83 14.90 13.19 12.96 12.34 12.45 12.13 11.31 10.54 9.88 8.35 7.27
7.94 10.76 12.47 12.42 13.00 13.59 13.39 10.99 10.57 10.95 12.25 10.35 9.72 12.12 14.83 11.76 7.35 6.07 9.44 11.86 12.67 13.06 13.73 14.19 14.40 14.17 12.65 13.11 12.54 12.27 13.06 16.77 16.72 13.11 12.75 14.36 16.12 16.33 15.02 13.75 12.67 11.84 15.37 15.09 13.62 11.97 11.21 11.27 10.55 9.86 8.85 7.76 6.55 7.16
8.16 8.77 12.24 14.43 14.83 13.07 11.17 11.91 12.43 10.58 7.23 7.21 9.62 7.87 9.39 3.97 4.06 8.76 14.08 13.92 13.91 14.58 15.29 15.71 15.29 14.12 13.05 13.01 13.62 13.90 14.48 13.97 12.77 11.91 12.94 12.77 12.74 12.84 14.16 13.25 11.27 12.19 15.26 14.82 13.97 12.85 10.97 9.83 9.14 8.90 7.83 8.12 8.17 7.96
11.71 12.18 6.03 6.99 8.17 10.18 4.95 6.11 6.00 5.53 7.16 10.23 10.19 2.99 2.41 3.62 6.08 12.32 14.07 15.70 15.80 15.71 15.09 14.79 14.26 13.81 12.97 12.78 13.66 14.17 14.08 14.01 13.59 13.79 13.69 12.86 12.00 11.86 11.94 11.82 11.75 11.28 12.79 14.04 14.27 13.67 12.84 11.50 10.08 9.25 8.59 7.48 5.72 7.84
9.55 11.15 9.70 0.14 5.35 6.54 5.46 5.70 6.62 8.48 9.71 10.56 7.62 5.86 6.51 10.41 13.01 14.64 15.62 16.58 17.68 16.77 14.38 13.50 13.04 14.09 13.18 12.54 11.72 11.28 11.34 11.85 9.93 8.32 8.00 8.54 9.36 8.67 10.52 11.60 11.88 12.79 13.30 12.37 10.96 11.24 10.94 10.80 10.45 10.13 9.01 8.22 6.23 5.59
8.97 12.55 7.42 4.11 2.75 4.65 7.41 9.58 8.66 9.80 11.38 12.00 12.39 10.67 10.49 11.02 12.83 15.76 16.55 16.07 14.35 12.11 11.60 11.92 12.47 13.38 10.47 10.61 9.06 8.43 8.75 8.80 8.45 10.47 9.46 7.87 7.45 8.54 9.29 9.57 10.16 10.80 12.26 11.56 10.14 8.77 7.89 7.13 6.66 5.70 5.47 5.36 6.99 5.99
12.14 13.11 8.81 8.36 6.57 9.28 10.29 9.76 11.24 11.73 11.98 11.08 12.71 10.62 8.60 10.79 12.62 12.52 11.89 12.61 12.81 13.14 13.47 11.66 9.71 8.74 9.75 8.93 9.71 8.94 6.44 7.43 6.09 7.03 8.68 8.68 8.55 8.47 7.52 6.88 8.26 10.29 10.08 9.07 8.59 8.22 7.16 7.52 8.09 6.73 6.14 4.56 2.05 3.87
9.57 8.08 7.49 5.44 7.35 10.77 11.98 12.29 12.28 11.30 11.99 12.30 9.87 10.13 8.90 10.80 7.52 10.80 9.96 11.03 13.52 11.66 6.45 9.43 8.91 6.19 5.67 6.36 6.36 5.86 4.28 5.82 5.50 5.38 6.31 6.97 6.74 5.49 6.25 6.34 6.86 8.68 8.09 7.30 7.59 7.11 4.12 4.26 6.74 5.70 5.91 1.38 1.47 0.79
8.72 10.05 10.23 9.51 8.73 9.07 9.93 11.04 9.46 8.72 9.92 9.38 7.54 6.18 6.48 8.19 4.86 8.69 10.89 9.26 11.20 10.23 8.76 8.06 7.32 6.82 5.04 4.71 5.09 3.89 4.04 3.56 0.56 1.64 -0.55 -1.50 -2.47 1.49 5.79 6.70 6.80 6.43 4.87 6.23 5.71 5.28 2.45 -1.12 2.37 0.94 0.64 -0.22 -0.76 -1.26

GFSWCAN_sfc_wetblb_093.txt.gz
Wetbulb
41.46 41.87 42.06 42.31 42.51 42.70 43.23 43.66 43.69 44.01 44.25 44.49 44.67 45.03 45.34 45.48 45.61 45.00 43.12 46.41 40.94 35.32 37.71 39.56 39.88 37.11 37.39 36.81 32.96 36.72 37.55 38.07 36.08 31.58 31.89 32.47 32.31 34.63 33.91 36.22 34.97 33.03 31.20 29.95 31.28 28.26 26.17 43.71 43.82 38.34 43.43 46.42 46.91 47.55
41.27 41.74 41.91 42.19 42.52 43.03 43.23 43.45 43.85 44.09 44.40 44.65 45.13 45.40 45.77 45.83 45.86 45.55 39.34 45.50 47.08 38.75 38.31 43.05 43.35 43.43 42.87 42.59 38.89 38.75 37.87 36.38 39.13 35.31 36.41 36.66 33.93 36.31 34.78 30.13 40.47 31.96 37.08 34.98 35.73 35.13 43.64 46.29 45.48 47.37 47.49 46.26 46.86 47.25
41.61 41.99 42.34 42.44 42.72 43.13 43.55 43.74 43.88 44.12 44.50 44.90 45.04 45.81 45.71 45.95 46.02 44.99 41.27 43.09 42.30 37.17 37.67 38.87 37.86 44.28 45.85 45.29 46.33 36.30 40.37 40.34 39.95 42.27 39.17 37.38 34.39 38.56 32.17 34.30 36.92 40.18 43.47 38.71 38.58 41.82 43.18 45.40 46.34 47.22 47.11 47.30 47.71 47.68
42.06 42.58 42.83 43.03 43.08 43.37 43.63 43.64 43.94 44.14 44.57 45.06 45.05 45.19 45.52 45.57 46.02 45.68 41.93 42.88 40.89 38.09 31.18 36.27 44.83 41.64 45.96 46.29 44.94 44.26 43.67 42.94 41.79 41.77 37.84 36.61 35.24 40.76 36.56 38.17 37.28 40.28 41.65 39.42 39.39 42.29 43.72 45.10 45.99 46.62 46.92 48.50 48.07 48.42
42.29 42.63 42.99 43.37 43.46 43.63 43.73 43.67 43.92 44.23 44.65 45.13 45.29 45.24 45.40 45.59 45.52 45.30 43.78 43.40 43.74 38.75 33.70 34.61 41.95 44.23 45.82 44.13 43.81 45.25 42.89 40.09 38.38 35.47 34.29 34.98 39.58 38.86 40.11 39.43 37.84 42.13 40.27 37.95 37.59 43.42 43.44 44.42 46.77 48.16 47.04 47.08 47.89 45.53
43.03 43.48 43.90 44.24 44.52 44.63 44.65 44.41 43.80 44.10 44.51 44.95 45.36 45.62 45.26 45.34 45.18 41.28 34.11 41.98 43.78 43.29 37.42 32.52 41.74 39.93 43.37 44.47 43.79 42.66 41.80 40.57 39.30 36.25 35.98 39.13 41.84 39.75 36.04 34.83 41.36 43.49 45.10 45.40 42.64 45.85 46.23 47.04 47.85 48.55 47.26 47.55 45.83 44.60
44.13 45.02 45.59 45.47 45.43 45.74 45.41 45.54 44.98 44.16 44.55 44.85 45.04 45.37 45.19 44.65 43.63 37.32 38.57 42.06 44.84 44.46 35.85 33.95 34.01 41.29 42.88 41.96 42.11 42.19 42.45 40.20 38.54 36.92 36.41 37.96 38.76 40.00 37.52 33.52 40.66 43.11 44.68 45.49 46.75 46.05 44.08 45.92 45.30 47.77 47.75 47.28 43.96 42.31
44.74 44.41 44.63 44.92 45.10 45.18 45.36 45.47 44.98 44.37 44.71 44.85 45.08 45.22 44.86 44.84 43.29 39.68 43.99 44.81 45.29 39.70 36.88 33.19 34.08 35.56 41.72 36.73 36.78 41.58 38.21 38.40 37.32 35.42 37.81 37.14 39.08 39.30 33.84 38.65 41.46 43.05 44.28 44.59 45.65 46.69 45.90 47.15 47.52 47.41 47.56 45.28 43.58 41.29
44.05 44.29 44.60 44.62 44.85 45.10 45.23 45.29 45.08 45.10 45.45 45.75 45.14 44.87 43.40 40.60 36.55 41.30 45.00 45.24 46.09 40.77 34.78 33.78 32.12 30.88 41.19 37.46 38.79 38.40 38.80 33.24 38.45 34.97 36.07 38.50 36.21 32.84 37.42 39.30 40.58 41.91 41.54 42.38 44.07 44.37 44.78 45.16 44.88 45.97 45.77 44.53 42.66 40.93
44.07 44.13 43.87 44.17 44.50 44.97 45.05 45.17 45.47 45.93 45.80 45.25 42.31 33.22 32.15 37.25 45.06 44.89 41.26 37.22 37.42 39.08 39.84 34.63 40.38 35.03 39.63 37.30 35.38 36.76 37.36 35.35 31.94 34.34 39.69 34.81 34.52 40.38 41.42 41.45 41.34 40.42 40.33 41.22 39.72 39.78 40.44 40.16 40.69 41.18 41.99 43.77 42.14 41.33
43.53 43.93 44.33 44.65 45.19 44.67 44.97 45.26 45.71 45.48 42.47 38.64 34.11 34.51 40.66 45.03 41.44 36.17 32.69 33.06 35.12 32.65 36.70 38.16 38.67 36.51 41.83 35.61 34.78 37.87 34.46 35.92 30.53 34.50 34.13 33.43 33.44 36.20 36.40 36.71 37.67 37.92 38.23 38.61 38.86 39.14 39.73 39.08 37.87 37.63 38.43 40.95 39.35 37.73
44.58 43.60 44.85 45.26 45.04 45.02 45.05 45.71 44.19 42.78 40.62 40.81 41.00 42.52 41.92 38.21 34.84 32.32 32.29 34.27 32.26 30.69 35.46 34.70 37.51 39.47 40.13 42.79 38.18 37.09 33.68 34.64 28.97 38.02 33.06 30.41 29.69 31.97 33.43 32.79 33.50 34.79 35.10 35.42 35.97 34.41 34.07 33.62 33.81 34.70 33.91 31.43 30.63 28.90
43.76 43.27 43.93 44.79 44.89 45.16 45.10 44.88 44.69 44.46 44.93 43.42 39.16 35.02 35.72 32.45 30.16 29.43 25.71 29.01 30.89 35.55 35.36 37.83 34.75 37.72 37.90 38.89 37.09 35.68 29.97 31.45 37.61 32.79 30.85 28.34 29.35 30.50 30.59 30.91 30.65 32.63 31.86 30.87 30.76 31.12 30.23 28.60 28.86 29.01 26.76 26.62 26.35 24.84
42.84 42.29 42.06 42.01 42.89 44.58 44.45 44.76 44.53 42.00 40.66 36.39 32.94 25.39 29.50 27.49 28.35 28.43 30.27 32.47 32.19 35.66 36.15 37.78 35.60 36.70 36.24 34.33 34.51 31.61 34.64 35.28 29.99 28.66 26.33 26.15 26.27 27.54 28.39 28.17 27.46 26.84 26.90 26.54 26.38 26.44 25.87 25.22 23.97 24.28 23.59 23.46 22.43 21.13
42.34 42.14 40.58 40.68 40.69 40.77 40.51 39.77 39.14 38.63 33.63 28.92 30.43 23.60 24.60 26.38 27.46 28.04 29.55 31.04 29.43 31.04 35.68 36.22 37.67 37.84 35.21 32.87 35.19 33.48 30.88 28.64 27.09 24.27 25.14 25.86 26.46 26.35 25.99 26.11 25.69 25.45 25.69 25.59 25.38 24.20 23.06 22.47 21.64 20.77 20.82 20.50 19.23 18.13
43.07 42.41 38.99 40.28 40.55 40.35 39.88 40.40 39.37 37.11 31.54 26.52 24.50 23.39 27.46 28.11 26.25 26.44 26.10 26.92 29.35 29.49 34.44 36.01 35.21 32.35 29.98 31.31 28.90 25.41 26.08 23.78 23.13 24.66 25.34 26.21 25.04 25.23 25.00 25.37 24.52 24.62 24.94 25.07 24.72 23.72 22.53 20.98 20.18 20.09 19.97 19.31 18.97 18.65
43.18 41.90 39.93 39.69 39.65 38.88 39.92 37.76 34.40 29.20 26.68 23.87 21.92 25.29 25.64 25.26 24.55 24.39 25.57 26.24 30.17 30.65 32.13 33.40 29.27 25.99 30.87 26.21 22.43 24.12 21.50 23.60 25.11 25.68 26.09 25.18 24.17 24.56 25.47 25.50 24.73 24.20 23.47 23.27 22.76 22.18 21.50 21.53 21.02 19.34 17.22 17.67 17.62 17.06
43.19 41.16 40.48 41.25 41.53 39.13 36.08 35.37 30.35 26.05 21.15 24.18 21.52 23.12 23.89 24.63 25.17 25.28 26.94 28.06 30.88 30.84 30.42 24.68 29.44 23.61 22.05 19.38 20.58 22.24 24.37 26.62 25.63 24.57 24.11 24.42 24.82 24.39 25.25 24.17 23.71 23.99 22.79 22.16 21.99 21.57 21.21 20.27 18.76 17.49 17.38 17.53 16.27 15.79
42.78 41.88 41.54 40.43 40.13 37.61 32.11 31.21 32.36 22.34 22.84 24.54 25.01 25.32 25.36 25.18 25.59 26.18 27.13 28.41 28.11 28.70 27.30 24.57 20.11 18.07 17.64 19.60 20.08 21.73 23.24 24.69 22.70 23.46 24.27 23.90 23.76 23.69 23.37 23.59 23.67 22.99 22.76 23.18 22.72 21.69 21.25 20.96 19.75 19.19 18.97 17.85 15.74 15.47
40.03 40.06 39.74 39.44 40.89 34.68 28.60 29.06 34.32 26.47 22.90 23.32 25.34 22.93 23.64 23.36 25.26 25.33 24.30 24.49 24.05 21.93 17.76 16.29 15.41 16.75 16.86 18.34 20.36 21.65 24.02 25.69 26.49 25.16 23.99 23.41 24.11 23.55 22.94 22.69 21.88 21.84 20.76 20.21 19.96 19.71 18.93 18.42 19.21 19.10 18.27 17.27 15.49 13.93
40.81 39.37 40.34 41.99 38.47 35.90 31.39 29.68 27.19 26.68 26.08 23.89 25.50 24.40 23.35 24.39 22.11 21.44 20.92 22.35 17.76 16.39 14.89 17.41 18.08 19.11 20.01 20.71 21.97 23.59 22.61 23.74 23.14 24.05 22.99 21.91 23.08 23.44 23.45 24.12 23.69 22.82 20.52 19.45 17.94 17.52 17.02 16.26 16.52 16.95 16.48 15.39 15.30 14.77
39.81 38.93 41.19 40.27 34.65 33.13 30.79 32.26 28.40 30.07 27.24 25.54 25.11 24.84 22.11 20.04 19.19 19.10 21.06 17.13 14.91 15.76 17.50 18.19 18.03 19.37 19.61 18.68 20.31 21.38 22.09 23.63 23.89 23.52 23.29 23.29 23.00 22.39 22.01 23.01 22.08 20.65 20.45 20.37 19.18 17.72 17.28 17.57 17.88 17.32 15.96 14.98 14.97 14.41
36.64 38.31 35.65 34.96 30.43 28.80 26.58 34.42 27.88 28.29 24.08 23.40 25.28 20.64 20.12 19.93 20.66 23.94 16.02 16.53 16.44 19.29 19.61 19.49 20.11 19.89 19.89 20.70 20.96 20.95 21.82 22.18 21.12 21.47 21.92 22.24 22.69 22.98 22.40 21.67 21.60 19.54 18.01 18.27 19.27 18.18 17.22 17.29 17.09 16.83 16.22 15.33 14.24 13.36
31.47 26.32 24.84 25.71 27.38 22.89 27.74 24.43 27.62 25.01 24.71 22.38 20.23 16.70 17.27 19.83 22.95 17.93 12.74 14.59 17.23 19.26 18.74 18.80 20.64 21.45 20.75 19.57 17.89 17.56 20.35 22.37 20.96 20.75 22.14 20.92 18.90 18.69 19.45 19.01 18.95 19.15 18.66 18.24 17.87 17.29 16.84 16.36 16.34 16.33 15.74 14.87 14.35 13.25
22.69 15.72 22.71 19.52 24.38 22.41 20.73 20.27 20.29 20.94 17.71 19.01 15.74 16.33 17.09 22.87 16.48 13.67 12.08 14.12 16.14 16.48 17.77 19.49 18.72 17.99 17.20 17.32 17.70 17.43 18.77 20.30 18.99 16.92 19.62 21.97 20.36 19.22 17.16 16.69 16.83 18.34 20.19 18.00 16.51 16.08 15.52 15.69 15.30 14.62 13.84 13.40 12.21 11.15
12.81 15.15 17.43 17.96 18.46 18.94 19.46 16.36 16.73 16.66 17.03 14.86 14.86 18.07 21.22 17.98 12.31 10.19 12.88 15.09 15.77 16.29 16.73 17.33 18.04 17.66 16.17 16.54 15.90 15.58 16.25 19.56 19.53 15.89 15.54 17.05 18.12 19.55 18.24 16.75 15.34 14.77 18.40 18.61 17.08 15.38 14.56 14.43 13.70 12.66 11.66 10.85 10.21 10.59
13.00 13.91 16.39 20.06 20.38 19.65 18.01 18.45 18.94 16.53 13.38 12.64 15.98 14.49 15.87 9.71 9.06 12.08 16.16 16.85 16.66 17.27 18.17 18.56 18.28 17.13 16.10 16.22 16.68 16.96 17.31 16.85 15.93 15.23 16.47 16.64 16.57 16.54 16.91 15.74 13.55 15.47 18.35 17.80 17.25 16.00 14.23 13.37 12.50 11.94 10.86 11.41 11.39 11.33
15.98 16.21 10.40 13.74 14.45 17.06 11.50 12.92 12.65 11.46 13.11 15.49 16.42 9.21 8.16 9.44 10.32 15.69 16.47 17.98 18.60 18.65 18.05 18.07 17.90 17.56 16.50 16.29 16.75 17.08 17.38 17.71 17.17 17.69 17.69 16.72 16.34 16.50 16.16 16.14 15.56 14.83 16.69 17.59 17.27 16.56 15.85 14.58 13.31 12.60 11.90 11.28 11.04 12.52
15.17 17.24 13.81 6.43 12.34 12.36 12.14 12.55 12.64 13.09 13.98 17.52 14.37 11.20 10.63 13.66 17.81 16.97 17.97 19.09 21.18 20.55 17.69 16.85 16.71 18.94 18.06 17.21 16.11 15.68 15.82 15.50 14.61 11.09 10.89 12.62 12.65 12.18 15.00 15.60 15.94 16.54 16.54 14.99 13.82 15.00 15.04 14.81 14.31 13.55 12.48 11.62 10.85 11.27
13.82 19.51 12.76 10.53 9.39 9.40 11.44 15.28 13.15 15.36 16.88 16.83 15.73 13.67 13.23 13.84 15.85 20.65 19.40 19.15 17.11 15.80 16.50 16.66 16.72 16.49 14.40 14.86 12.81 12.17 13.25 13.31 13.37 13.95 12.98 11.02 10.19 12.40 13.21 13.29 13.60 14.43 15.09 14.50 12.73 11.50 11.06 11.27 10.72 10.32 9.66 9.47 10.59 9.91
19.89 19.48 14.88 13.80 10.93 13.02 14.87 15.66 17.80 17.26 17.98 16.96 18.30 15.32 12.94 13.36 15.29 16.33 16.05 16.78 17.18 17.92 17.50 15.42 13.24 13.25 13.15 12.09 13.13 12.39 9.80 11.01 9.56 10.42 12.11 12.29 12.01 11.80 11.17 11.25 12.80 14.14 14.13 13.49 12.84 12.20 11.54 12.32 12.29 10.50 9.36 7.71 6.53 7.48
17.50 14.77 13.02 9.89 10.92 14.65 17.50 18.22 17.45 15.94 16.52 15.59 13.99 15.12 14.60 15.26 11.56 14.32 14.94 16.37 17.40 14.85 10.58 13.88 12.26 9.66 10.83 11.48 10.86 10.07 8.21 9.60 9.43 9.16 9.75 10.57 10.72 10.13 10.85 11.38 11.89 12.46 11.73 11.55 11.79 10.95 8.08 7.89 10.98 9.73 9.85 5.85 6.01 5.39
16.70 16.44 15.79 14.37 12.22 13.62 14.93 17.05 15.19 13.57 16.01 14.73 13.24 14.14 13.46 14.00 9.02 12.63 15.12 15.51 15.47 14.22 12.81 12.20 12.18 10.74 8.52 8.47 9.39 9.35 8.42 7.28 4.32 4.86 3.90 3.26 2.21 5.06 9.58 10.89 10.98 10.43 8.26 10.34 10.19 9.26 5.39 3.06 6.77 5.52 5.08 4.04 3.67 3.70

GFSWCAN_sfc_wetblb_096.txt.gz
Wetbulb
40.18 40.97 41.53 41.72 41.41 41.62 41.97 42.14 42.64 43.19 43.69 43.93 44.17 44.53 44.84 45.10 45.02 44.17 41.18 44.64 40.55 35.01 36.13 38.57 39.12 35.74 36.63 36.09 31.74 36.77 36.03 37.65 35.82 30.51 30.00 30.56 30.44 33.17 32.67 34.26 33.33 31.48 30.04 29.47 30.71 27.77 25.76 43.34 42.38 37.62 42.07 45.56 45.71 46.20
40.54 40.80 41.52 41.30 41.57 42.00 42.48 42.97 43.19 43.53 43.77 43.96 44.20 44.51 44.89 45.33 45.57 45.32 39.58 44.84 45.02 37.57 36.93 42.43 42.27 43.30 41.65 40.57 38.04 38.35 35.51 32.75 38.22 34.21 34.52 35.19 32.39 36.03 33.99 29.11 39.33 31.47 35.54 33.39 34.25 33.46 42.90 44.67 45.19 47.41 47.10 45.04 45.70 46.60
40.57 41.00 41.12 41.39 41.81 42.26 42.79 43.08 43.18 43.58 43.77 44.11 44.40 44.68 44.94 44.93 45.40 45.04 41.70 43.41 41.02 36.02 36.67 37.96 37.45 43.01 45.47 45.02 46.19 36.42 38.57 39.70 39.54 40.40 37.23 36.06 31.95 36.14 31.38 32.78 35.45 38.80 41.85 35.66 36.83 40.12 42.51 44.93 46.76 47.33 46.71 46.06 47.19 47.79
40.95 41.14 41.68 42.15 42.41 42.70 42.91 43.26 43.34 43.58 44.02 44.17 44.35 44.82 45.01 45.11 46.25 45.81 41.58 43.11 41.61 37.64 31.07 34.51 44.45 41.06 45.00 45.65 44.73 44.50 41.76 41.21 39.92 40.51 35.10 35.33 33.13 38.24 35.06 36.61 36.43 39.25 39.53 38.15 38.20 42.05 43.40 45.04 45.92 46.66 46.85 47.71 47.34 47.97
41.37 41.50 41.96 42.51 42.70 42.99 43.27 43.37 43.59 43.80 44.05 44.40 44.55 45.06 45.01 45.20 45.74 45.25 44.08 43.02 43.75 37.70 33.11 34.32 41.12 43.28 45.36 44.27 42.64 43.69 42.62 40.94 39.69 36.04 33.83 32.36 37.49 37.90 39.07 38.47 35.75 41.25 39.64 37.32 35.70 42.88 42.54 43.74 46.15 47.24 46.43 46.61 46.81 45.36
41.92 42.21 42.29 42.72 42.99 43.31 43.63 43.84 43.96 43.94 44.03 44.37 44.80 45.27 45.45 45.40 45.36 40.10 33.93 42.24 43.95 43.91 35.93 32.46 41.68 40.99 43.34 43.83 42.78 41.98 42.02 41.54 40.69 36.35 34.55 37.58 40.73 37.97 33.72 33.14 40.37 42.93 44.76 44.73 42.01 45.56 45.23 46.21 46.72 47.49 46.28 46.77 45.35 44.21
41.93 42.70 42.97 43.50 44.27 44.89 44.75 44.81 44.83 44.48 44.39 44.36 44.85 45.20 45.24 45.06 42.44 36.89 37.45 41.37 44.40 43.45 33.90 33.01 33.18 40.13 41.64 42.46 42.59 42.68 43.34 41.41 39.09 36.99 34.69 35.83 37.79 38.74 35.47 31.67 38.47 41.21 42.32 43.99 45.48 45.56 43.78 45.40 43.93 46.77 47.46 46.64 44.96 43.41
43.11 43.93 44.57 44.88 44.93 45.07 45.04 45.31 45.22 45.43 44.83 44.53 44.90 45.23 45.43 45.30 43.25 38.83 44.02 44.71 44.36 38.48 36.87 31.97 32.95 35.58 41.53 36.57 36.36 42.48 37.94 38.73 37.33 36.41 37.29 36.09 38.03 37.53 32.11 38.10 40.59 42.01 43.64 44.21 44.31 45.56 45.07 45.55 46.59 45.65 46.66 46.47 44.32 43.41
44.37 44.93 44.70 44.31 44.92 45.22 45.39 45.32 45.59 45.82 44.97 44.92 45.23 45.32 43.59 40.30 35.63 39.10 45.02 45.00 44.73 39.47 33.20 32.64 30.27 29.57 39.68 36.48 37.84 38.53 38.38 32.28 37.47 32.95 35.87 37.31 35.02 31.70 36.73 38.86 40.25 40.68 39.99 40.09 41.97 43.31 43.80 42.53 42.27 42.56 42.48 42.79 42.63 42.68
44.32 44.18 44.25 44.42 44.56 44.87 45.14 45.31 45.54 45.31 44.85 44.99 42.30 34.06 31.75 37.48 45.00 44.42 40.68 37.11 36.80 37.89 38.33 32.50 38.51 33.44 37.59 36.32 34.79 34.43 35.98 34.03 31.13 33.67 38.32 34.05 32.86 38.71 38.69 37.92 37.52 38.38 38.70 39.05 36.66 36.13 37.24 37.66 38.29 38.63 39.02 40.08 40.75 41.08
44.08 44.25 44.30 44.46 44.78 44.75 45.11 45.05 44.87 44.90 44.71 39.50 34.98 34.80 41.28 44.39 40.13 34.95 31.93 32.30 33.35 31.24 35.47 36.51 37.54 34.94 40.72 34.18 32.64 36.39 33.23 35.06 29.43 33.53 33.09 32.05 31.26 31.87 34.87 34.26 34.99 36.19 36.40 36.57 36.69 36.73 36.21 34.59 33.83 34.08 35.28 35.16 34.73 34.47
43.86 45.10 45.44 45.31 44.76 44.78 45.36 45.06 44.58 41.89 40.92 41.86 41.02 42.65 41.76 37.24 34.08 31.56 30.65 32.42 32.06 30.24 36.94 36.25 37.17 39.44 40.06 42.17 35.74 35.85 32.65 33.72 28.22 37.72 33.58 29.36 28.00 30.21 31.10 30.78 31.56 32.72 32.26 32.12 33.06 32.11 31.38 30.74 30.36 31.27 29.93 29.21 28.14 27.23
42.41 44.88 45.32 45.26 44.95 45.22 44.45 43.18 43.97 44.65 44.57 43.22 39.69 36.04 35.28 33.38 29.76 28.05 25.14 28.57 30.82 36.36 37.00 38.13 35.17 37.15 39.50 40.01 37.39 35.99 30.73 29.60 37.22 32.45 29.20 25.78 27.00 28.27 28.30 28.51 28.41 29.85 28.70 28.52 28.21 28.44 28.13 26.62 26.63 27.40 26.52 26.26 25.30 23.45
41.34 43.40 44.84 44.17 43.47 43.47 44.26 44.74 44.65 44.38 42.58 36.70 33.01 27.69 30.48 28.77 29.65 28.27 29.28 32.05 33.11 37.34 37.61 38.41 36.59 35.94 36.70 34.11 34.77 30.03 33.66 34.93 28.83 27.37 23.03 24.21 25.68 26.35 26.75 26.80 26.15 25.15 26.17 25.94 25.64 25.26 24.36 23.98 23.39 23.49 23.57 23.90 22.57 21.15
41.30 41.04 42.37 44.07 43.56 41.26 40.97 41.21 40.28 40.20 35.18 30.42 31.69 24.63 25.14 27.81 28.52 29.25 31.53 31.94 30.51 33.73 35.00 36.97 37.00 36.74 33.79 31.68 32.45 32.39 29.90 28.11 25.11 21.47 23.97 25.12 25.56 25.21 24.85 25.14 24.29 24.45 25.53 25.17 24.68 23.12 21.48 21.43 20.62 19.80 20.29 20.36 19.11 18.14
42.80 40.33 39.08 41.24 42.04 41.65 41.01 40.71 39.33 37.30 32.34 27.16 26.13 25.83 29.01 27.90 27.17 28.07 29.07 29.28 30.16 30.36 33.22 36.22 33.83 32.52 30.77 32.38 30.30 25.68 26.29 20.80 21.80 24.27 24.96 25.12 24.34 24.65 25.05 25.26 24.58 24.62 24.45 24.27 23.95 23.03 21.51 20.53 19.35 18.92 19.39 19.13 18.92 18.64
43.63 37.68 39.59 40.65 41.12 40.53 40.53 37.99 34.57 29.64 27.61 24.88 22.72 26.79 28.42 27.11 25.46 26.57 28.35 27.36 31.13 30.01 32.11 33.05 30.03 26.87 32.01 26.76 22.45 23.78 20.61 22.59 24.92 25.00 25.37 24.79 23.78 23.91 24.94 24.30 24.47 23.91 23.21 22.55 21.69 21.25 20.98 20.78 20.05 18.01 15.76 16.52 17.12 17.09
38.79 38.90 40.87 41.28 41.18 39.75 37.89 36.33 31.22 27.70 22.44 25.75 22.84 24.32 25.06 26.11 25.91 26.33 28.39 29.24 30.81 31.09 30.66 25.57 29.01 24.56 21.39 21.20 19.52 22.65 24.45 26.72 25.95 24.97 23.87 24.19 24.60 23.88 24.61 23.87 23.41 23.01 21.94 21.61 21.26 21.09 20.36 19.32 17.21 16.20 16.29 16.19 15.50 14.85
39.64 40.58 40.58 40.92 41.84 38.17 32.21 31.92 32.51 22.63 24.12 26.18 26.51 27.56 26.62 26.16 26.94 27.17 27.76 29.42 28.83 29.55 28.09 25.70 20.00 18.11 17.29 18.95 19.62 21.31 23.39 24.67 24.68 25.06 24.30 23.79 23.35 23.43 23.21 23.17 22.65 21.47 21.79 21.79 21.45 20.53 20.42 20.29 19.61 19.22 18.63 16.95 14.36 14.08
40.84 40.33 41.07 41.53 41.97 35.01 29.62 30.03 34.38 26.63 23.52 24.59 26.38 24.67 24.93 24.73 26.75 26.29 24.82 25.31 25.34 23.05 18.41 16.31 15.76 16.39 17.20 18.87 20.76 21.46 22.84 24.77 25.51 26.19 23.82 23.56 24.86 24.04 22.77 22.54 21.55 21.71 20.52 20.10 19.87 19.86 19.34 18.69 19.21 18.98 17.93 16.51 14.38 13.31
40.52 39.74 41.57 41.90 37.83 35.76 32.70 29.58 27.30 27.37 27.06 24.96 26.81 25.80 24.55 25.17 22.82 21.96 21.29 23.10 18.40 17.43 15.35 17.96 18.83 19.69 21.12 21.90 22.50 23.94 23.62 23.75 22.63 22.66 22.09 21.54 23.68 24.18 24.13 24.30 23.65 21.95 20.01 18.96 17.59 17.24 16.97 15.97 16.56 16.91 16.04 15.06 15.03 14.58
40.17 39.13 40.60 40.18 34.32 33.06 30.72 33.03 29.05 30.59 27.35 26.12 25.70 25.80 23.40 20.56 19.85 19.72 21.09 16.70 15.25 16.88 18.60 19.12 18.71 21.24 19.60 19.38 20.61 22.32 22.98 24.46 23.79 23.54 23.49 23.51 21.75 21.72 22.04 22.78 21.51 20.41 20.28 19.57 18.70 17.62 17.22 17.20 16.95 15.75 14.62 14.31 14.74 14.47
37.48 39.22 36.64 35.32 30.31 28.79 27.14 34.73 28.21 29.23 24.39 23.96 26.07 21.72 21.20 20.42 21.18 23.41 16.33 16.76 17.24 20.33 20.66 20.76 20.90 21.53 21.40 21.44 20.91 21.36 23.19 22.07 21.23 22.10 22.38 21.67 21.68 22.01 21.27 21.29 21.47 19.32 17.75 18.56 19.50 18.12 17.32 17.77 17.56 16.78 16.24 14.95 13.81 13.53
33.77 28.47 26.85 27.13 28.00 23.55 28.55 25.50 28.26 25.77 25.45 23.31 20.98 17.43 18.23 20.22 23.33 17.76 12.61 14.96 17.75 20.14 19.81 19.69 21.11 21.79 20.39 19.05 17.29 17.17 19.89 22.43 20.78 21.17 22.10 20.11 18.13 18.45 19.27 18.75 18.88 18.99 19.02 18.90 18.49 18.00 17.60 17.12 16.97 16.31 16.33 15.27 14.60 13.46
23.06 17.48 23.98 21.21 26.92 24.20 22.08 21.56 22.29 21.69 18.87 20.00 17.56 17.56 18.63 23.52 16.89 14.32 12.39 15.20 16.84 17.10 18.51 20.96 19.22 18.35 17.59 17.32 17.77 17.33 19.44 20.24 17.99 16.12 17.41 20.98 19.66 18.50 17.24 16.92 17.54 19.54 21.13 18.51 16.85 16.43 16.28 16.47 16.27 15.44 14.66 14.27 12.64 11.90
14.07 16.88 19.58 20.69 21.04 21.41 21.80 18.76 19.09 19.06 18.56 16.85 17.04 19.82 22.73 18.67 13.66 11.35 13.51 16.26 16.37 16.92 17.56 18.44 18.94 17.35 15.66 16.28 14.99 14.64 15.76 19.44 19.21 15.14 15.54 17.20 16.76 19.45 18.36 16.61 14.95 15.26 19.60 19.94 18.17 16.28 15.22 14.77 14.14 12.78 12.03 11.84 11.70 11.33
14.61 15.33 18.97 23.92 23.68 22.76 20.47 20.89 21.39 18.53 15.93 15.25 17.44 17.26 17.41 11.47 9.82 12.66 16.60 17.96 17.15 18.23 19.16 19.60 18.52 17.28 16.35 16.53 17.37 17.98 18.06 17.42 16.46 15.91 17.03 17.06 16.95 16.72 16.37 14.58 13.17 16.76 19.23 18.59 18.08 16.83 15.04 13.89 12.79 12.20 11.29 11.85 12.05 11.96
17.71 18.49 12.82 16.88 17.57 19.71 14.66 15.59 14.99 13.91 14.77 18.04 17.80 11.49 10.50 11.60 11.32 16.75 17.04 18.81 19.72 19.40 18.86 19.00 18.67 17.58 16.31 16.58 17.27 17.21 17.71 19.04 17.80 18.14 17.08 16.40 16.81 17.32 17.61 16.97 16.22 16.54 15.93 17.04 17.48 17.31 15.98 14.83 13.35 12.80 12.52 11.74 11.67 12.97
17.29 18.56 15.70 10.42 14.62 14.62 14.67 14.92 14.05 14.54 16.20 19.39 15.88 12.12 11.59 16.34 18.17 17.32 18.74 19.57 21.64 20.96 18.40 17.53 18.19 19.72 18.65 17.24 16.17 15.72 16.08 15.50 15.14 12.76 12.54 12.08 11.28 12.25 15.85 16.20 16.96 17.25 16.06 14.48 15.21 16.28 15.85 15.45 14.98 13.88 12.52 11.60 11.97 12.39
16.92 22.08 15.14 12.98 10.94 9.61 14.06 17.56 15.76 17.96 18.28 17.20 16.03 14.66 14.03 15.28 19.03 21.60 20.42 19.79 17.75 16.59 17.10 17.02 17.09 16.71 14.92 15.36 12.64 11.80 12.32 12.48 12.69 12.08 10.88 9.13 9.78 12.73 13.37 13.75 14.26 14.76 15.24 14.09 12.42 11.34 12.79 11.88 12.53 11.23 10.26 10.34 10.71 9.77
22.56 21.37 16.44 14.67 11.79 14.07 16.66 19.69 21.02 20.84 20.60 18.67 19.73 14.72 12.06 13.28 15.78 17.64 17.30 18.46 18.66 19.11 18.33 14.73 12.81 13.56 12.07 10.56 11.46 12.16 8.70 10.36 10.15 10.43 11.81 12.42 12.19 11.37 11.17 11.65 12.55 14.19 14.19 13.47 12.89 12.28 11.50 12.01 12.11 10.80 10.16 9.17 5.49 7.09
20.84 16.87 14.25 10.42 11.60 16.66 19.84 20.53 18.75 17.57 17.74 16.46 14.98 15.99 16.33 16.26 12.52 14.71 15.67 16.86 18.32 14.81 12.21 14.53 11.84 10.09 11.92 11.95 11.10 9.97 8.48 9.33 8.30 7.54 6.76 9.09 10.72 10.67 11.54 11.77 12.54 12.29 11.47 11.35 11.27 10.68 9.99 10.14 10.51 10.30 9.88 8.72 8.23 6.96
18.82 18.21 16.60 14.79 13.12 14.99 16.47 18.82 16.37 15.39 17.05 15.26 14.56 15.74 14.45 14.82 10.54 13.17 16.25 17.25 16.36 15.03 13.43 12.96 12.04 10.42 9.41 9.87 10.62 9.82 8.31 6.87 4.25 6.24 4.99 4.14 1.77 3.73 8.43 10.21 10.83 10.28 9.77 10.09 9.83 9.41 8.42 7.68 8.11 7.39 7.24 4.67 4.80 4.95

GFSWCAN_sfc_wetblb_099.txt.gz
Wetbulb
42.08 41.42 41.06 41.51 41.47 41.50 40.95 41.77 42.32 42.40 42.50 43.16 43.18 43.50 43.82 43.99 44.44 42.42 38.84 40.31 37.23 32.12 32.09 34.76 34.97 31.83 32.75 32.13 29.11 31.99 30.13 32.76 32.71 29.28 26.56 26.23 23.80 29.91 31.12 33.41 31.10 27.52 26.59 25.36 27.89 23.74 22.90 42.17 41.33 36.36 40.33 41.28 41.64 42.54
42.04 41.60 41.46 41.16 41.26 41.33 40.88 41.48 41.86 42.07 42.65 43.25 43.51 44.10 43.80 43.84 44.15 44.07 37.42 41.53 42.03 35.34 33.40 38.21 38.73 39.45 38.14 37.11 33.77 34.22 33.36 32.77 34.23 31.00 28.97 30.41 26.71 31.02 31.19 27.53 35.06 29.12 32.73 30.58 31.03 29.78 39.20 42.87 42.80 44.61 43.75 41.89 41.25 41.96
41.28 40.90 40.31 40.46 41.09 41.55 40.69 41.33 41.77 42.22 43.01 43.33 43.83 43.46 43.73 44.01 44.35 43.91 40.63 41.35 39.79 35.07 33.51 32.75 31.90 37.72 41.51 40.96 40.45 33.47 35.77 36.74 33.63 34.03 34.65 33.50 29.33 33.26 28.48 30.25 32.58 36.85 39.93 34.87 34.69 38.14 40.02 41.99 44.10 44.86 45.01 44.13 44.35 43.69
40.39 39.97 39.91 40.90 41.06 41.13 41.18 42.06 42.69 42.94 43.36 43.41 43.73 44.08 44.25 44.07 44.33 44.50 40.92 42.37 39.85 36.25 25.61 29.23 40.02 37.44 41.06 40.91 40.13 40.16 39.23 39.26 38.23 38.04 33.81 31.94 29.94 36.68 32.95 32.25 32.14 36.50 38.81 36.74 37.01 39.39 40.29 42.52 43.77 44.40 44.47 45.27 44.49 43.74
38.82 39.82 40.23 40.76 41.16 41.72 42.14 42.53 42.76 43.09 43.57 44.00 44.23 44.11 44.19 44.26 44.80 44.34 43.87 43.25 42.77 35.71 27.98 31.48 38.24 40.34 41.59 40.77 38.75 38.61 39.57 37.81 35.89 33.77 32.12 30.03 34.16 35.34 35.65 35.22 33.38 38.21 37.35 35.42 34.05 40.76 40.03 40.79 43.89 45.69 44.69 43.06 42.94 42.42
39.24 40.10 40.67 41.15 41.74 42.05 42.44 42.80 43.18 43.44 43.58 43.98 44.54 44.17 44.46 44.82 44.49 41.28 33.82 42.14 43.66 41.44 33.72 28.20 36.77 37.65 39.58 39.88 38.98 37.10 37.28 36.86 35.17 34.00 33.37 32.99 37.35 34.01 28.17 28.77 38.33 40.00 41.04 40.54 39.09 42.94 42.16 43.76 44.39 43.98 42.42 41.59 41.54 40.08
40.59 41.06 41.56 41.99 42.19 42.36 42.66 43.05 43.35 43.76 44.06 44.18 44.35 44.61 44.84 45.12 43.34 36.70 36.11 39.84 43.32 42.90 32.18 29.54 27.96 37.18 40.17 38.83 37.17 36.55 37.75 35.57 34.96 35.81 32.43 31.42 32.18 35.61 31.24 27.16 37.29 40.40 41.28 42.57 44.11 43.65 41.54 42.22 40.19 42.40 43.11 42.48 41.34 38.63
41.37 41.84 41.79 42.23 42.88 43.26 43.82 44.38 44.63 44.48 44.75 44.74 44.39 44.57 44.89 45.11 43.11 38.72 43.13 44.97 44.01 36.17 35.36 28.10 25.58 30.59 40.56 33.52 30.97 36.95 34.10 36.32 36.88 35.47 34.71 31.36 33.86 32.60 28.06 35.28 38.41 40.16 41.69 39.98 40.72 41.17 40.51 41.17 41.21 40.32 40.74 40.67 40.03 36.85
41.01 41.14 41.97 42.47 43.51 44.77 45.09 44.97 45.35 45.59 45.43 45.01 44.62 45.01 43.47 38.56 35.21 38.24 44.78 44.81 43.86 38.38 31.15 30.27 25.48 26.03 37.38 33.38 36.54 36.78 37.70 30.83 36.61 32.14 32.83 32.64 30.60 27.15 34.58 35.19 35.48 35.84 35.66 35.94 38.31 37.60 37.35 36.77 36.40 36.70 37.08 37.29 36.45 37.19
42.10 42.43 43.89 44.61 44.66 44.39 44.74 45.18 45.33 45.59 45.50 44.74 41.26 33.97 29.94 35.22 44.74 43.40 40.41 36.28 35.84 36.47 37.01 30.29 33.86 28.30 36.11 34.29 32.36 32.92 34.05 31.29 28.17 30.53 35.71 32.21 30.15 34.26 33.78 33.74 33.97 33.97 34.09 34.51 32.20 31.62 32.31 31.83 32.19 32.94 33.34 33.39 33.03 33.23
44.32 44.21 44.09 44.11 44.47 44.47 44.92 45.25 45.63 45.40 44.26 38.54 33.07 33.46 39.46 44.61 39.10 35.10 30.29 30.61 31.59 29.52 32.57 32.63 33.85 32.45 37.54 31.91 31.57 33.52 30.96 31.77 25.95 29.78 30.57 29.35 28.27 29.85 31.08 30.40 31.63 30.94 31.04 31.25 31.53 31.22 30.67 30.22 29.08 30.46 31.04 30.80 29.73 29.05
43.53 44.15 44.43 44.35 44.41 44.81 45.21 45.56 45.14 41.04 39.46 39.90 40.05 41.91 40.78 36.31 32.70 29.52 28.53 30.63 29.98 26.04 30.32 28.63 30.44 34.61 36.10 39.53 33.04 32.96 30.57 31.21 26.66 34.38 30.17 25.88 25.24 27.49 27.69 27.53 28.22 28.44 28.39 28.15 28.89 28.00 27.72 26.64 26.21 27.93 27.40 26.43 25.60 24.88
44.42 45.11 45.37 44.98 44.63 45.19 45.37 44.35 43.36 44.06 43.55 41.60 38.52 34.81 33.40 31.07 26.04 25.99 23.49 23.82 22.44 28.61 31.04 30.47 31.58 33.38 33.49 37.19 31.98 31.02 28.34 25.86 34.22 30.49 22.71 22.24 25.25 26.08 25.82 26.20 25.85 26.90 26.92 26.44 26.10 25.70 25.30 24.55 23.52 23.37 23.22 23.96 23.32 22.03
44.70 44.98 45.34 44.77 44.62 44.85 44.23 44.06 44.46 43.78 41.03 34.99 30.83 27.31 27.73 23.42 27.66 25.63 27.83 29.23 30.82 31.96 30.18 30.80 29.48 32.36 32.92 31.79 31.73 27.08 28.23 31.12 25.60 21.83 17.12 21.70 23.79 24.35 25.00 25.42 24.30 23.80 25.59 24.77 23.41 21.98 21.83 21.57 19.75 19.26 19.38 19.76 19.81 18.88
42.62 43.70 44.63 44.55 44.15 43.79 44.25 43.50 40.58 38.75 33.83 29.16 29.04 22.47 23.74 27.01 27.96 28.74 30.79 30.57 29.64 32.14 32.12 29.74 31.40 31.99 30.87 29.38 30.67 29.12 26.41 23.77 20.28 16.26 20.81 22.42 24.01 24.08 24.68 23.94 19.58 22.08 23.18 23.05 19.20 15.21 14.60 15.78 15.59 14.32 16.33 16.76 16.61 15.28
40.86 40.99 40.87 42.03 41.86 41.75 41.80 40.32 37.83 36.12 30.43 26.33 24.36 25.16 27.42 26.20 25.05 26.38 27.69 27.28 29.36 29.34 32.07 33.84 29.77 30.28 28.28 26.24 27.43 21.19 23.76 17.15 17.33 20.98 22.22 23.17 22.05 23.36 22.65 18.96 18.81 16.40 16.43 15.47 17.93 15.17 14.67 14.05 13.92 14.09 15.23 15.49 14.80 15.09
40.89 36.97 41.45 41.35 41.23 41.47 41.33 36.54 33.13 28.69 27.05 24.21 21.21 24.70 26.10 24.48 23.23 23.86 26.52 26.23 29.76 28.97 31.23 30.78 27.07 25.07 31.12 23.16 19.17 21.53 13.23 19.75 21.88 22.04 21.96 18.67 16.23 14.46 19.93 17.54 20.37 18.06 15.55 14.82 12.29 14.30 14.90 13.73 13.87 13.77 11.73 13.39 14.11 13.98
36.65 39.35 40.85 41.60 40.60 39.36 36.83 34.95 28.55 25.61 21.97 24.01 20.25 20.82 18.26 20.86 20.16 23.28 26.32 27.46 27.70 28.27 27.89 24.36 26.82 19.38 13.01 16.54 13.83 19.35 22.56 22.58 22.20 18.75 15.31 15.84 16.62 14.15 18.98 20.32 19.93 17.92 13.73 13.27 15.61 14.39 15.10 13.65 13.37 12.52 12.82 13.27 12.62 11.97
38.65 39.14 40.91 40.91 39.82 35.89 29.92 30.05 28.95 21.48 23.04 23.58 25.48 25.04 23.33 22.69 23.88 24.15 23.94 26.99 27.74 26.10 25.36 22.04 16.08 14.11 12.73 15.21 15.71 17.84 19.65 20.73 21.23 21.53 13.48 11.78 12.92 15.77 17.68 16.15 16.78 16.85 17.49 17.81 17.86 17.17 17.56 16.94 17.05 16.59 15.06 13.76 11.46 11.25
40.85 41.20 41.28 41.24 40.93 32.43 28.34 27.88 30.99 24.31 20.48 20.89 23.44 21.62 21.96 23.04 24.26 21.88 20.97 21.89 21.92 20.48 15.93 12.61 11.62 13.81 15.51 17.66 19.49 20.82 20.82 23.10 22.25 21.04 18.59 14.87 20.00 15.52 15.71 15.21 14.54 14.41 17.39 18.44 18.62 17.94 16.14 15.71 16.89 16.35 15.32 13.73 11.77 10.63
40.58 39.39 41.66 39.83 34.98 33.96 29.72 26.86 25.90 25.41 26.01 23.88 25.77 23.97 21.12 21.23 18.69 16.84 16.72 19.95 15.43 14.62 13.40 15.22 15.94 17.19 20.18 20.19 21.06 21.88 21.46 22.78 20.11 20.73 20.25 16.80 16.63 19.18 21.78 21.88 19.08 18.58 17.01 16.07 14.84 14.73 14.48 13.47 14.22 14.67 13.45 12.31 12.46 12.22
37.21 40.27 37.12 37.30 31.05 30.12 28.15 29.91 26.63 27.74 24.88 23.55 23.89 24.63 19.34 14.69 14.02 16.00 18.94 13.81 13.28 15.04 17.21 16.18 17.32 19.14 17.86 17.84 19.15 20.62 21.63 21.86 21.21 20.95 20.67 21.07 18.67 17.86 18.36 16.90 17.11 16.76 16.68 16.04 15.97 14.52 13.87 14.08 13.83 13.15 12.16 12.17 13.41 13.14
38.40 36.78 32.44 31.30 25.19 23.52 24.97 33.10 26.33 27.91 21.41 21.76 24.20 19.88 18.91 18.06 20.39 22.08 13.57 15.61 16.21 19.31 19.81 20.32 19.85 20.96 18.91 18.83 19.10 18.31 21.02 20.66 19.64 20.46 19.51 18.83 18.44 18.00 17.32 18.31 17.77 15.50 14.61 15.43 16.64 16.18 15.45 16.28 15.26 13.51 13.09 12.66 12.17 11.48
32.52 25.82 21.90 21.16 23.06 19.92 24.21 21.58 26.58 24.16 22.24 21.28 18.18 13.66 14.93 17.80 20.57 14.55 10.73 13.47 16.40 20.01 19.39 18.39 20.97 18.98 18.56 17.43 15.20 15.08 17.06 19.96 17.08 15.76 18.39 17.62 15.82 16.29 17.55 17.02 17.19 17.43 17.24 17.21 16.69 15.68 15.32 14.50 14.94 14.28 13.49 12.28 11.32 10.62
16.43 12.86 17.23 13.37 21.81 16.40 13.63 13.92 16.46 17.43 14.28 14.21 13.29 13.19 15.31 21.22 12.31 9.94 9.77 13.49 13.32 13.69 15.86 18.58 15.63 14.93 14.16 13.27 13.45 13.82 15.36 17.42 14.54 12.80 15.09 16.35 16.64 15.67 15.11 15.53 15.63 18.08 18.80 15.50 14.25 13.68 13.54 14.05 13.48 12.72 12.54 11.50 11.09 10.19
7.09 10.73 12.71 15.77 14.73 15.65 17.15 11.47 10.39 10.70 10.57 9.12 9.37 15.07 17.34 8.38 3.67 4.73 11.48 10.93 7.82 10.63 9.28 13.74 15.29 11.33 10.53 10.86 9.94 11.07 11.93 16.10 14.93 12.30 13.37 14.47 14.12 16.13 14.70 13.07 12.00 13.48 17.78 16.14 13.09 11.58 12.08 11.71 11.03 10.22 9.05 9.58 9.79 8.74
5.48 7.42 17.28 22.86 22.13 20.57 13.33 14.03 16.92 10.58 7.12 6.09 8.66 10.84 6.19 -0.98 -0.08 9.19 12.51 15.02 12.04 12.69 14.07 13.24 14.77 14.03 13.28 13.87 15.57 15.07 13.26 13.74 12.20 13.81 15.42 15.46 15.06 14.45 12.96 9.92 9.00 12.76 16.86 16.05 14.43 12.58 11.11 9.99 9.07 8.58 7.45 7.56 7.99 7.32
13.71 15.07 4.51 10.86 12.44 16.24 5.45 6.34 4.91 3.56 6.37 13.93 10.57 0.68 -0.26 2.68 5.31 12.04 11.07 14.38 14.31 14.45 13.57 13.42 12.84 12.74 11.96 11.65 11.70 11.83 11.06 14.93 12.03 12.14 12.56 12.76 13.55 14.45 14.94 13.26 13.09 16.02 13.16 14.08 13.38 11.39 10.83 9.77 8.19 6.76 6.90 5.64 4.56 5.35
10.47 14.33 11.42 2.18 6.56 8.81 9.71 5.91 5.73 10.05 13.28 14.87 2.56 1.93 5.32 13.43 11.65 13.17 12.83 15.86 20.80 18.98 14.96 13.77 16.27 15.32 10.97 8.09 6.32 7.46 7.87 7.73 5.38 6.13 4.72 2.41 1.38 8.41 10.71 11.67 12.67 13.87 9.78 9.86 13.58 14.29 12.81 11.67 10.60 7.48 5.06 5.57 5.43 4.85
10.56 17.50 7.54 3.26 1.18 4.39 12.38 10.61 8.48 8.17 12.50 10.68 12.41 12.76 11.96 11.91 16.37 18.85 17.48 14.31 9.12 5.75 4.66 4.08 5.75 5.52 7.85 5.37 -0.81 -0.71 1.30 0.29 4.64 4.46 -1.00 -1.89 0.98 1.13 3.66 7.83 9.66 8.32 6.69 4.63 3.88 4.37 10.56 4.84 6.68 2.01 0.99 -0.19 -1.12 -2.34
19.29 14.88 8.35 7.84 6.25 12.64 15.10 16.59 16.43 15.74 13.76 11.12 8.86 6.24 5.27 5.82 6.33 7.55 11.09 14.62 13.74 17.05 8.91 0.80 1.16 -0.91 -1.49 -2.65 -0.12 -1.54 -4.43 -1.24 -1.38 0.21 3.99 1.30 -2.11 -2.47 -2.36 -1.53 0.26 5.46 5.80 7.05 5.65 -0.98 0.19 4.23 2.58 -2.93 0.59 -3.24 -4.98 -5.52
13.44 7.85 4.67 3.46 9.14 15.70 18.80 12.77 8.69 7.76 6.86 3.88 1.93 4.32 6.01 6.12 3.34 6.35 6.03 11.05 11.09 5.48 8.00 2.01 -1.79 -0.98 -1.54 -1.56 -3.71 -2.56 -2.99 -6.42 -4.97 -6.42 -7.69 -7.34 -8.06 -5.15 2.60 4.26 2.25 -3.01 -3.10 -3.23 -3.58 -4.83 -5.85 -3.60 -0.43 2.06 -0.40 -3.23 -5.66 -9.56
12.80 11.29 9.14 7.32 5.25 6.17 11.16 8.30 7.93 6.17 6.15 4.34 4.42 5.47 3.66 3.56 0.06 3.68 6.29 12.05 10.32 3.37 3.39 -0.51 -2.84 -3.34 -3.18 -2.24 -2.82 -4.83 -4.98 -8.45 -6.42 1.37 -2.07 -2.98 -7.15 -6.42 -8.81 -8.61 -5.08 -1.35 -2.82 -1.93 -3.30 -3.71 -4.62 -5.18 -6.75 -9.51 -11.05 -11.66 -12.83 -13.15